<?xml version="1.0" encoding="UTF-8" standalone="no" ?>
<gpx xmlns="http://www.topografix.com/GPX/1/1" xmlns:xsi="http://www.w3.org/2001/XMLSchema-instance" xsi:schemaLocation="http://www.topografix.com/GPX/1/1 http://www.topografix.com/GPX/1/1/gpx.xsd" version="1.1" creator="VisuGPX - https://www.visugpx.com">
  <metadata>
    <name>Sommières Aigues Mortes</name>
    <desc><![CDATA[Randonnée militante AF3V Pour la véloroute V85
Vallée du Tarn Causse du Larzac Sud Cévennes Méditerranée
Pour VTC ou VTT]]></desc>
  </metadata>
  <trk>
    <name><![CDATA[Sommières Aigues Mortes13-JUIL-15]]></name>
    <trkseg>
      <trkpt lat="43.78212" lon="4.08749">
        <ele>24.65</ele>
        <time>2015-07-13T06:24:46Z</time>
      </trkpt>
      <trkpt lat="43.78212" lon="4.0875">
        <ele>24.65</ele>
        <time>2015-07-13T06:24:48Z</time>
      </trkpt>
      <trkpt lat="43.78212" lon="4.0875">
        <ele>24.65</ele>
        <time>2015-07-13T06:25:07Z</time>
      </trkpt>
      <trkpt lat="43.78212" lon="4.0875">
        <ele>24.65</ele>
        <time>2015-07-13T06:25:27Z</time>
      </trkpt>
      <trkpt lat="43.78212" lon="4.0875">
        <ele>24.65</ele>
        <time>2015-07-13T06:25:47Z</time>
      </trkpt>
      <trkpt lat="43.78213" lon="4.0875">
        <ele>24.65</ele>
        <time>2015-07-13T06:26:08Z</time>
      </trkpt>
      <trkpt lat="43.78214" lon="4.0875">
        <ele>24.65</ele>
        <time>2015-07-13T06:26:26Z</time>
      </trkpt>
      <trkpt lat="43.78217" lon="4.08744">
        <ele>25.13</ele>
        <time>2015-07-13T06:26:36Z</time>
      </trkpt>
      <trkpt lat="43.78217" lon="4.08743">
        <ele>24.65</ele>
        <time>2015-07-13T06:26:54Z</time>
      </trkpt>
      <trkpt lat="43.78218" lon="4.08743">
        <ele>24.65</ele>
        <time>2015-07-13T06:27:06Z</time>
      </trkpt>
      <trkpt lat="43.78217" lon="4.08737">
        <ele>24.65</ele>
        <time>2015-07-13T06:27:18Z</time>
      </trkpt>
      <trkpt lat="43.78217" lon="4.08736">
        <ele>25.13</ele>
        <time>2015-07-13T06:27:35Z</time>
      </trkpt>
      <trkpt lat="43.78217" lon="4.08735">
        <ele>25.13</ele>
        <time>2015-07-13T06:27:54Z</time>
      </trkpt>
      <trkpt lat="43.78217" lon="4.08733">
        <ele>24.65</ele>
        <time>2015-07-13T06:28:01Z</time>
      </trkpt>
      <trkpt lat="43.7822" lon="4.08728">
        <ele>24.65</ele>
        <time>2015-07-13T06:28:04Z</time>
      </trkpt>
      <trkpt lat="43.7822" lon="4.08725">
        <ele>24.65</ele>
        <time>2015-07-13T06:28:10Z</time>
      </trkpt>
      <trkpt lat="43.78216" lon="4.08722">
        <ele>24.65</ele>
        <time>2015-07-13T06:28:18Z</time>
      </trkpt>
      <trkpt lat="43.78214" lon="4.08715">
        <ele>24.65</ele>
        <time>2015-07-13T06:28:25Z</time>
      </trkpt>
      <trkpt lat="43.78214" lon="4.08714">
        <ele>24.65</ele>
        <time>2015-07-13T06:28:26Z</time>
      </trkpt>
      <trkpt lat="43.78215" lon="4.08712">
        <ele>24.65</ele>
        <time>2015-07-13T06:28:27Z</time>
      </trkpt>
      <trkpt lat="43.78216" lon="4.0871">
        <ele>24.17</ele>
        <time>2015-07-13T06:28:28Z</time>
      </trkpt>
      <trkpt lat="43.78217" lon="4.08709">
        <ele>24.65</ele>
        <time>2015-07-13T06:28:29Z</time>
      </trkpt>
      <trkpt lat="43.78217" lon="4.08706">
        <ele>24.65</ele>
        <time>2015-07-13T06:28:30Z</time>
      </trkpt>
      <trkpt lat="43.78218" lon="4.08703">
        <ele>24.65</ele>
        <time>2015-07-13T06:28:31Z</time>
      </trkpt>
      <trkpt lat="43.78217" lon="4.08694">
        <ele>24.65</ele>
        <time>2015-07-13T06:28:34Z</time>
      </trkpt>
      <trkpt lat="43.78216" lon="4.08691">
        <ele>24.17</ele>
        <time>2015-07-13T06:28:35Z</time>
      </trkpt>
      <trkpt lat="43.78214" lon="4.08689">
        <ele>24.65</ele>
        <time>2015-07-13T06:28:36Z</time>
      </trkpt>
      <trkpt lat="43.78195" lon="4.08673">
        <ele>24.65</ele>
        <time>2015-07-13T06:28:46Z</time>
      </trkpt>
      <trkpt lat="43.78194" lon="4.08673">
        <ele>24.65</ele>
        <time>2015-07-13T06:28:47Z</time>
      </trkpt>
      <trkpt lat="43.78192" lon="4.08672">
        <ele>24.65</ele>
        <time>2015-07-13T06:28:52Z</time>
      </trkpt>
      <trkpt lat="43.78191" lon="4.0867">
        <ele>24.65</ele>
        <time>2015-07-13T06:28:53Z</time>
      </trkpt>
      <trkpt lat="43.7819" lon="4.08668">
        <ele>24.65</ele>
        <time>2015-07-13T06:28:54Z</time>
      </trkpt>
      <trkpt lat="43.78191" lon="4.08665">
        <ele>24.17</ele>
        <time>2015-07-13T06:28:55Z</time>
      </trkpt>
      <trkpt lat="43.78192" lon="4.08662">
        <ele>24.17</ele>
        <time>2015-07-13T06:28:56Z</time>
      </trkpt>
      <trkpt lat="43.78193" lon="4.08659">
        <ele>24.65</ele>
        <time>2015-07-13T06:28:57Z</time>
      </trkpt>
      <trkpt lat="43.78194" lon="4.08655">
        <ele>24.65</ele>
        <time>2015-07-13T06:28:58Z</time>
      </trkpt>
      <trkpt lat="43.78194" lon="4.08651">
        <ele>24.65</ele>
        <time>2015-07-13T06:28:59Z</time>
      </trkpt>
      <trkpt lat="43.78194" lon="4.08648">
        <ele>24.65</ele>
        <time>2015-07-13T06:29:00Z</time>
      </trkpt>
      <trkpt lat="43.78193" lon="4.08644">
        <ele>25.13</ele>
        <time>2015-07-13T06:29:01Z</time>
      </trkpt>
      <trkpt lat="43.78191" lon="4.08641">
        <ele>24.65</ele>
        <time>2015-07-13T06:29:02Z</time>
      </trkpt>
      <trkpt lat="43.78189" lon="4.08638">
        <ele>25.13</ele>
        <time>2015-07-13T06:29:03Z</time>
      </trkpt>
      <trkpt lat="43.78187" lon="4.08636">
        <ele>25.13</ele>
        <time>2015-07-13T06:29:04Z</time>
      </trkpt>
      <trkpt lat="43.78184" lon="4.08634">
        <ele>25.13</ele>
        <time>2015-07-13T06:29:05Z</time>
      </trkpt>
      <trkpt lat="43.78182" lon="4.08633">
        <ele>25.13</ele>
        <time>2015-07-13T06:29:06Z</time>
      </trkpt>
      <trkpt lat="43.78179" lon="4.08632">
        <ele>25.13</ele>
        <time>2015-07-13T06:29:07Z</time>
      </trkpt>
      <trkpt lat="43.78146" lon="4.08615">
        <ele>24.65</ele>
        <time>2015-07-13T06:29:19Z</time>
      </trkpt>
      <trkpt lat="43.78135" lon="4.08582">
        <ele>25.13</ele>
        <time>2015-07-13T06:29:28Z</time>
      </trkpt>
      <trkpt lat="43.7813" lon="4.08552">
        <ele>25.13</ele>
        <time>2015-07-13T06:29:37Z</time>
      </trkpt>
      <trkpt lat="43.78129" lon="4.08551">
        <ele>25.61</ele>
        <time>2015-07-13T06:29:38Z</time>
      </trkpt>
      <trkpt lat="43.78127" lon="4.0855">
        <ele>25.13</ele>
        <time>2015-07-13T06:29:39Z</time>
      </trkpt>
      <trkpt lat="43.78126" lon="4.0855">
        <ele>25.13</ele>
        <time>2015-07-13T06:29:40Z</time>
      </trkpt>
      <trkpt lat="43.78125" lon="4.0855">
        <ele>25.61</ele>
        <time>2015-07-13T06:29:50Z</time>
      </trkpt>
      <trkpt lat="43.78121" lon="4.08551">
        <ele>25.61</ele>
        <time>2015-07-13T06:30:02Z</time>
      </trkpt>
      <trkpt lat="43.78119" lon="4.0855">
        <ele>25.61</ele>
        <time>2015-07-13T06:30:03Z</time>
      </trkpt>
      <trkpt lat="43.78118" lon="4.0855">
        <ele>25.61</ele>
        <time>2015-07-13T06:30:04Z</time>
      </trkpt>
      <trkpt lat="43.78117" lon="4.08549">
        <ele>25.61</ele>
        <time>2015-07-13T06:30:05Z</time>
      </trkpt>
      <trkpt lat="43.78116" lon="4.08548">
        <ele>26.09</ele>
        <time>2015-07-13T06:30:06Z</time>
      </trkpt>
      <trkpt lat="43.78114" lon="4.08547">
        <ele>25.61</ele>
        <time>2015-07-13T06:30:07Z</time>
      </trkpt>
      <trkpt lat="43.78107" lon="4.08541">
        <ele>25.61</ele>
        <time>2015-07-13T06:30:11Z</time>
      </trkpt>
      <trkpt lat="43.78105" lon="4.08539">
        <ele>26.57</ele>
        <time>2015-07-13T06:30:12Z</time>
      </trkpt>
      <trkpt lat="43.78103" lon="4.08537">
        <ele>26.09</ele>
        <time>2015-07-13T06:30:13Z</time>
      </trkpt>
      <trkpt lat="43.78101" lon="4.08535">
        <ele>26.09</ele>
        <time>2015-07-13T06:30:14Z</time>
      </trkpt>
      <trkpt lat="43.78099" lon="4.08532">
        <ele>26.09</ele>
        <time>2015-07-13T06:30:15Z</time>
      </trkpt>
      <trkpt lat="43.78092" lon="4.08527">
        <ele>26.09</ele>
        <time>2015-07-13T06:30:18Z</time>
      </trkpt>
      <trkpt lat="43.7809" lon="4.08525">
        <ele>26.09</ele>
        <time>2015-07-13T06:30:19Z</time>
      </trkpt>
      <trkpt lat="43.78062" lon="4.08498">
        <ele>26.09</ele>
        <time>2015-07-13T06:30:31Z</time>
      </trkpt>
      <trkpt lat="43.78044" lon="4.0848">
        <ele>26.09</ele>
        <time>2015-07-13T06:30:42Z</time>
      </trkpt>
      <trkpt lat="43.78026" lon="4.08464">
        <ele>26.09</ele>
        <time>2015-07-13T06:30:50Z</time>
      </trkpt>
      <trkpt lat="43.77986" lon="4.08434">
        <ele>26.09</ele>
        <time>2015-07-13T06:31:04Z</time>
      </trkpt>
      <trkpt lat="43.77949" lon="4.08411">
        <ele>26.57</ele>
        <time>2015-07-13T06:31:15Z</time>
      </trkpt>
      <trkpt lat="43.77915" lon="4.08378">
        <ele>26.09</ele>
        <time>2015-07-13T06:31:27Z</time>
      </trkpt>
      <trkpt lat="43.77894" lon="4.08352">
        <ele>26.57</ele>
        <time>2015-07-13T06:31:34Z</time>
      </trkpt>
      <trkpt lat="43.77861" lon="4.08314">
        <ele>27.05</ele>
        <time>2015-07-13T06:31:47Z</time>
      </trkpt>
      <trkpt lat="43.77824" lon="4.08273">
        <ele>27.05</ele>
        <time>2015-07-13T06:32:00Z</time>
      </trkpt>
      <trkpt lat="43.77802" lon="4.08239">
        <ele>26.57</ele>
        <time>2015-07-13T06:32:09Z</time>
      </trkpt>
      <trkpt lat="43.7776" lon="4.08222">
        <ele>27.05</ele>
        <time>2015-07-13T06:32:21Z</time>
      </trkpt>
      <trkpt lat="43.77707" lon="4.08205">
        <ele>26.09</ele>
        <time>2015-07-13T06:32:34Z</time>
      </trkpt>
      <trkpt lat="43.77639" lon="4.08173">
        <ele>26.57</ele>
        <time>2015-07-13T06:32:50Z</time>
      </trkpt>
      <trkpt lat="43.77616" lon="4.08153">
        <ele>26.57</ele>
        <time>2015-07-13T06:32:56Z</time>
      </trkpt>
      <trkpt lat="43.77575" lon="4.08104">
        <ele>26.57</ele>
        <time>2015-07-13T06:33:08Z</time>
      </trkpt>
      <trkpt lat="43.77567" lon="4.08099">
        <ele>26.09</ele>
        <time>2015-07-13T06:33:10Z</time>
      </trkpt>
      <trkpt lat="43.77536" lon="4.08089">
        <ele>26.57</ele>
        <time>2015-07-13T06:33:17Z</time>
      </trkpt>
      <trkpt lat="43.77532" lon="4.08087">
        <ele>26.09</ele>
        <time>2015-07-13T06:33:18Z</time>
      </trkpt>
      <trkpt lat="43.77528" lon="4.08086">
        <ele>26.57</ele>
        <time>2015-07-13T06:33:19Z</time>
      </trkpt>
      <trkpt lat="43.7752" lon="4.08084">
        <ele>26.57</ele>
        <time>2015-07-13T06:33:21Z</time>
      </trkpt>
      <trkpt lat="43.775" lon="4.08075">
        <ele>26.09</ele>
        <time>2015-07-13T06:33:26Z</time>
      </trkpt>
      <trkpt lat="43.77471" lon="4.08078">
        <ele>26.09</ele>
        <time>2015-07-13T06:33:33Z</time>
      </trkpt>
      <trkpt lat="43.77467" lon="4.0808">
        <ele>26.57</ele>
        <time>2015-07-13T06:33:34Z</time>
      </trkpt>
      <trkpt lat="43.7746" lon="4.08085">
        <ele>26.09</ele>
        <time>2015-07-13T06:33:36Z</time>
      </trkpt>
      <trkpt lat="43.77456" lon="4.08088">
        <ele>26.09</ele>
        <time>2015-07-13T06:33:37Z</time>
      </trkpt>
      <trkpt lat="43.7744" lon="4.08103">
        <ele>26.09</ele>
        <time>2015-07-13T06:33:42Z</time>
      </trkpt>
      <trkpt lat="43.77437" lon="4.08106">
        <ele>26.09</ele>
        <time>2015-07-13T06:33:43Z</time>
      </trkpt>
      <trkpt lat="43.77414" lon="4.08132">
        <ele>25.61</ele>
        <time>2015-07-13T06:33:50Z</time>
      </trkpt>
      <trkpt lat="43.77363" lon="4.08184">
        <ele>25.61</ele>
        <time>2015-07-13T06:34:05Z</time>
      </trkpt>
      <trkpt lat="43.77309" lon="4.0822">
        <ele>25.61</ele>
        <time>2015-07-13T06:34:20Z</time>
      </trkpt>
      <trkpt lat="43.77253" lon="4.08248">
        <ele>25.13</ele>
        <time>2015-07-13T06:34:34Z</time>
      </trkpt>
      <trkpt lat="43.77196" lon="4.08255">
        <ele>25.61</ele>
        <time>2015-07-13T06:34:48Z</time>
      </trkpt>
      <trkpt lat="43.7714" lon="4.08261">
        <ele>25.61</ele>
        <time>2015-07-13T06:35:02Z</time>
      </trkpt>
      <trkpt lat="43.77089" lon="4.08284">
        <ele>25.61</ele>
        <time>2015-07-13T06:35:15Z</time>
      </trkpt>
      <trkpt lat="43.77052" lon="4.08305">
        <ele>25.13</ele>
        <time>2015-07-13T06:35:25Z</time>
      </trkpt>
      <trkpt lat="43.77028" lon="4.08313">
        <ele>24.65</ele>
        <time>2015-07-13T06:35:33Z</time>
      </trkpt>
      <trkpt lat="43.77027" lon="4.08312">
        <ele>25.13</ele>
        <time>2015-07-13T06:35:34Z</time>
      </trkpt>
      <trkpt lat="43.77026" lon="4.08313">
        <ele>25.13</ele>
        <time>2015-07-13T06:35:42Z</time>
      </trkpt>
      <trkpt lat="43.77024" lon="4.08312">
        <ele>25.13</ele>
        <time>2015-07-13T06:36:06Z</time>
      </trkpt>
      <trkpt lat="43.77024" lon="4.08311">
        <ele>25.13</ele>
        <time>2015-07-13T06:36:25Z</time>
      </trkpt>
      <trkpt lat="43.77025" lon="4.0831">
        <ele>25.13</ele>
        <time>2015-07-13T06:36:48Z</time>
      </trkpt>
      <trkpt lat="43.77025" lon="4.08311">
        <ele>25.13</ele>
        <time>2015-07-13T06:37:09Z</time>
      </trkpt>
      <trkpt lat="43.77025" lon="4.08312">
        <ele>25.13</ele>
        <time>2015-07-13T06:37:23Z</time>
      </trkpt>
      <trkpt lat="43.77024" lon="4.08312">
        <ele>25.61</ele>
        <time>2015-07-13T06:37:37Z</time>
      </trkpt>
      <trkpt lat="43.77025" lon="4.08309">
        <ele>25.13</ele>
        <time>2015-07-13T06:37:41Z</time>
      </trkpt>
      <trkpt lat="43.77024" lon="4.0828">
        <ele>25.61</ele>
        <time>2015-07-13T06:37:49Z</time>
      </trkpt>
      <trkpt lat="43.7702" lon="4.08232">
        <ele>26.09</ele>
        <time>2015-07-13T06:37:59Z</time>
      </trkpt>
      <trkpt lat="43.77011" lon="4.08168">
        <ele>26.09</ele>
        <time>2015-07-13T06:38:11Z</time>
      </trkpt>
      <trkpt lat="43.77008" lon="4.08125">
        <ele>27.05</ele>
        <time>2015-07-13T06:38:19Z</time>
      </trkpt>
      <trkpt lat="43.77" lon="4.0808">
        <ele>26.57</ele>
        <time>2015-07-13T06:38:28Z</time>
      </trkpt>
      <trkpt lat="43.76991" lon="4.08014">
        <ele>27.05</ele>
        <time>2015-07-13T06:38:39Z</time>
      </trkpt>
      <trkpt lat="43.76982" lon="4.07954">
        <ele>27.53</ele>
        <time>2015-07-13T06:38:50Z</time>
      </trkpt>
      <trkpt lat="43.76976" lon="4.07902">
        <ele>27.53</ele>
        <time>2015-07-13T06:38:59Z</time>
      </trkpt>
      <trkpt lat="43.76963" lon="4.07814">
        <ele>28.5</ele>
        <time>2015-07-13T06:39:16Z</time>
      </trkpt>
      <trkpt lat="43.76955" lon="4.07752">
        <ele>29.94</ele>
        <time>2015-07-13T06:39:30Z</time>
      </trkpt>
      <trkpt lat="43.76955" lon="4.07749">
        <ele>30.42</ele>
        <time>2015-07-13T06:39:31Z</time>
      </trkpt>
      <trkpt lat="43.76956" lon="4.07718">
        <ele>32.34</ele>
        <time>2015-07-13T06:39:42Z</time>
      </trkpt>
      <trkpt lat="43.76951" lon="4.07688">
        <ele>33.78</ele>
        <time>2015-07-13T06:39:52Z</time>
      </trkpt>
      <trkpt lat="43.76943" lon="4.07646">
        <ele>34.74</ele>
        <time>2015-07-13T06:40:02Z</time>
      </trkpt>
      <trkpt lat="43.7694" lon="4.07606">
        <ele>35.23</ele>
        <time>2015-07-13T06:40:13Z</time>
      </trkpt>
      <trkpt lat="43.76936" lon="4.07569">
        <ele>36.67</ele>
        <time>2015-07-13T06:40:25Z</time>
      </trkpt>
      <trkpt lat="43.76929" lon="4.07536">
        <ele>37.15</ele>
        <time>2015-07-13T06:40:34Z</time>
      </trkpt>
      <trkpt lat="43.76913" lon="4.07493">
        <ele>39.07</ele>
        <time>2015-07-13T06:40:47Z</time>
      </trkpt>
      <trkpt lat="43.76893" lon="4.07474">
        <ele>39.07</ele>
        <time>2015-07-13T06:40:57Z</time>
      </trkpt>
      <trkpt lat="43.76865" lon="4.07464">
        <ele>39.07</ele>
        <time>2015-07-13T06:41:06Z</time>
      </trkpt>
      <trkpt lat="43.76841" lon="4.07444">
        <ele>39.07</ele>
        <time>2015-07-13T06:41:13Z</time>
      </trkpt>
      <trkpt lat="43.76824" lon="4.07437">
        <ele>38.11</ele>
        <time>2015-07-13T06:41:17Z</time>
      </trkpt>
      <trkpt lat="43.7682" lon="4.07438">
        <ele>38.11</ele>
        <time>2015-07-13T06:41:18Z</time>
      </trkpt>
      <trkpt lat="43.76816" lon="4.0744">
        <ele>38.11</ele>
        <time>2015-07-13T06:41:19Z</time>
      </trkpt>
      <trkpt lat="43.76803" lon="4.07445">
        <ele>38.11</ele>
        <time>2015-07-13T06:41:22Z</time>
      </trkpt>
      <trkpt lat="43.76766" lon="4.07459">
        <ele>37.63</ele>
        <time>2015-07-13T06:41:31Z</time>
      </trkpt>
      <trkpt lat="43.76725" lon="4.07473">
        <ele>37.63</ele>
        <time>2015-07-13T06:41:41Z</time>
      </trkpt>
      <trkpt lat="43.76691" lon="4.07484">
        <ele>38.11</ele>
        <time>2015-07-13T06:41:51Z</time>
      </trkpt>
      <trkpt lat="43.76641" lon="4.07499">
        <ele>37.63</ele>
        <time>2015-07-13T06:42:03Z</time>
      </trkpt>
      <trkpt lat="43.76592" lon="4.07518">
        <ele>37.63</ele>
        <time>2015-07-13T06:42:15Z</time>
      </trkpt>
      <trkpt lat="43.76551" lon="4.07551">
        <ele>36.67</ele>
        <time>2015-07-13T06:42:26Z</time>
      </trkpt>
      <trkpt lat="43.76511" lon="4.0758">
        <ele>36.67</ele>
        <time>2015-07-13T06:42:35Z</time>
      </trkpt>
      <trkpt lat="43.76507" lon="4.07585">
        <ele>36.19</ele>
        <time>2015-07-13T06:42:36Z</time>
      </trkpt>
      <trkpt lat="43.76462" lon="4.07648">
        <ele>35.71</ele>
        <time>2015-07-13T06:42:48Z</time>
      </trkpt>
      <trkpt lat="43.76449" lon="4.07664">
        <ele>35.71</ele>
        <time>2015-07-13T06:42:52Z</time>
      </trkpt>
      <trkpt lat="43.76432" lon="4.07689">
        <ele>34.74</ele>
        <time>2015-07-13T06:43:01Z</time>
      </trkpt>
      <trkpt lat="43.76431" lon="4.07691">
        <ele>35.23</ele>
        <time>2015-07-13T06:43:02Z</time>
      </trkpt>
      <trkpt lat="43.7643" lon="4.07693">
        <ele>35.23</ele>
        <time>2015-07-13T06:43:03Z</time>
      </trkpt>
      <trkpt lat="43.7643" lon="4.07694">
        <ele>34.74</ele>
        <time>2015-07-13T06:43:04Z</time>
      </trkpt>
      <trkpt lat="43.76429" lon="4.07696">
        <ele>34.74</ele>
        <time>2015-07-13T06:43:05Z</time>
      </trkpt>
      <trkpt lat="43.76428" lon="4.07697">
        <ele>35.23</ele>
        <time>2015-07-13T06:43:06Z</time>
      </trkpt>
      <trkpt lat="43.76427" lon="4.077">
        <ele>35.23</ele>
        <time>2015-07-13T06:43:17Z</time>
      </trkpt>
      <trkpt lat="43.76427" lon="4.077">
        <ele>35.23</ele>
        <time>2015-07-13T06:43:32Z</time>
      </trkpt>
      <trkpt lat="43.76426" lon="4.07699">
        <ele>35.23</ele>
        <time>2015-07-13T06:43:55Z</time>
      </trkpt>
      <trkpt lat="43.76421" lon="4.07707">
        <ele>34.26</ele>
        <time>2015-07-13T06:44:09Z</time>
      </trkpt>
      <trkpt lat="43.76407" lon="4.07725">
        <ele>34.26</ele>
        <time>2015-07-13T06:44:17Z</time>
      </trkpt>
      <trkpt lat="43.76382" lon="4.07761">
        <ele>33.3</ele>
        <time>2015-07-13T06:44:25Z</time>
      </trkpt>
      <trkpt lat="43.76379" lon="4.07768">
        <ele>32.82</ele>
        <time>2015-07-13T06:44:26Z</time>
      </trkpt>
      <trkpt lat="43.76376" lon="4.07775">
        <ele>32.82</ele>
        <time>2015-07-13T06:44:27Z</time>
      </trkpt>
      <trkpt lat="43.76373" lon="4.07783">
        <ele>32.34</ele>
        <time>2015-07-13T06:44:28Z</time>
      </trkpt>
      <trkpt lat="43.76371" lon="4.07792">
        <ele>32.34</ele>
        <time>2015-07-13T06:44:29Z</time>
      </trkpt>
      <trkpt lat="43.76364" lon="4.07816">
        <ele>31.38</ele>
        <time>2015-07-13T06:44:32Z</time>
      </trkpt>
      <trkpt lat="43.7636" lon="4.07823">
        <ele>31.86</ele>
        <time>2015-07-13T06:44:33Z</time>
      </trkpt>
      <trkpt lat="43.76356" lon="4.07829">
        <ele>31.38</ele>
        <time>2015-07-13T06:44:34Z</time>
      </trkpt>
      <trkpt lat="43.76351" lon="4.07834">
        <ele>31.86</ele>
        <time>2015-07-13T06:44:35Z</time>
      </trkpt>
      <trkpt lat="43.76347" lon="4.07839">
        <ele>31.38</ele>
        <time>2015-07-13T06:44:36Z</time>
      </trkpt>
      <trkpt lat="43.76314" lon="4.07886">
        <ele>31.86</ele>
        <time>2015-07-13T06:44:46Z</time>
      </trkpt>
      <trkpt lat="43.76295" lon="4.07927">
        <ele>31.38</ele>
        <time>2015-07-13T06:44:55Z</time>
      </trkpt>
      <trkpt lat="43.76293" lon="4.07932">
        <ele>31.38</ele>
        <time>2015-07-13T06:44:56Z</time>
      </trkpt>
      <trkpt lat="43.76273" lon="4.07976">
        <ele>30.42</ele>
        <time>2015-07-13T06:45:04Z</time>
      </trkpt>
      <trkpt lat="43.7627" lon="4.07982">
        <ele>29.46</ele>
        <time>2015-07-13T06:45:05Z</time>
      </trkpt>
      <trkpt lat="43.76246" lon="4.08045">
        <ele>28.5</ele>
        <time>2015-07-13T06:45:16Z</time>
      </trkpt>
      <trkpt lat="43.76228" lon="4.08101">
        <ele>28.02</ele>
        <time>2015-07-13T06:45:28Z</time>
      </trkpt>
      <trkpt lat="43.76218" lon="4.08132">
        <ele>28.98</ele>
        <time>2015-07-13T06:45:37Z</time>
      </trkpt>
      <trkpt lat="43.76213" lon="4.08135">
        <ele>28.98</ele>
        <time>2015-07-13T06:45:40Z</time>
      </trkpt>
      <trkpt lat="43.76179" lon="4.08129">
        <ele>29.94</ele>
        <time>2015-07-13T06:45:51Z</time>
      </trkpt>
      <trkpt lat="43.76136" lon="4.08116">
        <ele>29.46</ele>
        <time>2015-07-13T06:46:04Z</time>
      </trkpt>
      <trkpt lat="43.76106" lon="4.08117">
        <ele>28.98</ele>
        <time>2015-07-13T06:46:12Z</time>
      </trkpt>
      <trkpt lat="43.76104" lon="4.08121">
        <ele>28.98</ele>
        <time>2015-07-13T06:46:13Z</time>
      </trkpt>
      <trkpt lat="43.76102" lon="4.08125">
        <ele>28.98</ele>
        <time>2015-07-13T06:46:14Z</time>
      </trkpt>
      <trkpt lat="43.76101" lon="4.08129">
        <ele>29.46</ele>
        <time>2015-07-13T06:46:15Z</time>
      </trkpt>
      <trkpt lat="43.76099" lon="4.08133">
        <ele>29.46</ele>
        <time>2015-07-13T06:46:16Z</time>
      </trkpt>
      <trkpt lat="43.76097" lon="4.08137">
        <ele>29.46</ele>
        <time>2015-07-13T06:46:17Z</time>
      </trkpt>
      <trkpt lat="43.76095" lon="4.08141">
        <ele>28.98</ele>
        <time>2015-07-13T06:46:18Z</time>
      </trkpt>
      <trkpt lat="43.76092" lon="4.08144">
        <ele>29.94</ele>
        <time>2015-07-13T06:46:19Z</time>
      </trkpt>
      <trkpt lat="43.7609" lon="4.08147">
        <ele>29.94</ele>
        <time>2015-07-13T06:46:20Z</time>
      </trkpt>
      <trkpt lat="43.76063" lon="4.08168">
        <ele>30.9</ele>
        <time>2015-07-13T06:46:31Z</time>
      </trkpt>
      <trkpt lat="43.7605" lon="4.08176">
        <ele>31.38</ele>
        <time>2015-07-13T06:46:41Z</time>
      </trkpt>
      <trkpt lat="43.76048" lon="4.08177">
        <ele>30.9</ele>
        <time>2015-07-13T06:46:51Z</time>
      </trkpt>
      <trkpt lat="43.76048" lon="4.08176">
        <ele>30.9</ele>
        <time>2015-07-13T06:47:11Z</time>
      </trkpt>
      <trkpt lat="43.76047" lon="4.08175">
        <ele>31.38</ele>
        <time>2015-07-13T06:47:32Z</time>
      </trkpt>
      <trkpt lat="43.76046" lon="4.08175">
        <ele>31.38</ele>
        <time>2015-07-13T06:47:55Z</time>
      </trkpt>
      <trkpt lat="43.76046" lon="4.08175">
        <ele>31.38</ele>
        <time>2015-07-13T06:48:12Z</time>
      </trkpt>
      <trkpt lat="43.76045" lon="4.08176">
        <ele>31.38</ele>
        <time>2015-07-13T06:48:33Z</time>
      </trkpt>
      <trkpt lat="43.76045" lon="4.08176">
        <ele>31.38</ele>
        <time>2015-07-13T06:48:53Z</time>
      </trkpt>
      <trkpt lat="43.76043" lon="4.08178">
        <ele>31.38</ele>
        <time>2015-07-13T06:49:15Z</time>
      </trkpt>
      <trkpt lat="43.76041" lon="4.08179">
        <ele>31.38</ele>
        <time>2015-07-13T06:49:17Z</time>
      </trkpt>
      <trkpt lat="43.76019" lon="4.08194">
        <ele>31.86</ele>
        <time>2015-07-13T06:49:29Z</time>
      </trkpt>
      <trkpt lat="43.76" lon="4.08209">
        <ele>32.82</ele>
        <time>2015-07-13T06:49:38Z</time>
      </trkpt>
      <trkpt lat="43.75971" lon="4.08229">
        <ele>33.3</ele>
        <time>2015-07-13T06:49:49Z</time>
      </trkpt>
      <trkpt lat="43.75936" lon="4.08252">
        <ele>33.3</ele>
        <time>2015-07-13T06:50:02Z</time>
      </trkpt>
      <trkpt lat="43.75928" lon="4.08257">
        <ele>33.78</ele>
        <time>2015-07-13T06:50:09Z</time>
      </trkpt>
      <trkpt lat="43.75904" lon="4.08274">
        <ele>34.74</ele>
        <time>2015-07-13T06:50:17Z</time>
      </trkpt>
      <trkpt lat="43.7587" lon="4.08297">
        <ele>34.74</ele>
        <time>2015-07-13T06:50:28Z</time>
      </trkpt>
      <trkpt lat="43.75821" lon="4.08327">
        <ele>35.23</ele>
        <time>2015-07-13T06:50:43Z</time>
      </trkpt>
      <trkpt lat="43.75776" lon="4.08359">
        <ele>36.67</ele>
        <time>2015-07-13T06:50:57Z</time>
      </trkpt>
      <trkpt lat="43.75735" lon="4.08387">
        <ele>37.15</ele>
        <time>2015-07-13T06:51:10Z</time>
      </trkpt>
      <trkpt lat="43.75697" lon="4.08414">
        <ele>36.19</ele>
        <time>2015-07-13T06:51:21Z</time>
      </trkpt>
      <trkpt lat="43.75653" lon="4.08457">
        <ele>35.71</ele>
        <time>2015-07-13T06:51:34Z</time>
      </trkpt>
      <trkpt lat="43.75616" lon="4.08493">
        <ele>35.71</ele>
        <time>2015-07-13T06:51:45Z</time>
      </trkpt>
      <trkpt lat="43.75598" lon="4.08507">
        <ele>34.74</ele>
        <time>2015-07-13T06:51:50Z</time>
      </trkpt>
      <trkpt lat="43.75593" lon="4.08508">
        <ele>34.74</ele>
        <time>2015-07-13T06:51:51Z</time>
      </trkpt>
      <trkpt lat="43.75589" lon="4.08507">
        <ele>34.74</ele>
        <time>2015-07-13T06:51:52Z</time>
      </trkpt>
      <trkpt lat="43.75548" lon="4.08486">
        <ele>36.19</ele>
        <time>2015-07-13T06:52:03Z</time>
      </trkpt>
      <trkpt lat="43.75544" lon="4.08485">
        <ele>36.19</ele>
        <time>2015-07-13T06:52:04Z</time>
      </trkpt>
      <trkpt lat="43.7554" lon="4.08485">
        <ele>36.19</ele>
        <time>2015-07-13T06:52:05Z</time>
      </trkpt>
      <trkpt lat="43.75536" lon="4.08486">
        <ele>35.71</ele>
        <time>2015-07-13T06:52:06Z</time>
      </trkpt>
      <trkpt lat="43.75531" lon="4.08487">
        <ele>35.71</ele>
        <time>2015-07-13T06:52:07Z</time>
      </trkpt>
      <trkpt lat="43.75527" lon="4.08489">
        <ele>35.23</ele>
        <time>2015-07-13T06:52:08Z</time>
      </trkpt>
      <trkpt lat="43.75473" lon="4.08515">
        <ele>35.23</ele>
        <time>2015-07-13T06:52:20Z</time>
      </trkpt>
      <trkpt lat="43.75469" lon="4.08516">
        <ele>35.23</ele>
        <time>2015-07-13T06:52:21Z</time>
      </trkpt>
      <trkpt lat="43.75413" lon="4.08521">
        <ele>35.23</ele>
        <time>2015-07-13T06:52:34Z</time>
      </trkpt>
      <trkpt lat="43.75357" lon="4.08522">
        <ele>36.19</ele>
        <time>2015-07-13T06:52:48Z</time>
      </trkpt>
      <trkpt lat="43.75295" lon="4.08527">
        <ele>36.19</ele>
        <time>2015-07-13T06:53:02Z</time>
      </trkpt>
      <trkpt lat="43.7526" lon="4.08534">
        <ele>36.19</ele>
        <time>2015-07-13T06:53:10Z</time>
      </trkpt>
      <trkpt lat="43.75255" lon="4.08534">
        <ele>36.19</ele>
        <time>2015-07-13T06:53:11Z</time>
      </trkpt>
      <trkpt lat="43.75251" lon="4.08534">
        <ele>36.19</ele>
        <time>2015-07-13T06:53:12Z</time>
      </trkpt>
      <trkpt lat="43.75247" lon="4.08535">
        <ele>35.71</ele>
        <time>2015-07-13T06:53:13Z</time>
      </trkpt>
      <trkpt lat="43.75242" lon="4.08536">
        <ele>35.71</ele>
        <time>2015-07-13T06:53:14Z</time>
      </trkpt>
      <trkpt lat="43.75238" lon="4.08538">
        <ele>35.71</ele>
        <time>2015-07-13T06:53:15Z</time>
      </trkpt>
      <trkpt lat="43.75183" lon="4.08558">
        <ele>34.26</ele>
        <time>2015-07-13T06:53:26Z</time>
      </trkpt>
      <trkpt lat="43.75177" lon="4.08558">
        <ele>34.26</ele>
        <time>2015-07-13T06:53:27Z</time>
      </trkpt>
      <trkpt lat="43.75167" lon="4.08556">
        <ele>34.74</ele>
        <time>2015-07-13T06:53:29Z</time>
      </trkpt>
      <trkpt lat="43.75162" lon="4.08554">
        <ele>34.74</ele>
        <time>2015-07-13T06:53:30Z</time>
      </trkpt>
      <trkpt lat="43.75106" lon="4.08527">
        <ele>34.26</ele>
        <time>2015-07-13T06:53:42Z</time>
      </trkpt>
      <trkpt lat="43.75048" lon="4.08496">
        <ele>34.74</ele>
        <time>2015-07-13T06:53:55Z</time>
      </trkpt>
      <trkpt lat="43.75007" lon="4.0847">
        <ele>34.26</ele>
        <time>2015-07-13T06:54:05Z</time>
      </trkpt>
      <trkpt lat="43.75003" lon="4.08467">
        <ele>34.74</ele>
        <time>2015-07-13T06:54:06Z</time>
      </trkpt>
      <trkpt lat="43.74999" lon="4.08465">
        <ele>34.74</ele>
        <time>2015-07-13T06:54:07Z</time>
      </trkpt>
      <trkpt lat="43.74944" lon="4.08436">
        <ele>36.19</ele>
        <time>2015-07-13T06:54:22Z</time>
      </trkpt>
      <trkpt lat="43.7491" lon="4.08414">
        <ele>37.63</ele>
        <time>2015-07-13T06:54:34Z</time>
      </trkpt>
      <trkpt lat="43.74871" lon="4.08395">
        <ele>39.07</ele>
        <time>2015-07-13T06:54:47Z</time>
      </trkpt>
      <trkpt lat="43.74823" lon="4.08367">
        <ele>40.03</ele>
        <time>2015-07-13T06:55:02Z</time>
      </trkpt>
      <trkpt lat="43.74779" lon="4.08341">
        <ele>41.47</ele>
        <time>2015-07-13T06:55:16Z</time>
      </trkpt>
      <trkpt lat="43.74739" lon="4.08317">
        <ele>41.95</ele>
        <time>2015-07-13T06:55:29Z</time>
      </trkpt>
      <trkpt lat="43.74688" lon="4.083">
        <ele>42.92</ele>
        <time>2015-07-13T06:55:44Z</time>
      </trkpt>
      <trkpt lat="43.74642" lon="4.08277">
        <ele>42.92</ele>
        <time>2015-07-13T06:55:57Z</time>
      </trkpt>
      <trkpt lat="43.74601" lon="4.08252">
        <ele>42.92</ele>
        <time>2015-07-13T06:56:09Z</time>
      </trkpt>
      <trkpt lat="43.74554" lon="4.08223">
        <ele>42.92</ele>
        <time>2015-07-13T06:56:23Z</time>
      </trkpt>
      <trkpt lat="43.74506" lon="4.08191">
        <ele>44.84</ele>
        <time>2015-07-13T06:56:38Z</time>
      </trkpt>
      <trkpt lat="43.74463" lon="4.08151">
        <ele>45.32</ele>
        <time>2015-07-13T06:56:52Z</time>
      </trkpt>
      <trkpt lat="43.74417" lon="4.08112">
        <ele>46.28</ele>
        <time>2015-07-13T06:57:07Z</time>
      </trkpt>
      <trkpt lat="43.74369" lon="4.08079">
        <ele>45.8</ele>
        <time>2015-07-13T06:57:20Z</time>
      </trkpt>
      <trkpt lat="43.74348" lon="4.08068">
        <ele>45.8</ele>
        <time>2015-07-13T06:57:25Z</time>
      </trkpt>
      <trkpt lat="43.74344" lon="4.08067">
        <ele>45.8</ele>
        <time>2015-07-13T06:57:26Z</time>
      </trkpt>
      <trkpt lat="43.74277" lon="4.08061">
        <ele>42.92</ele>
        <time>2015-07-13T06:57:38Z</time>
      </trkpt>
      <trkpt lat="43.74228" lon="4.08044">
        <ele>41.47</ele>
        <time>2015-07-13T06:57:46Z</time>
      </trkpt>
      <trkpt lat="43.74128" lon="4.07984">
        <ele>38.59</ele>
        <time>2015-07-13T06:58:00Z</time>
      </trkpt>
      <trkpt lat="43.74024" lon="4.07923">
        <ele>37.15</ele>
        <time>2015-07-13T06:58:15Z</time>
      </trkpt>
      <trkpt lat="43.73949" lon="4.07869">
        <ele>37.63</ele>
        <time>2015-07-13T06:58:27Z</time>
      </trkpt>
      <trkpt lat="43.7391" lon="4.07852">
        <ele>38.59</ele>
        <time>2015-07-13T06:58:36Z</time>
      </trkpt>
      <trkpt lat="43.73857" lon="4.07832">
        <ele>37.15</ele>
        <time>2015-07-13T06:58:47Z</time>
      </trkpt>
      <trkpt lat="43.73797" lon="4.07794">
        <ele>38.11</ele>
        <time>2015-07-13T06:59:01Z</time>
      </trkpt>
      <trkpt lat="43.73751" lon="4.07768">
        <ele>39.07</ele>
        <time>2015-07-13T06:59:13Z</time>
      </trkpt>
      <trkpt lat="43.73704" lon="4.0774">
        <ele>40.51</ele>
        <time>2015-07-13T06:59:27Z</time>
      </trkpt>
      <trkpt lat="43.73651" lon="4.07708">
        <ele>41.47</ele>
        <time>2015-07-13T06:59:43Z</time>
      </trkpt>
      <trkpt lat="43.73602" lon="4.07693">
        <ele>41.95</ele>
        <time>2015-07-13T06:59:57Z</time>
      </trkpt>
      <trkpt lat="43.73553" lon="4.07678">
        <ele>43.4</ele>
        <time>2015-07-13T07:00:11Z</time>
      </trkpt>
      <trkpt lat="43.7351" lon="4.07665">
        <ele>44.36</ele>
        <time>2015-07-13T07:00:23Z</time>
      </trkpt>
      <trkpt lat="43.73466" lon="4.07657">
        <ele>45.32</ele>
        <time>2015-07-13T07:00:36Z</time>
      </trkpt>
      <trkpt lat="43.73429" lon="4.07644">
        <ele>47.24</ele>
        <time>2015-07-13T07:00:49Z</time>
      </trkpt>
      <trkpt lat="43.73389" lon="4.07634">
        <ele>48.2</ele>
        <time>2015-07-13T07:01:02Z</time>
      </trkpt>
      <trkpt lat="43.73349" lon="4.0763">
        <ele>49.16</ele>
        <time>2015-07-13T07:01:15Z</time>
      </trkpt>
      <trkpt lat="43.73306" lon="4.07611">
        <ele>50.61</ele>
        <time>2015-07-13T07:01:30Z</time>
      </trkpt>
      <trkpt lat="43.73262" lon="4.07592">
        <ele>51.57</ele>
        <time>2015-07-13T07:01:45Z</time>
      </trkpt>
      <trkpt lat="43.7322" lon="4.07572">
        <ele>53.01</ele>
        <time>2015-07-13T07:01:59Z</time>
      </trkpt>
      <trkpt lat="43.73185" lon="4.07556">
        <ele>53.49</ele>
        <time>2015-07-13T07:02:11Z</time>
      </trkpt>
      <trkpt lat="43.73136" lon="4.07534">
        <ele>53.49</ele>
        <time>2015-07-13T07:02:25Z</time>
      </trkpt>
      <trkpt lat="43.731" lon="4.07547">
        <ele>54.45</ele>
        <time>2015-07-13T07:02:35Z</time>
      </trkpt>
      <trkpt lat="43.73093" lon="4.07551">
        <ele>53.97</ele>
        <time>2015-07-13T07:02:37Z</time>
      </trkpt>
      <trkpt lat="43.73089" lon="4.07553">
        <ele>54.45</ele>
        <time>2015-07-13T07:02:38Z</time>
      </trkpt>
      <trkpt lat="43.73073" lon="4.07563">
        <ele>54.45</ele>
        <time>2015-07-13T07:02:42Z</time>
      </trkpt>
      <trkpt lat="43.73069" lon="4.07565">
        <ele>54.45</ele>
        <time>2015-07-13T07:02:43Z</time>
      </trkpt>
      <trkpt lat="43.73056" lon="4.07569">
        <ele>53.97</ele>
        <time>2015-07-13T07:02:46Z</time>
      </trkpt>
      <trkpt lat="43.73008" lon="4.07567">
        <ele>54.93</ele>
        <time>2015-07-13T07:02:59Z</time>
      </trkpt>
      <trkpt lat="43.72967" lon="4.07559">
        <ele>56.86</ele>
        <time>2015-07-13T07:03:11Z</time>
      </trkpt>
      <trkpt lat="43.72931" lon="4.07551">
        <ele>56.86</ele>
        <time>2015-07-13T07:03:22Z</time>
      </trkpt>
      <trkpt lat="43.72893" lon="4.07544">
        <ele>57.34</ele>
        <time>2015-07-13T07:03:33Z</time>
      </trkpt>
      <trkpt lat="43.7285" lon="4.07533">
        <ele>58.78</ele>
        <time>2015-07-13T07:03:46Z</time>
      </trkpt>
      <trkpt lat="43.72826" lon="4.07529">
        <ele>59.74</ele>
        <time>2015-07-13T07:03:55Z</time>
      </trkpt>
      <trkpt lat="43.72795" lon="4.07519">
        <ele>61.66</ele>
        <time>2015-07-13T07:04:07Z</time>
      </trkpt>
      <trkpt lat="43.72768" lon="4.07508">
        <ele>62.14</ele>
        <time>2015-07-13T07:04:18Z</time>
      </trkpt>
      <trkpt lat="43.72765" lon="4.07509">
        <ele>62.62</ele>
        <time>2015-07-13T07:04:19Z</time>
      </trkpt>
      <trkpt lat="43.72763" lon="4.07511">
        <ele>62.62</ele>
        <time>2015-07-13T07:04:20Z</time>
      </trkpt>
      <trkpt lat="43.72762" lon="4.07514">
        <ele>62.62</ele>
        <time>2015-07-13T07:04:21Z</time>
      </trkpt>
      <trkpt lat="43.72761" lon="4.07518">
        <ele>62.62</ele>
        <time>2015-07-13T07:04:22Z</time>
      </trkpt>
      <trkpt lat="43.72763" lon="4.07522">
        <ele>62.62</ele>
        <time>2015-07-13T07:04:23Z</time>
      </trkpt>
      <trkpt lat="43.72764" lon="4.07525">
        <ele>62.62</ele>
        <time>2015-07-13T07:04:24Z</time>
      </trkpt>
      <trkpt lat="43.72766" lon="4.07529">
        <ele>62.62</ele>
        <time>2015-07-13T07:04:25Z</time>
      </trkpt>
      <trkpt lat="43.72777" lon="4.0757">
        <ele>63.1</ele>
        <time>2015-07-13T07:04:35Z</time>
      </trkpt>
      <trkpt lat="43.72793" lon="4.0763">
        <ele>64.07</ele>
        <time>2015-07-13T07:04:50Z</time>
      </trkpt>
      <trkpt lat="43.72804" lon="4.07677">
        <ele>64.55</ele>
        <time>2015-07-13T07:05:01Z</time>
      </trkpt>
      <trkpt lat="43.72818" lon="4.07729">
        <ele>65.51</ele>
        <time>2015-07-13T07:05:15Z</time>
      </trkpt>
      <trkpt lat="43.72827" lon="4.07766">
        <ele>66.47</ele>
        <time>2015-07-13T07:05:25Z</time>
      </trkpt>
      <trkpt lat="43.72831" lon="4.07817">
        <ele>67.43</ele>
        <time>2015-07-13T07:05:38Z</time>
      </trkpt>
      <trkpt lat="43.72836" lon="4.07855">
        <ele>67.43</ele>
        <time>2015-07-13T07:05:47Z</time>
      </trkpt>
      <trkpt lat="43.7284" lon="4.07897">
        <ele>66.95</ele>
        <time>2015-07-13T07:05:56Z</time>
      </trkpt>
      <trkpt lat="43.72852" lon="4.07951">
        <ele>66.47</ele>
        <time>2015-07-13T07:06:08Z</time>
      </trkpt>
      <trkpt lat="43.7287" lon="4.07999">
        <ele>67.43</ele>
        <time>2015-07-13T07:06:20Z</time>
      </trkpt>
      <trkpt lat="43.72875" lon="4.08038">
        <ele>69.35</ele>
        <time>2015-07-13T07:06:30Z</time>
      </trkpt>
      <trkpt lat="43.72879" lon="4.08061">
        <ele>69.83</ele>
        <time>2015-07-13T07:06:36Z</time>
      </trkpt>
      <trkpt lat="43.72878" lon="4.08065">
        <ele>70.31</ele>
        <time>2015-07-13T07:06:37Z</time>
      </trkpt>
      <trkpt lat="43.72881" lon="4.08109">
        <ele>70.79</ele>
        <time>2015-07-13T07:06:48Z</time>
      </trkpt>
      <trkpt lat="43.72906" lon="4.08157">
        <ele>70.31</ele>
        <time>2015-07-13T07:07:00Z</time>
      </trkpt>
      <trkpt lat="43.72921" lon="4.08183">
        <ele>70.31</ele>
        <time>2015-07-13T07:07:06Z</time>
      </trkpt>
      <trkpt lat="43.72932" lon="4.0823">
        <ele>70.79</ele>
        <time>2015-07-13T07:07:15Z</time>
      </trkpt>
      <trkpt lat="43.72934" lon="4.08296">
        <ele>69.35</ele>
        <time>2015-07-13T07:07:27Z</time>
      </trkpt>
      <trkpt lat="43.72933" lon="4.08302">
        <ele>68.87</ele>
        <time>2015-07-13T07:07:28Z</time>
      </trkpt>
      <trkpt lat="43.72933" lon="4.08308">
        <ele>68.39</ele>
        <time>2015-07-13T07:07:29Z</time>
      </trkpt>
      <trkpt lat="43.72931" lon="4.08315">
        <ele>68.39</ele>
        <time>2015-07-13T07:07:30Z</time>
      </trkpt>
      <trkpt lat="43.72928" lon="4.0832">
        <ele>67.91</ele>
        <time>2015-07-13T07:07:31Z</time>
      </trkpt>
      <trkpt lat="43.72924" lon="4.08325">
        <ele>67.91</ele>
        <time>2015-07-13T07:07:32Z</time>
      </trkpt>
      <trkpt lat="43.72918" lon="4.08329">
        <ele>67.43</ele>
        <time>2015-07-13T07:07:33Z</time>
      </trkpt>
      <trkpt lat="43.72913" lon="4.08332">
        <ele>66.95</ele>
        <time>2015-07-13T07:07:34Z</time>
      </trkpt>
      <trkpt lat="43.72907" lon="4.08334">
        <ele>67.43</ele>
        <time>2015-07-13T07:07:35Z</time>
      </trkpt>
      <trkpt lat="43.72902" lon="4.08335">
        <ele>67.43</ele>
        <time>2015-07-13T07:07:36Z</time>
      </trkpt>
      <trkpt lat="43.72887" lon="4.08338">
        <ele>66.47</ele>
        <time>2015-07-13T07:07:42Z</time>
      </trkpt>
      <trkpt lat="43.72867" lon="4.08342">
        <ele>66.47</ele>
        <time>2015-07-13T07:07:50Z</time>
      </trkpt>
      <trkpt lat="43.72855" lon="4.08348">
        <ele>65.99</ele>
        <time>2015-07-13T07:07:59Z</time>
      </trkpt>
      <trkpt lat="43.72854" lon="4.08348">
        <ele>65.99</ele>
        <time>2015-07-13T07:08:15Z</time>
      </trkpt>
      <trkpt lat="43.72854" lon="4.08349">
        <ele>66.47</ele>
        <time>2015-07-13T07:08:33Z</time>
      </trkpt>
      <trkpt lat="43.72854" lon="4.08348">
        <ele>65.99</ele>
        <time>2015-07-13T07:08:55Z</time>
      </trkpt>
      <trkpt lat="43.72854" lon="4.08348">
        <ele>66.47</ele>
        <time>2015-07-13T07:09:17Z</time>
      </trkpt>
      <trkpt lat="43.72854" lon="4.08348">
        <ele>65.99</ele>
        <time>2015-07-13T07:09:33Z</time>
      </trkpt>
      <trkpt lat="43.72853" lon="4.08349">
        <ele>66.47</ele>
        <time>2015-07-13T07:09:53Z</time>
      </trkpt>
      <trkpt lat="43.72851" lon="4.0835">
        <ele>65.99</ele>
        <time>2015-07-13T07:10:09Z</time>
      </trkpt>
      <trkpt lat="43.72851" lon="4.08351">
        <ele>65.51</ele>
        <time>2015-07-13T07:10:39Z</time>
      </trkpt>
      <trkpt lat="43.7285" lon="4.08351">
        <ele>65.99</ele>
        <time>2015-07-13T07:11:06Z</time>
      </trkpt>
      <trkpt lat="43.72851" lon="4.08351">
        <ele>65.99</ele>
        <time>2015-07-13T07:11:32Z</time>
      </trkpt>
      <trkpt lat="43.72851" lon="4.08351">
        <ele>65.51</ele>
        <time>2015-07-13T07:11:55Z</time>
      </trkpt>
      <trkpt lat="43.72851" lon="4.08351">
        <ele>65.51</ele>
        <time>2015-07-13T07:12:19Z</time>
      </trkpt>
      <trkpt lat="43.7285" lon="4.08352">
        <ele>65.99</ele>
        <time>2015-07-13T07:12:43Z</time>
      </trkpt>
      <trkpt lat="43.7285" lon="4.08352">
        <ele>65.99</ele>
        <time>2015-07-13T07:13:04Z</time>
      </trkpt>
      <trkpt lat="43.7285" lon="4.08351">
        <ele>65.51</ele>
        <time>2015-07-13T07:13:30Z</time>
      </trkpt>
      <trkpt lat="43.72849" lon="4.08352">
        <ele>65.99</ele>
        <time>2015-07-13T07:13:55Z</time>
      </trkpt>
      <trkpt lat="43.7285" lon="4.08351">
        <ele>65.03</ele>
        <time>2015-07-13T07:14:19Z</time>
      </trkpt>
      <trkpt lat="43.7285" lon="4.0835">
        <ele>65.51</ele>
        <time>2015-07-13T07:14:47Z</time>
      </trkpt>
      <trkpt lat="43.7285" lon="4.08351">
        <ele>65.51</ele>
        <time>2015-07-13T07:15:11Z</time>
      </trkpt>
      <trkpt lat="43.72851" lon="4.08351">
        <ele>65.51</ele>
        <time>2015-07-13T07:15:32Z</time>
      </trkpt>
      <trkpt lat="43.7284" lon="4.0836">
        <ele>65.03</ele>
        <time>2015-07-13T07:15:42Z</time>
      </trkpt>
      <trkpt lat="43.72831" lon="4.08368">
        <ele>65.03</ele>
        <time>2015-07-13T07:15:47Z</time>
      </trkpt>
      <trkpt lat="43.72829" lon="4.0837">
        <ele>65.03</ele>
        <time>2015-07-13T07:15:48Z</time>
      </trkpt>
      <trkpt lat="43.72828" lon="4.08372">
        <ele>65.03</ele>
        <time>2015-07-13T07:15:49Z</time>
      </trkpt>
      <trkpt lat="43.72826" lon="4.08374">
        <ele>65.03</ele>
        <time>2015-07-13T07:15:50Z</time>
      </trkpt>
      <trkpt lat="43.72823" lon="4.08375">
        <ele>65.51</ele>
        <time>2015-07-13T07:15:51Z</time>
      </trkpt>
      <trkpt lat="43.7282" lon="4.08378">
        <ele>65.03</ele>
        <time>2015-07-13T07:15:52Z</time>
      </trkpt>
      <trkpt lat="43.72817" lon="4.08379">
        <ele>65.03</ele>
        <time>2015-07-13T07:15:53Z</time>
      </trkpt>
      <trkpt lat="43.72814" lon="4.08381">
        <ele>65.03</ele>
        <time>2015-07-13T07:15:54Z</time>
      </trkpt>
      <trkpt lat="43.72765" lon="4.08405">
        <ele>65.51</ele>
        <time>2015-07-13T07:16:09Z</time>
      </trkpt>
      <trkpt lat="43.72727" lon="4.08429">
        <ele>65.99</ele>
        <time>2015-07-13T07:16:21Z</time>
      </trkpt>
      <trkpt lat="43.72724" lon="4.08433">
        <ele>65.99</ele>
        <time>2015-07-13T07:16:22Z</time>
      </trkpt>
      <trkpt lat="43.72721" lon="4.08436">
        <ele>65.51</ele>
        <time>2015-07-13T07:16:23Z</time>
      </trkpt>
      <trkpt lat="43.72715" lon="4.08444">
        <ele>65.51</ele>
        <time>2015-07-13T07:16:25Z</time>
      </trkpt>
      <trkpt lat="43.72676" lon="4.08499">
        <ele>64.55</ele>
        <time>2015-07-13T07:16:37Z</time>
      </trkpt>
      <trkpt lat="43.72672" lon="4.08503">
        <ele>64.55</ele>
        <time>2015-07-13T07:16:38Z</time>
      </trkpt>
      <trkpt lat="43.72642" lon="4.08519">
        <ele>64.07</ele>
        <time>2015-07-13T07:16:44Z</time>
      </trkpt>
      <trkpt lat="43.72589" lon="4.08554">
        <ele>63.1</ele>
        <time>2015-07-13T07:16:55Z</time>
      </trkpt>
      <trkpt lat="43.72585" lon="4.08558">
        <ele>62.62</ele>
        <time>2015-07-13T07:16:56Z</time>
      </trkpt>
      <trkpt lat="43.72532" lon="4.08644">
        <ele>61.18</ele>
        <time>2015-07-13T07:17:11Z</time>
      </trkpt>
      <trkpt lat="43.72473" lon="4.08727">
        <ele>59.26</ele>
        <time>2015-07-13T07:17:25Z</time>
      </trkpt>
      <trkpt lat="43.7242" lon="4.08808">
        <ele>56.86</ele>
        <time>2015-07-13T07:17:36Z</time>
      </trkpt>
      <trkpt lat="43.72367" lon="4.08888">
        <ele>55.89</ele>
        <time>2015-07-13T07:17:47Z</time>
      </trkpt>
      <trkpt lat="43.72313" lon="4.08944">
        <ele>56.86</ele>
        <time>2015-07-13T07:18:00Z</time>
      </trkpt>
      <trkpt lat="43.72289" lon="4.08965">
        <ele>56.37</ele>
        <time>2015-07-13T07:18:05Z</time>
      </trkpt>
      <trkpt lat="43.72285" lon="4.08971">
        <ele>56.37</ele>
        <time>2015-07-13T07:18:06Z</time>
      </trkpt>
      <trkpt lat="43.72281" lon="4.08978">
        <ele>55.89</ele>
        <time>2015-07-13T07:18:07Z</time>
      </trkpt>
      <trkpt lat="43.72277" lon="4.08985">
        <ele>55.41</ele>
        <time>2015-07-13T07:18:08Z</time>
      </trkpt>
      <trkpt lat="43.72274" lon="4.08992">
        <ele>55.89</ele>
        <time>2015-07-13T07:18:09Z</time>
      </trkpt>
      <trkpt lat="43.72271" lon="4.09">
        <ele>55.41</ele>
        <time>2015-07-13T07:18:10Z</time>
      </trkpt>
      <trkpt lat="43.72268" lon="4.09008">
        <ele>55.41</ele>
        <time>2015-07-13T07:18:11Z</time>
      </trkpt>
      <trkpt lat="43.72237" lon="4.09099">
        <ele>54.45</ele>
        <time>2015-07-13T07:18:23Z</time>
      </trkpt>
      <trkpt lat="43.72199" lon="4.09183">
        <ele>53.97</ele>
        <time>2015-07-13T07:18:36Z</time>
      </trkpt>
      <trkpt lat="43.72171" lon="4.09237">
        <ele>53.49</ele>
        <time>2015-07-13T07:18:44Z</time>
      </trkpt>
      <trkpt lat="43.72167" lon="4.09242">
        <ele>53.49</ele>
        <time>2015-07-13T07:18:45Z</time>
      </trkpt>
      <trkpt lat="43.72162" lon="4.09247">
        <ele>53.01</ele>
        <time>2015-07-13T07:18:46Z</time>
      </trkpt>
      <trkpt lat="43.72157" lon="4.09252">
        <ele>53.01</ele>
        <time>2015-07-13T07:18:47Z</time>
      </trkpt>
      <trkpt lat="43.72152" lon="4.09257">
        <ele>53.01</ele>
        <time>2015-07-13T07:18:48Z</time>
      </trkpt>
      <trkpt lat="43.72141" lon="4.09265">
        <ele>53.49</ele>
        <time>2015-07-13T07:18:50Z</time>
      </trkpt>
      <trkpt lat="43.7207" lon="4.09297">
        <ele>51.09</ele>
        <time>2015-07-13T07:19:02Z</time>
      </trkpt>
      <trkpt lat="43.71983" lon="4.0931">
        <ele>48.2</ele>
        <time>2015-07-13T07:19:14Z</time>
      </trkpt>
      <trkpt lat="43.71963" lon="4.09308">
        <ele>47.72</ele>
        <time>2015-07-13T07:19:17Z</time>
      </trkpt>
      <trkpt lat="43.71957" lon="4.0931">
        <ele>48.2</ele>
        <time>2015-07-13T07:19:18Z</time>
      </trkpt>
      <trkpt lat="43.71951" lon="4.09316">
        <ele>48.2</ele>
        <time>2015-07-13T07:19:19Z</time>
      </trkpt>
      <trkpt lat="43.71947" lon="4.09323">
        <ele>47.72</ele>
        <time>2015-07-13T07:19:20Z</time>
      </trkpt>
      <trkpt lat="43.71944" lon="4.09331">
        <ele>47.72</ele>
        <time>2015-07-13T07:19:21Z</time>
      </trkpt>
      <trkpt lat="43.71943" lon="4.0934">
        <ele>47.24</ele>
        <time>2015-07-13T07:19:22Z</time>
      </trkpt>
      <trkpt lat="43.71942" lon="4.09349">
        <ele>47.24</ele>
        <time>2015-07-13T07:19:23Z</time>
      </trkpt>
      <trkpt lat="43.71942" lon="4.09358">
        <ele>47.24</ele>
        <time>2015-07-13T07:19:24Z</time>
      </trkpt>
      <trkpt lat="43.71938" lon="4.0946">
        <ele>44.36</ele>
        <time>2015-07-13T07:19:34Z</time>
      </trkpt>
      <trkpt lat="43.7193" lon="4.09491">
        <ele>42.92</ele>
        <time>2015-07-13T07:19:37Z</time>
      </trkpt>
      <trkpt lat="43.71926" lon="4.09501">
        <ele>42.92</ele>
        <time>2015-07-13T07:19:38Z</time>
      </trkpt>
      <trkpt lat="43.71882" lon="4.09588">
        <ele>41.95</ele>
        <time>2015-07-13T07:19:48Z</time>
      </trkpt>
      <trkpt lat="43.71844" lon="4.09664">
        <ele>41.95</ele>
        <time>2015-07-13T07:19:59Z</time>
      </trkpt>
      <trkpt lat="43.71841" lon="4.09671">
        <ele>42.92</ele>
        <time>2015-07-13T07:20:00Z</time>
      </trkpt>
      <trkpt lat="43.71839" lon="4.09676">
        <ele>42.44</ele>
        <time>2015-07-13T07:20:01Z</time>
      </trkpt>
      <trkpt lat="43.71836" lon="4.09682">
        <ele>42.44</ele>
        <time>2015-07-13T07:20:02Z</time>
      </trkpt>
      <trkpt lat="43.71833" lon="4.09687">
        <ele>42.44</ele>
        <time>2015-07-13T07:20:03Z</time>
      </trkpt>
      <trkpt lat="43.71831" lon="4.09692">
        <ele>42.44</ele>
        <time>2015-07-13T07:20:04Z</time>
      </trkpt>
      <trkpt lat="43.71829" lon="4.09697">
        <ele>42.92</ele>
        <time>2015-07-13T07:20:05Z</time>
      </trkpt>
      <trkpt lat="43.71802" lon="4.09768">
        <ele>42.44</ele>
        <time>2015-07-13T07:20:17Z</time>
      </trkpt>
      <trkpt lat="43.71781" lon="4.09814">
        <ele>43.4</ele>
        <time>2015-07-13T07:20:26Z</time>
      </trkpt>
      <trkpt lat="43.71778" lon="4.09818">
        <ele>44.36</ele>
        <time>2015-07-13T07:20:27Z</time>
      </trkpt>
      <trkpt lat="43.71773" lon="4.09827">
        <ele>44.84</ele>
        <time>2015-07-13T07:20:29Z</time>
      </trkpt>
      <trkpt lat="43.7177" lon="4.09833">
        <ele>44.84</ele>
        <time>2015-07-13T07:20:30Z</time>
      </trkpt>
      <trkpt lat="43.71748" lon="4.09868">
        <ele>47.24</ele>
        <time>2015-07-13T07:20:40Z</time>
      </trkpt>
      <trkpt lat="43.71726" lon="4.09894">
        <ele>49.16</ele>
        <time>2015-07-13T07:20:51Z</time>
      </trkpt>
      <trkpt lat="43.71708" lon="4.09919">
        <ele>50.13</ele>
        <time>2015-07-13T07:21:02Z</time>
      </trkpt>
      <trkpt lat="43.71694" lon="4.09934">
        <ele>50.61</ele>
        <time>2015-07-13T07:21:09Z</time>
      </trkpt>
      <trkpt lat="43.7169" lon="4.09935">
        <ele>50.61</ele>
        <time>2015-07-13T07:21:10Z</time>
      </trkpt>
      <trkpt lat="43.71671" lon="4.09955">
        <ele>51.09</ele>
        <time>2015-07-13T07:21:20Z</time>
      </trkpt>
      <trkpt lat="43.71649" lon="4.09973">
        <ele>52.05</ele>
        <time>2015-07-13T07:21:30Z</time>
      </trkpt>
      <trkpt lat="43.7164" lon="4.09981">
        <ele>52.53</ele>
        <time>2015-07-13T07:21:35Z</time>
      </trkpt>
      <trkpt lat="43.7164" lon="4.09985">
        <ele>52.53</ele>
        <time>2015-07-13T07:21:36Z</time>
      </trkpt>
      <trkpt lat="43.7164" lon="4.09989">
        <ele>52.53</ele>
        <time>2015-07-13T07:21:37Z</time>
      </trkpt>
      <trkpt lat="43.71641" lon="4.09993">
        <ele>52.53</ele>
        <time>2015-07-13T07:21:38Z</time>
      </trkpt>
      <trkpt lat="43.71642" lon="4.09997">
        <ele>52.05</ele>
        <time>2015-07-13T07:21:39Z</time>
      </trkpt>
      <trkpt lat="43.71643" lon="4.10001">
        <ele>52.05</ele>
        <time>2015-07-13T07:21:40Z</time>
      </trkpt>
      <trkpt lat="43.71656" lon="4.10038">
        <ele>53.01</ele>
        <time>2015-07-13T07:21:50Z</time>
      </trkpt>
      <trkpt lat="43.71669" lon="4.10089">
        <ele>53.49</ele>
        <time>2015-07-13T07:22:02Z</time>
      </trkpt>
      <trkpt lat="43.71675" lon="4.10141">
        <ele>53.01</ele>
        <time>2015-07-13T07:22:13Z</time>
      </trkpt>
      <trkpt lat="43.71672" lon="4.1015">
        <ele>52.53</ele>
        <time>2015-07-13T07:22:15Z</time>
      </trkpt>
      <trkpt lat="43.71666" lon="4.1016">
        <ele>52.53</ele>
        <time>2015-07-13T07:22:17Z</time>
      </trkpt>
      <trkpt lat="43.71666" lon="4.10167">
        <ele>52.05</ele>
        <time>2015-07-13T07:22:18Z</time>
      </trkpt>
      <trkpt lat="43.71668" lon="4.10173">
        <ele>52.53</ele>
        <time>2015-07-13T07:22:19Z</time>
      </trkpt>
      <trkpt lat="43.7167" lon="4.10176">
        <ele>52.05</ele>
        <time>2015-07-13T07:22:20Z</time>
      </trkpt>
      <trkpt lat="43.71673" lon="4.10179">
        <ele>52.05</ele>
        <time>2015-07-13T07:22:21Z</time>
      </trkpt>
      <trkpt lat="43.71676" lon="4.10183">
        <ele>52.05</ele>
        <time>2015-07-13T07:22:22Z</time>
      </trkpt>
      <trkpt lat="43.71678" lon="4.10187">
        <ele>53.01</ele>
        <time>2015-07-13T07:22:23Z</time>
      </trkpt>
      <trkpt lat="43.71679" lon="4.10191">
        <ele>52.53</ele>
        <time>2015-07-13T07:22:24Z</time>
      </trkpt>
      <trkpt lat="43.7168" lon="4.10195">
        <ele>53.01</ele>
        <time>2015-07-13T07:22:25Z</time>
      </trkpt>
      <trkpt lat="43.71694" lon="4.10247">
        <ele>54.45</ele>
        <time>2015-07-13T07:22:36Z</time>
      </trkpt>
      <trkpt lat="43.71711" lon="4.10305">
        <ele>55.41</ele>
        <time>2015-07-13T07:22:49Z</time>
      </trkpt>
      <trkpt lat="43.71723" lon="4.10348">
        <ele>56.37</ele>
        <time>2015-07-13T07:22:59Z</time>
      </trkpt>
      <trkpt lat="43.71737" lon="4.10399">
        <ele>57.34</ele>
        <time>2015-07-13T07:23:12Z</time>
      </trkpt>
      <trkpt lat="43.71753" lon="4.10437">
        <ele>58.78</ele>
        <time>2015-07-13T07:23:23Z</time>
      </trkpt>
      <trkpt lat="43.71775" lon="4.10482">
        <ele>59.26</ele>
        <time>2015-07-13T07:23:35Z</time>
      </trkpt>
      <trkpt lat="43.71798" lon="4.10536">
        <ele>58.3</ele>
        <time>2015-07-13T07:23:47Z</time>
      </trkpt>
      <trkpt lat="43.71828" lon="4.10611">
        <ele>57.34</ele>
        <time>2015-07-13T07:24:02Z</time>
      </trkpt>
      <trkpt lat="43.71856" lon="4.10668">
        <ele>55.89</ele>
        <time>2015-07-13T07:24:14Z</time>
      </trkpt>
      <trkpt lat="43.71905" lon="4.10735">
        <ele>53.01</ele>
        <time>2015-07-13T07:24:26Z</time>
      </trkpt>
      <trkpt lat="43.71952" lon="4.10803">
        <ele>50.61</ele>
        <time>2015-07-13T07:24:37Z</time>
      </trkpt>
      <trkpt lat="43.71956" lon="4.10811">
        <ele>50.13</ele>
        <time>2015-07-13T07:24:38Z</time>
      </trkpt>
      <trkpt lat="43.71959" lon="4.10821">
        <ele>49.65</ele>
        <time>2015-07-13T07:24:39Z</time>
      </trkpt>
      <trkpt lat="43.71962" lon="4.1083">
        <ele>49.65</ele>
        <time>2015-07-13T07:24:40Z</time>
      </trkpt>
      <trkpt lat="43.71964" lon="4.1084">
        <ele>49.16</ele>
        <time>2015-07-13T07:24:41Z</time>
      </trkpt>
      <trkpt lat="43.71966" lon="4.1085">
        <ele>49.16</ele>
        <time>2015-07-13T07:24:42Z</time>
      </trkpt>
      <trkpt lat="43.71967" lon="4.1086">
        <ele>48.68</ele>
        <time>2015-07-13T07:24:43Z</time>
      </trkpt>
      <trkpt lat="43.7197" lon="4.10921">
        <ele>45.32</ele>
        <time>2015-07-13T07:24:49Z</time>
      </trkpt>
      <trkpt lat="43.71972" lon="4.10943">
        <ele>44.36</ele>
        <time>2015-07-13T07:24:51Z</time>
      </trkpt>
      <trkpt lat="43.71991" lon="4.11042">
        <ele>42.44</ele>
        <time>2015-07-13T07:25:00Z</time>
      </trkpt>
      <trkpt lat="43.72003" lon="4.11085">
        <ele>40.99</ele>
        <time>2015-07-13T07:25:05Z</time>
      </trkpt>
      <trkpt lat="43.7201" lon="4.11124">
        <ele>39.55</ele>
        <time>2015-07-13T07:25:13Z</time>
      </trkpt>
      <trkpt lat="43.72013" lon="4.11137">
        <ele>39.07</ele>
        <time>2015-07-13T07:25:17Z</time>
      </trkpt>
      <trkpt lat="43.72016" lon="4.1114">
        <ele>39.55</ele>
        <time>2015-07-13T07:25:18Z</time>
      </trkpt>
      <trkpt lat="43.72019" lon="4.11141">
        <ele>39.55</ele>
        <time>2015-07-13T07:25:19Z</time>
      </trkpt>
      <trkpt lat="43.72043" lon="4.11151">
        <ele>38.59</ele>
        <time>2015-07-13T07:25:28Z</time>
      </trkpt>
      <trkpt lat="43.72065" lon="4.11202">
        <ele>38.59</ele>
        <time>2015-07-13T07:25:40Z</time>
      </trkpt>
      <trkpt lat="43.72072" lon="4.11244">
        <ele>38.11</ele>
        <time>2015-07-13T07:25:48Z</time>
      </trkpt>
      <trkpt lat="43.72079" lon="4.11268">
        <ele>37.15</ele>
        <time>2015-07-13T07:25:52Z</time>
      </trkpt>
      <trkpt lat="43.72082" lon="4.11274">
        <ele>37.15</ele>
        <time>2015-07-13T07:25:53Z</time>
      </trkpt>
      <trkpt lat="43.72085" lon="4.11279">
        <ele>37.63</ele>
        <time>2015-07-13T07:25:54Z</time>
      </trkpt>
      <trkpt lat="43.72089" lon="4.11284">
        <ele>36.67</ele>
        <time>2015-07-13T07:25:55Z</time>
      </trkpt>
      <trkpt lat="43.72094" lon="4.11287">
        <ele>37.15</ele>
        <time>2015-07-13T07:25:56Z</time>
      </trkpt>
      <trkpt lat="43.72099" lon="4.11289">
        <ele>36.67</ele>
        <time>2015-07-13T07:25:57Z</time>
      </trkpt>
      <trkpt lat="43.72117" lon="4.11304">
        <ele>35.23</ele>
        <time>2015-07-13T07:26:03Z</time>
      </trkpt>
      <trkpt lat="43.72129" lon="4.11339">
        <ele>34.26</ele>
        <time>2015-07-13T07:26:11Z</time>
      </trkpt>
      <trkpt lat="43.72133" lon="4.11341">
        <ele>34.26</ele>
        <time>2015-07-13T07:26:12Z</time>
      </trkpt>
      <trkpt lat="43.7217" lon="4.11352">
        <ele>32.82</ele>
        <time>2015-07-13T07:26:21Z</time>
      </trkpt>
      <trkpt lat="43.72173" lon="4.11356">
        <ele>32.82</ele>
        <time>2015-07-13T07:26:22Z</time>
      </trkpt>
      <trkpt lat="43.7218" lon="4.11367">
        <ele>32.82</ele>
        <time>2015-07-13T07:26:24Z</time>
      </trkpt>
      <trkpt lat="43.72208" lon="4.11393">
        <ele>31.86</ele>
        <time>2015-07-13T07:26:32Z</time>
      </trkpt>
      <trkpt lat="43.7223" lon="4.11398">
        <ele>32.34</ele>
        <time>2015-07-13T07:26:40Z</time>
      </trkpt>
      <trkpt lat="43.72249" lon="4.11411">
        <ele>33.3</ele>
        <time>2015-07-13T07:26:48Z</time>
      </trkpt>
      <trkpt lat="43.72253" lon="4.11418">
        <ele>33.3</ele>
        <time>2015-07-13T07:26:51Z</time>
      </trkpt>
      <trkpt lat="43.72256" lon="4.1145">
        <ele>31.86</ele>
        <time>2015-07-13T07:26:58Z</time>
      </trkpt>
      <trkpt lat="43.72259" lon="4.11454">
        <ele>31.38</ele>
        <time>2015-07-13T07:26:59Z</time>
      </trkpt>
      <trkpt lat="43.72262" lon="4.11458">
        <ele>31.38</ele>
        <time>2015-07-13T07:27:00Z</time>
      </trkpt>
      <trkpt lat="43.72297" lon="4.11485">
        <ele>29.46</ele>
        <time>2015-07-13T07:27:08Z</time>
      </trkpt>
      <trkpt lat="43.7233" lon="4.1151">
        <ele>28.02</ele>
        <time>2015-07-13T07:27:15Z</time>
      </trkpt>
      <trkpt lat="43.72334" lon="4.11515">
        <ele>28.02</ele>
        <time>2015-07-13T07:27:16Z</time>
      </trkpt>
      <trkpt lat="43.72337" lon="4.11523">
        <ele>27.53</ele>
        <time>2015-07-13T07:27:17Z</time>
      </trkpt>
      <trkpt lat="43.72339" lon="4.11532">
        <ele>27.05</ele>
        <time>2015-07-13T07:27:18Z</time>
      </trkpt>
      <trkpt lat="43.72339" lon="4.11541">
        <ele>27.05</ele>
        <time>2015-07-13T07:27:19Z</time>
      </trkpt>
      <trkpt lat="43.72338" lon="4.11551">
        <ele>27.05</ele>
        <time>2015-07-13T07:27:20Z</time>
      </trkpt>
      <trkpt lat="43.72337" lon="4.1156">
        <ele>27.05</ele>
        <time>2015-07-13T07:27:21Z</time>
      </trkpt>
      <trkpt lat="43.72323" lon="4.11669">
        <ele>24.17</ele>
        <time>2015-07-13T07:27:32Z</time>
      </trkpt>
      <trkpt lat="43.72309" lon="4.11784">
        <ele>24.17</ele>
        <time>2015-07-13T07:27:45Z</time>
      </trkpt>
      <trkpt lat="43.72296" lon="4.119">
        <ele>24.65</ele>
        <time>2015-07-13T07:28:00Z</time>
      </trkpt>
      <trkpt lat="43.72295" lon="4.11905">
        <ele>24.65</ele>
        <time>2015-07-13T07:28:01Z</time>
      </trkpt>
      <trkpt lat="43.72295" lon="4.11911">
        <ele>25.13</ele>
        <time>2015-07-13T07:28:02Z</time>
      </trkpt>
      <trkpt lat="43.72294" lon="4.11917">
        <ele>25.13</ele>
        <time>2015-07-13T07:28:03Z</time>
      </trkpt>
      <trkpt lat="43.72294" lon="4.11922">
        <ele>25.13</ele>
        <time>2015-07-13T07:28:04Z</time>
      </trkpt>
      <trkpt lat="43.72283" lon="4.11991">
        <ele>27.53</ele>
        <time>2015-07-13T07:28:19Z</time>
      </trkpt>
      <trkpt lat="43.72278" lon="4.12045">
        <ele>28.5</ele>
        <time>2015-07-13T07:28:32Z</time>
      </trkpt>
      <trkpt lat="43.72269" lon="4.12109">
        <ele>31.38</ele>
        <time>2015-07-13T07:28:48Z</time>
      </trkpt>
      <trkpt lat="43.72265" lon="4.12149">
        <ele>32.82</ele>
        <time>2015-07-13T07:28:59Z</time>
      </trkpt>
      <trkpt lat="43.72261" lon="4.1219">
        <ele>35.23</ele>
        <time>2015-07-13T07:29:12Z</time>
      </trkpt>
      <trkpt lat="43.7226" lon="4.12218">
        <ele>36.67</ele>
        <time>2015-07-13T07:29:23Z</time>
      </trkpt>
      <trkpt lat="43.72267" lon="4.12251">
        <ele>38.59</ele>
        <time>2015-07-13T07:29:37Z</time>
      </trkpt>
      <trkpt lat="43.7228" lon="4.12281">
        <ele>40.51</ele>
        <time>2015-07-13T07:29:51Z</time>
      </trkpt>
      <trkpt lat="43.72297" lon="4.12306">
        <ele>41.47</ele>
        <time>2015-07-13T07:30:05Z</time>
      </trkpt>
      <trkpt lat="43.72315" lon="4.12332">
        <ele>42.92</ele>
        <time>2015-07-13T07:30:19Z</time>
      </trkpt>
      <trkpt lat="43.72329" lon="4.12352">
        <ele>44.84</ele>
        <time>2015-07-13T07:30:30Z</time>
      </trkpt>
      <trkpt lat="43.72344" lon="4.12375">
        <ele>46.28</ele>
        <time>2015-07-13T07:30:41Z</time>
      </trkpt>
      <trkpt lat="43.72366" lon="4.12409">
        <ele>48.2</ele>
        <time>2015-07-13T07:30:55Z</time>
      </trkpt>
      <trkpt lat="43.7239" lon="4.12444">
        <ele>50.13</ele>
        <time>2015-07-13T07:31:10Z</time>
      </trkpt>
      <trkpt lat="43.72412" lon="4.12483">
        <ele>53.01</ele>
        <time>2015-07-13T07:31:24Z</time>
      </trkpt>
      <trkpt lat="43.72428" lon="4.12521">
        <ele>54.45</ele>
        <time>2015-07-13T07:31:37Z</time>
      </trkpt>
      <trkpt lat="43.72435" lon="4.12561">
        <ele>56.86</ele>
        <time>2015-07-13T07:31:49Z</time>
      </trkpt>
      <trkpt lat="43.72437" lon="4.12605">
        <ele>57.82</ele>
        <time>2015-07-13T07:32:01Z</time>
      </trkpt>
      <trkpt lat="43.72442" lon="4.12662">
        <ele>56.37</ele>
        <time>2015-07-13T07:32:13Z</time>
      </trkpt>
      <trkpt lat="43.72446" lon="4.12699">
        <ele>55.89</ele>
        <time>2015-07-13T07:32:18Z</time>
      </trkpt>
      <trkpt lat="43.72448" lon="4.12708">
        <ele>55.89</ele>
        <time>2015-07-13T07:32:19Z</time>
      </trkpt>
      <trkpt lat="43.72459" lon="4.12743">
        <ele>53.97</ele>
        <time>2015-07-13T07:32:23Z</time>
      </trkpt>
      <trkpt lat="43.72476" lon="4.12804">
        <ele>50.61</ele>
        <time>2015-07-13T07:32:29Z</time>
      </trkpt>
      <trkpt lat="43.72498" lon="4.12885">
        <ele>47.24</ele>
        <time>2015-07-13T07:32:36Z</time>
      </trkpt>
      <trkpt lat="43.7252" lon="4.12929">
        <ele>44.84</ele>
        <time>2015-07-13T07:32:40Z</time>
      </trkpt>
      <trkpt lat="43.72547" lon="4.12968">
        <ele>43.4</ele>
        <time>2015-07-13T07:32:44Z</time>
      </trkpt>
      <trkpt lat="43.72553" lon="4.12979">
        <ele>42.92</ele>
        <time>2015-07-13T07:32:45Z</time>
      </trkpt>
      <trkpt lat="43.72559" lon="4.12991">
        <ele>42.44</ele>
        <time>2015-07-13T07:32:46Z</time>
      </trkpt>
      <trkpt lat="43.72584" lon="4.13053">
        <ele>39.55</ele>
        <time>2015-07-13T07:32:51Z</time>
      </trkpt>
      <trkpt lat="43.72587" lon="4.13065">
        <ele>39.07</ele>
        <time>2015-07-13T07:32:52Z</time>
      </trkpt>
      <trkpt lat="43.72589" lon="4.13077">
        <ele>39.07</ele>
        <time>2015-07-13T07:32:53Z</time>
      </trkpt>
      <trkpt lat="43.7259" lon="4.13089">
        <ele>38.59</ele>
        <time>2015-07-13T07:32:54Z</time>
      </trkpt>
      <trkpt lat="43.72591" lon="4.13101">
        <ele>38.59</ele>
        <time>2015-07-13T07:32:55Z</time>
      </trkpt>
      <trkpt lat="43.72603" lon="4.13164">
        <ele>39.55</ele>
        <time>2015-07-13T07:33:01Z</time>
      </trkpt>
      <trkpt lat="43.72607" lon="4.13172">
        <ele>39.07</ele>
        <time>2015-07-13T07:33:02Z</time>
      </trkpt>
      <trkpt lat="43.72644" lon="4.13231">
        <ele>38.59</ele>
        <time>2015-07-13T07:33:12Z</time>
      </trkpt>
      <trkpt lat="43.72682" lon="4.13277">
        <ele>38.59</ele>
        <time>2015-07-13T07:33:23Z</time>
      </trkpt>
      <trkpt lat="43.72728" lon="4.13313">
        <ele>39.07</ele>
        <time>2015-07-13T07:33:36Z</time>
      </trkpt>
      <trkpt lat="43.72771" lon="4.13332">
        <ele>38.59</ele>
        <time>2015-07-13T07:33:48Z</time>
      </trkpt>
      <trkpt lat="43.7281" lon="4.13348">
        <ele>39.55</ele>
        <time>2015-07-13T07:33:59Z</time>
      </trkpt>
      <trkpt lat="43.72849" lon="4.13363">
        <ele>39.07</ele>
        <time>2015-07-13T07:34:10Z</time>
      </trkpt>
      <trkpt lat="43.72885" lon="4.13376">
        <ele>38.59</ele>
        <time>2015-07-13T07:34:19Z</time>
      </trkpt>
      <trkpt lat="43.72931" lon="4.13394">
        <ele>38.11</ele>
        <time>2015-07-13T07:34:30Z</time>
      </trkpt>
      <trkpt lat="43.72977" lon="4.13422">
        <ele>37.15</ele>
        <time>2015-07-13T07:34:43Z</time>
      </trkpt>
      <trkpt lat="43.73023" lon="4.1346">
        <ele>36.67</ele>
        <time>2015-07-13T07:34:57Z</time>
      </trkpt>
      <trkpt lat="43.73056" lon="4.13488">
        <ele>35.23</ele>
        <time>2015-07-13T07:35:08Z</time>
      </trkpt>
      <trkpt lat="43.73067" lon="4.13509">
        <ele>34.74</ele>
        <time>2015-07-13T07:35:15Z</time>
      </trkpt>
      <trkpt lat="43.73067" lon="4.13509">
        <ele>34.26</ele>
        <time>2015-07-13T07:35:23Z</time>
      </trkpt>
      <trkpt lat="43.73069" lon="4.1351">
        <ele>34.26</ele>
        <time>2015-07-13T07:35:24Z</time>
      </trkpt>
      <trkpt lat="43.73085" lon="4.1352">
        <ele>33.3</ele>
        <time>2015-07-13T07:35:32Z</time>
      </trkpt>
      <trkpt lat="43.7312" lon="4.13558">
        <ele>31.38</ele>
        <time>2015-07-13T07:35:41Z</time>
      </trkpt>
      <trkpt lat="43.73167" lon="4.1362">
        <ele>28.98</ele>
        <time>2015-07-13T07:35:51Z</time>
      </trkpt>
      <trkpt lat="43.73217" lon="4.13702">
        <ele>27.05</ele>
        <time>2015-07-13T07:36:03Z</time>
      </trkpt>
      <trkpt lat="43.73261" lon="4.13774">
        <ele>26.57</ele>
        <time>2015-07-13T07:36:14Z</time>
      </trkpt>
      <trkpt lat="43.73303" lon="4.13843">
        <ele>25.61</ele>
        <time>2015-07-13T07:36:27Z</time>
      </trkpt>
      <trkpt lat="43.73339" lon="4.13899">
        <ele>26.09</ele>
        <time>2015-07-13T07:36:40Z</time>
      </trkpt>
      <trkpt lat="43.73368" lon="4.13958">
        <ele>26.09</ele>
        <time>2015-07-13T07:36:54Z</time>
      </trkpt>
      <trkpt lat="43.73371" lon="4.14009">
        <ele>27.05</ele>
        <time>2015-07-13T07:37:06Z</time>
      </trkpt>
      <trkpt lat="43.7337" lon="4.14012">
        <ele>27.05</ele>
        <time>2015-07-13T07:37:07Z</time>
      </trkpt>
      <trkpt lat="43.73368" lon="4.14014">
        <ele>27.53</ele>
        <time>2015-07-13T07:37:08Z</time>
      </trkpt>
      <trkpt lat="43.73364" lon="4.14015">
        <ele>27.05</ele>
        <time>2015-07-13T07:37:09Z</time>
      </trkpt>
      <trkpt lat="43.73361" lon="4.14016">
        <ele>27.05</ele>
        <time>2015-07-13T07:37:10Z</time>
      </trkpt>
      <trkpt lat="43.73357" lon="4.14018">
        <ele>27.05</ele>
        <time>2015-07-13T07:37:11Z</time>
      </trkpt>
      <trkpt lat="43.73353" lon="4.14021">
        <ele>26.57</ele>
        <time>2015-07-13T07:37:12Z</time>
      </trkpt>
      <trkpt lat="43.7335" lon="4.14024">
        <ele>26.57</ele>
        <time>2015-07-13T07:37:13Z</time>
      </trkpt>
      <trkpt lat="43.73347" lon="4.14027">
        <ele>27.05</ele>
        <time>2015-07-13T07:37:14Z</time>
      </trkpt>
      <trkpt lat="43.73343" lon="4.14031">
        <ele>26.57</ele>
        <time>2015-07-13T07:37:15Z</time>
      </trkpt>
      <trkpt lat="43.7334" lon="4.14035">
        <ele>27.05</ele>
        <time>2015-07-13T07:37:16Z</time>
      </trkpt>
      <trkpt lat="43.73334" lon="4.14043">
        <ele>26.57</ele>
        <time>2015-07-13T07:37:18Z</time>
      </trkpt>
      <trkpt lat="43.73332" lon="4.14048">
        <ele>26.09</ele>
        <time>2015-07-13T07:37:19Z</time>
      </trkpt>
      <trkpt lat="43.73329" lon="4.14052">
        <ele>26.57</ele>
        <time>2015-07-13T07:37:20Z</time>
      </trkpt>
      <trkpt lat="43.73326" lon="4.14056">
        <ele>26.09</ele>
        <time>2015-07-13T07:37:21Z</time>
      </trkpt>
      <trkpt lat="43.73323" lon="4.14061">
        <ele>25.61</ele>
        <time>2015-07-13T07:37:22Z</time>
      </trkpt>
      <trkpt lat="43.73319" lon="4.14065">
        <ele>26.09</ele>
        <time>2015-07-13T07:37:23Z</time>
      </trkpt>
      <trkpt lat="43.73315" lon="4.14068">
        <ele>26.09</ele>
        <time>2015-07-13T07:37:24Z</time>
      </trkpt>
      <trkpt lat="43.73304" lon="4.14074">
        <ele>25.61</ele>
        <time>2015-07-13T07:37:27Z</time>
      </trkpt>
      <trkpt lat="43.733" lon="4.14074">
        <ele>26.09</ele>
        <time>2015-07-13T07:37:28Z</time>
      </trkpt>
      <trkpt lat="43.73262" lon="4.1407">
        <ele>25.61</ele>
        <time>2015-07-13T07:37:39Z</time>
      </trkpt>
      <trkpt lat="43.73255" lon="4.14072">
        <ele>25.61</ele>
        <time>2015-07-13T07:37:41Z</time>
      </trkpt>
      <trkpt lat="43.73252" lon="4.14076">
        <ele>25.61</ele>
        <time>2015-07-13T07:37:42Z</time>
      </trkpt>
      <trkpt lat="43.73251" lon="4.1408">
        <ele>26.09</ele>
        <time>2015-07-13T07:37:43Z</time>
      </trkpt>
      <trkpt lat="43.73252" lon="4.14085">
        <ele>26.09</ele>
        <time>2015-07-13T07:37:44Z</time>
      </trkpt>
      <trkpt lat="43.73253" lon="4.14089">
        <ele>26.57</ele>
        <time>2015-07-13T07:37:45Z</time>
      </trkpt>
      <trkpt lat="43.73255" lon="4.14094">
        <ele>26.09</ele>
        <time>2015-07-13T07:37:46Z</time>
      </trkpt>
      <trkpt lat="43.73256" lon="4.14098">
        <ele>26.09</ele>
        <time>2015-07-13T07:37:47Z</time>
      </trkpt>
      <trkpt lat="43.73257" lon="4.14104">
        <ele>26.09</ele>
        <time>2015-07-13T07:37:48Z</time>
      </trkpt>
      <trkpt lat="43.73257" lon="4.1411">
        <ele>25.13</ele>
        <time>2015-07-13T07:37:49Z</time>
      </trkpt>
      <trkpt lat="43.73255" lon="4.14116">
        <ele>24.65</ele>
        <time>2015-07-13T07:37:50Z</time>
      </trkpt>
      <trkpt lat="43.73252" lon="4.14121">
        <ele>24.65</ele>
        <time>2015-07-13T07:37:51Z</time>
      </trkpt>
      <trkpt lat="43.73248" lon="4.14126">
        <ele>24.65</ele>
        <time>2015-07-13T07:37:52Z</time>
      </trkpt>
      <trkpt lat="43.73244" lon="4.1413">
        <ele>24.17</ele>
        <time>2015-07-13T07:37:53Z</time>
      </trkpt>
      <trkpt lat="43.73198" lon="4.14179">
        <ele>23.69</ele>
        <time>2015-07-13T07:38:04Z</time>
      </trkpt>
      <trkpt lat="43.73194" lon="4.14183">
        <ele>23.69</ele>
        <time>2015-07-13T07:38:05Z</time>
      </trkpt>
      <trkpt lat="43.7319" lon="4.14187">
        <ele>23.69</ele>
        <time>2015-07-13T07:38:06Z</time>
      </trkpt>
      <trkpt lat="43.73164" lon="4.1422">
        <ele>24.17</ele>
        <time>2015-07-13T07:38:13Z</time>
      </trkpt>
      <trkpt lat="43.73156" lon="4.14227">
        <ele>24.17</ele>
        <time>2015-07-13T07:38:15Z</time>
      </trkpt>
      <trkpt lat="43.73108" lon="4.14254">
        <ele>23.69</ele>
        <time>2015-07-13T07:38:26Z</time>
      </trkpt>
      <trkpt lat="43.73099" lon="4.14258">
        <ele>23.21</ele>
        <time>2015-07-13T07:38:28Z</time>
      </trkpt>
      <trkpt lat="43.73094" lon="4.1426">
        <ele>23.21</ele>
        <time>2015-07-13T07:38:29Z</time>
      </trkpt>
      <trkpt lat="43.7309" lon="4.14262">
        <ele>23.69</ele>
        <time>2015-07-13T07:38:30Z</time>
      </trkpt>
      <trkpt lat="43.73061" lon="4.14279">
        <ele>23.69</ele>
        <time>2015-07-13T07:38:37Z</time>
      </trkpt>
      <trkpt lat="43.72992" lon="4.14312">
        <ele>23.21</ele>
        <time>2015-07-13T07:38:51Z</time>
      </trkpt>
      <trkpt lat="43.72951" lon="4.14334">
        <ele>23.21</ele>
        <time>2015-07-13T07:39:00Z</time>
      </trkpt>
      <trkpt lat="43.72946" lon="4.14336">
        <ele>23.21</ele>
        <time>2015-07-13T07:39:01Z</time>
      </trkpt>
      <trkpt lat="43.72882" lon="4.14363">
        <ele>22.73</ele>
        <time>2015-07-13T07:39:14Z</time>
      </trkpt>
      <trkpt lat="43.72824" lon="4.14385">
        <ele>21.77</ele>
        <time>2015-07-13T07:39:26Z</time>
      </trkpt>
      <trkpt lat="43.72749" lon="4.14412">
        <ele>21.29</ele>
        <time>2015-07-13T07:39:41Z</time>
      </trkpt>
      <trkpt lat="43.72684" lon="4.14448">
        <ele>21.29</ele>
        <time>2015-07-13T07:39:54Z</time>
      </trkpt>
      <trkpt lat="43.72621" lon="4.14484">
        <ele>19.84</ele>
        <time>2015-07-13T07:40:07Z</time>
      </trkpt>
      <trkpt lat="43.72565" lon="4.14513">
        <ele>19.84</ele>
        <time>2015-07-13T07:40:19Z</time>
      </trkpt>
      <trkpt lat="43.72552" lon="4.1452">
        <ele>19.36</ele>
        <time>2015-07-13T07:40:22Z</time>
      </trkpt>
      <trkpt lat="43.72492" lon="4.14555">
        <ele>19.36</ele>
        <time>2015-07-13T07:40:36Z</time>
      </trkpt>
      <trkpt lat="43.72437" lon="4.14587">
        <ele>18.88</ele>
        <time>2015-07-13T07:40:49Z</time>
      </trkpt>
      <trkpt lat="43.72368" lon="4.14625">
        <ele>19.36</ele>
        <time>2015-07-13T07:41:05Z</time>
      </trkpt>
      <trkpt lat="43.72292" lon="4.14651">
        <ele>18.88</ele>
        <time>2015-07-13T07:41:21Z</time>
      </trkpt>
      <trkpt lat="43.72235" lon="4.14668">
        <ele>18.88</ele>
        <time>2015-07-13T07:41:33Z</time>
      </trkpt>
      <trkpt lat="43.72231" lon="4.14672">
        <ele>19.36</ele>
        <time>2015-07-13T07:41:34Z</time>
      </trkpt>
      <trkpt lat="43.72228" lon="4.14677">
        <ele>18.88</ele>
        <time>2015-07-13T07:41:35Z</time>
      </trkpt>
      <trkpt lat="43.72227" lon="4.14683">
        <ele>18.88</ele>
        <time>2015-07-13T07:41:36Z</time>
      </trkpt>
      <trkpt lat="43.72227" lon="4.1469">
        <ele>18.88</ele>
        <time>2015-07-13T07:41:37Z</time>
      </trkpt>
      <trkpt lat="43.72229" lon="4.14696">
        <ele>18.4</ele>
        <time>2015-07-13T07:41:38Z</time>
      </trkpt>
      <trkpt lat="43.72231" lon="4.14703">
        <ele>18.88</ele>
        <time>2015-07-13T07:41:39Z</time>
      </trkpt>
      <trkpt lat="43.72258" lon="4.1478">
        <ele>19.84</ele>
        <time>2015-07-13T07:41:52Z</time>
      </trkpt>
      <trkpt lat="43.72283" lon="4.14854">
        <ele>19.36</ele>
        <time>2015-07-13T07:42:05Z</time>
      </trkpt>
      <trkpt lat="43.72305" lon="4.14918">
        <ele>19.84</ele>
        <time>2015-07-13T07:42:17Z</time>
      </trkpt>
      <trkpt lat="43.72306" lon="4.14931">
        <ele>19.36</ele>
        <time>2015-07-13T07:42:20Z</time>
      </trkpt>
      <trkpt lat="43.72304" lon="4.14934">
        <ele>19.36</ele>
        <time>2015-07-13T07:42:21Z</time>
      </trkpt>
      <trkpt lat="43.72302" lon="4.14938">
        <ele>19.36</ele>
        <time>2015-07-13T07:42:22Z</time>
      </trkpt>
      <trkpt lat="43.72298" lon="4.1494">
        <ele>19.36</ele>
        <time>2015-07-13T07:42:23Z</time>
      </trkpt>
      <trkpt lat="43.72295" lon="4.14942">
        <ele>18.88</ele>
        <time>2015-07-13T07:42:24Z</time>
      </trkpt>
      <trkpt lat="43.72291" lon="4.14944">
        <ele>18.88</ele>
        <time>2015-07-13T07:42:25Z</time>
      </trkpt>
      <trkpt lat="43.72271" lon="4.14957">
        <ele>18.88</ele>
        <time>2015-07-13T07:42:30Z</time>
      </trkpt>
      <trkpt lat="43.72266" lon="4.14958">
        <ele>18.88</ele>
        <time>2015-07-13T07:42:31Z</time>
      </trkpt>
      <trkpt lat="43.72262" lon="4.14957">
        <ele>18.88</ele>
        <time>2015-07-13T07:42:32Z</time>
      </trkpt>
      <trkpt lat="43.72258" lon="4.14955">
        <ele>19.84</ele>
        <time>2015-07-13T07:42:33Z</time>
      </trkpt>
      <trkpt lat="43.72255" lon="4.14951">
        <ele>19.84</ele>
        <time>2015-07-13T07:42:34Z</time>
      </trkpt>
      <trkpt lat="43.72252" lon="4.14945">
        <ele>19.84</ele>
        <time>2015-07-13T07:42:35Z</time>
      </trkpt>
      <trkpt lat="43.72251" lon="4.1494">
        <ele>19.84</ele>
        <time>2015-07-13T07:42:36Z</time>
      </trkpt>
      <trkpt lat="43.72249" lon="4.14934">
        <ele>19.36</ele>
        <time>2015-07-13T07:42:37Z</time>
      </trkpt>
      <trkpt lat="43.72239" lon="4.14902">
        <ele>20.32</ele>
        <time>2015-07-13T07:42:43Z</time>
      </trkpt>
      <trkpt lat="43.72209" lon="4.14816">
        <ele>19.36</ele>
        <time>2015-07-13T07:42:58Z</time>
      </trkpt>
      <trkpt lat="43.72194" lon="4.14776">
        <ele>18.4</ele>
        <time>2015-07-13T07:43:05Z</time>
      </trkpt>
      <trkpt lat="43.7219" lon="4.14763">
        <ele>18.88</ele>
        <time>2015-07-13T07:43:07Z</time>
      </trkpt>
      <trkpt lat="43.72182" lon="4.14739">
        <ele>18.88</ele>
        <time>2015-07-13T07:43:11Z</time>
      </trkpt>
      <trkpt lat="43.72165" lon="4.14712">
        <ele>19.36</ele>
        <time>2015-07-13T07:43:19Z</time>
      </trkpt>
      <trkpt lat="43.72162" lon="4.14713">
        <ele>19.36</ele>
        <time>2015-07-13T07:43:20Z</time>
      </trkpt>
      <trkpt lat="43.72134" lon="4.14741">
        <ele>18.88</ele>
        <time>2015-07-13T07:43:29Z</time>
      </trkpt>
      <trkpt lat="43.72083" lon="4.14779">
        <ele>18.4</ele>
        <time>2015-07-13T07:43:42Z</time>
      </trkpt>
      <trkpt lat="43.72043" lon="4.14785">
        <ele>19.36</ele>
        <time>2015-07-13T07:43:53Z</time>
      </trkpt>
      <trkpt lat="43.72005" lon="4.14782">
        <ele>20.32</ele>
        <time>2015-07-13T07:44:05Z</time>
      </trkpt>
      <trkpt lat="43.71995" lon="4.14785">
        <ele>21.29</ele>
        <time>2015-07-13T07:44:12Z</time>
      </trkpt>
      <trkpt lat="43.71993" lon="4.14786">
        <ele>20.81</ele>
        <time>2015-07-13T07:44:21Z</time>
      </trkpt>
      <trkpt lat="43.7199" lon="4.14784">
        <ele>20.32</ele>
        <time>2015-07-13T07:44:31Z</time>
      </trkpt>
      <trkpt lat="43.71986" lon="4.1479">
        <ele>20.81</ele>
        <time>2015-07-13T07:44:41Z</time>
      </trkpt>
      <trkpt lat="43.71971" lon="4.14794">
        <ele>20.81</ele>
        <time>2015-07-13T07:44:54Z</time>
      </trkpt>
      <trkpt lat="43.71952" lon="4.14801">
        <ele>20.32</ele>
        <time>2015-07-13T07:45:09Z</time>
      </trkpt>
      <trkpt lat="43.71941" lon="4.14806">
        <ele>20.32</ele>
        <time>2015-07-13T07:45:22Z</time>
      </trkpt>
      <trkpt lat="43.71941" lon="4.14805">
        <ele>20.32</ele>
        <time>2015-07-13T07:45:34Z</time>
      </trkpt>
      <trkpt lat="43.71942" lon="4.14806">
        <ele>20.32</ele>
        <time>2015-07-13T07:45:56Z</time>
      </trkpt>
      <trkpt lat="43.71942" lon="4.14806">
        <ele>20.81</ele>
        <time>2015-07-13T07:46:19Z</time>
      </trkpt>
      <trkpt lat="43.71942" lon="4.14805">
        <ele>20.81</ele>
        <time>2015-07-13T07:46:42Z</time>
      </trkpt>
      <trkpt lat="43.71942" lon="4.14805">
        <ele>20.32</ele>
        <time>2015-07-13T07:47:07Z</time>
      </trkpt>
      <trkpt lat="43.71941" lon="4.14805">
        <ele>20.32</ele>
        <time>2015-07-13T07:47:32Z</time>
      </trkpt>
      <trkpt lat="43.71941" lon="4.14805">
        <ele>20.32</ele>
        <time>2015-07-13T07:47:54Z</time>
      </trkpt>
      <trkpt lat="43.71941" lon="4.14806">
        <ele>20.81</ele>
        <time>2015-07-13T07:48:17Z</time>
      </trkpt>
      <trkpt lat="43.7194" lon="4.14806">
        <ele>20.81</ele>
        <time>2015-07-13T07:48:44Z</time>
      </trkpt>
      <trkpt lat="43.71941" lon="4.14806">
        <ele>20.32</ele>
        <time>2015-07-13T07:49:13Z</time>
      </trkpt>
      <trkpt lat="43.71941" lon="4.14805">
        <ele>20.81</ele>
        <time>2015-07-13T07:49:42Z</time>
      </trkpt>
      <trkpt lat="43.71942" lon="4.14804">
        <ele>20.32</ele>
        <time>2015-07-13T07:50:13Z</time>
      </trkpt>
      <trkpt lat="43.71942" lon="4.14804">
        <ele>20.81</ele>
        <time>2015-07-13T07:50:40Z</time>
      </trkpt>
      <trkpt lat="43.71941" lon="4.14804">
        <ele>20.81</ele>
        <time>2015-07-13T07:51:06Z</time>
      </trkpt>
      <trkpt lat="43.71941" lon="4.14805">
        <ele>20.32</ele>
        <time>2015-07-13T07:51:31Z</time>
      </trkpt>
      <trkpt lat="43.71941" lon="4.14806">
        <ele>20.81</ele>
        <time>2015-07-13T07:52:01Z</time>
      </trkpt>
      <trkpt lat="43.71941" lon="4.14805">
        <ele>20.81</ele>
        <time>2015-07-13T07:52:24Z</time>
      </trkpt>
      <trkpt lat="43.71941" lon="4.14805">
        <ele>20.32</ele>
        <time>2015-07-13T07:52:54Z</time>
      </trkpt>
      <trkpt lat="43.71941" lon="4.14806">
        <ele>20.32</ele>
        <time>2015-07-13T07:53:24Z</time>
      </trkpt>
      <trkpt lat="43.71941" lon="4.14806">
        <ele>20.32</ele>
        <time>2015-07-13T07:53:54Z</time>
      </trkpt>
      <trkpt lat="43.71941" lon="4.14806">
        <ele>19.84</ele>
        <time>2015-07-13T07:54:20Z</time>
      </trkpt>
      <trkpt lat="43.71941" lon="4.14806">
        <ele>20.32</ele>
        <time>2015-07-13T07:54:43Z</time>
      </trkpt>
      <trkpt lat="43.71941" lon="4.14807">
        <ele>20.81</ele>
        <time>2015-07-13T07:55:02Z</time>
      </trkpt>
      <trkpt lat="43.71941" lon="4.14807">
        <ele>20.81</ele>
        <time>2015-07-13T07:55:31Z</time>
      </trkpt>
      <trkpt lat="43.71941" lon="4.14807">
        <ele>20.32</ele>
        <time>2015-07-13T07:55:54Z</time>
      </trkpt>
      <trkpt lat="43.71942" lon="4.14807">
        <ele>20.81</ele>
        <time>2015-07-13T07:56:19Z</time>
      </trkpt>
      <trkpt lat="43.71942" lon="4.14806">
        <ele>20.32</ele>
        <time>2015-07-13T07:56:44Z</time>
      </trkpt>
      <trkpt lat="43.71941" lon="4.14806">
        <ele>19.84</ele>
        <time>2015-07-13T07:57:05Z</time>
      </trkpt>
      <trkpt lat="43.71941" lon="4.14805">
        <ele>20.81</ele>
        <time>2015-07-13T07:57:34Z</time>
      </trkpt>
      <trkpt lat="43.7194" lon="4.14807">
        <ele>20.81</ele>
        <time>2015-07-13T07:57:44Z</time>
      </trkpt>
      <trkpt lat="43.71939" lon="4.14811">
        <ele>20.81</ele>
        <time>2015-07-13T07:57:48Z</time>
      </trkpt>
      <trkpt lat="43.71938" lon="4.14812">
        <ele>20.81</ele>
        <time>2015-07-13T07:57:49Z</time>
      </trkpt>
      <trkpt lat="43.71937" lon="4.14813">
        <ele>19.84</ele>
        <time>2015-07-13T07:57:50Z</time>
      </trkpt>
      <trkpt lat="43.71919" lon="4.14837">
        <ele>20.32</ele>
        <time>2015-07-13T07:58:01Z</time>
      </trkpt>
      <trkpt lat="43.71899" lon="4.14866">
        <ele>19.84</ele>
        <time>2015-07-13T07:58:12Z</time>
      </trkpt>
      <trkpt lat="43.71878" lon="4.14887">
        <ele>20.32</ele>
        <time>2015-07-13T07:58:23Z</time>
      </trkpt>
      <trkpt lat="43.71859" lon="4.14907">
        <ele>19.36</ele>
        <time>2015-07-13T07:58:32Z</time>
      </trkpt>
      <trkpt lat="43.71849" lon="4.14934">
        <ele>19.84</ele>
        <time>2015-07-13T07:58:41Z</time>
      </trkpt>
      <trkpt lat="43.71832" lon="4.14979">
        <ele>19.36</ele>
        <time>2015-07-13T07:58:53Z</time>
      </trkpt>
      <trkpt lat="43.71811" lon="4.15009">
        <ele>19.36</ele>
        <time>2015-07-13T07:59:02Z</time>
      </trkpt>
      <trkpt lat="43.71777" lon="4.15045">
        <ele>18.88</ele>
        <time>2015-07-13T07:59:15Z</time>
      </trkpt>
      <trkpt lat="43.71743" lon="4.15079">
        <ele>18.4</ele>
        <time>2015-07-13T07:59:28Z</time>
      </trkpt>
      <trkpt lat="43.71714" lon="4.15108">
        <ele>18.88</ele>
        <time>2015-07-13T07:59:40Z</time>
      </trkpt>
      <trkpt lat="43.71685" lon="4.15134">
        <ele>18.4</ele>
        <time>2015-07-13T07:59:52Z</time>
      </trkpt>
      <trkpt lat="43.71684" lon="4.15137">
        <ele>18.4</ele>
        <time>2015-07-13T07:59:53Z</time>
      </trkpt>
      <trkpt lat="43.71684" lon="4.15141">
        <ele>18.4</ele>
        <time>2015-07-13T07:59:54Z</time>
      </trkpt>
      <trkpt lat="43.71685" lon="4.15144">
        <ele>18.4</ele>
        <time>2015-07-13T07:59:55Z</time>
      </trkpt>
      <trkpt lat="43.71686" lon="4.15147">
        <ele>18.88</ele>
        <time>2015-07-13T07:59:56Z</time>
      </trkpt>
      <trkpt lat="43.71687" lon="4.15149">
        <ele>18.4</ele>
        <time>2015-07-13T07:59:57Z</time>
      </trkpt>
      <trkpt lat="43.71689" lon="4.15151">
        <ele>18.4</ele>
        <time>2015-07-13T07:59:58Z</time>
      </trkpt>
      <trkpt lat="43.7169" lon="4.15153">
        <ele>18.4</ele>
        <time>2015-07-13T07:59:59Z</time>
      </trkpt>
      <trkpt lat="43.71696" lon="4.15164">
        <ele>17.44</ele>
        <time>2015-07-13T08:00:09Z</time>
      </trkpt>
      <trkpt lat="43.71699" lon="4.15168">
        <ele>17.44</ele>
        <time>2015-07-13T08:00:21Z</time>
      </trkpt>
      <trkpt lat="43.717" lon="4.15168">
        <ele>16.96</ele>
        <time>2015-07-13T08:00:39Z</time>
      </trkpt>
      <trkpt lat="43.717" lon="4.15167">
        <ele>17.44</ele>
        <time>2015-07-13T08:01:02Z</time>
      </trkpt>
      <trkpt lat="43.71699" lon="4.15166">
        <ele>17.44</ele>
        <time>2015-07-13T08:01:13Z</time>
      </trkpt>
      <trkpt lat="43.71699" lon="4.15167">
        <ele>17.44</ele>
        <time>2015-07-13T08:01:35Z</time>
      </trkpt>
      <trkpt lat="43.71699" lon="4.15167">
        <ele>16.96</ele>
        <time>2015-07-13T08:02:06Z</time>
      </trkpt>
      <trkpt lat="43.71699" lon="4.15167">
        <ele>17.44</ele>
        <time>2015-07-13T08:02:31Z</time>
      </trkpt>
      <trkpt lat="43.71699" lon="4.15167">
        <ele>17.44</ele>
        <time>2015-07-13T08:02:55Z</time>
      </trkpt>
      <trkpt lat="43.71698" lon="4.15167">
        <ele>17.44</ele>
        <time>2015-07-13T08:03:21Z</time>
      </trkpt>
      <trkpt lat="43.71698" lon="4.15166">
        <ele>16.96</ele>
        <time>2015-07-13T08:03:49Z</time>
      </trkpt>
      <trkpt lat="43.717" lon="4.15167">
        <ele>16.96</ele>
        <time>2015-07-13T08:03:57Z</time>
      </trkpt>
      <trkpt lat="43.71701" lon="4.15168">
        <ele>16.96</ele>
        <time>2015-07-13T08:03:58Z</time>
      </trkpt>
      <trkpt lat="43.71703" lon="4.15169">
        <ele>16.48</ele>
        <time>2015-07-13T08:03:59Z</time>
      </trkpt>
      <trkpt lat="43.71705" lon="4.15169">
        <ele>16.96</ele>
        <time>2015-07-13T08:04:00Z</time>
      </trkpt>
      <trkpt lat="43.71707" lon="4.15169">
        <ele>16.96</ele>
        <time>2015-07-13T08:04:01Z</time>
      </trkpt>
      <trkpt lat="43.71708" lon="4.15168">
        <ele>16.96</ele>
        <time>2015-07-13T08:04:02Z</time>
      </trkpt>
      <trkpt lat="43.7171" lon="4.15165">
        <ele>16.48</ele>
        <time>2015-07-13T08:04:03Z</time>
      </trkpt>
      <trkpt lat="43.7171" lon="4.15163">
        <ele>16.96</ele>
        <time>2015-07-13T08:04:04Z</time>
      </trkpt>
      <trkpt lat="43.71711" lon="4.1516">
        <ele>16.96</ele>
        <time>2015-07-13T08:04:05Z</time>
      </trkpt>
      <trkpt lat="43.71712" lon="4.15157">
        <ele>16.96</ele>
        <time>2015-07-13T08:04:06Z</time>
      </trkpt>
      <trkpt lat="43.71711" lon="4.15145">
        <ele>16.96</ele>
        <time>2015-07-13T08:04:11Z</time>
      </trkpt>
      <trkpt lat="43.71709" lon="4.15144">
        <ele>17.44</ele>
        <time>2015-07-13T08:04:12Z</time>
      </trkpt>
      <trkpt lat="43.71707" lon="4.15143">
        <ele>17.44</ele>
        <time>2015-07-13T08:04:13Z</time>
      </trkpt>
      <trkpt lat="43.71679" lon="4.15138">
        <ele>17.92</ele>
        <time>2015-07-13T08:04:26Z</time>
      </trkpt>
      <trkpt lat="43.7165" lon="4.15165">
        <ele>17.44</ele>
        <time>2015-07-13T08:04:39Z</time>
      </trkpt>
      <trkpt lat="43.71624" lon="4.15186">
        <ele>17.92</ele>
        <time>2015-07-13T08:04:51Z</time>
      </trkpt>
      <trkpt lat="43.71593" lon="4.15217">
        <ele>18.4</ele>
        <time>2015-07-13T08:05:05Z</time>
      </trkpt>
      <trkpt lat="43.71576" lon="4.15235">
        <ele>17.92</ele>
        <time>2015-07-13T08:05:13Z</time>
      </trkpt>
      <trkpt lat="43.71557" lon="4.15254">
        <ele>16.96</ele>
        <time>2015-07-13T08:05:21Z</time>
      </trkpt>
      <trkpt lat="43.71537" lon="4.15272">
        <ele>17.44</ele>
        <time>2015-07-13T08:05:31Z</time>
      </trkpt>
      <trkpt lat="43.71518" lon="4.15289">
        <ele>17.92</ele>
        <time>2015-07-13T08:05:40Z</time>
      </trkpt>
      <trkpt lat="43.71499" lon="4.15305">
        <ele>17.92</ele>
        <time>2015-07-13T08:05:50Z</time>
      </trkpt>
      <trkpt lat="43.71486" lon="4.15313">
        <ele>18.4</ele>
        <time>2015-07-13T08:05:59Z</time>
      </trkpt>
      <trkpt lat="43.71482" lon="4.15316">
        <ele>17.92</ele>
        <time>2015-07-13T08:06:06Z</time>
      </trkpt>
      <trkpt lat="43.71481" lon="4.15317">
        <ele>17.92</ele>
        <time>2015-07-13T08:06:07Z</time>
      </trkpt>
      <trkpt lat="43.7148" lon="4.15319">
        <ele>17.44</ele>
        <time>2015-07-13T08:06:08Z</time>
      </trkpt>
      <trkpt lat="43.71478" lon="4.15322">
        <ele>17.92</ele>
        <time>2015-07-13T08:06:09Z</time>
      </trkpt>
      <trkpt lat="43.71476" lon="4.15324">
        <ele>17.92</ele>
        <time>2015-07-13T08:06:10Z</time>
      </trkpt>
      <trkpt lat="43.71474" lon="4.15326">
        <ele>17.92</ele>
        <time>2015-07-13T08:06:11Z</time>
      </trkpt>
      <trkpt lat="43.71472" lon="4.15328">
        <ele>17.92</ele>
        <time>2015-07-13T08:06:12Z</time>
      </trkpt>
      <trkpt lat="43.7147" lon="4.15329">
        <ele>17.44</ele>
        <time>2015-07-13T08:06:13Z</time>
      </trkpt>
      <trkpt lat="43.71469" lon="4.15331">
        <ele>17.44</ele>
        <time>2015-07-13T08:06:14Z</time>
      </trkpt>
      <trkpt lat="43.71467" lon="4.15333">
        <ele>17.92</ele>
        <time>2015-07-13T08:06:15Z</time>
      </trkpt>
      <trkpt lat="43.71466" lon="4.15335">
        <ele>17.92</ele>
        <time>2015-07-13T08:06:16Z</time>
      </trkpt>
      <trkpt lat="43.71449" lon="4.1536">
        <ele>17.92</ele>
        <time>2015-07-13T08:06:26Z</time>
      </trkpt>
      <trkpt lat="43.71432" lon="4.15379">
        <ele>18.88</ele>
        <time>2015-07-13T08:06:36Z</time>
      </trkpt>
      <trkpt lat="43.71428" lon="4.15385">
        <ele>19.36</ele>
        <time>2015-07-13T08:06:40Z</time>
      </trkpt>
      <trkpt lat="43.71423" lon="4.15392">
        <ele>19.84</ele>
        <time>2015-07-13T08:06:46Z</time>
      </trkpt>
      <trkpt lat="43.71422" lon="4.15393">
        <ele>19.36</ele>
        <time>2015-07-13T08:06:47Z</time>
      </trkpt>
      <trkpt lat="43.71416" lon="4.15399">
        <ele>19.84</ele>
        <time>2015-07-13T08:06:54Z</time>
      </trkpt>
      <trkpt lat="43.71405" lon="4.1541">
        <ele>21.29</ele>
        <time>2015-07-13T08:07:07Z</time>
      </trkpt>
      <trkpt lat="43.71401" lon="4.15416">
        <ele>21.77</ele>
        <time>2015-07-13T08:07:17Z</time>
      </trkpt>
      <trkpt lat="43.71399" lon="4.15417">
        <ele>22.25</ele>
        <time>2015-07-13T08:07:19Z</time>
      </trkpt>
      <trkpt lat="43.71388" lon="4.15431">
        <ele>21.77</ele>
        <time>2015-07-13T08:07:32Z</time>
      </trkpt>
      <trkpt lat="43.71383" lon="4.15441">
        <ele>21.29</ele>
        <time>2015-07-13T08:07:43Z</time>
      </trkpt>
      <trkpt lat="43.71373" lon="4.1545">
        <ele>20.81</ele>
        <time>2015-07-13T08:07:55Z</time>
      </trkpt>
      <trkpt lat="43.71364" lon="4.15457">
        <ele>19.84</ele>
        <time>2015-07-13T08:08:06Z</time>
      </trkpt>
      <trkpt lat="43.71363" lon="4.15458">
        <ele>19.84</ele>
        <time>2015-07-13T08:08:07Z</time>
      </trkpt>
      <trkpt lat="43.71354" lon="4.15469">
        <ele>19.36</ele>
        <time>2015-07-13T08:08:20Z</time>
      </trkpt>
      <trkpt lat="43.71348" lon="4.15475">
        <ele>19.36</ele>
        <time>2015-07-13T08:08:32Z</time>
      </trkpt>
      <trkpt lat="43.71346" lon="4.15475">
        <ele>18.88</ele>
        <time>2015-07-13T08:08:33Z</time>
      </trkpt>
      <trkpt lat="43.71344" lon="4.15476">
        <ele>19.36</ele>
        <time>2015-07-13T08:08:34Z</time>
      </trkpt>
      <trkpt lat="43.71342" lon="4.15478">
        <ele>19.36</ele>
        <time>2015-07-13T08:08:35Z</time>
      </trkpt>
      <trkpt lat="43.71339" lon="4.15479">
        <ele>18.88</ele>
        <time>2015-07-13T08:08:36Z</time>
      </trkpt>
      <trkpt lat="43.71336" lon="4.15481">
        <ele>18.88</ele>
        <time>2015-07-13T08:08:37Z</time>
      </trkpt>
      <trkpt lat="43.71304" lon="4.155">
        <ele>18.4</ele>
        <time>2015-07-13T08:08:50Z</time>
      </trkpt>
      <trkpt lat="43.71281" lon="4.15507">
        <ele>18.4</ele>
        <time>2015-07-13T08:09:01Z</time>
      </trkpt>
      <trkpt lat="43.71263" lon="4.155">
        <ele>18.4</ele>
        <time>2015-07-13T08:09:11Z</time>
      </trkpt>
      <trkpt lat="43.71248" lon="4.155">
        <ele>18.88</ele>
        <time>2015-07-13T08:09:20Z</time>
      </trkpt>
      <trkpt lat="43.71224" lon="4.15505">
        <ele>18.4</ele>
        <time>2015-07-13T08:09:30Z</time>
      </trkpt>
      <trkpt lat="43.71197" lon="4.15505">
        <ele>17.92</ele>
        <time>2015-07-13T08:09:41Z</time>
      </trkpt>
      <trkpt lat="43.7118" lon="4.15505">
        <ele>17.92</ele>
        <time>2015-07-13T08:09:49Z</time>
      </trkpt>
      <trkpt lat="43.71177" lon="4.15504">
        <ele>17.92</ele>
        <time>2015-07-13T08:09:50Z</time>
      </trkpt>
      <trkpt lat="43.71174" lon="4.15504">
        <ele>17.92</ele>
        <time>2015-07-13T08:09:51Z</time>
      </trkpt>
      <trkpt lat="43.71172" lon="4.15504">
        <ele>17.44</ele>
        <time>2015-07-13T08:09:52Z</time>
      </trkpt>
      <trkpt lat="43.71169" lon="4.15504">
        <ele>17.44</ele>
        <time>2015-07-13T08:09:53Z</time>
      </trkpt>
      <trkpt lat="43.71139" lon="4.15513">
        <ele>17.92</ele>
        <time>2015-07-13T08:10:05Z</time>
      </trkpt>
      <trkpt lat="43.71117" lon="4.15519">
        <ele>17.44</ele>
        <time>2015-07-13T08:10:14Z</time>
      </trkpt>
      <trkpt lat="43.71089" lon="4.15519">
        <ele>17.92</ele>
        <time>2015-07-13T08:10:27Z</time>
      </trkpt>
      <trkpt lat="43.7107" lon="4.15503">
        <ele>17.92</ele>
        <time>2015-07-13T08:10:39Z</time>
      </trkpt>
      <trkpt lat="43.71057" lon="4.15486">
        <ele>18.88</ele>
        <time>2015-07-13T08:10:49Z</time>
      </trkpt>
      <trkpt lat="43.71054" lon="4.15478">
        <ele>19.36</ele>
        <time>2015-07-13T08:10:53Z</time>
      </trkpt>
      <trkpt lat="43.71052" lon="4.15477">
        <ele>19.84</ele>
        <time>2015-07-13T08:10:54Z</time>
      </trkpt>
      <trkpt lat="43.71051" lon="4.15476">
        <ele>19.84</ele>
        <time>2015-07-13T08:10:55Z</time>
      </trkpt>
      <trkpt lat="43.71049" lon="4.15476">
        <ele>19.84</ele>
        <time>2015-07-13T08:10:56Z</time>
      </trkpt>
      <trkpt lat="43.71048" lon="4.15475">
        <ele>19.84</ele>
        <time>2015-07-13T08:10:57Z</time>
      </trkpt>
      <trkpt lat="43.71047" lon="4.15474">
        <ele>19.84</ele>
        <time>2015-07-13T08:10:58Z</time>
      </trkpt>
      <trkpt lat="43.71045" lon="4.15474">
        <ele>20.32</ele>
        <time>2015-07-13T08:10:59Z</time>
      </trkpt>
      <trkpt lat="43.71044" lon="4.15474">
        <ele>19.84</ele>
        <time>2015-07-13T08:11:00Z</time>
      </trkpt>
      <trkpt lat="43.71043" lon="4.15473">
        <ele>20.32</ele>
        <time>2015-07-13T08:11:01Z</time>
      </trkpt>
      <trkpt lat="43.71042" lon="4.15472">
        <ele>20.32</ele>
        <time>2015-07-13T08:11:02Z</time>
      </trkpt>
      <trkpt lat="43.7104" lon="4.15472">
        <ele>20.32</ele>
        <time>2015-07-13T08:11:03Z</time>
      </trkpt>
      <trkpt lat="43.71039" lon="4.15471">
        <ele>20.32</ele>
        <time>2015-07-13T08:11:04Z</time>
      </trkpt>
      <trkpt lat="43.71037" lon="4.15471">
        <ele>20.32</ele>
        <time>2015-07-13T08:11:05Z</time>
      </trkpt>
      <trkpt lat="43.71036" lon="4.15471">
        <ele>20.32</ele>
        <time>2015-07-13T08:11:06Z</time>
      </trkpt>
      <trkpt lat="43.71027" lon="4.1547">
        <ele>20.32</ele>
        <time>2015-07-13T08:11:11Z</time>
      </trkpt>
      <trkpt lat="43.71025" lon="4.15469">
        <ele>20.81</ele>
        <time>2015-07-13T08:11:12Z</time>
      </trkpt>
      <trkpt lat="43.71023" lon="4.15467">
        <ele>20.32</ele>
        <time>2015-07-13T08:11:13Z</time>
      </trkpt>
      <trkpt lat="43.71022" lon="4.15464">
        <ele>20.32</ele>
        <time>2015-07-13T08:11:14Z</time>
      </trkpt>
      <trkpt lat="43.71021" lon="4.15462">
        <ele>20.81</ele>
        <time>2015-07-13T08:11:15Z</time>
      </trkpt>
      <trkpt lat="43.71006" lon="4.15439">
        <ele>21.29</ele>
        <time>2015-07-13T08:11:26Z</time>
      </trkpt>
      <trkpt lat="43.70986" lon="4.15427">
        <ele>21.77</ele>
        <time>2015-07-13T08:11:36Z</time>
      </trkpt>
      <trkpt lat="43.70965" lon="4.15419">
        <ele>22.25</ele>
        <time>2015-07-13T08:11:45Z</time>
      </trkpt>
      <trkpt lat="43.70935" lon="4.15411">
        <ele>23.21</ele>
        <time>2015-07-13T08:11:57Z</time>
      </trkpt>
      <trkpt lat="43.70903" lon="4.15396">
        <ele>23.21</ele>
        <time>2015-07-13T08:12:10Z</time>
      </trkpt>
      <trkpt lat="43.70879" lon="4.15366">
        <ele>23.21</ele>
        <time>2015-07-13T08:12:21Z</time>
      </trkpt>
      <trkpt lat="43.70851" lon="4.15322">
        <ele>23.21</ele>
        <time>2015-07-13T08:12:35Z</time>
      </trkpt>
      <trkpt lat="43.70825" lon="4.15289">
        <ele>24.17</ele>
        <time>2015-07-13T08:12:46Z</time>
      </trkpt>
      <trkpt lat="43.70807" lon="4.15265">
        <ele>24.17</ele>
        <time>2015-07-13T08:12:54Z</time>
      </trkpt>
      <trkpt lat="43.70781" lon="4.15234">
        <ele>24.65</ele>
        <time>2015-07-13T08:13:04Z</time>
      </trkpt>
      <trkpt lat="43.70749" lon="4.15193">
        <ele>26.09</ele>
        <time>2015-07-13T08:13:16Z</time>
      </trkpt>
      <trkpt lat="43.70717" lon="4.15154">
        <ele>25.61</ele>
        <time>2015-07-13T08:13:27Z</time>
      </trkpt>
      <trkpt lat="43.70676" lon="4.15094">
        <ele>24.17</ele>
        <time>2015-07-13T08:13:41Z</time>
      </trkpt>
      <trkpt lat="43.70635" lon="4.15032">
        <ele>23.69</ele>
        <time>2015-07-13T08:13:55Z</time>
      </trkpt>
      <trkpt lat="43.70597" lon="4.1497">
        <ele>23.21</ele>
        <time>2015-07-13T08:14:09Z</time>
      </trkpt>
      <trkpt lat="43.70557" lon="4.14911">
        <ele>24.65</ele>
        <time>2015-07-13T08:14:25Z</time>
      </trkpt>
      <trkpt lat="43.70528" lon="4.14854">
        <ele>25.13</ele>
        <time>2015-07-13T08:14:40Z</time>
      </trkpt>
      <trkpt lat="43.70512" lon="4.14812">
        <ele>26.09</ele>
        <time>2015-07-13T08:14:52Z</time>
      </trkpt>
      <trkpt lat="43.70499" lon="4.14751">
        <ele>28.02</ele>
        <time>2015-07-13T08:15:08Z</time>
      </trkpt>
      <trkpt lat="43.70486" lon="4.14687">
        <ele>29.94</ele>
        <time>2015-07-13T08:15:23Z</time>
      </trkpt>
      <trkpt lat="43.70475" lon="4.14641">
        <ele>31.38</ele>
        <time>2015-07-13T08:15:36Z</time>
      </trkpt>
      <trkpt lat="43.70466" lon="4.14609">
        <ele>32.34</ele>
        <time>2015-07-13T08:15:47Z</time>
      </trkpt>
      <trkpt lat="43.70451" lon="4.14583">
        <ele>33.78</ele>
        <time>2015-07-13T08:15:58Z</time>
      </trkpt>
      <trkpt lat="43.70428" lon="4.14564">
        <ele>34.74</ele>
        <time>2015-07-13T08:16:10Z</time>
      </trkpt>
      <trkpt lat="43.70403" lon="4.14558">
        <ele>35.71</ele>
        <time>2015-07-13T08:16:21Z</time>
      </trkpt>
      <trkpt lat="43.70363" lon="4.14562">
        <ele>35.71</ele>
        <time>2015-07-13T08:16:36Z</time>
      </trkpt>
      <trkpt lat="43.70333" lon="4.14561">
        <ele>34.74</ele>
        <time>2015-07-13T08:16:46Z</time>
      </trkpt>
      <trkpt lat="43.70305" lon="4.14563">
        <ele>33.78</ele>
        <time>2015-07-13T08:16:52Z</time>
      </trkpt>
      <trkpt lat="43.70259" lon="4.14564">
        <ele>30.42</ele>
        <time>2015-07-13T08:16:59Z</time>
      </trkpt>
      <trkpt lat="43.70214" lon="4.14564">
        <ele>27.05</ele>
        <time>2015-07-13T08:17:04Z</time>
      </trkpt>
      <trkpt lat="43.70162" lon="4.14554">
        <ele>24.65</ele>
        <time>2015-07-13T08:17:09Z</time>
      </trkpt>
      <trkpt lat="43.70042" lon="4.14526">
        <ele>21.77</ele>
        <time>2015-07-13T08:17:21Z</time>
      </trkpt>
      <trkpt lat="43.69991" lon="4.14514">
        <ele>20.32</ele>
        <time>2015-07-13T08:17:27Z</time>
      </trkpt>
      <trkpt lat="43.69983" lon="4.14513">
        <ele>20.32</ele>
        <time>2015-07-13T08:17:28Z</time>
      </trkpt>
      <trkpt lat="43.69975" lon="4.14514">
        <ele>20.32</ele>
        <time>2015-07-13T08:17:29Z</time>
      </trkpt>
      <trkpt lat="43.69935" lon="4.14516">
        <ele>19.84</ele>
        <time>2015-07-13T08:17:34Z</time>
      </trkpt>
      <trkpt lat="43.69891" lon="4.14497">
        <ele>19.36</ele>
        <time>2015-07-13T08:17:40Z</time>
      </trkpt>
      <trkpt lat="43.69885" lon="4.14491">
        <ele>19.36</ele>
        <time>2015-07-13T08:17:41Z</time>
      </trkpt>
      <trkpt lat="43.69879" lon="4.14485">
        <ele>18.88</ele>
        <time>2015-07-13T08:17:42Z</time>
      </trkpt>
      <trkpt lat="43.69813" lon="4.144">
        <ele>17.44</ele>
        <time>2015-07-13T08:17:55Z</time>
      </trkpt>
      <trkpt lat="43.69746" lon="4.14344">
        <ele>17.44</ele>
        <time>2015-07-13T08:18:08Z</time>
      </trkpt>
      <trkpt lat="43.69673" lon="4.14308">
        <ele>16</ele>
        <time>2015-07-13T08:18:21Z</time>
      </trkpt>
      <trkpt lat="43.69638" lon="4.143">
        <ele>16</ele>
        <time>2015-07-13T08:18:27Z</time>
      </trkpt>
      <trkpt lat="43.69633" lon="4.14297">
        <ele>16</ele>
        <time>2015-07-13T08:18:28Z</time>
      </trkpt>
      <trkpt lat="43.69627" lon="4.14293">
        <ele>16</ele>
        <time>2015-07-13T08:18:29Z</time>
      </trkpt>
      <trkpt lat="43.69622" lon="4.14288">
        <ele>15.52</ele>
        <time>2015-07-13T08:18:30Z</time>
      </trkpt>
      <trkpt lat="43.69617" lon="4.14284">
        <ele>16</ele>
        <time>2015-07-13T08:18:31Z</time>
      </trkpt>
      <trkpt lat="43.69587" lon="4.14259">
        <ele>17.44</ele>
        <time>2015-07-13T08:18:38Z</time>
      </trkpt>
      <trkpt lat="43.69551" lon="4.14246">
        <ele>19.36</ele>
        <time>2015-07-13T08:18:48Z</time>
      </trkpt>
      <trkpt lat="43.69509" lon="4.14241">
        <ele>19.36</ele>
        <time>2015-07-13T08:19:00Z</time>
      </trkpt>
      <trkpt lat="43.69471" lon="4.14238">
        <ele>16.96</ele>
        <time>2015-07-13T08:19:07Z</time>
      </trkpt>
      <trkpt lat="43.69446" lon="4.14232">
        <ele>15.52</ele>
        <time>2015-07-13T08:19:11Z</time>
      </trkpt>
      <trkpt lat="43.6944" lon="4.14229">
        <ele>16</ele>
        <time>2015-07-13T08:19:12Z</time>
      </trkpt>
      <trkpt lat="43.69405" lon="4.1421">
        <ele>15.04</ele>
        <time>2015-07-13T08:19:18Z</time>
      </trkpt>
      <trkpt lat="43.69398" lon="4.14209">
        <ele>14.08</ele>
        <time>2015-07-13T08:19:19Z</time>
      </trkpt>
      <trkpt lat="43.69391" lon="4.14209">
        <ele>14.08</ele>
        <time>2015-07-13T08:19:20Z</time>
      </trkpt>
      <trkpt lat="43.69384" lon="4.1421">
        <ele>14.08</ele>
        <time>2015-07-13T08:19:21Z</time>
      </trkpt>
      <trkpt lat="43.69377" lon="4.14212">
        <ele>14.08</ele>
        <time>2015-07-13T08:19:22Z</time>
      </trkpt>
      <trkpt lat="43.69336" lon="4.14228">
        <ele>14.56</ele>
        <time>2015-07-13T08:19:29Z</time>
      </trkpt>
      <trkpt lat="43.69326" lon="4.14236">
        <ele>14.08</ele>
        <time>2015-07-13T08:19:31Z</time>
      </trkpt>
      <trkpt lat="43.69322" lon="4.14241">
        <ele>14.56</ele>
        <time>2015-07-13T08:19:32Z</time>
      </trkpt>
      <trkpt lat="43.69318" lon="4.14246">
        <ele>13.6</ele>
        <time>2015-07-13T08:19:33Z</time>
      </trkpt>
      <trkpt lat="43.69312" lon="4.14258">
        <ele>14.08</ele>
        <time>2015-07-13T08:19:35Z</time>
      </trkpt>
      <trkpt lat="43.69274" lon="4.14341">
        <ele>13.6</ele>
        <time>2015-07-13T08:19:50Z</time>
      </trkpt>
      <trkpt lat="43.69234" lon="4.14426">
        <ele>13.6</ele>
        <time>2015-07-13T08:20:07Z</time>
      </trkpt>
      <trkpt lat="43.69204" lon="4.1447">
        <ele>13.12</ele>
        <time>2015-07-13T08:20:19Z</time>
      </trkpt>
      <trkpt lat="43.69185" lon="4.14489">
        <ele>14.08</ele>
        <time>2015-07-13T08:20:30Z</time>
      </trkpt>
      <trkpt lat="43.69183" lon="4.14487">
        <ele>14.08</ele>
        <time>2015-07-13T08:20:42Z</time>
      </trkpt>
      <trkpt lat="43.69183" lon="4.14487">
        <ele>14.08</ele>
        <time>2015-07-13T08:21:03Z</time>
      </trkpt>
      <trkpt lat="43.69183" lon="4.14487">
        <ele>14.08</ele>
        <time>2015-07-13T08:21:23Z</time>
      </trkpt>
      <trkpt lat="43.69183" lon="4.14487">
        <ele>14.56</ele>
        <time>2015-07-13T08:21:41Z</time>
      </trkpt>
      <trkpt lat="43.6918" lon="4.14484">
        <ele>14.08</ele>
        <time>2015-07-13T08:21:49Z</time>
      </trkpt>
      <trkpt lat="43.69179" lon="4.14482">
        <ele>14.08</ele>
        <time>2015-07-13T08:21:50Z</time>
      </trkpt>
      <trkpt lat="43.69178" lon="4.14481">
        <ele>14.08</ele>
        <time>2015-07-13T08:21:51Z</time>
      </trkpt>
      <trkpt lat="43.69177" lon="4.14479">
        <ele>14.08</ele>
        <time>2015-07-13T08:21:52Z</time>
      </trkpt>
      <trkpt lat="43.69177" lon="4.14477">
        <ele>14.08</ele>
        <time>2015-07-13T08:21:53Z</time>
      </trkpt>
      <trkpt lat="43.69176" lon="4.1447">
        <ele>13.6</ele>
        <time>2015-07-13T08:22:00Z</time>
      </trkpt>
      <trkpt lat="43.69169" lon="4.14439">
        <ele>14.08</ele>
        <time>2015-07-13T08:22:08Z</time>
      </trkpt>
      <trkpt lat="43.69147" lon="4.1442">
        <ele>14.08</ele>
        <time>2015-07-13T08:22:16Z</time>
      </trkpt>
      <trkpt lat="43.6915" lon="4.14382">
        <ele>13.12</ele>
        <time>2015-07-13T08:22:24Z</time>
      </trkpt>
      <trkpt lat="43.69158" lon="4.1431">
        <ele>13.6</ele>
        <time>2015-07-13T08:22:38Z</time>
      </trkpt>
      <trkpt lat="43.69148" lon="4.14245">
        <ele>13.6</ele>
        <time>2015-07-13T08:22:51Z</time>
      </trkpt>
      <trkpt lat="43.69136" lon="4.14161">
        <ele>13.12</ele>
        <time>2015-07-13T08:23:07Z</time>
      </trkpt>
      <trkpt lat="43.69119" lon="4.14089">
        <ele>12.63</ele>
        <time>2015-07-13T08:23:21Z</time>
      </trkpt>
      <trkpt lat="43.69089" lon="4.13999">
        <ele>13.6</ele>
        <time>2015-07-13T08:23:37Z</time>
      </trkpt>
      <trkpt lat="43.69077" lon="4.13962">
        <ele>13.6</ele>
        <time>2015-07-13T08:23:44Z</time>
      </trkpt>
      <trkpt lat="43.69075" lon="4.13957">
        <ele>13.6</ele>
        <time>2015-07-13T08:23:45Z</time>
      </trkpt>
      <trkpt lat="43.69059" lon="4.13909">
        <ele>13.6</ele>
        <time>2015-07-13T08:23:57Z</time>
      </trkpt>
      <trkpt lat="43.6904" lon="4.1385">
        <ele>13.12</ele>
        <time>2015-07-13T08:24:11Z</time>
      </trkpt>
      <trkpt lat="43.69032" lon="4.13837">
        <ele>14.08</ele>
        <time>2015-07-13T08:24:15Z</time>
      </trkpt>
      <trkpt lat="43.69028" lon="4.13836">
        <ele>14.08</ele>
        <time>2015-07-13T08:24:16Z</time>
      </trkpt>
      <trkpt lat="43.69025" lon="4.13838">
        <ele>14.08</ele>
        <time>2015-07-13T08:24:17Z</time>
      </trkpt>
      <trkpt lat="43.69023" lon="4.13842">
        <ele>13.6</ele>
        <time>2015-07-13T08:24:18Z</time>
      </trkpt>
      <trkpt lat="43.6902" lon="4.13846">
        <ele>14.08</ele>
        <time>2015-07-13T08:24:19Z</time>
      </trkpt>
      <trkpt lat="43.69014" lon="4.13854">
        <ele>13.6</ele>
        <time>2015-07-13T08:24:21Z</time>
      </trkpt>
      <trkpt lat="43.6901" lon="4.13857">
        <ele>13.6</ele>
        <time>2015-07-13T08:24:22Z</time>
      </trkpt>
      <trkpt lat="43.69007" lon="4.1386">
        <ele>13.6</ele>
        <time>2015-07-13T08:24:23Z</time>
      </trkpt>
      <trkpt lat="43.69002" lon="4.13861">
        <ele>13.12</ele>
        <time>2015-07-13T08:24:24Z</time>
      </trkpt>
      <trkpt lat="43.68998" lon="4.13863">
        <ele>13.12</ele>
        <time>2015-07-13T08:24:25Z</time>
      </trkpt>
      <trkpt lat="43.68963" lon="4.1387">
        <ele>13.12</ele>
        <time>2015-07-13T08:24:33Z</time>
      </trkpt>
      <trkpt lat="43.68919" lon="4.13871">
        <ele>13.12</ele>
        <time>2015-07-13T08:24:44Z</time>
      </trkpt>
      <trkpt lat="43.68891" lon="4.13862">
        <ele>12.63</ele>
        <time>2015-07-13T08:24:51Z</time>
      </trkpt>
      <trkpt lat="43.68841" lon="4.13839">
        <ele>12.63</ele>
        <time>2015-07-13T08:25:04Z</time>
      </trkpt>
      <trkpt lat="43.68798" lon="4.13812">
        <ele>12.63</ele>
        <time>2015-07-13T08:25:17Z</time>
      </trkpt>
      <trkpt lat="43.68756" lon="4.13789">
        <ele>12.63</ele>
        <time>2015-07-13T08:25:28Z</time>
      </trkpt>
      <trkpt lat="43.68733" lon="4.13781">
        <ele>12.63</ele>
        <time>2015-07-13T08:25:34Z</time>
      </trkpt>
      <trkpt lat="43.68684" lon="4.13774">
        <ele>12.15</ele>
        <time>2015-07-13T08:25:46Z</time>
      </trkpt>
      <trkpt lat="43.68668" lon="4.1377">
        <ele>12.63</ele>
        <time>2015-07-13T08:25:50Z</time>
      </trkpt>
      <trkpt lat="43.68612" lon="4.13756">
        <ele>12.63</ele>
        <time>2015-07-13T08:26:04Z</time>
      </trkpt>
      <trkpt lat="43.68594" lon="4.13753">
        <ele>12.63</ele>
        <time>2015-07-13T08:26:08Z</time>
      </trkpt>
      <trkpt lat="43.68573" lon="4.13756">
        <ele>12.63</ele>
        <time>2015-07-13T08:26:13Z</time>
      </trkpt>
      <trkpt lat="43.6856" lon="4.1376">
        <ele>12.15</ele>
        <time>2015-07-13T08:26:16Z</time>
      </trkpt>
      <trkpt lat="43.68555" lon="4.13762">
        <ele>12.63</ele>
        <time>2015-07-13T08:26:17Z</time>
      </trkpt>
      <trkpt lat="43.6851" lon="4.13783">
        <ele>12.15</ele>
        <time>2015-07-13T08:26:27Z</time>
      </trkpt>
      <trkpt lat="43.68505" lon="4.13783">
        <ele>11.67</ele>
        <time>2015-07-13T08:26:28Z</time>
      </trkpt>
      <trkpt lat="43.685" lon="4.13784">
        <ele>11.67</ele>
        <time>2015-07-13T08:26:29Z</time>
      </trkpt>
      <trkpt lat="43.68477" lon="4.13779">
        <ele>11.67</ele>
        <time>2015-07-13T08:26:34Z</time>
      </trkpt>
      <trkpt lat="43.68473" lon="4.13779">
        <ele>11.19</ele>
        <time>2015-07-13T08:26:35Z</time>
      </trkpt>
      <trkpt lat="43.68464" lon="4.13778">
        <ele>11.19</ele>
        <time>2015-07-13T08:26:37Z</time>
      </trkpt>
      <trkpt lat="43.68447" lon="4.13774">
        <ele>11.19</ele>
        <time>2015-07-13T08:26:41Z</time>
      </trkpt>
      <trkpt lat="43.68443" lon="4.13773">
        <ele>11.19</ele>
        <time>2015-07-13T08:26:42Z</time>
      </trkpt>
      <trkpt lat="43.68434" lon="4.1377">
        <ele>11.19</ele>
        <time>2015-07-13T08:26:44Z</time>
      </trkpt>
      <trkpt lat="43.68408" lon="4.13761">
        <ele>11.67</ele>
        <time>2015-07-13T08:26:50Z</time>
      </trkpt>
      <trkpt lat="43.68361" lon="4.13743">
        <ele>11.19</ele>
        <time>2015-07-13T08:27:02Z</time>
      </trkpt>
      <trkpt lat="43.68317" lon="4.13733">
        <ele>11.67</ele>
        <time>2015-07-13T08:27:14Z</time>
      </trkpt>
      <trkpt lat="43.68287" lon="4.1371">
        <ele>10.71</ele>
        <time>2015-07-13T08:27:23Z</time>
      </trkpt>
      <trkpt lat="43.68242" lon="4.13658">
        <ele>10.23</ele>
        <time>2015-07-13T08:27:38Z</time>
      </trkpt>
      <trkpt lat="43.6821" lon="4.13616">
        <ele>10.71</ele>
        <time>2015-07-13T08:27:50Z</time>
      </trkpt>
      <trkpt lat="43.68169" lon="4.13571">
        <ele>10.71</ele>
        <time>2015-07-13T08:28:03Z</time>
      </trkpt>
      <trkpt lat="43.68139" lon="4.13539">
        <ele>11.19</ele>
        <time>2015-07-13T08:28:13Z</time>
      </trkpt>
      <trkpt lat="43.68116" lon="4.1351">
        <ele>11.19</ele>
        <time>2015-07-13T08:28:23Z</time>
      </trkpt>
      <trkpt lat="43.68076" lon="4.13466">
        <ele>10.71</ele>
        <time>2015-07-13T08:28:38Z</time>
      </trkpt>
      <trkpt lat="43.68069" lon="4.13457">
        <ele>10.23</ele>
        <time>2015-07-13T08:28:46Z</time>
      </trkpt>
      <trkpt lat="43.68069" lon="4.13456">
        <ele>9.75</ele>
        <time>2015-07-13T08:29:03Z</time>
      </trkpt>
      <trkpt lat="43.68067" lon="4.13453">
        <ele>10.23</ele>
        <time>2015-07-13T08:29:17Z</time>
      </trkpt>
      <trkpt lat="43.68065" lon="4.13452">
        <ele>9.75</ele>
        <time>2015-07-13T08:29:18Z</time>
      </trkpt>
      <trkpt lat="43.68042" lon="4.13458">
        <ele>9.75</ele>
        <time>2015-07-13T08:29:27Z</time>
      </trkpt>
      <trkpt lat="43.68005" lon="4.13471">
        <ele>9.75</ele>
        <time>2015-07-13T08:29:38Z</time>
      </trkpt>
      <trkpt lat="43.67985" lon="4.13479">
        <ele>10.23</ele>
        <time>2015-07-13T08:29:44Z</time>
      </trkpt>
      <trkpt lat="43.67984" lon="4.13476">
        <ele>10.23</ele>
        <time>2015-07-13T08:29:45Z</time>
      </trkpt>
      <trkpt lat="43.67983" lon="4.13472">
        <ele>10.71</ele>
        <time>2015-07-13T08:29:46Z</time>
      </trkpt>
      <trkpt lat="43.67977" lon="4.13425">
        <ele>10.71</ele>
        <time>2015-07-13T08:29:57Z</time>
      </trkpt>
      <trkpt lat="43.67969" lon="4.13371">
        <ele>10.71</ele>
        <time>2015-07-13T08:30:09Z</time>
      </trkpt>
      <trkpt lat="43.67963" lon="4.13332">
        <ele>10.23</ele>
        <time>2015-07-13T08:30:17Z</time>
      </trkpt>
      <trkpt lat="43.67955" lon="4.13282">
        <ele>10.23</ele>
        <time>2015-07-13T08:30:28Z</time>
      </trkpt>
      <trkpt lat="43.67947" lon="4.13234">
        <ele>10.71</ele>
        <time>2015-07-13T08:30:40Z</time>
      </trkpt>
      <trkpt lat="43.67945" lon="4.13232">
        <ele>10.71</ele>
        <time>2015-07-13T08:30:41Z</time>
      </trkpt>
      <trkpt lat="43.67941" lon="4.13231">
        <ele>10.71</ele>
        <time>2015-07-13T08:30:42Z</time>
      </trkpt>
      <trkpt lat="43.67936" lon="4.13231">
        <ele>11.19</ele>
        <time>2015-07-13T08:30:43Z</time>
      </trkpt>
      <trkpt lat="43.67933" lon="4.13231">
        <ele>10.71</ele>
        <time>2015-07-13T08:30:44Z</time>
      </trkpt>
      <trkpt lat="43.67929" lon="4.13232">
        <ele>10.71</ele>
        <time>2015-07-13T08:30:45Z</time>
      </trkpt>
      <trkpt lat="43.67905" lon="4.13245">
        <ele>10.71</ele>
        <time>2015-07-13T08:30:54Z</time>
      </trkpt>
      <trkpt lat="43.67882" lon="4.13262">
        <ele>10.23</ele>
        <time>2015-07-13T08:31:02Z</time>
      </trkpt>
      <trkpt lat="43.6785" lon="4.13283">
        <ele>10.23</ele>
        <time>2015-07-13T08:31:11Z</time>
      </trkpt>
      <trkpt lat="43.67825" lon="4.13292">
        <ele>10.23</ele>
        <time>2015-07-13T08:31:18Z</time>
      </trkpt>
      <trkpt lat="43.67785" lon="4.1332">
        <ele>10.23</ele>
        <time>2015-07-13T08:31:29Z</time>
      </trkpt>
      <trkpt lat="43.67753" lon="4.13343">
        <ele>9.75</ele>
        <time>2015-07-13T08:31:39Z</time>
      </trkpt>
      <trkpt lat="43.67719" lon="4.1336">
        <ele>9.27</ele>
        <time>2015-07-13T08:31:49Z</time>
      </trkpt>
      <trkpt lat="43.67708" lon="4.13367">
        <ele>10.23</ele>
        <time>2015-07-13T08:31:56Z</time>
      </trkpt>
      <trkpt lat="43.67706" lon="4.1337">
        <ele>9.75</ele>
        <time>2015-07-13T08:32:12Z</time>
      </trkpt>
      <trkpt lat="43.67706" lon="4.13371">
        <ele>9.75</ele>
        <time>2015-07-13T08:32:30Z</time>
      </trkpt>
      <trkpt lat="43.67706" lon="4.13373">
        <ele>9.75</ele>
        <time>2015-07-13T08:32:52Z</time>
      </trkpt>
      <trkpt lat="43.67698" lon="4.13376">
        <ele>9.27</ele>
        <time>2015-07-13T08:33:06Z</time>
      </trkpt>
      <trkpt lat="43.67697" lon="4.13374">
        <ele>9.75</ele>
        <time>2015-07-13T08:33:08Z</time>
      </trkpt>
      <trkpt lat="43.67696" lon="4.13373">
        <ele>9.75</ele>
        <time>2015-07-13T08:33:09Z</time>
      </trkpt>
      <trkpt lat="43.67695" lon="4.13372">
        <ele>9.75</ele>
        <time>2015-07-13T08:33:10Z</time>
      </trkpt>
      <trkpt lat="43.67694" lon="4.13369">
        <ele>9.75</ele>
        <time>2015-07-13T08:33:11Z</time>
      </trkpt>
      <trkpt lat="43.67693" lon="4.13367">
        <ele>9.75</ele>
        <time>2015-07-13T08:33:12Z</time>
      </trkpt>
      <trkpt lat="43.67679" lon="4.13332">
        <ele>10.23</ele>
        <time>2015-07-13T08:33:21Z</time>
      </trkpt>
      <trkpt lat="43.67655" lon="4.13282">
        <ele>10.23</ele>
        <time>2015-07-13T08:33:33Z</time>
      </trkpt>
      <trkpt lat="43.67649" lon="4.13253">
        <ele>10.23</ele>
        <time>2015-07-13T08:33:39Z</time>
      </trkpt>
      <trkpt lat="43.67617" lon="4.13203">
        <ele>10.23</ele>
        <time>2015-07-13T08:33:53Z</time>
      </trkpt>
      <trkpt lat="43.67598" lon="4.1318">
        <ele>10.71</ele>
        <time>2015-07-13T08:34:02Z</time>
      </trkpt>
      <trkpt lat="43.67593" lon="4.13181">
        <ele>10.71</ele>
        <time>2015-07-13T08:34:03Z</time>
      </trkpt>
      <trkpt lat="43.67575" lon="4.13172">
        <ele>10.71</ele>
        <time>2015-07-13T08:34:11Z</time>
      </trkpt>
      <trkpt lat="43.67548" lon="4.13196">
        <ele>10.23</ele>
        <time>2015-07-13T08:34:19Z</time>
      </trkpt>
      <trkpt lat="43.67544" lon="4.13198">
        <ele>9.75</ele>
        <time>2015-07-13T08:34:20Z</time>
      </trkpt>
      <trkpt lat="43.67539" lon="4.13199">
        <ele>9.75</ele>
        <time>2015-07-13T08:34:21Z</time>
      </trkpt>
      <trkpt lat="43.67494" lon="4.13212">
        <ele>8.31</ele>
        <time>2015-07-13T08:34:32Z</time>
      </trkpt>
      <trkpt lat="43.67489" lon="4.13238">
        <ele>8.79</ele>
        <time>2015-07-13T08:34:40Z</time>
      </trkpt>
      <trkpt lat="43.67485" lon="4.13274">
        <ele>8.31</ele>
        <time>2015-07-13T08:34:53Z</time>
      </trkpt>
      <trkpt lat="43.67484" lon="4.13294">
        <ele>9.27</ele>
        <time>2015-07-13T08:35:03Z</time>
      </trkpt>
      <trkpt lat="43.67484" lon="4.13296">
        <ele>8.79</ele>
        <time>2015-07-13T08:35:04Z</time>
      </trkpt>
      <trkpt lat="43.67484" lon="4.13299">
        <ele>8.79</ele>
        <time>2015-07-13T08:35:05Z</time>
      </trkpt>
      <trkpt lat="43.67483" lon="4.13327">
        <ele>8.79</ele>
        <time>2015-07-13T08:35:16Z</time>
      </trkpt>
      <trkpt lat="43.67482" lon="4.13368">
        <ele>9.75</ele>
        <time>2015-07-13T08:35:27Z</time>
      </trkpt>
      <trkpt lat="43.67485" lon="4.13416">
        <ele>9.27</ele>
        <time>2015-07-13T08:35:38Z</time>
      </trkpt>
      <trkpt lat="43.67488" lon="4.13422">
        <ele>9.75</ele>
        <time>2015-07-13T08:35:42Z</time>
      </trkpt>
      <trkpt lat="43.6749" lon="4.13422">
        <ele>9.75</ele>
        <time>2015-07-13T08:35:43Z</time>
      </trkpt>
      <trkpt lat="43.67492" lon="4.13423">
        <ele>9.75</ele>
        <time>2015-07-13T08:35:44Z</time>
      </trkpt>
      <trkpt lat="43.67493" lon="4.13424">
        <ele>9.75</ele>
        <time>2015-07-13T08:35:45Z</time>
      </trkpt>
      <trkpt lat="43.67495" lon="4.13425">
        <ele>9.75</ele>
        <time>2015-07-13T08:35:46Z</time>
      </trkpt>
      <trkpt lat="43.67496" lon="4.13427">
        <ele>10.23</ele>
        <time>2015-07-13T08:35:47Z</time>
      </trkpt>
      <trkpt lat="43.67497" lon="4.13428">
        <ele>10.23</ele>
        <time>2015-07-13T08:35:48Z</time>
      </trkpt>
      <trkpt lat="43.67499" lon="4.1343">
        <ele>10.23</ele>
        <time>2015-07-13T08:35:49Z</time>
      </trkpt>
      <trkpt lat="43.67525" lon="4.13418">
        <ele>10.23</ele>
        <time>2015-07-13T08:35:59Z</time>
      </trkpt>
      <trkpt lat="43.67527" lon="4.13419">
        <ele>10.23</ele>
        <time>2015-07-13T08:36:00Z</time>
      </trkpt>
      <trkpt lat="43.67531" lon="4.13421">
        <ele>10.71</ele>
        <time>2015-07-13T08:37:43Z</time>
      </trkpt>
      <trkpt lat="43.67533" lon="4.13419">
        <ele>10.71</ele>
        <time>2015-07-13T08:37:44Z</time>
      </trkpt>
      <trkpt lat="43.67534" lon="4.13417">
        <ele>11.19</ele>
        <time>2015-07-13T08:37:45Z</time>
      </trkpt>
      <trkpt lat="43.67539" lon="4.13399">
        <ele>11.19</ele>
        <time>2015-07-13T08:37:54Z</time>
      </trkpt>
      <trkpt lat="43.67534" lon="4.13357">
        <ele>10.71</ele>
        <time>2015-07-13T08:38:05Z</time>
      </trkpt>
      <trkpt lat="43.67536" lon="4.13345">
        <ele>11.19</ele>
        <time>2015-07-13T08:38:08Z</time>
      </trkpt>
      <trkpt lat="43.67539" lon="4.13328">
        <ele>10.71</ele>
        <time>2015-07-13T08:38:12Z</time>
      </trkpt>
      <trkpt lat="43.67541" lon="4.13324">
        <ele>10.71</ele>
        <time>2015-07-13T08:38:13Z</time>
      </trkpt>
      <trkpt lat="43.67544" lon="4.13321">
        <ele>10.71</ele>
        <time>2015-07-13T08:38:14Z</time>
      </trkpt>
      <trkpt lat="43.67546" lon="4.13319">
        <ele>10.71</ele>
        <time>2015-07-13T08:38:15Z</time>
      </trkpt>
      <trkpt lat="43.67548" lon="4.13317">
        <ele>11.19</ele>
        <time>2015-07-13T08:38:16Z</time>
      </trkpt>
      <trkpt lat="43.67549" lon="4.13315">
        <ele>10.71</ele>
        <time>2015-07-13T08:38:17Z</time>
      </trkpt>
      <trkpt lat="43.67562" lon="4.13284">
        <ele>10.71</ele>
        <time>2015-07-13T08:38:28Z</time>
      </trkpt>
      <trkpt lat="43.67567" lon="4.13229">
        <ele>10.23</ele>
        <time>2015-07-13T08:38:44Z</time>
      </trkpt>
      <trkpt lat="43.67568" lon="4.13227">
        <ele>10.23</ele>
        <time>2015-07-13T08:38:45Z</time>
      </trkpt>
      <trkpt lat="43.6758" lon="4.13199">
        <ele>11.19</ele>
        <time>2015-07-13T08:38:54Z</time>
      </trkpt>
      <trkpt lat="43.67581" lon="4.1319">
        <ele>10.71</ele>
        <time>2015-07-13T08:38:56Z</time>
      </trkpt>
      <trkpt lat="43.67579" lon="4.13186">
        <ele>10.71</ele>
        <time>2015-07-13T08:38:57Z</time>
      </trkpt>
      <trkpt lat="43.67577" lon="4.13183">
        <ele>10.71</ele>
        <time>2015-07-13T08:38:58Z</time>
      </trkpt>
      <trkpt lat="43.67575" lon="4.13182">
        <ele>10.71</ele>
        <time>2015-07-13T08:38:59Z</time>
      </trkpt>
      <trkpt lat="43.67572" lon="4.13181">
        <ele>10.71</ele>
        <time>2015-07-13T08:39:00Z</time>
      </trkpt>
      <trkpt lat="43.6757" lon="4.13181">
        <ele>10.71</ele>
        <time>2015-07-13T08:39:01Z</time>
      </trkpt>
      <trkpt lat="43.67567" lon="4.13182">
        <ele>10.71</ele>
        <time>2015-07-13T08:39:02Z</time>
      </trkpt>
      <trkpt lat="43.67564" lon="4.13185">
        <ele>10.23</ele>
        <time>2015-07-13T08:39:03Z</time>
      </trkpt>
      <trkpt lat="43.67561" lon="4.13188">
        <ele>10.71</ele>
        <time>2015-07-13T08:39:04Z</time>
      </trkpt>
      <trkpt lat="43.67558" lon="4.13191">
        <ele>10.71</ele>
        <time>2015-07-13T08:39:05Z</time>
      </trkpt>
      <trkpt lat="43.67555" lon="4.13194">
        <ele>10.71</ele>
        <time>2015-07-13T08:39:06Z</time>
      </trkpt>
      <trkpt lat="43.67552" lon="4.13196">
        <ele>10.23</ele>
        <time>2015-07-13T08:39:07Z</time>
      </trkpt>
      <trkpt lat="43.67549" lon="4.13197">
        <ele>10.23</ele>
        <time>2015-07-13T08:39:08Z</time>
      </trkpt>
      <trkpt lat="43.67537" lon="4.13198">
        <ele>9.75</ele>
        <time>2015-07-13T08:39:16Z</time>
      </trkpt>
      <trkpt lat="43.67537" lon="4.13197">
        <ele>9.75</ele>
        <time>2015-07-13T08:39:30Z</time>
      </trkpt>
      <trkpt lat="43.67536" lon="4.13196">
        <ele>10.23</ele>
        <time>2015-07-13T08:39:45Z</time>
      </trkpt>
      <trkpt lat="43.67536" lon="4.13195">
        <ele>10.71</ele>
        <time>2015-07-13T08:48:34Z</time>
      </trkpt>
      <trkpt lat="43.67535" lon="4.13194">
        <ele>11.67</ele>
        <time>2015-07-13T08:49:00Z</time>
      </trkpt>
      <trkpt lat="43.67535" lon="4.13192">
        <ele>11.19</ele>
        <time>2015-07-13T08:49:22Z</time>
      </trkpt>
      <trkpt lat="43.67535" lon="4.1319">
        <ele>11.19</ele>
        <time>2015-07-13T08:49:41Z</time>
      </trkpt>
      <trkpt lat="43.67528" lon="4.13196">
        <ele>17.44</ele>
        <time>2015-07-13T09:27:24Z</time>
      </trkpt>
      <trkpt lat="43.67528" lon="4.13197">
        <ele>17.44</ele>
        <time>2015-07-13T09:27:45Z</time>
      </trkpt>
      <trkpt lat="43.67528" lon="4.13196">
        <ele>17.44</ele>
        <time>2015-07-13T09:28:12Z</time>
      </trkpt>
      <trkpt lat="43.67526" lon="4.13196">
        <ele>17.92</ele>
        <time>2015-07-13T09:28:33Z</time>
      </trkpt>
      <trkpt lat="43.67526" lon="4.13196">
        <ele>17.44</ele>
        <time>2015-07-13T09:28:47Z</time>
      </trkpt>
      <trkpt lat="43.67526" lon="4.13196">
        <ele>17.44</ele>
        <time>2015-07-13T09:29:07Z</time>
      </trkpt>
      <trkpt lat="43.67526" lon="4.13196">
        <ele>16.96</ele>
        <time>2015-07-13T09:29:28Z</time>
      </trkpt>
      <trkpt lat="43.67524" lon="4.13197">
        <ele>16.96</ele>
        <time>2015-07-13T09:29:41Z</time>
      </trkpt>
      <trkpt lat="43.67521" lon="4.13199">
        <ele>16.96</ele>
        <time>2015-07-13T09:29:44Z</time>
      </trkpt>
      <trkpt lat="43.67519" lon="4.132">
        <ele>16.96</ele>
        <time>2015-07-13T09:29:45Z</time>
      </trkpt>
      <trkpt lat="43.67517" lon="4.132">
        <ele>16.96</ele>
        <time>2015-07-13T09:29:46Z</time>
      </trkpt>
      <trkpt lat="43.67514" lon="4.13201">
        <ele>16.96</ele>
        <time>2015-07-13T09:29:47Z</time>
      </trkpt>
      <trkpt lat="43.67512" lon="4.13202">
        <ele>16.96</ele>
        <time>2015-07-13T09:29:48Z</time>
      </trkpt>
      <trkpt lat="43.67509" lon="4.13202">
        <ele>16.96</ele>
        <time>2015-07-13T09:29:49Z</time>
      </trkpt>
      <trkpt lat="43.67507" lon="4.13202">
        <ele>16.96</ele>
        <time>2015-07-13T09:29:50Z</time>
      </trkpt>
      <trkpt lat="43.67505" lon="4.13201">
        <ele>16.48</ele>
        <time>2015-07-13T09:29:51Z</time>
      </trkpt>
      <trkpt lat="43.67502" lon="4.13201">
        <ele>16.96</ele>
        <time>2015-07-13T09:29:52Z</time>
      </trkpt>
      <trkpt lat="43.67473" lon="4.13209">
        <ele>16.96</ele>
        <time>2015-07-13T09:30:03Z</time>
      </trkpt>
      <trkpt lat="43.67462" lon="4.13212">
        <ele>17.44</ele>
        <time>2015-07-13T09:30:11Z</time>
      </trkpt>
      <trkpt lat="43.67442" lon="4.13211">
        <ele>17.92</ele>
        <time>2015-07-13T09:30:19Z</time>
      </trkpt>
      <trkpt lat="43.67411" lon="4.13206">
        <ele>18.4</ele>
        <time>2015-07-13T09:30:30Z</time>
      </trkpt>
      <trkpt lat="43.67376" lon="4.13208">
        <ele>18.88</ele>
        <time>2015-07-13T09:30:41Z</time>
      </trkpt>
      <trkpt lat="43.67344" lon="4.13224">
        <ele>18.4</ele>
        <time>2015-07-13T09:30:53Z</time>
      </trkpt>
      <trkpt lat="43.67321" lon="4.13225">
        <ele>18.88</ele>
        <time>2015-07-13T09:31:02Z</time>
      </trkpt>
      <trkpt lat="43.67303" lon="4.132">
        <ele>17.44</ele>
        <time>2015-07-13T09:31:10Z</time>
      </trkpt>
      <trkpt lat="43.673" lon="4.13195">
        <ele>17.44</ele>
        <time>2015-07-13T09:31:11Z</time>
      </trkpt>
      <trkpt lat="43.67298" lon="4.13188">
        <ele>16</ele>
        <time>2015-07-13T09:31:12Z</time>
      </trkpt>
      <trkpt lat="43.67297" lon="4.13181">
        <ele>16.48</ele>
        <time>2015-07-13T09:31:13Z</time>
      </trkpt>
      <trkpt lat="43.67297" lon="4.13173">
        <ele>16.96</ele>
        <time>2015-07-13T09:31:14Z</time>
      </trkpt>
      <trkpt lat="43.67296" lon="4.13165">
        <ele>16</ele>
        <time>2015-07-13T09:31:15Z</time>
      </trkpt>
      <trkpt lat="43.67295" lon="4.13123">
        <ele>16.48</ele>
        <time>2015-07-13T09:31:21Z</time>
      </trkpt>
      <trkpt lat="43.67294" lon="4.13117">
        <ele>16.48</ele>
        <time>2015-07-13T09:31:22Z</time>
      </trkpt>
      <trkpt lat="43.67292" lon="4.13112">
        <ele>16.96</ele>
        <time>2015-07-13T09:31:23Z</time>
      </trkpt>
      <trkpt lat="43.67289" lon="4.13108">
        <ele>16</ele>
        <time>2015-07-13T09:31:24Z</time>
      </trkpt>
      <trkpt lat="43.67286" lon="4.13105">
        <ele>16</ele>
        <time>2015-07-13T09:31:25Z</time>
      </trkpt>
      <trkpt lat="43.67283" lon="4.13103">
        <ele>16</ele>
        <time>2015-07-13T09:31:26Z</time>
      </trkpt>
      <trkpt lat="43.6728" lon="4.13101">
        <ele>16.48</ele>
        <time>2015-07-13T09:31:27Z</time>
      </trkpt>
      <trkpt lat="43.67276" lon="4.13099">
        <ele>16.48</ele>
        <time>2015-07-13T09:31:28Z</time>
      </trkpt>
      <trkpt lat="43.67243" lon="4.13066">
        <ele>16.96</ele>
        <time>2015-07-13T09:31:41Z</time>
      </trkpt>
      <trkpt lat="43.67208" lon="4.13029">
        <ele>16.96</ele>
        <time>2015-07-13T09:31:54Z</time>
      </trkpt>
      <trkpt lat="43.67169" lon="4.12992">
        <ele>16.48</ele>
        <time>2015-07-13T09:32:06Z</time>
      </trkpt>
      <trkpt lat="43.67143" lon="4.12976">
        <ele>16.48</ele>
        <time>2015-07-13T09:32:14Z</time>
      </trkpt>
      <trkpt lat="43.67137" lon="4.12974">
        <ele>16.96</ele>
        <time>2015-07-13T09:32:16Z</time>
      </trkpt>
      <trkpt lat="43.67135" lon="4.12972">
        <ele>16.48</ele>
        <time>2015-07-13T09:32:17Z</time>
      </trkpt>
      <trkpt lat="43.67099" lon="4.12933">
        <ele>16.48</ele>
        <time>2015-07-13T09:32:31Z</time>
      </trkpt>
      <trkpt lat="43.67064" lon="4.12902">
        <ele>16.48</ele>
        <time>2015-07-13T09:32:43Z</time>
      </trkpt>
      <trkpt lat="43.67032" lon="4.12887">
        <ele>16.48</ele>
        <time>2015-07-13T09:32:54Z</time>
      </trkpt>
      <trkpt lat="43.67003" lon="4.12872">
        <ele>16.48</ele>
        <time>2015-07-13T09:33:04Z</time>
      </trkpt>
      <trkpt lat="43.66975" lon="4.12853">
        <ele>16.96</ele>
        <time>2015-07-13T09:33:15Z</time>
      </trkpt>
      <trkpt lat="43.66942" lon="4.12834">
        <ele>16.48</ele>
        <time>2015-07-13T09:33:27Z</time>
      </trkpt>
      <trkpt lat="43.6691" lon="4.12815">
        <ele>16.48</ele>
        <time>2015-07-13T09:33:38Z</time>
      </trkpt>
      <trkpt lat="43.66879" lon="4.12792">
        <ele>16.48</ele>
        <time>2015-07-13T09:33:50Z</time>
      </trkpt>
      <trkpt lat="43.66858" lon="4.12779">
        <ele>16.48</ele>
        <time>2015-07-13T09:33:59Z</time>
      </trkpt>
      <trkpt lat="43.66839" lon="4.12784">
        <ele>16</ele>
        <time>2015-07-13T09:34:10Z</time>
      </trkpt>
      <trkpt lat="43.66835" lon="4.12784">
        <ele>16</ele>
        <time>2015-07-13T09:34:12Z</time>
      </trkpt>
      <trkpt lat="43.66834" lon="4.12784">
        <ele>16.48</ele>
        <time>2015-07-13T09:34:13Z</time>
      </trkpt>
      <trkpt lat="43.66831" lon="4.12783">
        <ele>16</ele>
        <time>2015-07-13T09:34:14Z</time>
      </trkpt>
      <trkpt lat="43.66829" lon="4.12782">
        <ele>16.48</ele>
        <time>2015-07-13T09:34:15Z</time>
      </trkpt>
      <trkpt lat="43.66826" lon="4.12781">
        <ele>16</ele>
        <time>2015-07-13T09:34:16Z</time>
      </trkpt>
      <trkpt lat="43.66824" lon="4.12779">
        <ele>16.48</ele>
        <time>2015-07-13T09:34:17Z</time>
      </trkpt>
      <trkpt lat="43.66794" lon="4.12759">
        <ele>16</ele>
        <time>2015-07-13T09:34:28Z</time>
      </trkpt>
      <trkpt lat="43.66761" lon="4.12764">
        <ele>16</ele>
        <time>2015-07-13T09:34:40Z</time>
      </trkpt>
      <trkpt lat="43.6672" lon="4.12772">
        <ele>16</ele>
        <time>2015-07-13T09:34:54Z</time>
      </trkpt>
      <trkpt lat="43.66685" lon="4.12778">
        <ele>16</ele>
        <time>2015-07-13T09:35:05Z</time>
      </trkpt>
      <trkpt lat="43.6664" lon="4.12793">
        <ele>15.52</ele>
        <time>2015-07-13T09:35:17Z</time>
      </trkpt>
      <trkpt lat="43.66591" lon="4.12815">
        <ele>15.04</ele>
        <time>2015-07-13T09:35:31Z</time>
      </trkpt>
      <trkpt lat="43.66551" lon="4.12835">
        <ele>15.04</ele>
        <time>2015-07-13T09:35:43Z</time>
      </trkpt>
      <trkpt lat="43.66523" lon="4.12846">
        <ele>15.04</ele>
        <time>2015-07-13T09:35:55Z</time>
      </trkpt>
      <trkpt lat="43.66515" lon="4.12852">
        <ele>15.52</ele>
        <time>2015-07-13T09:36:05Z</time>
      </trkpt>
      <trkpt lat="43.66515" lon="4.12853">
        <ele>15.52</ele>
        <time>2015-07-13T09:36:18Z</time>
      </trkpt>
      <trkpt lat="43.66517" lon="4.12857">
        <ele>15.52</ele>
        <time>2015-07-13T09:36:29Z</time>
      </trkpt>
      <trkpt lat="43.66517" lon="4.12858">
        <ele>15.52</ele>
        <time>2015-07-13T09:36:30Z</time>
      </trkpt>
      <trkpt lat="43.66518" lon="4.1286">
        <ele>16</ele>
        <time>2015-07-13T09:36:31Z</time>
      </trkpt>
      <trkpt lat="43.66521" lon="4.12878">
        <ele>16</ele>
        <time>2015-07-13T09:36:42Z</time>
      </trkpt>
      <trkpt lat="43.66523" lon="4.1289">
        <ele>15.52</ele>
        <time>2015-07-13T09:36:47Z</time>
      </trkpt>
      <trkpt lat="43.66522" lon="4.12893">
        <ele>15.04</ele>
        <time>2015-07-13T09:36:48Z</time>
      </trkpt>
      <trkpt lat="43.66519" lon="4.12897">
        <ele>15.52</ele>
        <time>2015-07-13T09:36:50Z</time>
      </trkpt>
      <trkpt lat="43.66517" lon="4.12898">
        <ele>15.04</ele>
        <time>2015-07-13T09:36:51Z</time>
      </trkpt>
      <trkpt lat="43.66515" lon="4.12898">
        <ele>15.04</ele>
        <time>2015-07-13T09:36:52Z</time>
      </trkpt>
      <trkpt lat="43.66512" lon="4.12899">
        <ele>15.04</ele>
        <time>2015-07-13T09:36:53Z</time>
      </trkpt>
      <trkpt lat="43.66509" lon="4.129">
        <ele>15.04</ele>
        <time>2015-07-13T09:36:54Z</time>
      </trkpt>
      <trkpt lat="43.66506" lon="4.12901">
        <ele>15.52</ele>
        <time>2015-07-13T09:36:55Z</time>
      </trkpt>
      <trkpt lat="43.66465" lon="4.12909">
        <ele>15.04</ele>
        <time>2015-07-13T09:37:07Z</time>
      </trkpt>
      <trkpt lat="43.66431" lon="4.12892">
        <ele>14.56</ele>
        <time>2015-07-13T09:37:17Z</time>
      </trkpt>
      <trkpt lat="43.66394" lon="4.12859">
        <ele>14.56</ele>
        <time>2015-07-13T09:37:30Z</time>
      </trkpt>
      <trkpt lat="43.66355" lon="4.1285">
        <ele>14.56</ele>
        <time>2015-07-13T09:37:41Z</time>
      </trkpt>
      <trkpt lat="43.66321" lon="4.12854">
        <ele>14.56</ele>
        <time>2015-07-13T09:37:50Z</time>
      </trkpt>
      <trkpt lat="43.66277" lon="4.12861">
        <ele>15.04</ele>
        <time>2015-07-13T09:38:02Z</time>
      </trkpt>
      <trkpt lat="43.66236" lon="4.12864">
        <ele>15.04</ele>
        <time>2015-07-13T09:38:14Z</time>
      </trkpt>
      <trkpt lat="43.66217" lon="4.12864">
        <ele>13.12</ele>
        <time>2015-07-13T09:38:19Z</time>
      </trkpt>
      <trkpt lat="43.66212" lon="4.12863">
        <ele>13.12</ele>
        <time>2015-07-13T09:38:20Z</time>
      </trkpt>
      <trkpt lat="43.66208" lon="4.12863">
        <ele>13.12</ele>
        <time>2015-07-13T09:38:21Z</time>
      </trkpt>
      <trkpt lat="43.66203" lon="4.12864">
        <ele>13.12</ele>
        <time>2015-07-13T09:38:22Z</time>
      </trkpt>
      <trkpt lat="43.66199" lon="4.12865">
        <ele>12.63</ele>
        <time>2015-07-13T09:38:23Z</time>
      </trkpt>
      <trkpt lat="43.66177" lon="4.12874">
        <ele>14.08</ele>
        <time>2015-07-13T09:38:31Z</time>
      </trkpt>
      <trkpt lat="43.66145" lon="4.12877">
        <ele>14.56</ele>
        <time>2015-07-13T09:38:42Z</time>
      </trkpt>
      <trkpt lat="43.66101" lon="4.1288">
        <ele>13.6</ele>
        <time>2015-07-13T09:38:54Z</time>
      </trkpt>
      <trkpt lat="43.66065" lon="4.12889">
        <ele>13.12</ele>
        <time>2015-07-13T09:39:05Z</time>
      </trkpt>
      <trkpt lat="43.66026" lon="4.12892">
        <ele>13.6</ele>
        <time>2015-07-13T09:39:19Z</time>
      </trkpt>
      <trkpt lat="43.66" lon="4.12892">
        <ele>12.63</ele>
        <time>2015-07-13T09:39:28Z</time>
      </trkpt>
      <trkpt lat="43.6597" lon="4.12895">
        <ele>13.12</ele>
        <time>2015-07-13T09:39:40Z</time>
      </trkpt>
      <trkpt lat="43.65938" lon="4.12894">
        <ele>13.12</ele>
        <time>2015-07-13T09:39:53Z</time>
      </trkpt>
      <trkpt lat="43.65904" lon="4.12896">
        <ele>13.12</ele>
        <time>2015-07-13T09:40:04Z</time>
      </trkpt>
      <trkpt lat="43.65876" lon="4.12896">
        <ele>12.63</ele>
        <time>2015-07-13T09:40:15Z</time>
      </trkpt>
      <trkpt lat="43.65875" lon="4.12897">
        <ele>13.12</ele>
        <time>2015-07-13T09:40:16Z</time>
      </trkpt>
      <trkpt lat="43.65874" lon="4.12897">
        <ele>13.12</ele>
        <time>2015-07-13T09:40:17Z</time>
      </trkpt>
      <trkpt lat="43.65873" lon="4.12897">
        <ele>13.12</ele>
        <time>2015-07-13T09:40:18Z</time>
      </trkpt>
      <trkpt lat="43.65856" lon="4.12895">
        <ele>12.63</ele>
        <time>2015-07-13T09:40:29Z</time>
      </trkpt>
      <trkpt lat="43.65841" lon="4.12896">
        <ele>12.15</ele>
        <time>2015-07-13T09:40:37Z</time>
      </trkpt>
      <trkpt lat="43.65825" lon="4.12895">
        <ele>13.12</ele>
        <time>2015-07-13T09:40:46Z</time>
      </trkpt>
      <trkpt lat="43.65795" lon="4.12881">
        <ele>13.12</ele>
        <time>2015-07-13T09:40:57Z</time>
      </trkpt>
      <trkpt lat="43.65749" lon="4.12866">
        <ele>12.15</ele>
        <time>2015-07-13T09:41:12Z</time>
      </trkpt>
      <trkpt lat="43.65718" lon="4.12862">
        <ele>12.63</ele>
        <time>2015-07-13T09:41:25Z</time>
      </trkpt>
      <trkpt lat="43.65681" lon="4.12855">
        <ele>12.63</ele>
        <time>2015-07-13T09:41:40Z</time>
      </trkpt>
      <trkpt lat="43.65647" lon="4.12853">
        <ele>12.15</ele>
        <time>2015-07-13T09:41:54Z</time>
      </trkpt>
      <trkpt lat="43.65614" lon="4.12852">
        <ele>12.15</ele>
        <time>2015-07-13T09:42:07Z</time>
      </trkpt>
      <trkpt lat="43.65583" lon="4.12859">
        <ele>12.15</ele>
        <time>2015-07-13T09:42:17Z</time>
      </trkpt>
      <trkpt lat="43.65558" lon="4.12861">
        <ele>12.15</ele>
        <time>2015-07-13T09:42:27Z</time>
      </trkpt>
      <trkpt lat="43.65535" lon="4.12862">
        <ele>11.67</ele>
        <time>2015-07-13T09:42:38Z</time>
      </trkpt>
      <trkpt lat="43.65496" lon="4.12853">
        <ele>12.15</ele>
        <time>2015-07-13T09:42:52Z</time>
      </trkpt>
      <trkpt lat="43.65471" lon="4.12858">
        <ele>11.67</ele>
        <time>2015-07-13T09:43:02Z</time>
      </trkpt>
      <trkpt lat="43.65447" lon="4.12868">
        <ele>11.19</ele>
        <time>2015-07-13T09:43:14Z</time>
      </trkpt>
      <trkpt lat="43.65421" lon="4.12882">
        <ele>10.71</ele>
        <time>2015-07-13T09:43:26Z</time>
      </trkpt>
      <trkpt lat="43.65402" lon="4.12899">
        <ele>11.67</ele>
        <time>2015-07-13T09:43:38Z</time>
      </trkpt>
      <trkpt lat="43.65374" lon="4.12923">
        <ele>12.15</ele>
        <time>2015-07-13T09:43:52Z</time>
      </trkpt>
      <trkpt lat="43.65361" lon="4.12951">
        <ele>11.67</ele>
        <time>2015-07-13T09:44:02Z</time>
      </trkpt>
      <trkpt lat="43.6535" lon="4.12982">
        <ele>11.67</ele>
        <time>2015-07-13T09:44:11Z</time>
      </trkpt>
      <trkpt lat="43.6534" lon="4.13009">
        <ele>11.67</ele>
        <time>2015-07-13T09:44:21Z</time>
      </trkpt>
      <trkpt lat="43.65326" lon="4.13046">
        <ele>11.67</ele>
        <time>2015-07-13T09:44:34Z</time>
      </trkpt>
      <trkpt lat="43.6532" lon="4.13078">
        <ele>11.67</ele>
        <time>2015-07-13T09:44:46Z</time>
      </trkpt>
      <trkpt lat="43.65315" lon="4.13114">
        <ele>11.67</ele>
        <time>2015-07-13T09:44:59Z</time>
      </trkpt>
      <trkpt lat="43.65314" lon="4.13148">
        <ele>11.19</ele>
        <time>2015-07-13T09:45:11Z</time>
      </trkpt>
      <trkpt lat="43.65317" lon="4.13196">
        <ele>12.15</ele>
        <time>2015-07-13T09:45:24Z</time>
      </trkpt>
      <trkpt lat="43.65313" lon="4.1323">
        <ele>12.15</ele>
        <time>2015-07-13T09:45:35Z</time>
      </trkpt>
      <trkpt lat="43.65298" lon="4.13264">
        <ele>12.15</ele>
        <time>2015-07-13T09:45:47Z</time>
      </trkpt>
      <trkpt lat="43.65272" lon="4.13303">
        <ele>11.67</ele>
        <time>2015-07-13T09:46:02Z</time>
      </trkpt>
      <trkpt lat="43.65248" lon="4.13323">
        <ele>11.67</ele>
        <time>2015-07-13T09:46:14Z</time>
      </trkpt>
      <trkpt lat="43.65218" lon="4.13339">
        <ele>11.19</ele>
        <time>2015-07-13T09:46:27Z</time>
      </trkpt>
      <trkpt lat="43.65189" lon="4.13353">
        <ele>11.19</ele>
        <time>2015-07-13T09:46:40Z</time>
      </trkpt>
      <trkpt lat="43.65158" lon="4.13374">
        <ele>11.19</ele>
        <time>2015-07-13T09:46:54Z</time>
      </trkpt>
      <trkpt lat="43.65125" lon="4.13399">
        <ele>10.71</ele>
        <time>2015-07-13T09:47:09Z</time>
      </trkpt>
      <trkpt lat="43.651" lon="4.13414">
        <ele>10.71</ele>
        <time>2015-07-13T09:47:20Z</time>
      </trkpt>
      <trkpt lat="43.65092" lon="4.13419">
        <ele>11.19</ele>
        <time>2015-07-13T09:47:26Z</time>
      </trkpt>
      <trkpt lat="43.65087" lon="4.13423">
        <ele>11.67</ele>
        <time>2015-07-13T09:47:36Z</time>
      </trkpt>
      <trkpt lat="43.65083" lon="4.13426">
        <ele>11.67</ele>
        <time>2015-07-13T09:47:42Z</time>
      </trkpt>
      <trkpt lat="43.65082" lon="4.13427">
        <ele>12.15</ele>
        <time>2015-07-13T09:47:43Z</time>
      </trkpt>
      <trkpt lat="43.65061" lon="4.13447">
        <ele>11.19</ele>
        <time>2015-07-13T09:47:52Z</time>
      </trkpt>
      <trkpt lat="43.65032" lon="4.1348">
        <ele>11.67</ele>
        <time>2015-07-13T09:48:05Z</time>
      </trkpt>
      <trkpt lat="43.64994" lon="4.13505">
        <ele>10.71</ele>
        <time>2015-07-13T09:48:19Z</time>
      </trkpt>
      <trkpt lat="43.64955" lon="4.13509">
        <ele>10.71</ele>
        <time>2015-07-13T09:48:33Z</time>
      </trkpt>
      <trkpt lat="43.64923" lon="4.1351">
        <ele>11.19</ele>
        <time>2015-07-13T09:48:45Z</time>
      </trkpt>
      <trkpt lat="43.64895" lon="4.13511">
        <ele>10.23</ele>
        <time>2015-07-13T09:48:56Z</time>
      </trkpt>
      <trkpt lat="43.64863" lon="4.13502">
        <ele>10.23</ele>
        <time>2015-07-13T09:49:08Z</time>
      </trkpt>
      <trkpt lat="43.64832" lon="4.1349">
        <ele>10.71</ele>
        <time>2015-07-13T09:49:20Z</time>
      </trkpt>
      <trkpt lat="43.64799" lon="4.1348">
        <ele>9.75</ele>
        <time>2015-07-13T09:49:33Z</time>
      </trkpt>
      <trkpt lat="43.64766" lon="4.13477">
        <ele>10.23</ele>
        <time>2015-07-13T09:49:48Z</time>
      </trkpt>
      <trkpt lat="43.64733" lon="4.13482">
        <ele>10.23</ele>
        <time>2015-07-13T09:50:02Z</time>
      </trkpt>
      <trkpt lat="43.64701" lon="4.13491">
        <ele>10.23</ele>
        <time>2015-07-13T09:50:15Z</time>
      </trkpt>
      <trkpt lat="43.64669" lon="4.13498">
        <ele>10.71</ele>
        <time>2015-07-13T09:50:29Z</time>
      </trkpt>
      <trkpt lat="43.64635" lon="4.13503">
        <ele>10.71</ele>
        <time>2015-07-13T09:50:43Z</time>
      </trkpt>
      <trkpt lat="43.64604" lon="4.13501">
        <ele>10.23</ele>
        <time>2015-07-13T09:50:55Z</time>
      </trkpt>
      <trkpt lat="43.64565" lon="4.13492">
        <ele>10.23</ele>
        <time>2015-07-13T09:51:11Z</time>
      </trkpt>
      <trkpt lat="43.64542" lon="4.13487">
        <ele>10.23</ele>
        <time>2015-07-13T09:51:22Z</time>
      </trkpt>
      <trkpt lat="43.64517" lon="4.1348">
        <ele>10.23</ele>
        <time>2015-07-13T09:51:34Z</time>
      </trkpt>
      <trkpt lat="43.64489" lon="4.13471">
        <ele>9.75</ele>
        <time>2015-07-13T09:51:46Z</time>
      </trkpt>
      <trkpt lat="43.64472" lon="4.13461">
        <ele>10.23</ele>
        <time>2015-07-13T09:52:00Z</time>
      </trkpt>
      <trkpt lat="43.64463" lon="4.13454">
        <ele>10.23</ele>
        <time>2015-07-13T09:52:09Z</time>
      </trkpt>
      <trkpt lat="43.64441" lon="4.13436">
        <ele>9.75</ele>
        <time>2015-07-13T09:52:18Z</time>
      </trkpt>
      <trkpt lat="43.6441" lon="4.13428">
        <ele>10.71</ele>
        <time>2015-07-13T09:52:31Z</time>
      </trkpt>
      <trkpt lat="43.64379" lon="4.13423">
        <ele>10.23</ele>
        <time>2015-07-13T09:52:43Z</time>
      </trkpt>
      <trkpt lat="43.64344" lon="4.13415">
        <ele>10.23</ele>
        <time>2015-07-13T09:52:57Z</time>
      </trkpt>
      <trkpt lat="43.64314" lon="4.13393">
        <ele>9.75</ele>
        <time>2015-07-13T09:53:11Z</time>
      </trkpt>
      <trkpt lat="43.64289" lon="4.13373">
        <ele>9.75</ele>
        <time>2015-07-13T09:53:23Z</time>
      </trkpt>
      <trkpt lat="43.6426" lon="4.1337">
        <ele>9.75</ele>
        <time>2015-07-13T09:53:35Z</time>
      </trkpt>
      <trkpt lat="43.64222" lon="4.13368">
        <ele>10.23</ele>
        <time>2015-07-13T09:53:49Z</time>
      </trkpt>
      <trkpt lat="43.64191" lon="4.13371">
        <ele>10.23</ele>
        <time>2015-07-13T09:54:00Z</time>
      </trkpt>
      <trkpt lat="43.64152" lon="4.1339">
        <ele>10.23</ele>
        <time>2015-07-13T09:54:15Z</time>
      </trkpt>
      <trkpt lat="43.64112" lon="4.13405">
        <ele>9.75</ele>
        <time>2015-07-13T09:54:29Z</time>
      </trkpt>
      <trkpt lat="43.64082" lon="4.13408">
        <ele>9.75</ele>
        <time>2015-07-13T09:54:40Z</time>
      </trkpt>
      <trkpt lat="43.64053" lon="4.13409">
        <ele>9.75</ele>
        <time>2015-07-13T09:54:52Z</time>
      </trkpt>
      <trkpt lat="43.64027" lon="4.1341">
        <ele>9.75</ele>
        <time>2015-07-13T09:55:03Z</time>
      </trkpt>
      <trkpt lat="43.64006" lon="4.13412">
        <ele>9.75</ele>
        <time>2015-07-13T09:55:14Z</time>
      </trkpt>
      <trkpt lat="43.63979" lon="4.13417">
        <ele>9.75</ele>
        <time>2015-07-13T09:55:25Z</time>
      </trkpt>
      <trkpt lat="43.63937" lon="4.13423">
        <ele>9.75</ele>
        <time>2015-07-13T09:55:39Z</time>
      </trkpt>
      <trkpt lat="43.6389" lon="4.13428">
        <ele>9.75</ele>
        <time>2015-07-13T09:55:55Z</time>
      </trkpt>
      <trkpt lat="43.63862" lon="4.13432">
        <ele>9.75</ele>
        <time>2015-07-13T09:56:07Z</time>
      </trkpt>
      <trkpt lat="43.63834" lon="4.13436">
        <ele>9.75</ele>
        <time>2015-07-13T09:56:20Z</time>
      </trkpt>
      <trkpt lat="43.63801" lon="4.13438">
        <ele>9.75</ele>
        <time>2015-07-13T09:56:35Z</time>
      </trkpt>
      <trkpt lat="43.63764" lon="4.13435">
        <ele>10.23</ele>
        <time>2015-07-13T09:56:50Z</time>
      </trkpt>
      <trkpt lat="43.63735" lon="4.13421">
        <ele>10.23</ele>
        <time>2015-07-13T09:57:03Z</time>
      </trkpt>
      <trkpt lat="43.637" lon="4.13396">
        <ele>9.75</ele>
        <time>2015-07-13T09:57:18Z</time>
      </trkpt>
      <trkpt lat="43.63675" lon="4.1338">
        <ele>10.23</ele>
        <time>2015-07-13T09:57:30Z</time>
      </trkpt>
      <trkpt lat="43.63643" lon="4.13359">
        <ele>10.23</ele>
        <time>2015-07-13T09:57:45Z</time>
      </trkpt>
      <trkpt lat="43.63613" lon="4.13339">
        <ele>10.23</ele>
        <time>2015-07-13T09:57:59Z</time>
      </trkpt>
      <trkpt lat="43.63587" lon="4.13322">
        <ele>10.23</ele>
        <time>2015-07-13T09:58:12Z</time>
      </trkpt>
      <trkpt lat="43.63555" lon="4.13299">
        <ele>10.23</ele>
        <time>2015-07-13T09:58:27Z</time>
      </trkpt>
      <trkpt lat="43.63534" lon="4.13285">
        <ele>10.23</ele>
        <time>2015-07-13T09:58:38Z</time>
      </trkpt>
      <trkpt lat="43.63515" lon="4.13271">
        <ele>10.23</ele>
        <time>2015-07-13T09:58:50Z</time>
      </trkpt>
      <trkpt lat="43.63487" lon="4.1325">
        <ele>9.75</ele>
        <time>2015-07-13T09:59:04Z</time>
      </trkpt>
      <trkpt lat="43.63461" lon="4.13234">
        <ele>10.23</ele>
        <time>2015-07-13T09:59:17Z</time>
      </trkpt>
      <trkpt lat="43.63436" lon="4.13219">
        <ele>9.75</ele>
        <time>2015-07-13T09:59:29Z</time>
      </trkpt>
      <trkpt lat="43.63415" lon="4.13205">
        <ele>9.75</ele>
        <time>2015-07-13T09:59:39Z</time>
      </trkpt>
      <trkpt lat="43.63388" lon="4.13185">
        <ele>10.23</ele>
        <time>2015-07-13T09:59:52Z</time>
      </trkpt>
      <trkpt lat="43.63368" lon="4.13172">
        <ele>9.75</ele>
        <time>2015-07-13T10:00:03Z</time>
      </trkpt>
      <trkpt lat="43.63343" lon="4.13156">
        <ele>9.75</ele>
        <time>2015-07-13T10:00:15Z</time>
      </trkpt>
      <trkpt lat="43.63319" lon="4.13139">
        <ele>9.27</ele>
        <time>2015-07-13T10:00:28Z</time>
      </trkpt>
      <trkpt lat="43.63296" lon="4.13123">
        <ele>9.75</ele>
        <time>2015-07-13T10:00:40Z</time>
      </trkpt>
      <trkpt lat="43.63295" lon="4.13121">
        <ele>9.75</ele>
        <time>2015-07-13T10:00:41Z</time>
      </trkpt>
      <trkpt lat="43.63274" lon="4.13107">
        <ele>9.27</ele>
        <time>2015-07-13T10:00:53Z</time>
      </trkpt>
      <trkpt lat="43.63254" lon="4.13094">
        <ele>9.75</ele>
        <time>2015-07-13T10:01:03Z</time>
      </trkpt>
      <trkpt lat="43.63228" lon="4.13077">
        <ele>10.23</ele>
        <time>2015-07-13T10:01:16Z</time>
      </trkpt>
      <trkpt lat="43.63207" lon="4.13064">
        <ele>10.23</ele>
        <time>2015-07-13T10:01:27Z</time>
      </trkpt>
      <trkpt lat="43.63186" lon="4.1305">
        <ele>10.23</ele>
        <time>2015-07-13T10:01:38Z</time>
      </trkpt>
      <trkpt lat="43.63163" lon="4.13037">
        <ele>9.75</ele>
        <time>2015-07-13T10:01:49Z</time>
      </trkpt>
      <trkpt lat="43.63148" lon="4.13028">
        <ele>9.75</ele>
        <time>2015-07-13T10:01:58Z</time>
      </trkpt>
      <trkpt lat="43.63127" lon="4.13014">
        <ele>10.23</ele>
        <time>2015-07-13T10:02:09Z</time>
      </trkpt>
      <trkpt lat="43.63108" lon="4.13">
        <ele>9.75</ele>
        <time>2015-07-13T10:02:19Z</time>
      </trkpt>
      <trkpt lat="43.63093" lon="4.1299">
        <ele>9.27</ele>
        <time>2015-07-13T10:02:28Z</time>
      </trkpt>
      <trkpt lat="43.63075" lon="4.12977">
        <ele>9.75</ele>
        <time>2015-07-13T10:02:38Z</time>
      </trkpt>
      <trkpt lat="43.63059" lon="4.12964">
        <ele>9.27</ele>
        <time>2015-07-13T10:02:47Z</time>
      </trkpt>
      <trkpt lat="43.63038" lon="4.12948">
        <ele>9.27</ele>
        <time>2015-07-13T10:02:59Z</time>
      </trkpt>
      <trkpt lat="43.63015" lon="4.12932">
        <ele>9.27</ele>
        <time>2015-07-13T10:03:11Z</time>
      </trkpt>
      <trkpt lat="43.62997" lon="4.1292">
        <ele>9.27</ele>
        <time>2015-07-13T10:03:21Z</time>
      </trkpt>
      <trkpt lat="43.62977" lon="4.12906">
        <ele>9.27</ele>
        <time>2015-07-13T10:03:32Z</time>
      </trkpt>
      <trkpt lat="43.62951" lon="4.12889">
        <ele>9.27</ele>
        <time>2015-07-13T10:03:46Z</time>
      </trkpt>
      <trkpt lat="43.62925" lon="4.12874">
        <ele>9.27</ele>
        <time>2015-07-13T10:03:59Z</time>
      </trkpt>
      <trkpt lat="43.62898" lon="4.12856">
        <ele>9.27</ele>
        <time>2015-07-13T10:04:12Z</time>
      </trkpt>
      <trkpt lat="43.62874" lon="4.12839">
        <ele>9.27</ele>
        <time>2015-07-13T10:04:24Z</time>
      </trkpt>
      <trkpt lat="43.62848" lon="4.12822">
        <ele>9.27</ele>
        <time>2015-07-13T10:04:37Z</time>
      </trkpt>
      <trkpt lat="43.62823" lon="4.12804">
        <ele>8.79</ele>
        <time>2015-07-13T10:04:50Z</time>
      </trkpt>
      <trkpt lat="43.62796" lon="4.12788">
        <ele>8.79</ele>
        <time>2015-07-13T10:05:04Z</time>
      </trkpt>
      <trkpt lat="43.62781" lon="4.12791">
        <ele>8.79</ele>
        <time>2015-07-13T10:05:12Z</time>
      </trkpt>
      <trkpt lat="43.6278" lon="4.1279">
        <ele>9.27</ele>
        <time>2015-07-13T10:05:13Z</time>
      </trkpt>
      <trkpt lat="43.62779" lon="4.12788">
        <ele>9.75</ele>
        <time>2015-07-13T10:05:14Z</time>
      </trkpt>
      <trkpt lat="43.62778" lon="4.12788">
        <ele>9.75</ele>
        <time>2015-07-13T10:05:15Z</time>
      </trkpt>
      <trkpt lat="43.62776" lon="4.12787">
        <ele>9.27</ele>
        <time>2015-07-13T10:05:16Z</time>
      </trkpt>
      <trkpt lat="43.62774" lon="4.12786">
        <ele>9.75</ele>
        <time>2015-07-13T10:05:17Z</time>
      </trkpt>
      <trkpt lat="43.62772" lon="4.12785">
        <ele>8.79</ele>
        <time>2015-07-13T10:05:18Z</time>
      </trkpt>
      <trkpt lat="43.6277" lon="4.12783">
        <ele>9.27</ele>
        <time>2015-07-13T10:05:19Z</time>
      </trkpt>
      <trkpt lat="43.62768" lon="4.1278">
        <ele>9.27</ele>
        <time>2015-07-13T10:05:20Z</time>
      </trkpt>
      <trkpt lat="43.62767" lon="4.12777">
        <ele>8.79</ele>
        <time>2015-07-13T10:05:21Z</time>
      </trkpt>
      <trkpt lat="43.62765" lon="4.12774">
        <ele>8.79</ele>
        <time>2015-07-13T10:05:22Z</time>
      </trkpt>
      <trkpt lat="43.62764" lon="4.12771">
        <ele>8.31</ele>
        <time>2015-07-13T10:05:23Z</time>
      </trkpt>
      <trkpt lat="43.62763" lon="4.12769">
        <ele>8.79</ele>
        <time>2015-07-13T10:05:24Z</time>
      </trkpt>
      <trkpt lat="43.62761" lon="4.12767">
        <ele>8.79</ele>
        <time>2015-07-13T10:05:25Z</time>
      </trkpt>
      <trkpt lat="43.62739" lon="4.12744">
        <ele>9.27</ele>
        <time>2015-07-13T10:05:38Z</time>
      </trkpt>
      <trkpt lat="43.62722" lon="4.12729">
        <ele>9.27</ele>
        <time>2015-07-13T10:05:50Z</time>
      </trkpt>
      <trkpt lat="43.62721" lon="4.12729">
        <ele>8.79</ele>
        <time>2015-07-13T10:06:03Z</time>
      </trkpt>
      <trkpt lat="43.6272" lon="4.12728">
        <ele>8.79</ele>
        <time>2015-07-13T10:06:29Z</time>
      </trkpt>
      <trkpt lat="43.6272" lon="4.12728">
        <ele>9.27</ele>
        <time>2015-07-13T10:06:52Z</time>
      </trkpt>
      <trkpt lat="43.6272" lon="4.12728">
        <ele>8.79</ele>
        <time>2015-07-13T10:07:19Z</time>
      </trkpt>
      <trkpt lat="43.6272" lon="4.12728">
        <ele>8.79</ele>
        <time>2015-07-13T10:07:42Z</time>
      </trkpt>
      <trkpt lat="43.62721" lon="4.12729">
        <ele>9.75</ele>
        <time>2015-07-13T10:08:04Z</time>
      </trkpt>
      <trkpt lat="43.62721" lon="4.12729">
        <ele>9.75</ele>
        <time>2015-07-13T10:08:05Z</time>
      </trkpt>
      <trkpt lat="43.62721" lon="4.12729">
        <ele>9.27</ele>
        <time>2015-07-13T10:08:27Z</time>
      </trkpt>
      <trkpt lat="43.62721" lon="4.12729">
        <ele>8.79</ele>
        <time>2015-07-13T10:08:47Z</time>
      </trkpt>
      <trkpt lat="43.62721" lon="4.12729">
        <ele>8.79</ele>
        <time>2015-07-13T10:09:10Z</time>
      </trkpt>
      <trkpt lat="43.62721" lon="4.1273">
        <ele>8.31</ele>
        <time>2015-07-13T10:09:33Z</time>
      </trkpt>
      <trkpt lat="43.62721" lon="4.12729">
        <ele>8.79</ele>
        <time>2015-07-13T10:09:54Z</time>
      </trkpt>
      <trkpt lat="43.62721" lon="4.1273">
        <ele>9.27</ele>
        <time>2015-07-13T10:10:17Z</time>
      </trkpt>
      <trkpt lat="43.62722" lon="4.1273">
        <ele>8.79</ele>
        <time>2015-07-13T10:10:37Z</time>
      </trkpt>
      <trkpt lat="43.62722" lon="4.12729">
        <ele>8.79</ele>
        <time>2015-07-13T10:10:51Z</time>
      </trkpt>
      <trkpt lat="43.62718" lon="4.12725">
        <ele>9.27</ele>
        <time>2015-07-13T10:10:59Z</time>
      </trkpt>
      <trkpt lat="43.62716" lon="4.12725">
        <ele>9.27</ele>
        <time>2015-07-13T10:11:00Z</time>
      </trkpt>
      <trkpt lat="43.62715" lon="4.12724">
        <ele>8.79</ele>
        <time>2015-07-13T10:11:01Z</time>
      </trkpt>
      <trkpt lat="43.62714" lon="4.12722">
        <ele>9.27</ele>
        <time>2015-07-13T10:11:02Z</time>
      </trkpt>
      <trkpt lat="43.62712" lon="4.12721">
        <ele>8.79</ele>
        <time>2015-07-13T10:11:03Z</time>
      </trkpt>
      <trkpt lat="43.62704" lon="4.12713">
        <ele>8.79</ele>
        <time>2015-07-13T10:11:13Z</time>
      </trkpt>
      <trkpt lat="43.6269" lon="4.127">
        <ele>9.27</ele>
        <time>2015-07-13T10:11:23Z</time>
      </trkpt>
      <trkpt lat="43.62669" lon="4.1268">
        <ele>7.83</ele>
        <time>2015-07-13T10:11:36Z</time>
      </trkpt>
      <trkpt lat="43.62654" lon="4.12664">
        <ele>8.31</ele>
        <time>2015-07-13T10:11:46Z</time>
      </trkpt>
      <trkpt lat="43.62652" lon="4.12663">
        <ele>8.31</ele>
        <time>2015-07-13T10:11:51Z</time>
      </trkpt>
      <trkpt lat="43.62651" lon="4.12662">
        <ele>7.83</ele>
        <time>2015-07-13T10:11:52Z</time>
      </trkpt>
      <trkpt lat="43.62631" lon="4.12644">
        <ele>8.31</ele>
        <time>2015-07-13T10:12:04Z</time>
      </trkpt>
      <trkpt lat="43.62609" lon="4.12622">
        <ele>8.31</ele>
        <time>2015-07-13T10:12:16Z</time>
      </trkpt>
      <trkpt lat="43.62588" lon="4.12602">
        <ele>7.83</ele>
        <time>2015-07-13T10:12:28Z</time>
      </trkpt>
      <trkpt lat="43.62567" lon="4.1258">
        <ele>7.83</ele>
        <time>2015-07-13T10:12:41Z</time>
      </trkpt>
      <trkpt lat="43.62545" lon="4.12558">
        <ele>8.31</ele>
        <time>2015-07-13T10:12:52Z</time>
      </trkpt>
      <trkpt lat="43.62525" lon="4.12529">
        <ele>8.31</ele>
        <time>2015-07-13T10:13:04Z</time>
      </trkpt>
      <trkpt lat="43.62504" lon="4.125">
        <ele>7.83</ele>
        <time>2015-07-13T10:13:18Z</time>
      </trkpt>
      <trkpt lat="43.62501" lon="4.12494">
        <ele>7.83</ele>
        <time>2015-07-13T10:13:27Z</time>
      </trkpt>
      <trkpt lat="43.62486" lon="4.12468">
        <ele>8.79</ele>
        <time>2015-07-13T10:13:39Z</time>
      </trkpt>
      <trkpt lat="43.62469" lon="4.12436">
        <ele>7.83</ele>
        <time>2015-07-13T10:13:52Z</time>
      </trkpt>
      <trkpt lat="43.62451" lon="4.12406">
        <ele>8.31</ele>
        <time>2015-07-13T10:14:05Z</time>
      </trkpt>
      <trkpt lat="43.62438" lon="4.12372">
        <ele>8.31</ele>
        <time>2015-07-13T10:14:17Z</time>
      </trkpt>
      <trkpt lat="43.62425" lon="4.12333">
        <ele>8.79</ele>
        <time>2015-07-13T10:14:29Z</time>
      </trkpt>
      <trkpt lat="43.62412" lon="4.12297">
        <ele>8.79</ele>
        <time>2015-07-13T10:14:41Z</time>
      </trkpt>
      <trkpt lat="43.62399" lon="4.12265">
        <ele>8.31</ele>
        <time>2015-07-13T10:14:52Z</time>
      </trkpt>
      <trkpt lat="43.62389" lon="4.12229">
        <ele>8.79</ele>
        <time>2015-07-13T10:15:04Z</time>
      </trkpt>
      <trkpt lat="43.62379" lon="4.12186">
        <ele>8.31</ele>
        <time>2015-07-13T10:15:18Z</time>
      </trkpt>
      <trkpt lat="43.62379" lon="4.1215">
        <ele>8.79</ele>
        <time>2015-07-13T10:15:30Z</time>
      </trkpt>
      <trkpt lat="43.62382" lon="4.12113">
        <ele>8.31</ele>
        <time>2015-07-13T10:15:42Z</time>
      </trkpt>
      <trkpt lat="43.62385" lon="4.12072">
        <ele>8.31</ele>
        <time>2015-07-13T10:15:55Z</time>
      </trkpt>
      <trkpt lat="43.62387" lon="4.12038">
        <ele>8.79</ele>
        <time>2015-07-13T10:16:06Z</time>
      </trkpt>
      <trkpt lat="43.62387" lon="4.12011">
        <ele>8.79</ele>
        <time>2015-07-13T10:16:16Z</time>
      </trkpt>
      <trkpt lat="43.62382" lon="4.1197">
        <ele>8.31</ele>
        <time>2015-07-13T10:16:29Z</time>
      </trkpt>
      <trkpt lat="43.6237" lon="4.11938">
        <ele>8.31</ele>
        <time>2015-07-13T10:16:40Z</time>
      </trkpt>
      <trkpt lat="43.62341" lon="4.11912">
        <ele>8.31</ele>
        <time>2015-07-13T10:16:53Z</time>
      </trkpt>
      <trkpt lat="43.62316" lon="4.11892">
        <ele>8.31</ele>
        <time>2015-07-13T10:17:04Z</time>
      </trkpt>
      <trkpt lat="43.62288" lon="4.11873">
        <ele>7.83</ele>
        <time>2015-07-13T10:17:16Z</time>
      </trkpt>
      <trkpt lat="43.62261" lon="4.11853">
        <ele>8.79</ele>
        <time>2015-07-13T10:17:28Z</time>
      </trkpt>
      <trkpt lat="43.62241" lon="4.11835">
        <ele>8.31</ele>
        <time>2015-07-13T10:17:38Z</time>
      </trkpt>
      <trkpt lat="43.62234" lon="4.1183">
        <ele>7.83</ele>
        <time>2015-07-13T10:17:42Z</time>
      </trkpt>
      <trkpt lat="43.62233" lon="4.11829">
        <ele>8.31</ele>
        <time>2015-07-13T10:17:43Z</time>
      </trkpt>
      <trkpt lat="43.62232" lon="4.11828">
        <ele>7.83</ele>
        <time>2015-07-13T10:17:44Z</time>
      </trkpt>
      <trkpt lat="43.6223" lon="4.11827">
        <ele>7.83</ele>
        <time>2015-07-13T10:17:45Z</time>
      </trkpt>
      <trkpt lat="43.62229" lon="4.11825">
        <ele>7.83</ele>
        <time>2015-07-13T10:17:46Z</time>
      </trkpt>
      <trkpt lat="43.62228" lon="4.11823">
        <ele>8.31</ele>
        <time>2015-07-13T10:17:47Z</time>
      </trkpt>
      <trkpt lat="43.62227" lon="4.11821">
        <ele>8.31</ele>
        <time>2015-07-13T10:17:48Z</time>
      </trkpt>
      <trkpt lat="43.62226" lon="4.1182">
        <ele>7.83</ele>
        <time>2015-07-13T10:17:49Z</time>
      </trkpt>
      <trkpt lat="43.62224" lon="4.11818">
        <ele>7.83</ele>
        <time>2015-07-13T10:17:50Z</time>
      </trkpt>
      <trkpt lat="43.62223" lon="4.11817">
        <ele>7.83</ele>
        <time>2015-07-13T10:17:51Z</time>
      </trkpt>
      <trkpt lat="43.62221" lon="4.11816">
        <ele>8.31</ele>
        <time>2015-07-13T10:17:52Z</time>
      </trkpt>
      <trkpt lat="43.62196" lon="4.11797">
        <ele>7.83</ele>
        <time>2015-07-13T10:18:04Z</time>
      </trkpt>
      <trkpt lat="43.6217" lon="4.11776">
        <ele>7.83</ele>
        <time>2015-07-13T10:18:17Z</time>
      </trkpt>
      <trkpt lat="43.62151" lon="4.11761">
        <ele>8.31</ele>
        <time>2015-07-13T10:18:29Z</time>
      </trkpt>
      <trkpt lat="43.62129" lon="4.11749">
        <ele>7.35</ele>
        <time>2015-07-13T10:18:38Z</time>
      </trkpt>
      <trkpt lat="43.62104" lon="4.11733">
        <ele>7.35</ele>
        <time>2015-07-13T10:18:49Z</time>
      </trkpt>
      <trkpt lat="43.62086" lon="4.11721">
        <ele>7.35</ele>
        <time>2015-07-13T10:18:58Z</time>
      </trkpt>
      <trkpt lat="43.62058" lon="4.11702">
        <ele>7.83</ele>
        <time>2015-07-13T10:19:11Z</time>
      </trkpt>
      <trkpt lat="43.62033" lon="4.1168">
        <ele>6.87</ele>
        <time>2015-07-13T10:19:23Z</time>
      </trkpt>
      <trkpt lat="43.6201" lon="4.11652">
        <ele>6.87</ele>
        <time>2015-07-13T10:19:35Z</time>
      </trkpt>
      <trkpt lat="43.61987" lon="4.11623">
        <ele>7.35</ele>
        <time>2015-07-13T10:19:47Z</time>
      </trkpt>
      <trkpt lat="43.61967" lon="4.11597">
        <ele>7.35</ele>
        <time>2015-07-13T10:19:57Z</time>
      </trkpt>
      <trkpt lat="43.61941" lon="4.11564">
        <ele>6.87</ele>
        <time>2015-07-13T10:20:10Z</time>
      </trkpt>
      <trkpt lat="43.61915" lon="4.11536">
        <ele>6.87</ele>
        <time>2015-07-13T10:20:24Z</time>
      </trkpt>
      <trkpt lat="43.61912" lon="4.11533">
        <ele>6.87</ele>
        <time>2015-07-13T10:20:34Z</time>
      </trkpt>
      <trkpt lat="43.61912" lon="4.11532">
        <ele>7.35</ele>
        <time>2015-07-13T10:20:52Z</time>
      </trkpt>
      <trkpt lat="43.6191" lon="4.1153">
        <ele>6.87</ele>
        <time>2015-07-13T10:21:07Z</time>
      </trkpt>
      <trkpt lat="43.6191" lon="4.11532">
        <ele>6.39</ele>
        <time>2015-07-13T10:21:31Z</time>
      </trkpt>
      <trkpt lat="43.61911" lon="4.11532">
        <ele>6.39</ele>
        <time>2015-07-13T10:21:55Z</time>
      </trkpt>
      <trkpt lat="43.61911" lon="4.11532">
        <ele>7.83</ele>
        <time>2015-07-13T10:22:19Z</time>
      </trkpt>
      <trkpt lat="43.61911" lon="4.11532">
        <ele>7.83</ele>
        <time>2015-07-13T10:22:20Z</time>
      </trkpt>
      <trkpt lat="43.61911" lon="4.11532">
        <ele>3.5</ele>
        <time>2015-07-13T10:22:26Z</time>
      </trkpt>
      <trkpt lat="43.61911" lon="4.11532">
        <ele>6.87</ele>
        <time>2015-07-13T10:22:27Z</time>
      </trkpt>
      <trkpt lat="43.61911" lon="4.11533">
        <ele>6.39</ele>
        <time>2015-07-13T10:22:50Z</time>
      </trkpt>
      <trkpt lat="43.61908" lon="4.11529">
        <ele>6.87</ele>
        <time>2015-07-13T10:23:10Z</time>
      </trkpt>
      <trkpt lat="43.61904" lon="4.11524">
        <ele>6.39</ele>
        <time>2015-07-13T10:23:13Z</time>
      </trkpt>
      <trkpt lat="43.61903" lon="4.11523">
        <ele>6.39</ele>
        <time>2015-07-13T10:23:14Z</time>
      </trkpt>
      <trkpt lat="43.61875" lon="4.11491">
        <ele>6.39</ele>
        <time>2015-07-13T10:23:28Z</time>
      </trkpt>
      <trkpt lat="43.6185" lon="4.11459">
        <ele>5.91</ele>
        <time>2015-07-13T10:23:42Z</time>
      </trkpt>
      <trkpt lat="43.61823" lon="4.11427">
        <ele>6.87</ele>
        <time>2015-07-13T10:23:56Z</time>
      </trkpt>
      <trkpt lat="43.61804" lon="4.11404">
        <ele>6.39</ele>
        <time>2015-07-13T10:24:06Z</time>
      </trkpt>
      <trkpt lat="43.61772" lon="4.11368">
        <ele>6.39</ele>
        <time>2015-07-13T10:24:21Z</time>
      </trkpt>
      <trkpt lat="43.61749" lon="4.1134">
        <ele>5.91</ele>
        <time>2015-07-13T10:24:33Z</time>
      </trkpt>
      <trkpt lat="43.6172" lon="4.11306">
        <ele>6.39</ele>
        <time>2015-07-13T10:24:47Z</time>
      </trkpt>
      <trkpt lat="43.61699" lon="4.11279">
        <ele>5.91</ele>
        <time>2015-07-13T10:24:59Z</time>
      </trkpt>
      <trkpt lat="43.61674" lon="4.1125">
        <ele>5.42</ele>
        <time>2015-07-13T10:25:14Z</time>
      </trkpt>
      <trkpt lat="43.61657" lon="4.11227">
        <ele>5.91</ele>
        <time>2015-07-13T10:25:27Z</time>
      </trkpt>
      <trkpt lat="43.61656" lon="4.11225">
        <ele>5.91</ele>
        <time>2015-07-13T10:25:28Z</time>
      </trkpt>
      <trkpt lat="43.61655" lon="4.11224">
        <ele>6.39</ele>
        <time>2015-07-13T10:25:29Z</time>
      </trkpt>
      <trkpt lat="43.61654" lon="4.11222">
        <ele>5.91</ele>
        <time>2015-07-13T10:25:30Z</time>
      </trkpt>
      <trkpt lat="43.61653" lon="4.11221">
        <ele>5.42</ele>
        <time>2015-07-13T10:25:31Z</time>
      </trkpt>
      <trkpt lat="43.61652" lon="4.11219">
        <ele>6.39</ele>
        <time>2015-07-13T10:25:32Z</time>
      </trkpt>
      <trkpt lat="43.61651" lon="4.11218">
        <ele>5.91</ele>
        <time>2015-07-13T10:25:33Z</time>
      </trkpt>
      <trkpt lat="43.6165" lon="4.11217">
        <ele>5.91</ele>
        <time>2015-07-13T10:25:34Z</time>
      </trkpt>
      <trkpt lat="43.61648" lon="4.11215">
        <ele>5.91</ele>
        <time>2015-07-13T10:25:35Z</time>
      </trkpt>
      <trkpt lat="43.61647" lon="4.11213">
        <ele>5.91</ele>
        <time>2015-07-13T10:25:36Z</time>
      </trkpt>
      <trkpt lat="43.61646" lon="4.11211">
        <ele>5.91</ele>
        <time>2015-07-13T10:25:37Z</time>
      </trkpt>
      <trkpt lat="43.61644" lon="4.11208">
        <ele>5.91</ele>
        <time>2015-07-13T10:25:38Z</time>
      </trkpt>
      <trkpt lat="43.61632" lon="4.11189">
        <ele>5.91</ele>
        <time>2015-07-13T10:25:49Z</time>
      </trkpt>
      <trkpt lat="43.61617" lon="4.11167">
        <ele>5.91</ele>
        <time>2015-07-13T10:25:59Z</time>
      </trkpt>
      <trkpt lat="43.61589" lon="4.11125">
        <ele>6.39</ele>
        <time>2015-07-13T10:26:13Z</time>
      </trkpt>
      <trkpt lat="43.61562" lon="4.11098">
        <ele>5.91</ele>
        <time>2015-07-13T10:26:24Z</time>
      </trkpt>
      <trkpt lat="43.61529" lon="4.11096">
        <ele>6.87</ele>
        <time>2015-07-13T10:26:36Z</time>
      </trkpt>
      <trkpt lat="43.61494" lon="4.11118">
        <ele>6.39</ele>
        <time>2015-07-13T10:26:49Z</time>
      </trkpt>
      <trkpt lat="43.61464" lon="4.1113">
        <ele>6.39</ele>
        <time>2015-07-13T10:27:01Z</time>
      </trkpt>
      <trkpt lat="43.61435" lon="4.11137">
        <ele>6.39</ele>
        <time>2015-07-13T10:27:12Z</time>
      </trkpt>
      <trkpt lat="43.61395" lon="4.11135">
        <ele>6.39</ele>
        <time>2015-07-13T10:27:26Z</time>
      </trkpt>
      <trkpt lat="43.61365" lon="4.11123">
        <ele>6.39</ele>
        <time>2015-07-13T10:27:37Z</time>
      </trkpt>
      <trkpt lat="43.6133" lon="4.11105">
        <ele>6.39</ele>
        <time>2015-07-13T10:27:50Z</time>
      </trkpt>
      <trkpt lat="43.61308" lon="4.11092">
        <ele>6.87</ele>
        <time>2015-07-13T10:28:00Z</time>
      </trkpt>
      <trkpt lat="43.61282" lon="4.1107">
        <ele>6.39</ele>
        <time>2015-07-13T10:28:11Z</time>
      </trkpt>
      <trkpt lat="43.61257" lon="4.11049">
        <ele>6.39</ele>
        <time>2015-07-13T10:28:22Z</time>
      </trkpt>
      <trkpt lat="43.61231" lon="4.11027">
        <ele>6.39</ele>
        <time>2015-07-13T10:28:33Z</time>
      </trkpt>
      <trkpt lat="43.61204" lon="4.10996">
        <ele>6.39</ele>
        <time>2015-07-13T10:28:46Z</time>
      </trkpt>
      <trkpt lat="43.61181" lon="4.10963">
        <ele>5.91</ele>
        <time>2015-07-13T10:28:58Z</time>
      </trkpt>
      <trkpt lat="43.61166" lon="4.10942">
        <ele>6.39</ele>
        <time>2015-07-13T10:29:06Z</time>
      </trkpt>
      <trkpt lat="43.61144" lon="4.10916">
        <ele>6.39</ele>
        <time>2015-07-13T10:29:17Z</time>
      </trkpt>
      <trkpt lat="43.61121" lon="4.10895">
        <ele>5.91</ele>
        <time>2015-07-13T10:29:29Z</time>
      </trkpt>
      <trkpt lat="43.61097" lon="4.10878">
        <ele>6.39</ele>
        <time>2015-07-13T10:29:39Z</time>
      </trkpt>
      <trkpt lat="43.61074" lon="4.10862">
        <ele>6.39</ele>
        <time>2015-07-13T10:29:49Z</time>
      </trkpt>
      <trkpt lat="43.61038" lon="4.10838">
        <ele>5.91</ele>
        <time>2015-07-13T10:30:04Z</time>
      </trkpt>
      <trkpt lat="43.61008" lon="4.10818">
        <ele>5.91</ele>
        <time>2015-07-13T10:30:16Z</time>
      </trkpt>
      <trkpt lat="43.60983" lon="4.108">
        <ele>5.91</ele>
        <time>2015-07-13T10:30:26Z</time>
      </trkpt>
      <trkpt lat="43.60956" lon="4.10781">
        <ele>5.42</ele>
        <time>2015-07-13T10:30:38Z</time>
      </trkpt>
      <trkpt lat="43.60928" lon="4.10763">
        <ele>4.94</ele>
        <time>2015-07-13T10:30:50Z</time>
      </trkpt>
      <trkpt lat="43.60906" lon="4.10751">
        <ele>5.91</ele>
        <time>2015-07-13T10:31:00Z</time>
      </trkpt>
      <trkpt lat="43.60884" lon="4.10738">
        <ele>5.91</ele>
        <time>2015-07-13T10:31:12Z</time>
      </trkpt>
      <trkpt lat="43.60883" lon="4.10737">
        <ele>5.42</ele>
        <time>2015-07-13T10:31:13Z</time>
      </trkpt>
      <trkpt lat="43.60881" lon="4.10737">
        <ele>5.91</ele>
        <time>2015-07-13T10:31:14Z</time>
      </trkpt>
      <trkpt lat="43.6088" lon="4.10736">
        <ele>5.42</ele>
        <time>2015-07-13T10:31:15Z</time>
      </trkpt>
      <trkpt lat="43.60859" lon="4.10722">
        <ele>5.91</ele>
        <time>2015-07-13T10:31:24Z</time>
      </trkpt>
      <trkpt lat="43.60826" lon="4.107">
        <ele>6.39</ele>
        <time>2015-07-13T10:31:39Z</time>
      </trkpt>
      <trkpt lat="43.60798" lon="4.10682">
        <ele>6.39</ele>
        <time>2015-07-13T10:31:52Z</time>
      </trkpt>
      <trkpt lat="43.6079" lon="4.10677">
        <ele>5.91</ele>
        <time>2015-07-13T10:32:03Z</time>
      </trkpt>
      <trkpt lat="43.6079" lon="4.10678">
        <ele>5.91</ele>
        <time>2015-07-13T10:32:19Z</time>
      </trkpt>
      <trkpt lat="43.60789" lon="4.10677">
        <ele>5.91</ele>
        <time>2015-07-13T10:32:43Z</time>
      </trkpt>
      <trkpt lat="43.60788" lon="4.10677">
        <ele>5.91</ele>
        <time>2015-07-13T10:33:08Z</time>
      </trkpt>
      <trkpt lat="43.60788" lon="4.10677">
        <ele>5.91</ele>
        <time>2015-07-13T10:33:28Z</time>
      </trkpt>
      <trkpt lat="43.60788" lon="4.10677">
        <ele>5.91</ele>
        <time>2015-07-13T10:33:47Z</time>
      </trkpt>
      <trkpt lat="43.60788" lon="4.10677">
        <ele>5.91</ele>
        <time>2015-07-13T10:34:10Z</time>
      </trkpt>
      <trkpt lat="43.60788" lon="4.10676">
        <ele>5.91</ele>
        <time>2015-07-13T10:34:37Z</time>
      </trkpt>
      <trkpt lat="43.60788" lon="4.10677">
        <ele>5.91</ele>
        <time>2015-07-13T10:35:03Z</time>
      </trkpt>
      <trkpt lat="43.60788" lon="4.10677">
        <ele>5.42</ele>
        <time>2015-07-13T10:35:32Z</time>
      </trkpt>
      <trkpt lat="43.60788" lon="4.10677">
        <ele>5.42</ele>
        <time>2015-07-13T10:35:55Z</time>
      </trkpt>
      <trkpt lat="43.60787" lon="4.10677">
        <ele>5.91</ele>
        <time>2015-07-13T10:36:19Z</time>
      </trkpt>
      <trkpt lat="43.60786" lon="4.10676">
        <ele>5.91</ele>
        <time>2015-07-13T10:36:43Z</time>
      </trkpt>
      <trkpt lat="43.60787" lon="4.10676">
        <ele>5.91</ele>
        <time>2015-07-13T10:37:11Z</time>
      </trkpt>
      <trkpt lat="43.60782" lon="4.10675">
        <ele>5.91</ele>
        <time>2015-07-13T10:37:26Z</time>
      </trkpt>
      <trkpt lat="43.60763" lon="4.10664">
        <ele>5.91</ele>
        <time>2015-07-13T10:37:38Z</time>
      </trkpt>
      <trkpt lat="43.60744" lon="4.10652">
        <ele>5.91</ele>
        <time>2015-07-13T10:37:47Z</time>
      </trkpt>
      <trkpt lat="43.60718" lon="4.10635">
        <ele>6.39</ele>
        <time>2015-07-13T10:37:59Z</time>
      </trkpt>
      <trkpt lat="43.6069" lon="4.10625">
        <ele>6.39</ele>
        <time>2015-07-13T10:38:10Z</time>
      </trkpt>
      <trkpt lat="43.60665" lon="4.10615">
        <ele>5.91</ele>
        <time>2015-07-13T10:38:19Z</time>
      </trkpt>
      <trkpt lat="43.6064" lon="4.10594">
        <ele>5.91</ele>
        <time>2015-07-13T10:38:29Z</time>
      </trkpt>
      <trkpt lat="43.60616" lon="4.10585">
        <ele>5.91</ele>
        <time>2015-07-13T10:38:38Z</time>
      </trkpt>
      <trkpt lat="43.60588" lon="4.10572">
        <ele>5.91</ele>
        <time>2015-07-13T10:38:49Z</time>
      </trkpt>
      <trkpt lat="43.60556" lon="4.10565">
        <ele>5.42</ele>
        <time>2015-07-13T10:39:01Z</time>
      </trkpt>
      <trkpt lat="43.60528" lon="4.10557">
        <ele>5.91</ele>
        <time>2015-07-13T10:39:12Z</time>
      </trkpt>
      <trkpt lat="43.605" lon="4.10547">
        <ele>4.94</ele>
        <time>2015-07-13T10:39:23Z</time>
      </trkpt>
      <trkpt lat="43.60478" lon="4.10544">
        <ele>5.42</ele>
        <time>2015-07-13T10:39:33Z</time>
      </trkpt>
      <trkpt lat="43.60452" lon="4.10552">
        <ele>5.42</ele>
        <time>2015-07-13T10:39:45Z</time>
      </trkpt>
      <trkpt lat="43.60436" lon="4.10553">
        <ele>5.91</ele>
        <time>2015-07-13T10:39:53Z</time>
      </trkpt>
      <trkpt lat="43.60418" lon="4.10546">
        <ele>6.87</ele>
        <time>2015-07-13T10:40:03Z</time>
      </trkpt>
      <trkpt lat="43.60388" lon="4.1053">
        <ele>5.42</ele>
        <time>2015-07-13T10:40:15Z</time>
      </trkpt>
      <trkpt lat="43.60357" lon="4.10525">
        <ele>5.91</ele>
        <time>2015-07-13T10:40:27Z</time>
      </trkpt>
      <trkpt lat="43.60329" lon="4.10524">
        <ele>5.91</ele>
        <time>2015-07-13T10:40:39Z</time>
      </trkpt>
      <trkpt lat="43.60296" lon="4.10525">
        <ele>5.91</ele>
        <time>2015-07-13T10:40:51Z</time>
      </trkpt>
      <trkpt lat="43.60259" lon="4.10515">
        <ele>5.91</ele>
        <time>2015-07-13T10:41:05Z</time>
      </trkpt>
      <trkpt lat="43.60223" lon="4.10513">
        <ele>5.42</ele>
        <time>2015-07-13T10:41:19Z</time>
      </trkpt>
      <trkpt lat="43.6019" lon="4.10511">
        <ele>5.42</ele>
        <time>2015-07-13T10:41:32Z</time>
      </trkpt>
      <trkpt lat="43.6016" lon="4.10508">
        <ele>5.91</ele>
        <time>2015-07-13T10:41:44Z</time>
      </trkpt>
      <trkpt lat="43.60127" lon="4.10506">
        <ele>5.42</ele>
        <time>2015-07-13T10:41:57Z</time>
      </trkpt>
      <trkpt lat="43.60088" lon="4.10503">
        <ele>5.91</ele>
        <time>2015-07-13T10:42:12Z</time>
      </trkpt>
      <trkpt lat="43.6006" lon="4.10502">
        <ele>5.91</ele>
        <time>2015-07-13T10:42:24Z</time>
      </trkpt>
      <trkpt lat="43.60027" lon="4.10495">
        <ele>5.91</ele>
        <time>2015-07-13T10:42:37Z</time>
      </trkpt>
      <trkpt lat="43.59999" lon="4.10494">
        <ele>5.42</ele>
        <time>2015-07-13T10:42:48Z</time>
      </trkpt>
      <trkpt lat="43.59974" lon="4.1049">
        <ele>5.42</ele>
        <time>2015-07-13T10:42:58Z</time>
      </trkpt>
      <trkpt lat="43.59949" lon="4.1049">
        <ele>5.42</ele>
        <time>2015-07-13T10:43:08Z</time>
      </trkpt>
      <trkpt lat="43.59921" lon="4.10486">
        <ele>4.94</ele>
        <time>2015-07-13T10:43:18Z</time>
      </trkpt>
      <trkpt lat="43.59888" lon="4.10485">
        <ele>5.42</ele>
        <time>2015-07-13T10:43:30Z</time>
      </trkpt>
      <trkpt lat="43.59852" lon="4.10483">
        <ele>5.91</ele>
        <time>2015-07-13T10:43:43Z</time>
      </trkpt>
      <trkpt lat="43.59812" lon="4.10481">
        <ele>5.91</ele>
        <time>2015-07-13T10:43:57Z</time>
      </trkpt>
      <trkpt lat="43.59765" lon="4.10478">
        <ele>5.91</ele>
        <time>2015-07-13T10:44:12Z</time>
      </trkpt>
      <trkpt lat="43.59734" lon="4.10475">
        <ele>5.91</ele>
        <time>2015-07-13T10:44:21Z</time>
      </trkpt>
      <trkpt lat="43.5971" lon="4.10473">
        <ele>5.42</ele>
        <time>2015-07-13T10:44:30Z</time>
      </trkpt>
      <trkpt lat="43.59682" lon="4.10472">
        <ele>5.42</ele>
        <time>2015-07-13T10:44:41Z</time>
      </trkpt>
      <trkpt lat="43.59655" lon="4.10469">
        <ele>5.91</ele>
        <time>2015-07-13T10:44:52Z</time>
      </trkpt>
      <trkpt lat="43.59633" lon="4.10472">
        <ele>6.87</ele>
        <time>2015-07-13T10:45:02Z</time>
      </trkpt>
      <trkpt lat="43.59604" lon="4.10465">
        <ele>6.39</ele>
        <time>2015-07-13T10:45:13Z</time>
      </trkpt>
      <trkpt lat="43.5958" lon="4.1046">
        <ele>5.91</ele>
        <time>2015-07-13T10:45:23Z</time>
      </trkpt>
      <trkpt lat="43.59548" lon="4.10455">
        <ele>5.91</ele>
        <time>2015-07-13T10:45:35Z</time>
      </trkpt>
      <trkpt lat="43.59515" lon="4.10453">
        <ele>5.91</ele>
        <time>2015-07-13T10:45:47Z</time>
      </trkpt>
      <trkpt lat="43.59491" lon="4.10452">
        <ele>5.42</ele>
        <time>2015-07-13T10:45:56Z</time>
      </trkpt>
      <trkpt lat="43.59463" lon="4.10449">
        <ele>5.42</ele>
        <time>2015-07-13T10:46:06Z</time>
      </trkpt>
      <trkpt lat="43.59429" lon="4.10447">
        <ele>5.42</ele>
        <time>2015-07-13T10:46:18Z</time>
      </trkpt>
      <trkpt lat="43.59402" lon="4.10444">
        <ele>5.42</ele>
        <time>2015-07-13T10:46:28Z</time>
      </trkpt>
      <trkpt lat="43.59376" lon="4.1044">
        <ele>5.91</ele>
        <time>2015-07-13T10:46:39Z</time>
      </trkpt>
      <trkpt lat="43.59368" lon="4.10445">
        <ele>5.42</ele>
        <time>2015-07-13T10:46:43Z</time>
      </trkpt>
      <trkpt lat="43.59367" lon="4.10448">
        <ele>5.91</ele>
        <time>2015-07-13T10:46:44Z</time>
      </trkpt>
      <trkpt lat="43.59367" lon="4.1045">
        <ele>6.39</ele>
        <time>2015-07-13T10:46:45Z</time>
      </trkpt>
      <trkpt lat="43.59365" lon="4.10452">
        <ele>5.42</ele>
        <time>2015-07-13T10:46:46Z</time>
      </trkpt>
      <trkpt lat="43.59364" lon="4.10452">
        <ele>5.42</ele>
        <time>2015-07-13T10:46:47Z</time>
      </trkpt>
      <trkpt lat="43.59362" lon="4.10452">
        <ele>5.42</ele>
        <time>2015-07-13T10:46:48Z</time>
      </trkpt>
      <trkpt lat="43.5936" lon="4.10451">
        <ele>5.42</ele>
        <time>2015-07-13T10:46:49Z</time>
      </trkpt>
      <trkpt lat="43.59346" lon="4.1044">
        <ele>5.42</ele>
        <time>2015-07-13T10:46:56Z</time>
      </trkpt>
      <trkpt lat="43.59344" lon="4.1044">
        <ele>5.91</ele>
        <time>2015-07-13T10:46:57Z</time>
      </trkpt>
      <trkpt lat="43.59312" lon="4.1044">
        <ele>5.42</ele>
        <time>2015-07-13T10:47:08Z</time>
      </trkpt>
      <trkpt lat="43.59286" lon="4.10435">
        <ele>5.91</ele>
        <time>2015-07-13T10:47:17Z</time>
      </trkpt>
      <trkpt lat="43.59248" lon="4.10433">
        <ele>5.42</ele>
        <time>2015-07-13T10:47:32Z</time>
      </trkpt>
      <trkpt lat="43.59211" lon="4.1043">
        <ele>7.35</ele>
        <time>2015-07-13T10:47:47Z</time>
      </trkpt>
      <trkpt lat="43.59182" lon="4.1043">
        <ele>4.94</ele>
        <time>2015-07-13T10:47:59Z</time>
      </trkpt>
      <trkpt lat="43.5915" lon="4.10427">
        <ele>5.42</ele>
        <time>2015-07-13T10:48:11Z</time>
      </trkpt>
      <trkpt lat="43.59115" lon="4.10424">
        <ele>5.42</ele>
        <time>2015-07-13T10:48:24Z</time>
      </trkpt>
      <trkpt lat="43.59085" lon="4.10419">
        <ele>4.94</ele>
        <time>2015-07-13T10:48:35Z</time>
      </trkpt>
      <trkpt lat="43.59056" lon="4.10416">
        <ele>4.94</ele>
        <time>2015-07-13T10:48:46Z</time>
      </trkpt>
      <trkpt lat="43.59024" lon="4.10413">
        <ele>5.42</ele>
        <time>2015-07-13T10:48:57Z</time>
      </trkpt>
      <trkpt lat="43.58988" lon="4.10411">
        <ele>4.94</ele>
        <time>2015-07-13T10:49:10Z</time>
      </trkpt>
      <trkpt lat="43.5895" lon="4.10408">
        <ele>4.94</ele>
        <time>2015-07-13T10:49:23Z</time>
      </trkpt>
      <trkpt lat="43.5892" lon="4.10406">
        <ele>4.94</ele>
        <time>2015-07-13T10:49:34Z</time>
      </trkpt>
      <trkpt lat="43.58877" lon="4.10402">
        <ele>4.94</ele>
        <time>2015-07-13T10:49:49Z</time>
      </trkpt>
      <trkpt lat="43.58849" lon="4.104">
        <ele>4.94</ele>
        <time>2015-07-13T10:50:00Z</time>
      </trkpt>
      <trkpt lat="43.58822" lon="4.10398">
        <ele>5.42</ele>
        <time>2015-07-13T10:50:11Z</time>
      </trkpt>
      <trkpt lat="43.58789" lon="4.10403">
        <ele>5.42</ele>
        <time>2015-07-13T10:50:24Z</time>
      </trkpt>
      <trkpt lat="43.58764" lon="4.10403">
        <ele>4.94</ele>
        <time>2015-07-13T10:50:34Z</time>
      </trkpt>
      <trkpt lat="43.58733" lon="4.10402">
        <ele>4.94</ele>
        <time>2015-07-13T10:50:44Z</time>
      </trkpt>
      <trkpt lat="43.58704" lon="4.10397">
        <ele>5.91</ele>
        <time>2015-07-13T10:50:55Z</time>
      </trkpt>
      <trkpt lat="43.58664" lon="4.10395">
        <ele>5.42</ele>
        <time>2015-07-13T10:51:08Z</time>
      </trkpt>
      <trkpt lat="43.58626" lon="4.10394">
        <ele>5.91</ele>
        <time>2015-07-13T10:51:20Z</time>
      </trkpt>
      <trkpt lat="43.58593" lon="4.10398">
        <ele>6.39</ele>
        <time>2015-07-13T10:51:32Z</time>
      </trkpt>
      <trkpt lat="43.58572" lon="4.10416">
        <ele>5.91</ele>
        <time>2015-07-13T10:51:43Z</time>
      </trkpt>
      <trkpt lat="43.58572" lon="4.10427">
        <ele>5.42</ele>
        <time>2015-07-13T10:51:48Z</time>
      </trkpt>
      <trkpt lat="43.58577" lon="4.10444">
        <ele>5.91</ele>
        <time>2015-07-13T10:51:55Z</time>
      </trkpt>
      <trkpt lat="43.58587" lon="4.10474">
        <ele>6.39</ele>
        <time>2015-07-13T10:52:06Z</time>
      </trkpt>
      <trkpt lat="43.58599" lon="4.10482">
        <ele>6.39</ele>
        <time>2015-07-13T10:52:12Z</time>
      </trkpt>
      <trkpt lat="43.58624" lon="4.10479">
        <ele>6.39</ele>
        <time>2015-07-13T10:52:24Z</time>
      </trkpt>
      <trkpt lat="43.5864" lon="4.10474">
        <ele>6.87</ele>
        <time>2015-07-13T10:52:37Z</time>
      </trkpt>
      <trkpt lat="43.58642" lon="4.10473">
        <ele>7.83</ele>
        <time>2015-07-13T10:52:39Z</time>
      </trkpt>
      <trkpt lat="43.58643" lon="4.10472">
        <ele>7.83</ele>
        <time>2015-07-13T10:52:40Z</time>
      </trkpt>
      <trkpt lat="43.58645" lon="4.10471">
        <ele>8.31</ele>
        <time>2015-07-13T10:52:41Z</time>
      </trkpt>
      <trkpt lat="43.58652" lon="4.10469">
        <ele>8.79</ele>
        <time>2015-07-13T10:52:46Z</time>
      </trkpt>
      <trkpt lat="43.58653" lon="4.10468">
        <ele>9.27</ele>
        <time>2015-07-13T10:52:47Z</time>
      </trkpt>
      <trkpt lat="43.58654" lon="4.10467">
        <ele>9.27</ele>
        <time>2015-07-13T10:52:48Z</time>
      </trkpt>
      <trkpt lat="43.58656" lon="4.10466">
        <ele>8.79</ele>
        <time>2015-07-13T10:52:49Z</time>
      </trkpt>
      <trkpt lat="43.58657" lon="4.10465">
        <ele>9.27</ele>
        <time>2015-07-13T10:52:50Z</time>
      </trkpt>
      <trkpt lat="43.58662" lon="4.10455">
        <ele>9.75</ele>
        <time>2015-07-13T10:52:57Z</time>
      </trkpt>
      <trkpt lat="43.58662" lon="4.10453">
        <ele>9.75</ele>
        <time>2015-07-13T10:52:58Z</time>
      </trkpt>
      <trkpt lat="43.58663" lon="4.10452">
        <ele>10.23</ele>
        <time>2015-07-13T10:52:59Z</time>
      </trkpt>
      <trkpt lat="43.58662" lon="4.10447">
        <ele>10.23</ele>
        <time>2015-07-13T10:53:07Z</time>
      </trkpt>
      <trkpt lat="43.58661" lon="4.10447">
        <ele>10.23</ele>
        <time>2015-07-13T10:53:08Z</time>
      </trkpt>
      <trkpt lat="43.5866" lon="4.10448">
        <ele>10.23</ele>
        <time>2015-07-13T10:53:09Z</time>
      </trkpt>
      <trkpt lat="43.58658" lon="4.10449">
        <ele>10.23</ele>
        <time>2015-07-13T10:53:10Z</time>
      </trkpt>
      <trkpt lat="43.58657" lon="4.1045">
        <ele>10.23</ele>
        <time>2015-07-13T10:53:11Z</time>
      </trkpt>
      <trkpt lat="43.58656" lon="4.10451">
        <ele>10.23</ele>
        <time>2015-07-13T10:53:12Z</time>
      </trkpt>
      <trkpt lat="43.58655" lon="4.10453">
        <ele>10.23</ele>
        <time>2015-07-13T10:53:13Z</time>
      </trkpt>
      <trkpt lat="43.58653" lon="4.10455">
        <ele>9.75</ele>
        <time>2015-07-13T10:53:14Z</time>
      </trkpt>
      <trkpt lat="43.58652" lon="4.10455">
        <ele>9.75</ele>
        <time>2015-07-13T10:53:15Z</time>
      </trkpt>
      <trkpt lat="43.5865" lon="4.10456">
        <ele>10.23</ele>
        <time>2015-07-13T10:53:16Z</time>
      </trkpt>
      <trkpt lat="43.58649" lon="4.10456">
        <ele>10.23</ele>
        <time>2015-07-13T10:53:17Z</time>
      </trkpt>
      <trkpt lat="43.58648" lon="4.10455">
        <ele>10.23</ele>
        <time>2015-07-13T10:53:18Z</time>
      </trkpt>
      <trkpt lat="43.58646" lon="4.10455">
        <ele>11.19</ele>
        <time>2015-07-13T10:53:19Z</time>
      </trkpt>
      <trkpt lat="43.58645" lon="4.10456">
        <ele>10.71</ele>
        <time>2015-07-13T10:53:20Z</time>
      </trkpt>
      <trkpt lat="43.58633" lon="4.10455">
        <ele>12.15</ele>
        <time>2015-07-13T10:53:28Z</time>
      </trkpt>
      <trkpt lat="43.58632" lon="4.10455">
        <ele>12.15</ele>
        <time>2015-07-13T10:53:29Z</time>
      </trkpt>
      <trkpt lat="43.5861" lon="4.10455">
        <ele>12.15</ele>
        <time>2015-07-13T10:53:40Z</time>
      </trkpt>
      <trkpt lat="43.58592" lon="4.10453">
        <ele>12.15</ele>
        <time>2015-07-13T10:53:48Z</time>
      </trkpt>
      <trkpt lat="43.58566" lon="4.10451">
        <ele>12.15</ele>
        <time>2015-07-13T10:53:58Z</time>
      </trkpt>
      <trkpt lat="43.58523" lon="4.10448">
        <ele>12.15</ele>
        <time>2015-07-13T10:54:12Z</time>
      </trkpt>
      <trkpt lat="43.58481" lon="4.10445">
        <ele>12.63</ele>
        <time>2015-07-13T10:54:25Z</time>
      </trkpt>
      <trkpt lat="43.58458" lon="4.10439">
        <ele>11.67</ele>
        <time>2015-07-13T10:54:35Z</time>
      </trkpt>
      <trkpt lat="43.58428" lon="4.10431">
        <ele>10.23</ele>
        <time>2015-07-13T10:54:43Z</time>
      </trkpt>
      <trkpt lat="43.58411" lon="4.1043">
        <ele>9.75</ele>
        <time>2015-07-13T10:54:48Z</time>
      </trkpt>
      <trkpt lat="43.58409" lon="4.10431">
        <ele>9.75</ele>
        <time>2015-07-13T10:54:49Z</time>
      </trkpt>
      <trkpt lat="43.58412" lon="4.10439">
        <ele>8.31</ele>
        <time>2015-07-13T10:54:53Z</time>
      </trkpt>
      <trkpt lat="43.58446" lon="4.10455">
        <ele>6.87</ele>
        <time>2015-07-13T10:55:04Z</time>
      </trkpt>
      <trkpt lat="43.58485" lon="4.10461">
        <ele>6.39</ele>
        <time>2015-07-13T10:55:16Z</time>
      </trkpt>
      <trkpt lat="43.58507" lon="4.10444">
        <ele>5.42</ele>
        <time>2015-07-13T10:55:24Z</time>
      </trkpt>
      <trkpt lat="43.58515" lon="4.10437">
        <ele>4.94</ele>
        <time>2015-07-13T10:55:33Z</time>
      </trkpt>
      <trkpt lat="43.58517" lon="4.10436">
        <ele>5.42</ele>
        <time>2015-07-13T10:55:52Z</time>
      </trkpt>
      <trkpt lat="43.58517" lon="4.10435">
        <ele>4.94</ele>
        <time>2015-07-13T10:56:13Z</time>
      </trkpt>
      <trkpt lat="43.58515" lon="4.10433">
        <ele>4.94</ele>
        <time>2015-07-13T10:56:36Z</time>
      </trkpt>
      <trkpt lat="43.58514" lon="4.10432">
        <ele>4.94</ele>
        <time>2015-07-13T10:57:04Z</time>
      </trkpt>
      <trkpt lat="43.58514" lon="4.1043">
        <ele>5.42</ele>
        <time>2015-07-13T10:57:32Z</time>
      </trkpt>
      <trkpt lat="43.58513" lon="4.1043">
        <ele>3.98</ele>
        <time>2015-07-13T10:57:57Z</time>
      </trkpt>
      <trkpt lat="43.58513" lon="4.1043">
        <ele>4.94</ele>
        <time>2015-07-13T10:58:21Z</time>
      </trkpt>
      <trkpt lat="43.58513" lon="4.1043">
        <ele>4.94</ele>
        <time>2015-07-13T10:58:45Z</time>
      </trkpt>
      <trkpt lat="43.58513" lon="4.10429">
        <ele>4.94</ele>
        <time>2015-07-13T10:59:08Z</time>
      </trkpt>
      <trkpt lat="43.58512" lon="4.10428">
        <ele>4.94</ele>
        <time>2015-07-13T10:59:32Z</time>
      </trkpt>
      <trkpt lat="43.58511" lon="4.10427">
        <ele>4.46</ele>
        <time>2015-07-13T10:59:56Z</time>
      </trkpt>
      <trkpt lat="43.58512" lon="4.10427">
        <ele>3.98</ele>
        <time>2015-07-13T11:00:27Z</time>
      </trkpt>
      <trkpt lat="43.58513" lon="4.10427">
        <ele>3.5</ele>
        <time>2015-07-13T11:00:58Z</time>
      </trkpt>
      <trkpt lat="43.58513" lon="4.10429">
        <ele>3.98</ele>
        <time>2015-07-13T11:01:22Z</time>
      </trkpt>
      <trkpt lat="43.58512" lon="4.1043">
        <ele>3.98</ele>
        <time>2015-07-13T11:01:48Z</time>
      </trkpt>
      <trkpt lat="43.58512" lon="4.10429">
        <ele>3.5</ele>
        <time>2015-07-13T11:02:13Z</time>
      </trkpt>
      <trkpt lat="43.58511" lon="4.10429">
        <ele>3.5</ele>
        <time>2015-07-13T11:02:40Z</time>
      </trkpt>
      <trkpt lat="43.5851" lon="4.10431">
        <ele>3.5</ele>
        <time>2015-07-13T11:03:06Z</time>
      </trkpt>
      <trkpt lat="43.58509" lon="4.10431">
        <ele>3.02</ele>
        <time>2015-07-13T11:03:26Z</time>
      </trkpt>
      <trkpt lat="43.58509" lon="4.10431">
        <ele>3.02</ele>
        <time>2015-07-13T11:03:46Z</time>
      </trkpt>
      <trkpt lat="43.58509" lon="4.1043">
        <ele>3.02</ele>
        <time>2015-07-13T11:04:12Z</time>
      </trkpt>
      <trkpt lat="43.58509" lon="4.10431">
        <ele>3.02</ele>
        <time>2015-07-13T11:04:38Z</time>
      </trkpt>
      <trkpt lat="43.58509" lon="4.1043">
        <ele>3.5</ele>
        <time>2015-07-13T11:05:06Z</time>
      </trkpt>
      <trkpt lat="43.58509" lon="4.1043">
        <ele>2.54</ele>
        <time>2015-07-13T11:05:32Z</time>
      </trkpt>
      <trkpt lat="43.58509" lon="4.1043">
        <ele>3.02</ele>
        <time>2015-07-13T11:05:59Z</time>
      </trkpt>
      <trkpt lat="43.58509" lon="4.1043">
        <ele>3.02</ele>
        <time>2015-07-13T11:06:26Z</time>
      </trkpt>
      <trkpt lat="43.5851" lon="4.1043">
        <ele>3.02</ele>
        <time>2015-07-13T11:06:47Z</time>
      </trkpt>
      <trkpt lat="43.58511" lon="4.1043">
        <ele>3.02</ele>
        <time>2015-07-13T11:07:15Z</time>
      </trkpt>
      <trkpt lat="43.58511" lon="4.10429">
        <ele>2.06</ele>
        <time>2015-07-13T11:07:38Z</time>
      </trkpt>
      <trkpt lat="43.58511" lon="4.10429">
        <ele>2.54</ele>
        <time>2015-07-13T11:08:04Z</time>
      </trkpt>
      <trkpt lat="43.58512" lon="4.10429">
        <ele>2.54</ele>
        <time>2015-07-13T11:08:28Z</time>
      </trkpt>
      <trkpt lat="43.58512" lon="4.10429">
        <ele>2.06</ele>
        <time>2015-07-13T11:08:54Z</time>
      </trkpt>
      <trkpt lat="43.58513" lon="4.10429">
        <ele>2.54</ele>
        <time>2015-07-13T11:09:21Z</time>
      </trkpt>
      <trkpt lat="43.58513" lon="4.10429">
        <ele>2.06</ele>
        <time>2015-07-13T11:09:48Z</time>
      </trkpt>
      <trkpt lat="43.58514" lon="4.10428">
        <ele>2.06</ele>
        <time>2015-07-13T11:10:20Z</time>
      </trkpt>
      <trkpt lat="43.58514" lon="4.10428">
        <ele>1.58</ele>
        <time>2015-07-13T11:10:39Z</time>
      </trkpt>
      <trkpt lat="43.58514" lon="4.10427">
        <ele>2.06</ele>
        <time>2015-07-13T11:11:02Z</time>
      </trkpt>
      <trkpt lat="43.58514" lon="4.10429">
        <ele>2.06</ele>
        <time>2015-07-13T11:11:34Z</time>
      </trkpt>
      <trkpt lat="43.58514" lon="4.10428">
        <ele>1.58</ele>
        <time>2015-07-13T11:12:05Z</time>
      </trkpt>
      <trkpt lat="43.58514" lon="4.10428">
        <ele>1.58</ele>
        <time>2015-07-13T11:12:33Z</time>
      </trkpt>
      <trkpt lat="43.58515" lon="4.10429">
        <ele>1.1</ele>
        <time>2015-07-13T11:13:01Z</time>
      </trkpt>
      <trkpt lat="43.58515" lon="4.10429">
        <ele>1.1</ele>
        <time>2015-07-13T11:13:32Z</time>
      </trkpt>
      <trkpt lat="43.58515" lon="4.10428">
        <ele>1.1</ele>
        <time>2015-07-13T11:13:59Z</time>
      </trkpt>
      <trkpt lat="43.58515" lon="4.10429">
        <ele>0.62</ele>
        <time>2015-07-13T11:14:30Z</time>
      </trkpt>
      <trkpt lat="43.58515" lon="4.10429">
        <ele>0.62</ele>
        <time>2015-07-13T11:15:01Z</time>
      </trkpt>
      <trkpt lat="43.58515" lon="4.1043">
        <ele>0.14</ele>
        <time>2015-07-13T11:15:31Z</time>
      </trkpt>
      <trkpt lat="43.58515" lon="4.1043">
        <ele>0.14</ele>
        <time>2015-07-13T11:15:56Z</time>
      </trkpt>
      <trkpt lat="43.58515" lon="4.10429">
        <ele>-0.34</ele>
        <time>2015-07-13T11:16:20Z</time>
      </trkpt>
      <trkpt lat="43.58514" lon="4.10427">
        <ele>-0.34</ele>
        <time>2015-07-13T11:16:50Z</time>
      </trkpt>
      <trkpt lat="43.58514" lon="4.10426">
        <ele>-0.82</ele>
        <time>2015-07-13T11:17:16Z</time>
      </trkpt>
      <trkpt lat="43.58514" lon="4.10426">
        <ele>-0.34</ele>
        <time>2015-07-13T11:17:43Z</time>
      </trkpt>
      <trkpt lat="43.58513" lon="4.10427">
        <ele>-0.34</ele>
        <time>2015-07-13T11:18:09Z</time>
      </trkpt>
      <trkpt lat="43.58513" lon="4.10427">
        <ele>-0.82</ele>
        <time>2015-07-13T11:18:36Z</time>
      </trkpt>
      <trkpt lat="43.58511" lon="4.10427">
        <ele>-0.82</ele>
        <time>2015-07-13T11:18:59Z</time>
      </trkpt>
      <trkpt lat="43.5851" lon="4.10426">
        <ele>-0.34</ele>
        <time>2015-07-13T11:19:16Z</time>
      </trkpt>
      <trkpt lat="43.5851" lon="4.10425">
        <ele>-0.34</ele>
        <time>2015-07-13T11:19:36Z</time>
      </trkpt>
      <trkpt lat="43.58509" lon="4.10425">
        <ele>-0.82</ele>
        <time>2015-07-13T11:19:55Z</time>
      </trkpt>
      <trkpt lat="43.58507" lon="4.10424">
        <ele>-1.3</ele>
        <time>2015-07-13T11:20:00Z</time>
      </trkpt>
      <trkpt lat="43.58498" lon="4.1039">
        <ele>-1.3</ele>
        <time>2015-07-13T11:20:14Z</time>
      </trkpt>
      <trkpt lat="43.58486" lon="4.1035">
        <ele>-1.3</ele>
        <time>2015-07-13T11:20:27Z</time>
      </trkpt>
      <trkpt lat="43.58471" lon="4.10314">
        <ele>-0.82</ele>
        <time>2015-07-13T11:20:39Z</time>
      </trkpt>
      <trkpt lat="43.58459" lon="4.10289">
        <ele>-1.3</ele>
        <time>2015-07-13T11:20:51Z</time>
      </trkpt>
      <trkpt lat="43.58438" lon="4.10253">
        <ele>-1.3</ele>
        <time>2015-07-13T11:21:05Z</time>
      </trkpt>
      <trkpt lat="43.58414" lon="4.10206">
        <ele>-1.3</ele>
        <time>2015-07-13T11:21:19Z</time>
      </trkpt>
      <trkpt lat="43.58393" lon="4.10167">
        <ele>-1.3</ele>
        <time>2015-07-13T11:21:32Z</time>
      </trkpt>
      <trkpt lat="43.58373" lon="4.10128">
        <ele>-0.82</ele>
        <time>2015-07-13T11:21:45Z</time>
      </trkpt>
      <trkpt lat="43.58347" lon="4.10076">
        <ele>-1.3</ele>
        <time>2015-07-13T11:21:59Z</time>
      </trkpt>
      <trkpt lat="43.58321" lon="4.10026">
        <ele>-1.3</ele>
        <time>2015-07-13T11:22:14Z</time>
      </trkpt>
      <trkpt lat="43.58293" lon="4.09975">
        <ele>-0.82</ele>
        <time>2015-07-13T11:22:29Z</time>
      </trkpt>
      <trkpt lat="43.58263" lon="4.09918">
        <ele>-1.3</ele>
        <time>2015-07-13T11:22:46Z</time>
      </trkpt>
      <trkpt lat="43.58236" lon="4.09865">
        <ele>-0.82</ele>
        <time>2015-07-13T11:23:01Z</time>
      </trkpt>
      <trkpt lat="43.58204" lon="4.09801">
        <ele>-1.3</ele>
        <time>2015-07-13T11:23:19Z</time>
      </trkpt>
      <trkpt lat="43.58181" lon="4.09756">
        <ele>-1.3</ele>
        <time>2015-07-13T11:23:32Z</time>
      </trkpt>
      <trkpt lat="43.58155" lon="4.09703">
        <ele>-1.3</ele>
        <time>2015-07-13T11:23:47Z</time>
      </trkpt>
      <trkpt lat="43.58132" lon="4.09659">
        <ele>-0.82</ele>
        <time>2015-07-13T11:24:00Z</time>
      </trkpt>
      <trkpt lat="43.58104" lon="4.09606">
        <ele>-1.3</ele>
        <time>2015-07-13T11:24:16Z</time>
      </trkpt>
      <trkpt lat="43.58072" lon="4.09544">
        <ele>-1.3</ele>
        <time>2015-07-13T11:24:33Z</time>
      </trkpt>
      <trkpt lat="43.5804" lon="4.09481">
        <ele>-0.82</ele>
        <time>2015-07-13T11:24:51Z</time>
      </trkpt>
      <trkpt lat="43.58007" lon="4.09421">
        <ele>-0.82</ele>
        <time>2015-07-13T11:25:09Z</time>
      </trkpt>
      <trkpt lat="43.57981" lon="4.09373">
        <ele>-0.82</ele>
        <time>2015-07-13T11:25:23Z</time>
      </trkpt>
      <trkpt lat="43.57949" lon="4.09316">
        <ele>-0.82</ele>
        <time>2015-07-13T11:25:40Z</time>
      </trkpt>
      <trkpt lat="43.57917" lon="4.09254">
        <ele>-1.3</ele>
        <time>2015-07-13T11:25:58Z</time>
      </trkpt>
      <trkpt lat="43.57882" lon="4.09188">
        <ele>-0.82</ele>
        <time>2015-07-13T11:26:16Z</time>
      </trkpt>
      <trkpt lat="43.57852" lon="4.09132">
        <ele>-0.82</ele>
        <time>2015-07-13T11:26:31Z</time>
      </trkpt>
      <trkpt lat="43.57833" lon="4.09095">
        <ele>-0.82</ele>
        <time>2015-07-13T11:26:41Z</time>
      </trkpt>
      <trkpt lat="43.57808" lon="4.09048">
        <ele>-1.3</ele>
        <time>2015-07-13T11:26:54Z</time>
      </trkpt>
      <trkpt lat="43.57783" lon="4.09">
        <ele>-0.82</ele>
        <time>2015-07-13T11:27:07Z</time>
      </trkpt>
      <trkpt lat="43.57751" lon="4.08939">
        <ele>-1.3</ele>
        <time>2015-07-13T11:27:24Z</time>
      </trkpt>
      <trkpt lat="43.57716" lon="4.08873">
        <ele>-1.3</ele>
        <time>2015-07-13T11:27:42Z</time>
      </trkpt>
      <trkpt lat="43.57678" lon="4.08802">
        <ele>-0.34</ele>
        <time>2015-07-13T11:28:01Z</time>
      </trkpt>
      <trkpt lat="43.57644" lon="4.08738">
        <ele>-0.82</ele>
        <time>2015-07-13T11:28:18Z</time>
      </trkpt>
      <trkpt lat="43.57615" lon="4.08683">
        <ele>-0.34</ele>
        <time>2015-07-13T11:28:33Z</time>
      </trkpt>
      <trkpt lat="43.57594" lon="4.0864">
        <ele>-0.34</ele>
        <time>2015-07-13T11:28:46Z</time>
      </trkpt>
      <trkpt lat="43.57576" lon="4.08614">
        <ele>0.14</ele>
        <time>2015-07-13T11:28:56Z</time>
      </trkpt>
      <trkpt lat="43.57558" lon="4.08577">
        <ele>-0.34</ele>
        <time>2015-07-13T11:29:06Z</time>
      </trkpt>
      <trkpt lat="43.5753" lon="4.08523">
        <ele>-0.34</ele>
        <time>2015-07-13T11:29:20Z</time>
      </trkpt>
      <trkpt lat="43.57502" lon="4.08469">
        <ele>-0.34</ele>
        <time>2015-07-13T11:29:34Z</time>
      </trkpt>
      <trkpt lat="43.57474" lon="4.08416">
        <ele>-0.34</ele>
        <time>2015-07-13T11:29:47Z</time>
      </trkpt>
      <trkpt lat="43.57451" lon="4.08369">
        <ele>-0.34</ele>
        <time>2015-07-13T11:29:58Z</time>
      </trkpt>
      <trkpt lat="43.57428" lon="4.08326">
        <ele>-0.82</ele>
        <time>2015-07-13T11:30:08Z</time>
      </trkpt>
      <trkpt lat="43.57413" lon="4.08278">
        <ele>-0.82</ele>
        <time>2015-07-13T11:30:17Z</time>
      </trkpt>
      <trkpt lat="43.57385" lon="4.08224">
        <ele>-1.3</ele>
        <time>2015-07-13T11:30:29Z</time>
      </trkpt>
      <trkpt lat="43.57353" lon="4.08161">
        <ele>-1.3</ele>
        <time>2015-07-13T11:30:43Z</time>
      </trkpt>
      <trkpt lat="43.57326" lon="4.08115">
        <ele>-1.3</ele>
        <time>2015-07-13T11:30:55Z</time>
      </trkpt>
      <trkpt lat="43.57301" lon="4.08065">
        <ele>-1.3</ele>
        <time>2015-07-13T11:31:08Z</time>
      </trkpt>
      <trkpt lat="43.57261" lon="4.07986">
        <ele>-1.3</ele>
        <time>2015-07-13T11:31:24Z</time>
      </trkpt>
      <trkpt lat="43.57227" lon="4.0792">
        <ele>-1.3</ele>
        <time>2015-07-13T11:31:38Z</time>
      </trkpt>
      <trkpt lat="43.57191" lon="4.07853">
        <ele>-1.3</ele>
        <time>2015-07-13T11:31:53Z</time>
      </trkpt>
      <trkpt lat="43.57159" lon="4.07795">
        <ele>-1.3</ele>
        <time>2015-07-13T11:32:06Z</time>
      </trkpt>
      <trkpt lat="43.5712" lon="4.07722">
        <ele>-0.82</ele>
        <time>2015-07-13T11:32:23Z</time>
      </trkpt>
      <trkpt lat="43.57093" lon="4.07664">
        <ele>-0.82</ele>
        <time>2015-07-13T11:32:36Z</time>
      </trkpt>
      <trkpt lat="43.57066" lon="4.07604">
        <ele>-1.3</ele>
        <time>2015-07-13T11:32:49Z</time>
      </trkpt>
      <trkpt lat="43.57044" lon="4.07547">
        <ele>-0.82</ele>
        <time>2015-07-13T11:33:01Z</time>
      </trkpt>
      <trkpt lat="43.5702" lon="4.07477">
        <ele>-0.82</ele>
        <time>2015-07-13T11:33:15Z</time>
      </trkpt>
      <trkpt lat="43.56995" lon="4.07391">
        <ele>-1.3</ele>
        <time>2015-07-13T11:33:31Z</time>
      </trkpt>
      <trkpt lat="43.56987" lon="4.0736">
        <ele>-1.3</ele>
        <time>2015-07-13T11:33:37Z</time>
      </trkpt>
      <trkpt lat="43.56986" lon="4.07354">
        <ele>-1.3</ele>
        <time>2015-07-13T11:33:38Z</time>
      </trkpt>
      <trkpt lat="43.56969" lon="4.07277">
        <ele>-0.82</ele>
        <time>2015-07-13T11:33:52Z</time>
      </trkpt>
      <trkpt lat="43.56953" lon="4.07194">
        <ele>-0.82</ele>
        <time>2015-07-13T11:34:06Z</time>
      </trkpt>
      <trkpt lat="43.56937" lon="4.07111">
        <ele>-0.82</ele>
        <time>2015-07-13T11:34:20Z</time>
      </trkpt>
      <trkpt lat="43.56916" lon="4.07009">
        <ele>-1.3</ele>
        <time>2015-07-13T11:34:36Z</time>
      </trkpt>
      <trkpt lat="43.56897" lon="4.0692">
        <ele>-1.3</ele>
        <time>2015-07-13T11:34:50Z</time>
      </trkpt>
      <trkpt lat="43.56875" lon="4.06819">
        <ele>-1.3</ele>
        <time>2015-07-13T11:35:06Z</time>
      </trkpt>
      <trkpt lat="43.56857" lon="4.06735">
        <ele>-1.3</ele>
        <time>2015-07-13T11:35:19Z</time>
      </trkpt>
      <trkpt lat="43.56834" lon="4.06628">
        <ele>-0.82</ele>
        <time>2015-07-13T11:35:35Z</time>
      </trkpt>
      <trkpt lat="43.5681" lon="4.06516">
        <ele>-1.3</ele>
        <time>2015-07-13T11:35:51Z</time>
      </trkpt>
      <trkpt lat="43.56786" lon="4.06404">
        <ele>-1.3</ele>
        <time>2015-07-13T11:36:07Z</time>
      </trkpt>
      <trkpt lat="43.56765" lon="4.06306">
        <ele>-1.3</ele>
        <time>2015-07-13T11:36:22Z</time>
      </trkpt>
      <trkpt lat="43.56741" lon="4.06191">
        <ele>-0.82</ele>
        <time>2015-07-13T11:36:40Z</time>
      </trkpt>
      <trkpt lat="43.56719" lon="4.06084">
        <ele>-1.3</ele>
        <time>2015-07-13T11:36:56Z</time>
      </trkpt>
      <trkpt lat="43.56698" lon="4.05991">
        <ele>-0.82</ele>
        <time>2015-07-13T11:37:12Z</time>
      </trkpt>
      <trkpt lat="43.56683" lon="4.0592">
        <ele>-1.3</ele>
        <time>2015-07-13T11:37:25Z</time>
      </trkpt>
      <trkpt lat="43.56671" lon="4.05853">
        <ele>-1.3</ele>
        <time>2015-07-13T11:37:37Z</time>
      </trkpt>
      <trkpt lat="43.56655" lon="4.05777">
        <ele>-0.82</ele>
        <time>2015-07-13T11:37:51Z</time>
      </trkpt>
      <trkpt lat="43.56635" lon="4.05684">
        <ele>-1.79</ele>
        <time>2015-07-13T11:38:08Z</time>
      </trkpt>
      <trkpt lat="43.56616" lon="4.05598">
        <ele>-1.3</ele>
        <time>2015-07-13T11:38:25Z</time>
      </trkpt>
      <trkpt lat="43.56598" lon="4.05512">
        <ele>-0.82</ele>
        <time>2015-07-13T11:38:40Z</time>
      </trkpt>
      <trkpt lat="43.56583" lon="4.05442">
        <ele>-0.82</ele>
        <time>2015-07-13T11:38:53Z</time>
      </trkpt>
      <trkpt lat="43.56568" lon="4.0537">
        <ele>-1.3</ele>
        <time>2015-07-13T11:39:06Z</time>
      </trkpt>
      <trkpt lat="43.56553" lon="4.05299">
        <ele>-0.82</ele>
        <time>2015-07-13T11:39:19Z</time>
      </trkpt>
      <trkpt lat="43.56537" lon="4.0523">
        <ele>-0.82</ele>
        <time>2015-07-13T11:39:33Z</time>
      </trkpt>
      <trkpt lat="43.56523" lon="4.05169">
        <ele>-0.82</ele>
        <time>2015-07-13T11:39:45Z</time>
      </trkpt>
      <trkpt lat="43.56507" lon="4.05093">
        <ele>-0.82</ele>
        <time>2015-07-13T11:39:59Z</time>
      </trkpt>
      <trkpt lat="43.56492" lon="4.05027">
        <ele>-0.82</ele>
        <time>2015-07-13T11:40:13Z</time>
      </trkpt>
      <trkpt lat="43.56477" lon="4.04964">
        <ele>-0.34</ele>
        <time>2015-07-13T11:40:27Z</time>
      </trkpt>
      <trkpt lat="43.56466" lon="4.0491">
        <ele>-0.82</ele>
        <time>2015-07-13T11:40:38Z</time>
      </trkpt>
      <trkpt lat="43.56454" lon="4.04854">
        <ele>-0.82</ele>
        <time>2015-07-13T11:40:50Z</time>
      </trkpt>
      <trkpt lat="43.5645" lon="4.0482">
        <ele>-0.34</ele>
        <time>2015-07-13T11:40:55Z</time>
      </trkpt>
      <trkpt lat="43.56448" lon="4.04813">
        <ele>-0.34</ele>
        <time>2015-07-13T11:40:56Z</time>
      </trkpt>
      <trkpt lat="43.56431" lon="4.04735">
        <ele>-1.3</ele>
        <time>2015-07-13T11:41:09Z</time>
      </trkpt>
      <trkpt lat="43.56417" lon="4.04668">
        <ele>-0.34</ele>
        <time>2015-07-13T11:41:21Z</time>
      </trkpt>
      <trkpt lat="43.564" lon="4.04588">
        <ele>-0.34</ele>
        <time>2015-07-13T11:41:36Z</time>
      </trkpt>
      <trkpt lat="43.56383" lon="4.04512">
        <ele>-0.82</ele>
        <time>2015-07-13T11:41:50Z</time>
      </trkpt>
      <trkpt lat="43.5636" lon="4.04406">
        <ele>-0.34</ele>
        <time>2015-07-13T11:42:09Z</time>
      </trkpt>
      <trkpt lat="43.56358" lon="4.04401">
        <ele>-0.82</ele>
        <time>2015-07-13T11:42:10Z</time>
      </trkpt>
      <trkpt lat="43.56354" lon="4.04384">
        <ele>-0.82</ele>
        <time>2015-07-13T11:42:13Z</time>
      </trkpt>
      <trkpt lat="43.56334" lon="4.04287">
        <ele>-0.34</ele>
        <time>2015-07-13T11:42:30Z</time>
      </trkpt>
      <trkpt lat="43.56307" lon="4.04165">
        <ele>0.62</ele>
        <time>2015-07-13T11:42:51Z</time>
      </trkpt>
      <trkpt lat="43.56289" lon="4.0408">
        <ele>0.14</ele>
        <time>2015-07-13T11:43:06Z</time>
      </trkpt>
      <trkpt lat="43.5627" lon="4.03988">
        <ele>0.14</ele>
        <time>2015-07-13T11:43:23Z</time>
      </trkpt>
      <trkpt lat="43.5625" lon="4.03897">
        <ele>0.14</ele>
        <time>2015-07-13T11:43:39Z</time>
      </trkpt>
      <trkpt lat="43.56231" lon="4.0381">
        <ele>-0.34</ele>
        <time>2015-07-13T11:43:54Z</time>
      </trkpt>
      <trkpt lat="43.56213" lon="4.03725">
        <ele>0.62</ele>
        <time>2015-07-13T11:44:09Z</time>
      </trkpt>
      <trkpt lat="43.56194" lon="4.03634">
        <ele>-0.34</ele>
        <time>2015-07-13T11:44:25Z</time>
      </trkpt>
      <trkpt lat="43.56192" lon="4.03629">
        <ele>0.14</ele>
        <time>2015-07-13T11:44:26Z</time>
      </trkpt>
      <trkpt lat="43.56191" lon="4.03623">
        <ele>0.14</ele>
        <time>2015-07-13T11:44:27Z</time>
      </trkpt>
      <trkpt lat="43.56173" lon="4.03538">
        <ele>-0.34</ele>
        <time>2015-07-13T11:44:42Z</time>
      </trkpt>
      <trkpt lat="43.56154" lon="4.0345">
        <ele>0.14</ele>
        <time>2015-07-13T11:44:57Z</time>
      </trkpt>
      <trkpt lat="43.56152" lon="4.03438">
        <ele>0.14</ele>
        <time>2015-07-13T11:44:59Z</time>
      </trkpt>
      <trkpt lat="43.56151" lon="4.03425">
        <ele>0.14</ele>
        <time>2015-07-13T11:45:01Z</time>
      </trkpt>
      <trkpt lat="43.56132" lon="4.03337">
        <ele>-0.34</ele>
        <time>2015-07-13T11:45:16Z</time>
      </trkpt>
      <trkpt lat="43.56116" lon="4.03261">
        <ele>0.62</ele>
        <time>2015-07-13T11:45:29Z</time>
      </trkpt>
      <trkpt lat="43.56101" lon="4.03201">
        <ele>0.62</ele>
        <time>2015-07-13T11:45:40Z</time>
      </trkpt>
      <trkpt lat="43.56088" lon="4.03142">
        <ele>0.62</ele>
        <time>2015-07-13T11:45:51Z</time>
      </trkpt>
      <trkpt lat="43.56072" lon="4.03066">
        <ele>0.14</ele>
        <time>2015-07-13T11:46:06Z</time>
      </trkpt>
      <trkpt lat="43.56057" lon="4.0299">
        <ele>0.14</ele>
        <time>2015-07-13T11:46:21Z</time>
      </trkpt>
      <trkpt lat="43.5605" lon="4.02972">
        <ele>0.14</ele>
        <time>2015-07-13T11:46:30Z</time>
      </trkpt>
      <trkpt lat="43.5605" lon="4.02972">
        <ele>-0.34</ele>
        <time>2015-07-13T11:46:48Z</time>
      </trkpt>
      <trkpt lat="43.5605" lon="4.02972">
        <ele>0.62</ele>
        <time>2015-07-13T11:47:05Z</time>
      </trkpt>
      <trkpt lat="43.5605" lon="4.02971">
        <ele>0.62</ele>
        <time>2015-07-13T11:47:30Z</time>
      </trkpt>
      <trkpt lat="43.5605" lon="4.02971">
        <ele>0.62</ele>
        <time>2015-07-13T11:47:51Z</time>
      </trkpt>
      <trkpt lat="43.5605" lon="4.02972">
        <ele>-1.79</ele>
        <time>2015-07-13T11:48:15Z</time>
      </trkpt>
      <trkpt lat="43.5605" lon="4.02972">
        <ele>0.14</ele>
        <time>2015-07-13T11:48:37Z</time>
      </trkpt>
      <trkpt lat="43.5605" lon="4.02972">
        <ele>-0.34</ele>
        <time>2015-07-13T11:49:01Z</time>
      </trkpt>
      <trkpt lat="43.5605" lon="4.02972">
        <ele>0.62</ele>
        <time>2015-07-13T11:49:24Z</time>
      </trkpt>
      <trkpt lat="43.56049" lon="4.02972">
        <ele>0.62</ele>
        <time>2015-07-13T11:49:45Z</time>
      </trkpt>
      <trkpt lat="43.56043" lon="4.02973">
        <ele>1.1</ele>
        <time>2015-07-13T11:49:56Z</time>
      </trkpt>
      <trkpt lat="43.56039" lon="4.02974">
        <ele>1.58</ele>
        <time>2015-07-13T11:50:08Z</time>
      </trkpt>
      <trkpt lat="43.56038" lon="4.02974">
        <ele>1.58</ele>
        <time>2015-07-13T11:50:20Z</time>
      </trkpt>
      <trkpt lat="43.56035" lon="4.02978">
        <ele>1.58</ele>
        <time>2015-07-13T11:50:32Z</time>
      </trkpt>
      <trkpt lat="43.56034" lon="4.02984">
        <ele>1.58</ele>
        <time>2015-07-13T11:50:40Z</time>
      </trkpt>
      <trkpt lat="43.56033" lon="4.02986">
        <ele>1.58</ele>
        <time>2015-07-13T11:50:41Z</time>
      </trkpt>
      <trkpt lat="43.56033" lon="4.02988">
        <ele>1.58</ele>
        <time>2015-07-13T11:50:42Z</time>
      </trkpt>
      <trkpt lat="43.56032" lon="4.02991">
        <ele>1.1</ele>
        <time>2015-07-13T11:50:43Z</time>
      </trkpt>
      <trkpt lat="43.56031" lon="4.02994">
        <ele>1.1</ele>
        <time>2015-07-13T11:50:44Z</time>
      </trkpt>
      <trkpt lat="43.56029" lon="4.03041">
        <ele>0.62</ele>
        <time>2015-07-13T11:50:54Z</time>
      </trkpt>
      <trkpt lat="43.56019" lon="4.03095">
        <ele>0.62</ele>
        <time>2015-07-13T11:51:05Z</time>
      </trkpt>
      <trkpt lat="43.55995" lon="4.03139">
        <ele>1.58</ele>
        <time>2015-07-13T11:51:16Z</time>
      </trkpt>
      <trkpt lat="43.55956" lon="4.03182">
        <ele>1.58</ele>
        <time>2015-07-13T11:51:29Z</time>
      </trkpt>
      <trkpt lat="43.55914" lon="4.03223">
        <ele>1.1</ele>
        <time>2015-07-13T11:51:42Z</time>
      </trkpt>
      <trkpt lat="43.55863" lon="4.03268">
        <ele>1.1</ele>
        <time>2015-07-13T11:51:57Z</time>
      </trkpt>
      <trkpt lat="43.5584" lon="4.03279">
        <ele>1.1</ele>
        <time>2015-07-13T11:52:03Z</time>
      </trkpt>
      <trkpt lat="43.55837" lon="4.03283">
        <ele>1.1</ele>
        <time>2015-07-13T11:52:04Z</time>
      </trkpt>
      <trkpt lat="43.55834" lon="4.03288">
        <ele>1.58</ele>
        <time>2015-07-13T11:52:05Z</time>
      </trkpt>
      <trkpt lat="43.55832" lon="4.03292">
        <ele>1.58</ele>
        <time>2015-07-13T11:52:06Z</time>
      </trkpt>
      <trkpt lat="43.5583" lon="4.03297">
        <ele>1.58</ele>
        <time>2015-07-13T11:52:07Z</time>
      </trkpt>
      <trkpt lat="43.55794" lon="4.03346">
        <ele>1.58</ele>
        <time>2015-07-13T11:52:20Z</time>
      </trkpt>
      <trkpt lat="43.55752" lon="4.03387">
        <ele>1.58</ele>
        <time>2015-07-13T11:52:34Z</time>
      </trkpt>
      <trkpt lat="43.55709" lon="4.03445">
        <ele>2.06</ele>
        <time>2015-07-13T11:52:50Z</time>
      </trkpt>
      <trkpt lat="43.557" lon="4.03496">
        <ele>2.54</ele>
        <time>2015-07-13T11:53:00Z</time>
      </trkpt>
      <trkpt lat="43.55698" lon="4.03556">
        <ele>2.54</ele>
        <time>2015-07-13T11:53:12Z</time>
      </trkpt>
      <trkpt lat="43.55705" lon="4.03616">
        <ele>3.5</ele>
        <time>2015-07-13T11:53:24Z</time>
      </trkpt>
      <trkpt lat="43.55711" lon="4.03699">
        <ele>3.02</ele>
        <time>2015-07-13T11:53:39Z</time>
      </trkpt>
      <trkpt lat="43.55718" lon="4.03789">
        <ele>3.02</ele>
        <time>2015-07-13T11:53:55Z</time>
      </trkpt>
      <trkpt lat="43.55722" lon="4.03863">
        <ele>3.02</ele>
        <time>2015-07-13T11:54:08Z</time>
      </trkpt>
      <trkpt lat="43.55727" lon="4.03939">
        <ele>3.02</ele>
        <time>2015-07-13T11:54:22Z</time>
      </trkpt>
      <trkpt lat="43.55732" lon="4.04002">
        <ele>3.5</ele>
        <time>2015-07-13T11:54:34Z</time>
      </trkpt>
      <trkpt lat="43.55734" lon="4.04064">
        <ele>3.5</ele>
        <time>2015-07-13T11:54:45Z</time>
      </trkpt>
      <trkpt lat="43.5574" lon="4.04149">
        <ele>3.02</ele>
        <time>2015-07-13T11:54:59Z</time>
      </trkpt>
      <trkpt lat="43.55747" lon="4.04239">
        <ele>3.5</ele>
        <time>2015-07-13T11:55:14Z</time>
      </trkpt>
      <trkpt lat="43.55748" lon="4.0425">
        <ele>3.02</ele>
        <time>2015-07-13T11:55:16Z</time>
      </trkpt>
      <trkpt lat="43.55748" lon="4.04256">
        <ele>3.02</ele>
        <time>2015-07-13T11:55:17Z</time>
      </trkpt>
      <trkpt lat="43.55754" lon="4.04336">
        <ele>3.5</ele>
        <time>2015-07-13T11:55:31Z</time>
      </trkpt>
      <trkpt lat="43.55759" lon="4.04394">
        <ele>3.02</ele>
        <time>2015-07-13T11:55:41Z</time>
      </trkpt>
      <trkpt lat="43.55766" lon="4.04484">
        <ele>3.02</ele>
        <time>2015-07-13T11:55:56Z</time>
      </trkpt>
      <trkpt lat="43.55773" lon="4.04565">
        <ele>3.5</ele>
        <time>2015-07-13T11:56:10Z</time>
      </trkpt>
      <trkpt lat="43.55778" lon="4.04642">
        <ele>3.98</ele>
        <time>2015-07-13T11:56:24Z</time>
      </trkpt>
      <trkpt lat="43.55785" lon="4.0473">
        <ele>3.98</ele>
        <time>2015-07-13T11:56:40Z</time>
      </trkpt>
      <trkpt lat="43.55786" lon="4.04741">
        <ele>3.98</ele>
        <time>2015-07-13T11:56:42Z</time>
      </trkpt>
      <trkpt lat="43.55797" lon="4.04849">
        <ele>3.5</ele>
        <time>2015-07-13T11:57:01Z</time>
      </trkpt>
      <trkpt lat="43.55804" lon="4.04932">
        <ele>3.5</ele>
        <time>2015-07-13T11:57:16Z</time>
      </trkpt>
      <trkpt lat="43.5581" lon="4.05007">
        <ele>3.5</ele>
        <time>2015-07-13T11:57:30Z</time>
      </trkpt>
      <trkpt lat="43.55818" lon="4.05085">
        <ele>3.5</ele>
        <time>2015-07-13T11:57:45Z</time>
      </trkpt>
      <trkpt lat="43.55818" lon="4.05113">
        <ele>3.5</ele>
        <time>2015-07-13T11:57:54Z</time>
      </trkpt>
      <trkpt lat="43.55824" lon="4.05176">
        <ele>3.5</ele>
        <time>2015-07-13T11:58:07Z</time>
      </trkpt>
      <trkpt lat="43.55827" lon="4.05231">
        <ele>3.98</ele>
        <time>2015-07-13T11:58:17Z</time>
      </trkpt>
      <trkpt lat="43.55829" lon="4.05294">
        <ele>4.46</ele>
        <time>2015-07-13T11:58:29Z</time>
      </trkpt>
      <trkpt lat="43.5583" lon="4.05364">
        <ele>3.5</ele>
        <time>2015-07-13T11:58:42Z</time>
      </trkpt>
      <trkpt lat="43.55831" lon="4.05442">
        <ele>3.02</ele>
        <time>2015-07-13T11:58:56Z</time>
      </trkpt>
      <trkpt lat="43.55832" lon="4.05528">
        <ele>3.02</ele>
        <time>2015-07-13T11:59:11Z</time>
      </trkpt>
      <trkpt lat="43.55834" lon="4.05603">
        <ele>3.5</ele>
        <time>2015-07-13T11:59:24Z</time>
      </trkpt>
      <trkpt lat="43.55835" lon="4.05685">
        <ele>3.02</ele>
        <time>2015-07-13T11:59:39Z</time>
      </trkpt>
      <trkpt lat="43.55835" lon="4.05766">
        <ele>3.5</ele>
        <time>2015-07-13T11:59:53Z</time>
      </trkpt>
      <trkpt lat="43.5584" lon="4.05816">
        <ele>3.5</ele>
        <time>2015-07-13T12:00:01Z</time>
      </trkpt>
      <trkpt lat="43.55842" lon="4.05821">
        <ele>3.02</ele>
        <time>2015-07-13T12:00:02Z</time>
      </trkpt>
      <trkpt lat="43.55843" lon="4.05825">
        <ele>3.5</ele>
        <time>2015-07-13T12:00:03Z</time>
      </trkpt>
      <trkpt lat="43.55852" lon="4.05862">
        <ele>3.5</ele>
        <time>2015-07-13T12:00:12Z</time>
      </trkpt>
      <trkpt lat="43.55844" lon="4.05926">
        <ele>2.54</ele>
        <time>2015-07-13T12:00:24Z</time>
      </trkpt>
      <trkpt lat="43.55846" lon="4.05996">
        <ele>3.5</ele>
        <time>2015-07-13T12:00:37Z</time>
      </trkpt>
      <trkpt lat="43.55843" lon="4.06053">
        <ele>3.5</ele>
        <time>2015-07-13T12:00:49Z</time>
      </trkpt>
      <trkpt lat="43.5584" lon="4.0609">
        <ele>3.5</ele>
        <time>2015-07-13T12:01:00Z</time>
      </trkpt>
      <trkpt lat="43.55842" lon="4.06128">
        <ele>3.5</ele>
        <time>2015-07-13T12:01:09Z</time>
      </trkpt>
      <trkpt lat="43.55843" lon="4.06194">
        <ele>3.5</ele>
        <time>2015-07-13T12:01:23Z</time>
      </trkpt>
      <trkpt lat="43.55837" lon="4.06256">
        <ele>3.98</ele>
        <time>2015-07-13T12:01:36Z</time>
      </trkpt>
      <trkpt lat="43.55831" lon="4.06298">
        <ele>3.5</ele>
        <time>2015-07-13T12:01:46Z</time>
      </trkpt>
      <trkpt lat="43.55831" lon="4.06331">
        <ele>3.98</ele>
        <time>2015-07-13T12:01:56Z</time>
      </trkpt>
      <trkpt lat="43.55836" lon="4.0637">
        <ele>3.5</ele>
        <time>2015-07-13T12:02:06Z</time>
      </trkpt>
      <trkpt lat="43.55836" lon="4.06417">
        <ele>3.5</ele>
        <time>2015-07-13T12:02:16Z</time>
      </trkpt>
      <trkpt lat="43.55836" lon="4.06491">
        <ele>3.02</ele>
        <time>2015-07-13T12:02:31Z</time>
      </trkpt>
      <trkpt lat="43.5583" lon="4.06528">
        <ele>3.5</ele>
        <time>2015-07-13T12:02:40Z</time>
      </trkpt>
      <trkpt lat="43.55829" lon="4.06591">
        <ele>3.5</ele>
        <time>2015-07-13T12:02:54Z</time>
      </trkpt>
      <trkpt lat="43.55828" lon="4.06642">
        <ele>3.5</ele>
        <time>2015-07-13T12:03:05Z</time>
      </trkpt>
      <trkpt lat="43.55822" lon="4.06702">
        <ele>3.5</ele>
        <time>2015-07-13T12:03:18Z</time>
      </trkpt>
      <trkpt lat="43.55823" lon="4.06766">
        <ele>3.02</ele>
        <time>2015-07-13T12:03:31Z</time>
      </trkpt>
      <trkpt lat="43.55819" lon="4.06827">
        <ele>3.5</ele>
        <time>2015-07-13T12:03:44Z</time>
      </trkpt>
      <trkpt lat="43.55821" lon="4.06895">
        <ele>3.5</ele>
        <time>2015-07-13T12:03:59Z</time>
      </trkpt>
      <trkpt lat="43.55812" lon="4.06939">
        <ele>3.5</ele>
        <time>2015-07-13T12:04:12Z</time>
      </trkpt>
      <trkpt lat="43.55813" lon="4.06941">
        <ele>3.98</ele>
        <time>2015-07-13T12:04:13Z</time>
      </trkpt>
      <trkpt lat="43.55814" lon="4.06941">
        <ele>3.5</ele>
        <time>2015-07-13T12:04:23Z</time>
      </trkpt>
      <trkpt lat="43.55815" lon="4.06941">
        <ele>3.5</ele>
        <time>2015-07-13T12:04:41Z</time>
      </trkpt>
      <trkpt lat="43.55814" lon="4.06942">
        <ele>3.5</ele>
        <time>2015-07-13T12:05:05Z</time>
      </trkpt>
      <trkpt lat="43.55814" lon="4.06941">
        <ele>3.98</ele>
        <time>2015-07-13T12:05:27Z</time>
      </trkpt>
      <trkpt lat="43.55814" lon="4.06941">
        <ele>3.5</ele>
        <time>2015-07-13T12:05:48Z</time>
      </trkpt>
      <trkpt lat="43.55814" lon="4.06941">
        <ele>3.5</ele>
        <time>2015-07-13T12:06:11Z</time>
      </trkpt>
      <trkpt lat="43.55814" lon="4.06941">
        <ele>3.5</ele>
        <time>2015-07-13T12:06:33Z</time>
      </trkpt>
      <trkpt lat="43.55814" lon="4.06939">
        <ele>3.98</ele>
        <time>2015-07-13T12:07:00Z</time>
      </trkpt>
      <trkpt lat="43.55814" lon="4.0694">
        <ele>3.5</ele>
        <time>2015-07-13T12:07:22Z</time>
      </trkpt>
      <trkpt lat="43.55814" lon="4.06939">
        <ele>3.98</ele>
        <time>2015-07-13T12:07:46Z</time>
      </trkpt>
      <trkpt lat="43.55814" lon="4.06939">
        <ele>4.46</ele>
        <time>2015-07-13T12:08:07Z</time>
      </trkpt>
      <trkpt lat="43.55814" lon="4.0694">
        <ele>4.46</ele>
        <time>2015-07-13T12:08:37Z</time>
      </trkpt>
      <trkpt lat="43.55813" lon="4.0694">
        <ele>4.46</ele>
        <time>2015-07-13T12:09:03Z</time>
      </trkpt>
      <trkpt lat="43.55814" lon="4.0694">
        <ele>4.46</ele>
        <time>2015-07-13T12:09:25Z</time>
      </trkpt>
      <trkpt lat="43.55814" lon="4.0694">
        <ele>4.46</ele>
        <time>2015-07-13T12:09:51Z</time>
      </trkpt>
      <trkpt lat="43.55814" lon="4.06941">
        <ele>3.98</ele>
        <time>2015-07-13T12:10:12Z</time>
      </trkpt>
      <trkpt lat="43.55813" lon="4.06941">
        <ele>4.46</ele>
        <time>2015-07-13T12:10:40Z</time>
      </trkpt>
      <trkpt lat="43.55814" lon="4.06941">
        <ele>3.98</ele>
        <time>2015-07-13T12:11:09Z</time>
      </trkpt>
      <trkpt lat="43.55814" lon="4.06942">
        <ele>3.98</ele>
        <time>2015-07-13T12:11:27Z</time>
      </trkpt>
      <trkpt lat="43.55814" lon="4.06949">
        <ele>4.46</ele>
        <time>2015-07-13T12:11:41Z</time>
      </trkpt>
      <trkpt lat="43.55816" lon="4.06953">
        <ele>4.46</ele>
        <time>2015-07-13T12:11:49Z</time>
      </trkpt>
      <trkpt lat="43.55818" lon="4.0697">
        <ele>3.98</ele>
        <time>2015-07-13T12:11:57Z</time>
      </trkpt>
      <trkpt lat="43.55834" lon="4.06988">
        <ele>4.46</ele>
        <time>2015-07-13T12:12:08Z</time>
      </trkpt>
      <trkpt lat="43.55851" lon="4.0699">
        <ele>4.46</ele>
        <time>2015-07-13T12:12:18Z</time>
      </trkpt>
      <trkpt lat="43.55867" lon="4.07">
        <ele>4.46</ele>
        <time>2015-07-13T12:12:28Z</time>
      </trkpt>
      <trkpt lat="43.5587" lon="4.07002">
        <ele>4.94</ele>
        <time>2015-07-13T12:12:30Z</time>
      </trkpt>
      <trkpt lat="43.55891" lon="4.0701">
        <ele>4.94</ele>
        <time>2015-07-13T12:12:41Z</time>
      </trkpt>
      <trkpt lat="43.55915" lon="4.07023">
        <ele>4.46</ele>
        <time>2015-07-13T12:12:51Z</time>
      </trkpt>
      <trkpt lat="43.55936" lon="4.07034">
        <ele>3.98</ele>
        <time>2015-07-13T12:13:00Z</time>
      </trkpt>
      <trkpt lat="43.55959" lon="4.07042">
        <ele>3.98</ele>
        <time>2015-07-13T12:13:09Z</time>
      </trkpt>
      <trkpt lat="43.5599" lon="4.07056">
        <ele>3.5</ele>
        <time>2015-07-13T12:13:20Z</time>
      </trkpt>
      <trkpt lat="43.56018" lon="4.07065">
        <ele>3.5</ele>
        <time>2015-07-13T12:13:31Z</time>
      </trkpt>
      <trkpt lat="43.5602" lon="4.07064">
        <ele>3.98</ele>
        <time>2015-07-13T12:13:32Z</time>
      </trkpt>
      <trkpt lat="43.56021" lon="4.07062">
        <ele>3.98</ele>
        <time>2015-07-13T12:13:33Z</time>
      </trkpt>
      <trkpt lat="43.56023" lon="4.0706">
        <ele>3.5</ele>
        <time>2015-07-13T12:13:34Z</time>
      </trkpt>
      <trkpt lat="43.56024" lon="4.07059">
        <ele>3.5</ele>
        <time>2015-07-13T12:13:35Z</time>
      </trkpt>
      <trkpt lat="43.56025" lon="4.07057">
        <ele>3.98</ele>
        <time>2015-07-13T12:13:36Z</time>
      </trkpt>
      <trkpt lat="43.56026" lon="4.07057">
        <ele>3.5</ele>
        <time>2015-07-13T12:13:37Z</time>
      </trkpt>
      <trkpt lat="43.56027" lon="4.07056">
        <ele>3.98</ele>
        <time>2015-07-13T12:13:38Z</time>
      </trkpt>
      <trkpt lat="43.56036" lon="4.07051">
        <ele>3.98</ele>
        <time>2015-07-13T12:13:46Z</time>
      </trkpt>
      <trkpt lat="43.56039" lon="4.07052">
        <ele>3.5</ele>
        <time>2015-07-13T12:13:47Z</time>
      </trkpt>
      <trkpt lat="43.56042" lon="4.07052">
        <ele>3.5</ele>
        <time>2015-07-13T12:13:48Z</time>
      </trkpt>
      <trkpt lat="43.56044" lon="4.07052">
        <ele>4.46</ele>
        <time>2015-07-13T12:13:49Z</time>
      </trkpt>
      <trkpt lat="43.56045" lon="4.07051">
        <ele>4.46</ele>
        <time>2015-07-13T12:13:50Z</time>
      </trkpt>
      <trkpt lat="43.56054" lon="4.07052">
        <ele>3.98</ele>
        <time>2015-07-13T12:14:02Z</time>
      </trkpt>
      <trkpt lat="43.56053" lon="4.07052">
        <ele>3.5</ele>
        <time>2015-07-13T12:14:24Z</time>
      </trkpt>
      <trkpt lat="43.56054" lon="4.0705">
        <ele>3.5</ele>
        <time>2015-07-13T12:14:44Z</time>
      </trkpt>
      <trkpt lat="43.56054" lon="4.0705">
        <ele>4.46</ele>
        <time>2015-07-13T12:15:10Z</time>
      </trkpt>
      <trkpt lat="43.56055" lon="4.07049">
        <ele>3.98</ele>
        <time>2015-07-13T12:15:30Z</time>
      </trkpt>
      <trkpt lat="43.56055" lon="4.07049">
        <ele>4.46</ele>
        <time>2015-07-13T12:15:50Z</time>
      </trkpt>
      <trkpt lat="43.56055" lon="4.07049">
        <ele>4.46</ele>
        <time>2015-07-13T12:16:14Z</time>
      </trkpt>
      <trkpt lat="43.56056" lon="4.0705">
        <ele>3.98</ele>
        <time>2015-07-13T12:16:40Z</time>
      </trkpt>
      <trkpt lat="43.56056" lon="4.07051">
        <ele>4.46</ele>
        <time>2015-07-13T12:17:03Z</time>
      </trkpt>
      <trkpt lat="43.56057" lon="4.07051">
        <ele>4.46</ele>
        <time>2015-07-13T12:17:26Z</time>
      </trkpt>
      <trkpt lat="43.56057" lon="4.0705">
        <ele>4.46</ele>
        <time>2015-07-13T12:17:51Z</time>
      </trkpt>
      <trkpt lat="43.56057" lon="4.07051">
        <ele>4.94</ele>
        <time>2015-07-13T12:18:18Z</time>
      </trkpt>
      <trkpt lat="43.56057" lon="4.0705">
        <ele>4.94</ele>
        <time>2015-07-13T12:18:47Z</time>
      </trkpt>
      <trkpt lat="43.56058" lon="4.07052">
        <ele>4.94</ele>
        <time>2015-07-13T12:19:15Z</time>
      </trkpt>
      <trkpt lat="43.56057" lon="4.07051">
        <ele>4.94</ele>
        <time>2015-07-13T12:19:45Z</time>
      </trkpt>
      <trkpt lat="43.56057" lon="4.0705">
        <ele>5.91</ele>
        <time>2015-07-13T12:20:10Z</time>
      </trkpt>
      <trkpt lat="43.56057" lon="4.07049">
        <ele>4.94</ele>
        <time>2015-07-13T12:20:36Z</time>
      </trkpt>
      <trkpt lat="43.56057" lon="4.0705">
        <ele>5.42</ele>
        <time>2015-07-13T12:20:59Z</time>
      </trkpt>
      <trkpt lat="43.56056" lon="4.07049">
        <ele>5.42</ele>
        <time>2015-07-13T12:21:25Z</time>
      </trkpt>
      <trkpt lat="43.56056" lon="4.0705">
        <ele>5.42</ele>
        <time>2015-07-13T12:21:48Z</time>
      </trkpt>
      <trkpt lat="43.56056" lon="4.0705">
        <ele>4.46</ele>
        <time>2015-07-13T12:22:11Z</time>
      </trkpt>
      <trkpt lat="43.56056" lon="4.0705">
        <ele>5.42</ele>
        <time>2015-07-13T12:22:39Z</time>
      </trkpt>
      <trkpt lat="43.56055" lon="4.07051">
        <ele>5.42</ele>
        <time>2015-07-13T12:23:05Z</time>
      </trkpt>
      <trkpt lat="43.56055" lon="4.07051">
        <ele>5.42</ele>
        <time>2015-07-13T12:23:31Z</time>
      </trkpt>
      <trkpt lat="43.56055" lon="4.07052">
        <ele>5.42</ele>
        <time>2015-07-13T12:23:55Z</time>
      </trkpt>
      <trkpt lat="43.56055" lon="4.07051">
        <ele>5.91</ele>
        <time>2015-07-13T12:24:15Z</time>
      </trkpt>
      <trkpt lat="43.56055" lon="4.07049">
        <ele>5.91</ele>
        <time>2015-07-13T12:24:35Z</time>
      </trkpt>
      <trkpt lat="43.56055" lon="4.07048">
        <ele>5.42</ele>
        <time>2015-07-13T12:24:57Z</time>
      </trkpt>
      <trkpt lat="43.56055" lon="4.07048">
        <ele>5.42</ele>
        <time>2015-07-13T12:25:22Z</time>
      </trkpt>
      <trkpt lat="43.56055" lon="4.07048">
        <ele>5.42</ele>
        <time>2015-07-13T12:25:42Z</time>
      </trkpt>
      <trkpt lat="43.56055" lon="4.07048">
        <ele>5.42</ele>
        <time>2015-07-13T12:26:07Z</time>
      </trkpt>
      <trkpt lat="43.56055" lon="4.07048">
        <ele>5.42</ele>
        <time>2015-07-13T12:26:34Z</time>
      </trkpt>
      <trkpt lat="43.56054" lon="4.07048">
        <ele>5.42</ele>
        <time>2015-07-13T12:26:56Z</time>
      </trkpt>
      <trkpt lat="43.56054" lon="4.07048">
        <ele>5.42</ele>
        <time>2015-07-13T12:27:22Z</time>
      </trkpt>
      <trkpt lat="43.56053" lon="4.07047">
        <ele>5.42</ele>
        <time>2015-07-13T12:27:47Z</time>
      </trkpt>
      <trkpt lat="43.56053" lon="4.07047">
        <ele>5.91</ele>
        <time>2015-07-13T12:28:11Z</time>
      </trkpt>
      <trkpt lat="43.56054" lon="4.07046">
        <ele>4.94</ele>
        <time>2015-07-13T12:28:34Z</time>
      </trkpt>
      <trkpt lat="43.56053" lon="4.07045">
        <ele>5.42</ele>
        <time>2015-07-13T12:28:56Z</time>
      </trkpt>
      <trkpt lat="43.56053" lon="4.07045">
        <ele>5.91</ele>
        <time>2015-07-13T12:29:24Z</time>
      </trkpt>
      <trkpt lat="43.56054" lon="4.07046">
        <ele>5.42</ele>
        <time>2015-07-13T12:29:49Z</time>
      </trkpt>
      <trkpt lat="43.56054" lon="4.07045">
        <ele>5.42</ele>
        <time>2015-07-13T12:30:16Z</time>
      </trkpt>
      <trkpt lat="43.56052" lon="4.07043">
        <ele>5.42</ele>
        <time>2015-07-13T12:30:40Z</time>
      </trkpt>
      <trkpt lat="43.56052" lon="4.07043">
        <ele>4.94</ele>
        <time>2015-07-13T12:31:03Z</time>
      </trkpt>
      <trkpt lat="43.56052" lon="4.07043">
        <ele>5.42</ele>
        <time>2015-07-13T12:31:29Z</time>
      </trkpt>
      <trkpt lat="43.56054" lon="4.07045">
        <ele>4.94</ele>
        <time>2015-07-13T12:31:55Z</time>
      </trkpt>
      <trkpt lat="43.56054" lon="4.07046">
        <ele>4.94</ele>
        <time>2015-07-13T12:32:23Z</time>
      </trkpt>
      <trkpt lat="43.56054" lon="4.07046">
        <ele>5.42</ele>
        <time>2015-07-13T12:32:50Z</time>
      </trkpt>
      <trkpt lat="43.56055" lon="4.07048">
        <ele>4.94</ele>
        <time>2015-07-13T12:33:12Z</time>
      </trkpt>
      <trkpt lat="43.56055" lon="4.07049">
        <ele>4.94</ele>
        <time>2015-07-13T12:33:40Z</time>
      </trkpt>
      <trkpt lat="43.56055" lon="4.07049">
        <ele>4.94</ele>
        <time>2015-07-13T12:34:08Z</time>
      </trkpt>
      <trkpt lat="43.56054" lon="4.07049">
        <ele>4.94</ele>
        <time>2015-07-13T12:34:34Z</time>
      </trkpt>
      <trkpt lat="43.56054" lon="4.07049">
        <ele>5.42</ele>
        <time>2015-07-13T12:35:01Z</time>
      </trkpt>
      <trkpt lat="43.56055" lon="4.07049">
        <ele>4.94</ele>
        <time>2015-07-13T12:35:30Z</time>
      </trkpt>
      <trkpt lat="43.56056" lon="4.0705">
        <ele>5.42</ele>
        <time>2015-07-13T12:35:59Z</time>
      </trkpt>
      <trkpt lat="43.56057" lon="4.07051">
        <ele>5.42</ele>
        <time>2015-07-13T12:36:25Z</time>
      </trkpt>
      <trkpt lat="43.56057" lon="4.07049">
        <ele>5.91</ele>
        <time>2015-07-13T12:36:52Z</time>
      </trkpt>
      <trkpt lat="43.56057" lon="4.07048">
        <ele>5.42</ele>
        <time>2015-07-13T12:37:13Z</time>
      </trkpt>
      <trkpt lat="43.56057" lon="4.07049">
        <ele>5.42</ele>
        <time>2015-07-13T12:37:40Z</time>
      </trkpt>
      <trkpt lat="43.56056" lon="4.0705">
        <ele>5.42</ele>
        <time>2015-07-13T12:38:08Z</time>
      </trkpt>
      <trkpt lat="43.56055" lon="4.07048">
        <ele>4.94</ele>
        <time>2015-07-13T12:38:34Z</time>
      </trkpt>
      <trkpt lat="43.56054" lon="4.07047">
        <ele>5.42</ele>
        <time>2015-07-13T12:38:54Z</time>
      </trkpt>
      <trkpt lat="43.56054" lon="4.07047">
        <ele>5.42</ele>
        <time>2015-07-13T12:39:17Z</time>
      </trkpt>
      <trkpt lat="43.56055" lon="4.07047">
        <ele>5.42</ele>
        <time>2015-07-13T12:39:42Z</time>
      </trkpt>
      <trkpt lat="43.56055" lon="4.07048">
        <ele>5.91</ele>
        <time>2015-07-13T12:40:07Z</time>
      </trkpt>
      <trkpt lat="43.56055" lon="4.07047">
        <ele>4.94</ele>
        <time>2015-07-13T12:40:31Z</time>
      </trkpt>
      <trkpt lat="43.56055" lon="4.07045">
        <ele>5.42</ele>
        <time>2015-07-13T12:41:00Z</time>
      </trkpt>
      <trkpt lat="43.56056" lon="4.07044">
        <ele>5.42</ele>
        <time>2015-07-13T12:41:25Z</time>
      </trkpt>
      <trkpt lat="43.56056" lon="4.07044">
        <ele>5.42</ele>
        <time>2015-07-13T12:41:47Z</time>
      </trkpt>
      <trkpt lat="43.56056" lon="4.07044">
        <ele>5.91</ele>
        <time>2015-07-13T12:42:07Z</time>
      </trkpt>
      <trkpt lat="43.56056" lon="4.07044">
        <ele>5.42</ele>
        <time>2015-07-13T12:42:32Z</time>
      </trkpt>
      <trkpt lat="43.56056" lon="4.07044">
        <ele>5.42</ele>
        <time>2015-07-13T12:42:57Z</time>
      </trkpt>
      <trkpt lat="43.56056" lon="4.07045">
        <ele>5.42</ele>
        <time>2015-07-13T12:43:21Z</time>
      </trkpt>
      <trkpt lat="43.56057" lon="4.07046">
        <ele>5.42</ele>
        <time>2015-07-13T12:43:49Z</time>
      </trkpt>
      <trkpt lat="43.56057" lon="4.07047">
        <ele>5.42</ele>
        <time>2015-07-13T12:44:03Z</time>
      </trkpt>
      <trkpt lat="43.56056" lon="4.07052">
        <ele>5.42</ele>
        <time>2015-07-13T12:44:16Z</time>
      </trkpt>
      <trkpt lat="43.56055" lon="4.07055">
        <ele>5.42</ele>
        <time>2015-07-13T12:44:31Z</time>
      </trkpt>
      <trkpt lat="43.56057" lon="4.0706">
        <ele>5.42</ele>
        <time>2015-07-13T12:44:56Z</time>
      </trkpt>
      <trkpt lat="43.56058" lon="4.07058">
        <ele>4.94</ele>
        <time>2015-07-13T12:45:22Z</time>
      </trkpt>
      <trkpt lat="43.56059" lon="4.0706">
        <ele>5.42</ele>
        <time>2015-07-13T12:45:51Z</time>
      </trkpt>
      <trkpt lat="43.56061" lon="4.07062">
        <ele>5.42</ele>
        <time>2015-07-13T12:46:17Z</time>
      </trkpt>
      <trkpt lat="43.5606" lon="4.07062">
        <ele>5.42</ele>
        <time>2015-07-13T12:46:48Z</time>
      </trkpt>
      <trkpt lat="43.5606" lon="4.0706">
        <ele>5.42</ele>
        <time>2015-07-13T12:47:14Z</time>
      </trkpt>
      <trkpt lat="43.56061" lon="4.0706">
        <ele>5.91</ele>
        <time>2015-07-13T12:47:49Z</time>
      </trkpt>
      <trkpt lat="43.56063" lon="4.07059">
        <ele>5.91</ele>
        <time>2015-07-13T12:48:12Z</time>
      </trkpt>
      <trkpt lat="43.56063" lon="4.07059">
        <ele>5.42</ele>
        <time>2015-07-13T12:48:39Z</time>
      </trkpt>
      <trkpt lat="43.56061" lon="4.07059">
        <ele>5.91</ele>
        <time>2015-07-13T12:49:06Z</time>
      </trkpt>
      <trkpt lat="43.5606" lon="4.07059">
        <ele>5.42</ele>
        <time>2015-07-13T12:49:30Z</time>
      </trkpt>
      <trkpt lat="43.5606" lon="4.07059">
        <ele>5.91</ele>
        <time>2015-07-13T12:49:49Z</time>
      </trkpt>
      <trkpt lat="43.56059" lon="4.0706">
        <ele>5.91</ele>
        <time>2015-07-13T12:50:16Z</time>
      </trkpt>
      <trkpt lat="43.56058" lon="4.0706">
        <ele>5.42</ele>
        <time>2015-07-13T12:50:45Z</time>
      </trkpt>
      <trkpt lat="43.56058" lon="4.0706">
        <ele>6.39</ele>
        <time>2015-07-13T12:51:13Z</time>
      </trkpt>
      <trkpt lat="43.56057" lon="4.07061">
        <ele>5.91</ele>
        <time>2015-07-13T12:51:42Z</time>
      </trkpt>
      <trkpt lat="43.56056" lon="4.0706">
        <ele>6.39</ele>
        <time>2015-07-13T12:52:09Z</time>
      </trkpt>
      <trkpt lat="43.56055" lon="4.07059">
        <ele>6.39</ele>
        <time>2015-07-13T12:52:34Z</time>
      </trkpt>
      <trkpt lat="43.56055" lon="4.07057">
        <ele>6.87</ele>
        <time>2015-07-13T12:53:00Z</time>
      </trkpt>
      <trkpt lat="43.56054" lon="4.07058">
        <ele>6.39</ele>
        <time>2015-07-13T12:53:22Z</time>
      </trkpt>
      <trkpt lat="43.56054" lon="4.07056">
        <ele>6.39</ele>
        <time>2015-07-13T12:53:50Z</time>
      </trkpt>
      <trkpt lat="43.56054" lon="4.07056">
        <ele>6.39</ele>
        <time>2015-07-13T12:54:13Z</time>
      </trkpt>
      <trkpt lat="43.56053" lon="4.07056">
        <ele>6.87</ele>
        <time>2015-07-13T12:54:38Z</time>
      </trkpt>
      <trkpt lat="43.56053" lon="4.07057">
        <ele>6.87</ele>
        <time>2015-07-13T12:55:02Z</time>
      </trkpt>
      <trkpt lat="43.56053" lon="4.07058">
        <ele>6.87</ele>
        <time>2015-07-13T12:55:27Z</time>
      </trkpt>
      <trkpt lat="43.56053" lon="4.07058">
        <ele>6.87</ele>
        <time>2015-07-13T12:55:51Z</time>
      </trkpt>
      <trkpt lat="43.56052" lon="4.07057">
        <ele>6.87</ele>
        <time>2015-07-13T12:56:19Z</time>
      </trkpt>
      <trkpt lat="43.56052" lon="4.07057">
        <ele>6.87</ele>
        <time>2015-07-13T12:56:46Z</time>
      </trkpt>
      <trkpt lat="43.56052" lon="4.07058">
        <ele>6.87</ele>
        <time>2015-07-13T12:57:14Z</time>
      </trkpt>
      <trkpt lat="43.56052" lon="4.07058">
        <ele>6.87</ele>
        <time>2015-07-13T12:57:39Z</time>
      </trkpt>
      <trkpt lat="43.56052" lon="4.07055">
        <ele>6.87</ele>
        <time>2015-07-13T12:58:09Z</time>
      </trkpt>
      <trkpt lat="43.56052" lon="4.07055">
        <ele>6.87</ele>
        <time>2015-07-13T12:58:35Z</time>
      </trkpt>
      <trkpt lat="43.56052" lon="4.07053">
        <ele>6.87</ele>
        <time>2015-07-13T12:59:01Z</time>
      </trkpt>
      <trkpt lat="43.56053" lon="4.07052">
        <ele>6.87</ele>
        <time>2015-07-13T12:59:24Z</time>
      </trkpt>
      <trkpt lat="43.56053" lon="4.07053">
        <ele>7.35</ele>
        <time>2015-07-13T12:59:47Z</time>
      </trkpt>
      <trkpt lat="43.56053" lon="4.07053">
        <ele>6.87</ele>
        <time>2015-07-13T13:00:16Z</time>
      </trkpt>
      <trkpt lat="43.56053" lon="4.07055">
        <ele>7.83</ele>
        <time>2015-07-13T13:00:42Z</time>
      </trkpt>
      <trkpt lat="43.56053" lon="4.07056">
        <ele>6.87</ele>
        <time>2015-07-13T13:01:08Z</time>
      </trkpt>
      <trkpt lat="43.56053" lon="4.07058">
        <ele>7.35</ele>
        <time>2015-07-13T13:01:31Z</time>
      </trkpt>
      <trkpt lat="43.56053" lon="4.07058">
        <ele>6.87</ele>
        <time>2015-07-13T13:01:56Z</time>
      </trkpt>
      <trkpt lat="43.56052" lon="4.07056">
        <ele>7.35</ele>
        <time>2015-07-13T13:02:28Z</time>
      </trkpt>
      <trkpt lat="43.56052" lon="4.07054">
        <ele>6.87</ele>
        <time>2015-07-13T13:02:53Z</time>
      </trkpt>
      <trkpt lat="43.56053" lon="4.07055">
        <ele>7.35</ele>
        <time>2015-07-13T13:03:22Z</time>
      </trkpt>
      <trkpt lat="43.56053" lon="4.07054">
        <ele>7.35</ele>
        <time>2015-07-13T13:03:53Z</time>
      </trkpt>
      <trkpt lat="43.56053" lon="4.07055">
        <ele>6.87</ele>
        <time>2015-07-13T13:04:20Z</time>
      </trkpt>
      <trkpt lat="43.56052" lon="4.07056">
        <ele>7.35</ele>
        <time>2015-07-13T13:04:48Z</time>
      </trkpt>
      <trkpt lat="43.56053" lon="4.07056">
        <ele>7.35</ele>
        <time>2015-07-13T13:05:18Z</time>
      </trkpt>
      <trkpt lat="43.56054" lon="4.07055">
        <ele>7.35</ele>
        <time>2015-07-13T13:05:45Z</time>
      </trkpt>
      <trkpt lat="43.56053" lon="4.07055">
        <ele>7.35</ele>
        <time>2015-07-13T13:06:14Z</time>
      </trkpt>
      <trkpt lat="43.56052" lon="4.07055">
        <ele>7.35</ele>
        <time>2015-07-13T13:06:37Z</time>
      </trkpt>
      <trkpt lat="43.5605" lon="4.07056">
        <ele>7.35</ele>
        <time>2015-07-13T13:07:05Z</time>
      </trkpt>
      <trkpt lat="43.56049" lon="4.07055">
        <ele>7.35</ele>
        <time>2015-07-13T13:07:31Z</time>
      </trkpt>
      <trkpt lat="43.56049" lon="4.07054">
        <ele>7.35</ele>
        <time>2015-07-13T13:07:58Z</time>
      </trkpt>
      <trkpt lat="43.56049" lon="4.07054">
        <ele>7.83</ele>
        <time>2015-07-13T13:08:25Z</time>
      </trkpt>
      <trkpt lat="43.56048" lon="4.07054">
        <ele>7.83</ele>
        <time>2015-07-13T13:08:56Z</time>
      </trkpt>
      <trkpt lat="43.56047" lon="4.07052">
        <ele>7.83</ele>
        <time>2015-07-13T13:09:19Z</time>
      </trkpt>
      <trkpt lat="43.56048" lon="4.07051">
        <ele>7.83</ele>
        <time>2015-07-13T13:09:44Z</time>
      </trkpt>
      <trkpt lat="43.56048" lon="4.07052">
        <ele>7.83</ele>
        <time>2015-07-13T13:10:12Z</time>
      </trkpt>
      <trkpt lat="43.56048" lon="4.07051">
        <ele>7.83</ele>
        <time>2015-07-13T13:10:39Z</time>
      </trkpt>
      <trkpt lat="43.56047" lon="4.07051">
        <ele>7.83</ele>
        <time>2015-07-13T13:11:05Z</time>
      </trkpt>
      <trkpt lat="43.56046" lon="4.07053">
        <ele>7.83</ele>
        <time>2015-07-13T13:11:30Z</time>
      </trkpt>
      <trkpt lat="43.56047" lon="4.07053">
        <ele>8.31</ele>
        <time>2015-07-13T13:11:58Z</time>
      </trkpt>
      <trkpt lat="43.56047" lon="4.07053">
        <ele>7.83</ele>
        <time>2015-07-13T13:12:24Z</time>
      </trkpt>
      <trkpt lat="43.56047" lon="4.07054">
        <ele>7.83</ele>
        <time>2015-07-13T13:12:51Z</time>
      </trkpt>
      <trkpt lat="43.56047" lon="4.07055">
        <ele>7.83</ele>
        <time>2015-07-13T13:13:15Z</time>
      </trkpt>
      <trkpt lat="43.56047" lon="4.07056">
        <ele>7.83</ele>
        <time>2015-07-13T13:13:38Z</time>
      </trkpt>
      <trkpt lat="43.56047" lon="4.07057">
        <ele>7.83</ele>
        <time>2015-07-13T13:14:02Z</time>
      </trkpt>
      <trkpt lat="43.56046" lon="4.07056">
        <ele>7.83</ele>
        <time>2015-07-13T13:14:24Z</time>
      </trkpt>
      <trkpt lat="43.56046" lon="4.07058">
        <ele>8.31</ele>
        <time>2015-07-13T13:14:50Z</time>
      </trkpt>
      <trkpt lat="43.56047" lon="4.07057">
        <ele>8.31</ele>
        <time>2015-07-13T13:15:17Z</time>
      </trkpt>
      <trkpt lat="43.56047" lon="4.07057">
        <ele>8.31</ele>
        <time>2015-07-13T13:15:41Z</time>
      </trkpt>
      <trkpt lat="43.56047" lon="4.07058">
        <ele>8.31</ele>
        <time>2015-07-13T13:16:07Z</time>
      </trkpt>
      <trkpt lat="43.56047" lon="4.07059">
        <ele>8.31</ele>
        <time>2015-07-13T13:16:32Z</time>
      </trkpt>
      <trkpt lat="43.56046" lon="4.07058">
        <ele>8.31</ele>
        <time>2015-07-13T13:16:58Z</time>
      </trkpt>
      <trkpt lat="43.56046" lon="4.07058">
        <ele>8.31</ele>
        <time>2015-07-13T13:17:22Z</time>
      </trkpt>
      <trkpt lat="43.56045" lon="4.07059">
        <ele>8.31</ele>
        <time>2015-07-13T13:17:52Z</time>
      </trkpt>
      <trkpt lat="43.56045" lon="4.0706">
        <ele>8.79</ele>
        <time>2015-07-13T13:18:20Z</time>
      </trkpt>
      <trkpt lat="43.56046" lon="4.0706">
        <ele>8.31</ele>
        <time>2015-07-13T13:18:40Z</time>
      </trkpt>
      <trkpt lat="43.56046" lon="4.07061">
        <ele>8.79</ele>
        <time>2015-07-13T13:19:06Z</time>
      </trkpt>
      <trkpt lat="43.56046" lon="4.07061">
        <ele>8.31</ele>
        <time>2015-07-13T13:19:28Z</time>
      </trkpt>
      <trkpt lat="43.56047" lon="4.07061">
        <ele>8.79</ele>
        <time>2015-07-13T13:19:54Z</time>
      </trkpt>
      <trkpt lat="43.56047" lon="4.07062">
        <ele>8.31</ele>
        <time>2015-07-13T13:20:16Z</time>
      </trkpt>
      <trkpt lat="43.56047" lon="4.07062">
        <ele>8.79</ele>
        <time>2015-07-13T13:20:41Z</time>
      </trkpt>
      <trkpt lat="43.56047" lon="4.07062">
        <ele>8.31</ele>
        <time>2015-07-13T13:21:04Z</time>
      </trkpt>
      <trkpt lat="43.56048" lon="4.07061">
        <ele>8.31</ele>
        <time>2015-07-13T13:21:25Z</time>
      </trkpt>
      <trkpt lat="43.56049" lon="4.0706">
        <ele>8.31</ele>
        <time>2015-07-13T13:21:44Z</time>
      </trkpt>
      <trkpt lat="43.5605" lon="4.0706">
        <ele>8.79</ele>
        <time>2015-07-13T13:22:06Z</time>
      </trkpt>
      <trkpt lat="43.56051" lon="4.07061">
        <ele>8.31</ele>
        <time>2015-07-13T13:22:31Z</time>
      </trkpt>
      <trkpt lat="43.56051" lon="4.07062">
        <ele>8.31</ele>
        <time>2015-07-13T13:22:59Z</time>
      </trkpt>
      <trkpt lat="43.56052" lon="4.07062">
        <ele>8.31</ele>
        <time>2015-07-13T13:23:23Z</time>
      </trkpt>
      <trkpt lat="43.56053" lon="4.07062">
        <ele>8.31</ele>
        <time>2015-07-13T13:23:48Z</time>
      </trkpt>
      <trkpt lat="43.56053" lon="4.07063">
        <ele>8.31</ele>
        <time>2015-07-13T13:24:15Z</time>
      </trkpt>
      <trkpt lat="43.56054" lon="4.07064">
        <ele>8.31</ele>
        <time>2015-07-13T13:24:43Z</time>
      </trkpt>
      <trkpt lat="43.56054" lon="4.07065">
        <ele>8.31</ele>
        <time>2015-07-13T13:25:10Z</time>
      </trkpt>
      <trkpt lat="43.56054" lon="4.07065">
        <ele>7.83</ele>
        <time>2015-07-13T13:25:34Z</time>
      </trkpt>
      <trkpt lat="43.56053" lon="4.07067">
        <ele>7.83</ele>
        <time>2015-07-13T13:26:00Z</time>
      </trkpt>
      <trkpt lat="43.56054" lon="4.07068">
        <ele>7.83</ele>
        <time>2015-07-13T13:26:23Z</time>
      </trkpt>
      <trkpt lat="43.56055" lon="4.07067">
        <ele>7.83</ele>
        <time>2015-07-13T13:26:47Z</time>
      </trkpt>
      <trkpt lat="43.56054" lon="4.07067">
        <ele>7.83</ele>
        <time>2015-07-13T13:27:12Z</time>
      </trkpt>
      <trkpt lat="43.56054" lon="4.07065">
        <ele>7.83</ele>
        <time>2015-07-13T13:27:38Z</time>
      </trkpt>
      <trkpt lat="43.56053" lon="4.07064">
        <ele>7.83</ele>
        <time>2015-07-13T13:28:04Z</time>
      </trkpt>
      <trkpt lat="43.56053" lon="4.07065">
        <ele>7.35</ele>
        <time>2015-07-13T13:28:28Z</time>
      </trkpt>
      <trkpt lat="43.56053" lon="4.07065">
        <ele>7.83</ele>
        <time>2015-07-13T13:28:54Z</time>
      </trkpt>
      <trkpt lat="43.56052" lon="4.07065">
        <ele>7.35</ele>
        <time>2015-07-13T13:29:20Z</time>
      </trkpt>
      <trkpt lat="43.56052" lon="4.07065">
        <ele>7.35</ele>
        <time>2015-07-13T13:29:49Z</time>
      </trkpt>
      <trkpt lat="43.56052" lon="4.07065">
        <ele>6.87</ele>
        <time>2015-07-13T13:30:16Z</time>
      </trkpt>
      <trkpt lat="43.56052" lon="4.07065">
        <ele>6.87</ele>
        <time>2015-07-13T13:30:43Z</time>
      </trkpt>
      <trkpt lat="43.56051" lon="4.07065">
        <ele>6.87</ele>
        <time>2015-07-13T13:31:11Z</time>
      </trkpt>
      <trkpt lat="43.56051" lon="4.07065">
        <ele>6.87</ele>
        <time>2015-07-13T13:31:31Z</time>
      </trkpt>
      <trkpt lat="43.56051" lon="4.07066">
        <ele>6.87</ele>
        <time>2015-07-13T13:31:56Z</time>
      </trkpt>
      <trkpt lat="43.56051" lon="4.07066">
        <ele>6.87</ele>
        <time>2015-07-13T13:32:12Z</time>
      </trkpt>
      <trkpt lat="43.56051" lon="4.07066">
        <ele>6.87</ele>
        <time>2015-07-13T13:32:41Z</time>
      </trkpt>
      <trkpt lat="43.56052" lon="4.07064">
        <ele>6.39</ele>
        <time>2015-07-13T13:33:08Z</time>
      </trkpt>
      <trkpt lat="43.56052" lon="4.07064">
        <ele>6.39</ele>
        <time>2015-07-13T13:33:34Z</time>
      </trkpt>
      <trkpt lat="43.5605" lon="4.07064">
        <ele>5.91</ele>
        <time>2015-07-13T13:34:01Z</time>
      </trkpt>
      <trkpt lat="43.5605" lon="4.07066">
        <ele>5.91</ele>
        <time>2015-07-13T13:34:28Z</time>
      </trkpt>
      <trkpt lat="43.5605" lon="4.07066">
        <ele>5.91</ele>
        <time>2015-07-13T13:34:53Z</time>
      </trkpt>
      <trkpt lat="43.5605" lon="4.07065">
        <ele>5.91</ele>
        <time>2015-07-13T13:35:16Z</time>
      </trkpt>
      <trkpt lat="43.5605" lon="4.07065">
        <ele>5.42</ele>
        <time>2015-07-13T13:35:41Z</time>
      </trkpt>
      <trkpt lat="43.5605" lon="4.07066">
        <ele>5.42</ele>
        <time>2015-07-13T13:36:08Z</time>
      </trkpt>
      <trkpt lat="43.56049" lon="4.07064">
        <ele>5.42</ele>
        <time>2015-07-13T13:36:35Z</time>
      </trkpt>
      <trkpt lat="43.56049" lon="4.07064">
        <ele>4.94</ele>
        <time>2015-07-13T13:37:03Z</time>
      </trkpt>
      <trkpt lat="43.56049" lon="4.07064">
        <ele>4.94</ele>
        <time>2015-07-13T13:37:28Z</time>
      </trkpt>
      <trkpt lat="43.5605" lon="4.07065">
        <ele>4.94</ele>
        <time>2015-07-13T13:37:54Z</time>
      </trkpt>
      <trkpt lat="43.56049" lon="4.07067">
        <ele>5.42</ele>
        <time>2015-07-13T13:38:27Z</time>
      </trkpt>
      <trkpt lat="43.56049" lon="4.07065">
        <ele>4.94</ele>
        <time>2015-07-13T13:38:58Z</time>
      </trkpt>
      <trkpt lat="43.56049" lon="4.07065">
        <ele>4.46</ele>
        <time>2015-07-13T13:39:23Z</time>
      </trkpt>
      <trkpt lat="43.5605" lon="4.07065">
        <ele>4.46</ele>
        <time>2015-07-13T13:39:48Z</time>
      </trkpt>
      <trkpt lat="43.56051" lon="4.07065">
        <ele>4.46</ele>
        <time>2015-07-13T13:40:17Z</time>
      </trkpt>
      <trkpt lat="43.56051" lon="4.07066">
        <ele>4.46</ele>
        <time>2015-07-13T13:40:40Z</time>
      </trkpt>
      <trkpt lat="43.56051" lon="4.07065">
        <ele>4.46</ele>
        <time>2015-07-13T13:41:06Z</time>
      </trkpt>
      <trkpt lat="43.5605" lon="4.07066">
        <ele>3.98</ele>
        <time>2015-07-13T13:41:28Z</time>
      </trkpt>
      <trkpt lat="43.56051" lon="4.07066">
        <ele>4.46</ele>
        <time>2015-07-13T13:41:56Z</time>
      </trkpt>
      <trkpt lat="43.56052" lon="4.07067">
        <ele>4.46</ele>
        <time>2015-07-13T13:42:24Z</time>
      </trkpt>
      <trkpt lat="43.56053" lon="4.07067">
        <ele>4.46</ele>
        <time>2015-07-13T13:42:51Z</time>
      </trkpt>
      <trkpt lat="43.56054" lon="4.07067">
        <ele>4.46</ele>
        <time>2015-07-13T13:43:18Z</time>
      </trkpt>
      <trkpt lat="43.56054" lon="4.07066">
        <ele>4.46</ele>
        <time>2015-07-13T13:43:45Z</time>
      </trkpt>
      <trkpt lat="43.56054" lon="4.07066">
        <ele>4.46</ele>
        <time>2015-07-13T13:44:14Z</time>
      </trkpt>
      <trkpt lat="43.56055" lon="4.07067">
        <ele>4.46</ele>
        <time>2015-07-13T13:44:42Z</time>
      </trkpt>
      <trkpt lat="43.56057" lon="4.07066">
        <ele>4.46</ele>
        <time>2015-07-13T13:45:09Z</time>
      </trkpt>
      <trkpt lat="43.56057" lon="4.07066">
        <ele>4.94</ele>
        <time>2015-07-13T13:45:35Z</time>
      </trkpt>
      <trkpt lat="43.56056" lon="4.07066">
        <ele>4.46</ele>
        <time>2015-07-13T13:46:02Z</time>
      </trkpt>
      <trkpt lat="43.56056" lon="4.07066">
        <ele>4.94</ele>
        <time>2015-07-13T13:46:28Z</time>
      </trkpt>
      <trkpt lat="43.56056" lon="4.07066">
        <ele>4.46</ele>
        <time>2015-07-13T13:46:55Z</time>
      </trkpt>
      <trkpt lat="43.56057" lon="4.07066">
        <ele>4.94</ele>
        <time>2015-07-13T13:47:20Z</time>
      </trkpt>
      <trkpt lat="43.56057" lon="4.07066">
        <ele>4.94</ele>
        <time>2015-07-13T13:47:45Z</time>
      </trkpt>
      <trkpt lat="43.56057" lon="4.07067">
        <ele>4.94</ele>
        <time>2015-07-13T13:48:15Z</time>
      </trkpt>
      <trkpt lat="43.56058" lon="4.07067">
        <ele>4.46</ele>
        <time>2015-07-13T13:48:41Z</time>
      </trkpt>
      <trkpt lat="43.56057" lon="4.07067">
        <ele>4.46</ele>
        <time>2015-07-13T13:49:05Z</time>
      </trkpt>
      <trkpt lat="43.56057" lon="4.07066">
        <ele>4.46</ele>
        <time>2015-07-13T13:49:31Z</time>
      </trkpt>
      <trkpt lat="43.56056" lon="4.07065">
        <ele>4.94</ele>
        <time>2015-07-13T13:50:01Z</time>
      </trkpt>
      <trkpt lat="43.56055" lon="4.07065">
        <ele>4.46</ele>
        <time>2015-07-13T13:50:30Z</time>
      </trkpt>
      <trkpt lat="43.56056" lon="4.07065">
        <ele>4.46</ele>
        <time>2015-07-13T13:50:57Z</time>
      </trkpt>
      <trkpt lat="43.56056" lon="4.07065">
        <ele>4.94</ele>
        <time>2015-07-13T13:51:21Z</time>
      </trkpt>
      <trkpt lat="43.56056" lon="4.07065">
        <ele>4.46</ele>
        <time>2015-07-13T13:51:49Z</time>
      </trkpt>
      <trkpt lat="43.56057" lon="4.07065">
        <ele>4.46</ele>
        <time>2015-07-13T13:52:17Z</time>
      </trkpt>
      <trkpt lat="43.56057" lon="4.07065">
        <ele>4.94</ele>
        <time>2015-07-13T13:52:42Z</time>
      </trkpt>
      <trkpt lat="43.56057" lon="4.07064">
        <ele>4.46</ele>
        <time>2015-07-13T13:53:08Z</time>
      </trkpt>
      <trkpt lat="43.56057" lon="4.07064">
        <ele>4.46</ele>
        <time>2015-07-13T13:53:31Z</time>
      </trkpt>
      <trkpt lat="43.56058" lon="4.07064">
        <ele>4.46</ele>
        <time>2015-07-13T13:53:54Z</time>
      </trkpt>
      <trkpt lat="43.56057" lon="4.07065">
        <ele>4.94</ele>
        <time>2015-07-13T13:54:19Z</time>
      </trkpt>
      <trkpt lat="43.56058" lon="4.07065">
        <ele>4.94</ele>
        <time>2015-07-13T13:54:45Z</time>
      </trkpt>
      <trkpt lat="43.56058" lon="4.07065">
        <ele>4.94</ele>
        <time>2015-07-13T13:55:16Z</time>
      </trkpt>
      <trkpt lat="43.56058" lon="4.07064">
        <ele>4.94</ele>
        <time>2015-07-13T13:55:43Z</time>
      </trkpt>
      <trkpt lat="43.56059" lon="4.07063">
        <ele>4.94</ele>
        <time>2015-07-13T13:56:11Z</time>
      </trkpt>
      <trkpt lat="43.56059" lon="4.07062">
        <ele>4.94</ele>
        <time>2015-07-13T13:56:40Z</time>
      </trkpt>
      <trkpt lat="43.56059" lon="4.07062">
        <ele>5.42</ele>
        <time>2015-07-13T13:57:07Z</time>
      </trkpt>
      <trkpt lat="43.56059" lon="4.07065">
        <ele>5.42</ele>
        <time>2015-07-13T13:57:35Z</time>
      </trkpt>
      <trkpt lat="43.5606" lon="4.07064">
        <ele>5.42</ele>
        <time>2015-07-13T13:58:01Z</time>
      </trkpt>
      <trkpt lat="43.56059" lon="4.07064">
        <ele>5.91</ele>
        <time>2015-07-13T13:58:26Z</time>
      </trkpt>
      <trkpt lat="43.5606" lon="4.07064">
        <ele>5.42</ele>
        <time>2015-07-13T13:58:53Z</time>
      </trkpt>
      <trkpt lat="43.56059" lon="4.07065">
        <ele>5.91</ele>
        <time>2015-07-13T13:59:21Z</time>
      </trkpt>
      <trkpt lat="43.5606" lon="4.07066">
        <ele>5.91</ele>
        <time>2015-07-13T13:59:47Z</time>
      </trkpt>
      <trkpt lat="43.56059" lon="4.07065">
        <ele>5.91</ele>
        <time>2015-07-13T14:00:13Z</time>
      </trkpt>
      <trkpt lat="43.56058" lon="4.07064">
        <ele>5.91</ele>
        <time>2015-07-13T14:00:38Z</time>
      </trkpt>
      <trkpt lat="43.56058" lon="4.07062">
        <ele>5.91</ele>
        <time>2015-07-13T14:00:55Z</time>
      </trkpt>
      <trkpt lat="43.56058" lon="4.07062">
        <ele>6.39</ele>
        <time>2015-07-13T14:01:24Z</time>
      </trkpt>
      <trkpt lat="43.56058" lon="4.07063">
        <ele>5.91</ele>
        <time>2015-07-13T14:01:51Z</time>
      </trkpt>
      <trkpt lat="43.56057" lon="4.07063">
        <ele>5.91</ele>
        <time>2015-07-13T14:02:14Z</time>
      </trkpt>
      <trkpt lat="43.56058" lon="4.07062">
        <ele>5.91</ele>
        <time>2015-07-13T14:02:44Z</time>
      </trkpt>
      <trkpt lat="43.56059" lon="4.07062">
        <ele>5.91</ele>
        <time>2015-07-13T14:03:07Z</time>
      </trkpt>
      <trkpt lat="43.56059" lon="4.07063">
        <ele>6.39</ele>
        <time>2015-07-13T14:03:33Z</time>
      </trkpt>
      <trkpt lat="43.56059" lon="4.07062">
        <ele>6.39</ele>
        <time>2015-07-13T14:03:57Z</time>
      </trkpt>
      <trkpt lat="43.56059" lon="4.07063">
        <ele>6.39</ele>
        <time>2015-07-13T14:04:20Z</time>
      </trkpt>
      <trkpt lat="43.56058" lon="4.07062">
        <ele>6.87</ele>
        <time>2015-07-13T14:04:48Z</time>
      </trkpt>
      <trkpt lat="43.56058" lon="4.07065">
        <ele>6.87</ele>
        <time>2015-07-13T14:05:15Z</time>
      </trkpt>
      <trkpt lat="43.56058" lon="4.07065">
        <ele>6.87</ele>
        <time>2015-07-13T14:05:41Z</time>
      </trkpt>
      <trkpt lat="43.56057" lon="4.07065">
        <ele>6.39</ele>
        <time>2015-07-13T14:06:06Z</time>
      </trkpt>
      <trkpt lat="43.56057" lon="4.07065">
        <ele>6.87</ele>
        <time>2015-07-13T14:06:30Z</time>
      </trkpt>
      <trkpt lat="43.56057" lon="4.07065">
        <ele>6.87</ele>
        <time>2015-07-13T14:06:51Z</time>
      </trkpt>
      <trkpt lat="43.56057" lon="4.07065">
        <ele>6.87</ele>
        <time>2015-07-13T14:07:13Z</time>
      </trkpt>
      <trkpt lat="43.56057" lon="4.07064">
        <ele>6.87</ele>
        <time>2015-07-13T14:07:37Z</time>
      </trkpt>
      <trkpt lat="43.56058" lon="4.07063">
        <ele>7.35</ele>
        <time>2015-07-13T14:08:03Z</time>
      </trkpt>
      <trkpt lat="43.56059" lon="4.07064">
        <ele>6.87</ele>
        <time>2015-07-13T14:08:29Z</time>
      </trkpt>
      <trkpt lat="43.56058" lon="4.07064">
        <ele>7.35</ele>
        <time>2015-07-13T14:08:55Z</time>
      </trkpt>
      <trkpt lat="43.56058" lon="4.07064">
        <ele>6.87</ele>
        <time>2015-07-13T14:09:22Z</time>
      </trkpt>
      <trkpt lat="43.56058" lon="4.07062">
        <ele>7.35</ele>
        <time>2015-07-13T14:09:46Z</time>
      </trkpt>
      <trkpt lat="43.56058" lon="4.07062">
        <ele>7.35</ele>
        <time>2015-07-13T14:10:11Z</time>
      </trkpt>
      <trkpt lat="43.56057" lon="4.07061">
        <ele>7.35</ele>
        <time>2015-07-13T14:10:38Z</time>
      </trkpt>
      <trkpt lat="43.56057" lon="4.07062">
        <ele>7.35</ele>
        <time>2015-07-13T14:11:02Z</time>
      </trkpt>
      <trkpt lat="43.56057" lon="4.07062">
        <ele>7.83</ele>
        <time>2015-07-13T14:11:23Z</time>
      </trkpt>
      <trkpt lat="43.56056" lon="4.07061">
        <ele>7.35</ele>
        <time>2015-07-13T14:11:46Z</time>
      </trkpt>
      <trkpt lat="43.56056" lon="4.07061">
        <ele>7.35</ele>
        <time>2015-07-13T14:12:13Z</time>
      </trkpt>
      <trkpt lat="43.56056" lon="4.07063">
        <ele>7.35</ele>
        <time>2015-07-13T14:12:37Z</time>
      </trkpt>
      <trkpt lat="43.56056" lon="4.07063">
        <ele>7.35</ele>
        <time>2015-07-13T14:13:04Z</time>
      </trkpt>
      <trkpt lat="43.56056" lon="4.07064">
        <ele>7.83</ele>
        <time>2015-07-13T14:13:29Z</time>
      </trkpt>
      <trkpt lat="43.56056" lon="4.07063">
        <ele>7.35</ele>
        <time>2015-07-13T14:13:53Z</time>
      </trkpt>
      <trkpt lat="43.56057" lon="4.07064">
        <ele>7.83</ele>
        <time>2015-07-13T14:14:16Z</time>
      </trkpt>
      <trkpt lat="43.56056" lon="4.07063">
        <ele>8.31</ele>
        <time>2015-07-13T14:14:40Z</time>
      </trkpt>
      <trkpt lat="43.56056" lon="4.07062">
        <ele>7.83</ele>
        <time>2015-07-13T14:15:01Z</time>
      </trkpt>
      <trkpt lat="43.56055" lon="4.07063">
        <ele>7.83</ele>
        <time>2015-07-13T14:15:28Z</time>
      </trkpt>
      <trkpt lat="43.56054" lon="4.07063">
        <ele>7.83</ele>
        <time>2015-07-13T14:15:50Z</time>
      </trkpt>
      <trkpt lat="43.56053" lon="4.07063">
        <ele>7.83</ele>
        <time>2015-07-13T14:16:10Z</time>
      </trkpt>
      <trkpt lat="43.56052" lon="4.07063">
        <ele>8.31</ele>
        <time>2015-07-13T14:16:23Z</time>
      </trkpt>
      <trkpt lat="43.56052" lon="4.07063">
        <ele>8.31</ele>
        <time>2015-07-13T14:16:38Z</time>
      </trkpt>
      <trkpt lat="43.56044" lon="4.0706">
        <ele>8.31</ele>
        <time>2015-07-13T14:16:51Z</time>
      </trkpt>
      <trkpt lat="43.56041" lon="4.07059">
        <ele>7.83</ele>
        <time>2015-07-13T14:16:54Z</time>
      </trkpt>
      <trkpt lat="43.5603" lon="4.07058">
        <ele>8.31</ele>
        <time>2015-07-13T14:17:04Z</time>
      </trkpt>
      <trkpt lat="43.56029" lon="4.07059">
        <ele>8.31</ele>
        <time>2015-07-13T14:17:18Z</time>
      </trkpt>
      <trkpt lat="43.56026" lon="4.07057">
        <ele>7.83</ele>
        <time>2015-07-13T14:17:29Z</time>
      </trkpt>
      <trkpt lat="43.56002" lon="4.07059">
        <ele>7.83</ele>
        <time>2015-07-13T14:17:40Z</time>
      </trkpt>
      <trkpt lat="43.55972" lon="4.07045">
        <ele>7.83</ele>
        <time>2015-07-13T14:17:52Z</time>
      </trkpt>
      <trkpt lat="43.55952" lon="4.07037">
        <ele>8.31</ele>
        <time>2015-07-13T14:18:02Z</time>
      </trkpt>
      <trkpt lat="43.55938" lon="4.07032">
        <ele>8.31</ele>
        <time>2015-07-13T14:18:13Z</time>
      </trkpt>
      <trkpt lat="43.55925" lon="4.07026">
        <ele>8.31</ele>
        <time>2015-07-13T14:18:25Z</time>
      </trkpt>
      <trkpt lat="43.5592" lon="4.07023">
        <ele>8.31</ele>
        <time>2015-07-13T14:18:29Z</time>
      </trkpt>
      <trkpt lat="43.55919" lon="4.07023">
        <ele>8.31</ele>
        <time>2015-07-13T14:18:30Z</time>
      </trkpt>
      <trkpt lat="43.55918" lon="4.07022">
        <ele>8.79</ele>
        <time>2015-07-13T14:18:31Z</time>
      </trkpt>
      <trkpt lat="43.55904" lon="4.07015">
        <ele>8.79</ele>
        <time>2015-07-13T14:18:42Z</time>
      </trkpt>
      <trkpt lat="43.55887" lon="4.07007">
        <ele>8.79</ele>
        <time>2015-07-13T14:18:53Z</time>
      </trkpt>
      <trkpt lat="43.55883" lon="4.07005">
        <ele>8.79</ele>
        <time>2015-07-13T14:18:56Z</time>
      </trkpt>
      <trkpt lat="43.55882" lon="4.07005">
        <ele>8.79</ele>
        <time>2015-07-13T14:18:57Z</time>
      </trkpt>
      <trkpt lat="43.55881" lon="4.07005">
        <ele>8.79</ele>
        <time>2015-07-13T14:18:58Z</time>
      </trkpt>
      <trkpt lat="43.55867" lon="4.06997">
        <ele>8.79</ele>
        <time>2015-07-13T14:19:09Z</time>
      </trkpt>
      <trkpt lat="43.55859" lon="4.06992">
        <ele>8.79</ele>
        <time>2015-07-13T14:19:15Z</time>
      </trkpt>
      <trkpt lat="43.55858" lon="4.06991">
        <ele>8.79</ele>
        <time>2015-07-13T14:19:16Z</time>
      </trkpt>
      <trkpt lat="43.55853" lon="4.06988">
        <ele>8.79</ele>
        <time>2015-07-13T14:19:27Z</time>
      </trkpt>
      <trkpt lat="43.55834" lon="4.0698">
        <ele>8.31</ele>
        <time>2015-07-13T14:19:38Z</time>
      </trkpt>
      <trkpt lat="43.55827" lon="4.06978">
        <ele>7.83</ele>
        <time>2015-07-13T14:19:42Z</time>
      </trkpt>
      <trkpt lat="43.55822" lon="4.06973">
        <ele>7.35</ele>
        <time>2015-07-13T14:19:45Z</time>
      </trkpt>
      <trkpt lat="43.5582" lon="4.06974">
        <ele>7.83</ele>
        <time>2015-07-13T14:19:46Z</time>
      </trkpt>
      <trkpt lat="43.55818" lon="4.06975">
        <ele>7.83</ele>
        <time>2015-07-13T14:19:47Z</time>
      </trkpt>
      <trkpt lat="43.55816" lon="4.06976">
        <ele>7.83</ele>
        <time>2015-07-13T14:19:48Z</time>
      </trkpt>
      <trkpt lat="43.55815" lon="4.06978">
        <ele>8.31</ele>
        <time>2015-07-13T14:19:49Z</time>
      </trkpt>
      <trkpt lat="43.55813" lon="4.06981">
        <ele>8.31</ele>
        <time>2015-07-13T14:19:50Z</time>
      </trkpt>
      <trkpt lat="43.55812" lon="4.06983">
        <ele>7.83</ele>
        <time>2015-07-13T14:19:51Z</time>
      </trkpt>
      <trkpt lat="43.55797" lon="4.07021">
        <ele>7.83</ele>
        <time>2015-07-13T14:20:04Z</time>
      </trkpt>
      <trkpt lat="43.55795" lon="4.07068">
        <ele>7.83</ele>
        <time>2015-07-13T14:20:17Z</time>
      </trkpt>
      <trkpt lat="43.55793" lon="4.07115">
        <ele>7.83</ele>
        <time>2015-07-13T14:20:30Z</time>
      </trkpt>
      <trkpt lat="43.55804" lon="4.07139">
        <ele>7.83</ele>
        <time>2015-07-13T14:20:39Z</time>
      </trkpt>
      <trkpt lat="43.55805" lon="4.07174">
        <ele>7.83</ele>
        <time>2015-07-13T14:20:49Z</time>
      </trkpt>
      <trkpt lat="43.55799" lon="4.07216">
        <ele>8.31</ele>
        <time>2015-07-13T14:21:00Z</time>
      </trkpt>
      <trkpt lat="43.55799" lon="4.07256">
        <ele>8.31</ele>
        <time>2015-07-13T14:21:11Z</time>
      </trkpt>
      <trkpt lat="43.55797" lon="4.07297">
        <ele>8.31</ele>
        <time>2015-07-13T14:21:23Z</time>
      </trkpt>
      <trkpt lat="43.55793" lon="4.07336">
        <ele>7.83</ele>
        <time>2015-07-13T14:21:33Z</time>
      </trkpt>
      <trkpt lat="43.55789" lon="4.07393">
        <ele>7.83</ele>
        <time>2015-07-13T14:21:48Z</time>
      </trkpt>
      <trkpt lat="43.55787" lon="4.07435">
        <ele>7.83</ele>
        <time>2015-07-13T14:21:59Z</time>
      </trkpt>
      <trkpt lat="43.55787" lon="4.07474">
        <ele>8.31</ele>
        <time>2015-07-13T14:22:11Z</time>
      </trkpt>
      <trkpt lat="43.55802" lon="4.07509">
        <ele>8.31</ele>
        <time>2015-07-13T14:22:23Z</time>
      </trkpt>
      <trkpt lat="43.55798" lon="4.07529">
        <ele>8.31</ele>
        <time>2015-07-13T14:22:32Z</time>
      </trkpt>
      <trkpt lat="43.55796" lon="4.07532">
        <ele>8.31</ele>
        <time>2015-07-13T14:22:34Z</time>
      </trkpt>
      <trkpt lat="43.55795" lon="4.07534">
        <ele>8.31</ele>
        <time>2015-07-13T14:22:35Z</time>
      </trkpt>
      <trkpt lat="43.55795" lon="4.07536">
        <ele>8.31</ele>
        <time>2015-07-13T14:22:36Z</time>
      </trkpt>
      <trkpt lat="43.55796" lon="4.07539">
        <ele>8.31</ele>
        <time>2015-07-13T14:22:37Z</time>
      </trkpt>
      <trkpt lat="43.55796" lon="4.07542">
        <ele>7.83</ele>
        <time>2015-07-13T14:22:38Z</time>
      </trkpt>
      <trkpt lat="43.55797" lon="4.07545">
        <ele>7.83</ele>
        <time>2015-07-13T14:22:39Z</time>
      </trkpt>
      <trkpt lat="43.55797" lon="4.07548">
        <ele>7.35</ele>
        <time>2015-07-13T14:22:40Z</time>
      </trkpt>
      <trkpt lat="43.55798" lon="4.07551">
        <ele>7.83</ele>
        <time>2015-07-13T14:22:41Z</time>
      </trkpt>
      <trkpt lat="43.55799" lon="4.07552">
        <ele>7.83</ele>
        <time>2015-07-13T14:22:42Z</time>
      </trkpt>
      <trkpt lat="43.558" lon="4.07553">
        <ele>7.83</ele>
        <time>2015-07-13T14:22:43Z</time>
      </trkpt>
      <trkpt lat="43.55817" lon="4.07565">
        <ele>8.31</ele>
        <time>2015-07-13T14:22:54Z</time>
      </trkpt>
      <trkpt lat="43.55826" lon="4.0757">
        <ele>7.83</ele>
        <time>2015-07-13T14:23:01Z</time>
      </trkpt>
      <trkpt lat="43.55827" lon="4.07572">
        <ele>7.83</ele>
        <time>2015-07-13T14:23:02Z</time>
      </trkpt>
      <trkpt lat="43.55828" lon="4.07575">
        <ele>7.83</ele>
        <time>2015-07-13T14:23:03Z</time>
      </trkpt>
      <trkpt lat="43.55829" lon="4.07578">
        <ele>7.83</ele>
        <time>2015-07-13T14:23:04Z</time>
      </trkpt>
      <trkpt lat="43.55831" lon="4.07583">
        <ele>7.35</ele>
        <time>2015-07-13T14:23:05Z</time>
      </trkpt>
      <trkpt lat="43.55859" lon="4.07644">
        <ele>7.35</ele>
        <time>2015-07-13T14:23:18Z</time>
      </trkpt>
      <trkpt lat="43.55882" lon="4.07699">
        <ele>6.87</ele>
        <time>2015-07-13T14:23:30Z</time>
      </trkpt>
      <trkpt lat="43.55902" lon="4.07751">
        <ele>7.35</ele>
        <time>2015-07-13T14:23:41Z</time>
      </trkpt>
      <trkpt lat="43.55925" lon="4.07808">
        <ele>6.87</ele>
        <time>2015-07-13T14:23:54Z</time>
      </trkpt>
      <trkpt lat="43.55946" lon="4.07856">
        <ele>7.35</ele>
        <time>2015-07-13T14:24:06Z</time>
      </trkpt>
      <trkpt lat="43.5597" lon="4.07915">
        <ele>7.35</ele>
        <time>2015-07-13T14:24:19Z</time>
      </trkpt>
      <trkpt lat="43.55997" lon="4.07979">
        <ele>6.87</ele>
        <time>2015-07-13T14:24:33Z</time>
      </trkpt>
      <trkpt lat="43.56021" lon="4.08037">
        <ele>6.87</ele>
        <time>2015-07-13T14:24:46Z</time>
      </trkpt>
      <trkpt lat="43.56044" lon="4.08091">
        <ele>7.35</ele>
        <time>2015-07-13T14:24:59Z</time>
      </trkpt>
      <trkpt lat="43.56059" lon="4.08125">
        <ele>7.35</ele>
        <time>2015-07-13T14:25:08Z</time>
      </trkpt>
      <trkpt lat="43.56071" lon="4.08176">
        <ele>7.35</ele>
        <time>2015-07-13T14:25:19Z</time>
      </trkpt>
      <trkpt lat="43.56052" lon="4.08201">
        <ele>6.87</ele>
        <time>2015-07-13T14:25:27Z</time>
      </trkpt>
      <trkpt lat="43.56015" lon="4.08231">
        <ele>6.87</ele>
        <time>2015-07-13T14:25:39Z</time>
      </trkpt>
      <trkpt lat="43.56013" lon="4.08231">
        <ele>6.87</ele>
        <time>2015-07-13T14:25:40Z</time>
      </trkpt>
      <trkpt lat="43.56012" lon="4.08231">
        <ele>6.87</ele>
        <time>2015-07-13T14:25:41Z</time>
      </trkpt>
      <trkpt lat="43.56006" lon="4.08219">
        <ele>6.87</ele>
        <time>2015-07-13T14:25:47Z</time>
      </trkpt>
      <trkpt lat="43.55997" lon="4.08227">
        <ele>7.35</ele>
        <time>2015-07-13T14:25:51Z</time>
      </trkpt>
      <trkpt lat="43.55971" lon="4.08246">
        <ele>7.35</ele>
        <time>2015-07-13T14:26:02Z</time>
      </trkpt>
      <trkpt lat="43.55935" lon="4.08273">
        <ele>6.87</ele>
        <time>2015-07-13T14:26:15Z</time>
      </trkpt>
      <trkpt lat="43.55913" lon="4.0829">
        <ele>7.35</ele>
        <time>2015-07-13T14:26:23Z</time>
      </trkpt>
      <trkpt lat="43.55905" lon="4.08294">
        <ele>7.35</ele>
        <time>2015-07-13T14:26:26Z</time>
      </trkpt>
      <trkpt lat="43.55893" lon="4.08292">
        <ele>6.87</ele>
        <time>2015-07-13T14:26:32Z</time>
      </trkpt>
      <trkpt lat="43.55891" lon="4.08294">
        <ele>6.87</ele>
        <time>2015-07-13T14:26:33Z</time>
      </trkpt>
      <trkpt lat="43.55866" lon="4.08314">
        <ele>6.39</ele>
        <time>2015-07-13T14:26:43Z</time>
      </trkpt>
      <trkpt lat="43.55839" lon="4.08337">
        <ele>6.87</ele>
        <time>2015-07-13T14:26:53Z</time>
      </trkpt>
      <trkpt lat="43.55809" lon="4.08365">
        <ele>6.87</ele>
        <time>2015-07-13T14:27:05Z</time>
      </trkpt>
      <trkpt lat="43.55816" lon="4.08401">
        <ele>7.35</ele>
        <time>2015-07-13T14:27:14Z</time>
      </trkpt>
      <trkpt lat="43.55836" lon="4.08449">
        <ele>6.87</ele>
        <time>2015-07-13T14:27:27Z</time>
      </trkpt>
      <trkpt lat="43.55839" lon="4.08466">
        <ele>7.35</ele>
        <time>2015-07-13T14:27:32Z</time>
      </trkpt>
      <trkpt lat="43.5582" lon="4.08479">
        <ele>6.39</ele>
        <time>2015-07-13T14:27:39Z</time>
      </trkpt>
      <trkpt lat="43.55779" lon="4.08509">
        <ele>6.87</ele>
        <time>2015-07-13T14:27:52Z</time>
      </trkpt>
      <trkpt lat="43.55737" lon="4.08544">
        <ele>6.87</ele>
        <time>2015-07-13T14:28:07Z</time>
      </trkpt>
      <trkpt lat="43.55706" lon="4.08551">
        <ele>6.87</ele>
        <time>2015-07-13T14:28:17Z</time>
      </trkpt>
      <trkpt lat="43.55661" lon="4.08543">
        <ele>7.35</ele>
        <time>2015-07-13T14:28:31Z</time>
      </trkpt>
      <trkpt lat="43.55638" lon="4.08543">
        <ele>7.83</ele>
        <time>2015-07-13T14:28:40Z</time>
      </trkpt>
      <trkpt lat="43.5563" lon="4.08546">
        <ele>8.31</ele>
        <time>2015-07-13T14:28:44Z</time>
      </trkpt>
      <trkpt lat="43.55624" lon="4.08548">
        <ele>7.35</ele>
        <time>2015-07-13T14:28:49Z</time>
      </trkpt>
      <trkpt lat="43.55617" lon="4.08547">
        <ele>7.35</ele>
        <time>2015-07-13T14:28:53Z</time>
      </trkpt>
      <trkpt lat="43.55622" lon="4.08566">
        <ele>8.31</ele>
        <time>2015-07-13T14:29:00Z</time>
      </trkpt>
      <trkpt lat="43.5564" lon="4.08611">
        <ele>8.31</ele>
        <time>2015-07-13T14:29:15Z</time>
      </trkpt>
      <trkpt lat="43.5565" lon="4.08635">
        <ele>7.83</ele>
        <time>2015-07-13T14:29:24Z</time>
      </trkpt>
      <trkpt lat="43.55654" lon="4.08662">
        <ele>7.83</ele>
        <time>2015-07-13T14:29:33Z</time>
      </trkpt>
      <trkpt lat="43.55672" lon="4.08707">
        <ele>8.31</ele>
        <time>2015-07-13T14:29:46Z</time>
      </trkpt>
      <trkpt lat="43.55677" lon="4.08748">
        <ele>8.31</ele>
        <time>2015-07-13T14:29:57Z</time>
      </trkpt>
      <trkpt lat="43.55671" lon="4.08794">
        <ele>8.31</ele>
        <time>2015-07-13T14:30:09Z</time>
      </trkpt>
      <trkpt lat="43.55666" lon="4.08841">
        <ele>8.79</ele>
        <time>2015-07-13T14:30:21Z</time>
      </trkpt>
      <trkpt lat="43.55652" lon="4.08881">
        <ele>8.31</ele>
        <time>2015-07-13T14:30:32Z</time>
      </trkpt>
      <trkpt lat="43.55658" lon="4.08923">
        <ele>8.31</ele>
        <time>2015-07-13T14:30:42Z</time>
      </trkpt>
      <trkpt lat="43.55659" lon="4.08937">
        <ele>8.31</ele>
        <time>2015-07-13T14:30:50Z</time>
      </trkpt>
      <trkpt lat="43.55659" lon="4.08938">
        <ele>8.79</ele>
        <time>2015-07-13T14:31:02Z</time>
      </trkpt>
      <trkpt lat="43.55658" lon="4.0894">
        <ele>8.31</ele>
        <time>2015-07-13T14:31:24Z</time>
      </trkpt>
      <trkpt lat="43.55658" lon="4.0894">
        <ele>8.31</ele>
        <time>2015-07-13T14:31:42Z</time>
      </trkpt>
      <trkpt lat="43.55658" lon="4.08939">
        <ele>8.31</ele>
        <time>2015-07-13T14:32:15Z</time>
      </trkpt>
      <trkpt lat="43.55659" lon="4.08939">
        <ele>8.31</ele>
        <time>2015-07-13T14:32:37Z</time>
      </trkpt>
      <trkpt lat="43.55657" lon="4.08946">
        <ele>8.79</ele>
        <time>2015-07-13T14:32:53Z</time>
      </trkpt>
      <trkpt lat="43.55657" lon="4.08949">
        <ele>8.31</ele>
        <time>2015-07-13T14:33:07Z</time>
      </trkpt>
      <trkpt lat="43.55657" lon="4.08955">
        <ele>8.79</ele>
        <time>2015-07-13T14:33:24Z</time>
      </trkpt>
      <trkpt lat="43.55658" lon="4.08961">
        <ele>8.79</ele>
        <time>2015-07-13T14:33:37Z</time>
      </trkpt>
      <trkpt lat="43.55658" lon="4.08966">
        <ele>8.31</ele>
        <time>2015-07-13T14:33:59Z</time>
      </trkpt>
      <trkpt lat="43.55657" lon="4.08979">
        <ele>8.31</ele>
        <time>2015-07-13T14:34:09Z</time>
      </trkpt>
      <trkpt lat="43.55656" lon="4.08985">
        <ele>8.79</ele>
        <time>2015-07-13T14:34:12Z</time>
      </trkpt>
      <trkpt lat="43.55653" lon="4.08995">
        <ele>7.83</ele>
        <time>2015-07-13T14:34:17Z</time>
      </trkpt>
      <trkpt lat="43.55648" lon="4.09023">
        <ele>8.31</ele>
        <time>2015-07-13T14:34:30Z</time>
      </trkpt>
      <trkpt lat="43.55646" lon="4.09058">
        <ele>8.79</ele>
        <time>2015-07-13T14:34:42Z</time>
      </trkpt>
      <trkpt lat="43.55642" lon="4.091">
        <ele>8.79</ele>
        <time>2015-07-13T14:34:55Z</time>
      </trkpt>
      <trkpt lat="43.55641" lon="4.0914">
        <ele>9.27</ele>
        <time>2015-07-13T14:35:08Z</time>
      </trkpt>
      <trkpt lat="43.55627" lon="4.09161">
        <ele>8.79</ele>
        <time>2015-07-13T14:35:17Z</time>
      </trkpt>
      <trkpt lat="43.55623" lon="4.09169">
        <ele>9.27</ele>
        <time>2015-07-13T14:35:20Z</time>
      </trkpt>
      <trkpt lat="43.55625" lon="4.09182">
        <ele>9.27</ele>
        <time>2015-07-13T14:35:24Z</time>
      </trkpt>
      <trkpt lat="43.55627" lon="4.0922">
        <ele>8.79</ele>
        <time>2015-07-13T14:35:35Z</time>
      </trkpt>
      <trkpt lat="43.55619" lon="4.09266">
        <ele>8.79</ele>
        <time>2015-07-13T14:35:48Z</time>
      </trkpt>
      <trkpt lat="43.55609" lon="4.09299">
        <ele>8.79</ele>
        <time>2015-07-13T14:35:58Z</time>
      </trkpt>
      <trkpt lat="43.55599" lon="4.09346">
        <ele>9.27</ele>
        <time>2015-07-13T14:36:10Z</time>
      </trkpt>
      <trkpt lat="43.55598" lon="4.0939">
        <ele>8.79</ele>
        <time>2015-07-13T14:36:21Z</time>
      </trkpt>
      <trkpt lat="43.55587" lon="4.09443">
        <ele>8.79</ele>
        <time>2015-07-13T14:36:34Z</time>
      </trkpt>
      <trkpt lat="43.55579" lon="4.09493">
        <ele>8.79</ele>
        <time>2015-07-13T14:36:47Z</time>
      </trkpt>
      <trkpt lat="43.55569" lon="4.09538">
        <ele>8.31</ele>
        <time>2015-07-13T14:36:59Z</time>
      </trkpt>
      <trkpt lat="43.5556" lon="4.09583">
        <ele>8.79</ele>
        <time>2015-07-13T14:37:11Z</time>
      </trkpt>
      <trkpt lat="43.55549" lon="4.09637">
        <ele>8.79</ele>
        <time>2015-07-13T14:37:25Z</time>
      </trkpt>
      <trkpt lat="43.55539" lon="4.09677">
        <ele>8.79</ele>
        <time>2015-07-13T14:37:36Z</time>
      </trkpt>
      <trkpt lat="43.55529" lon="4.0973">
        <ele>8.79</ele>
        <time>2015-07-13T14:37:49Z</time>
      </trkpt>
      <trkpt lat="43.55526" lon="4.09772">
        <ele>8.79</ele>
        <time>2015-07-13T14:38:00Z</time>
      </trkpt>
      <trkpt lat="43.55521" lon="4.09812">
        <ele>8.79</ele>
        <time>2015-07-13T14:38:11Z</time>
      </trkpt>
      <trkpt lat="43.55509" lon="4.09876">
        <ele>8.79</ele>
        <time>2015-07-13T14:38:26Z</time>
      </trkpt>
      <trkpt lat="43.55501" lon="4.09925">
        <ele>8.79</ele>
        <time>2015-07-13T14:38:37Z</time>
      </trkpt>
      <trkpt lat="43.55494" lon="4.09968">
        <ele>8.79</ele>
        <time>2015-07-13T14:38:49Z</time>
      </trkpt>
      <trkpt lat="43.55492" lon="4.09978">
        <ele>8.79</ele>
        <time>2015-07-13T14:38:52Z</time>
      </trkpt>
      <trkpt lat="43.55515" lon="4.09998">
        <ele>8.79</ele>
        <time>2015-07-13T14:39:02Z</time>
      </trkpt>
      <trkpt lat="43.55557" lon="4.10027">
        <ele>8.31</ele>
        <time>2015-07-13T14:39:16Z</time>
      </trkpt>
      <trkpt lat="43.556" lon="4.10053">
        <ele>8.79</ele>
        <time>2015-07-13T14:39:32Z</time>
      </trkpt>
      <trkpt lat="43.55615" lon="4.10067">
        <ele>8.79</ele>
        <time>2015-07-13T14:39:40Z</time>
      </trkpt>
      <trkpt lat="43.55623" lon="4.10062">
        <ele>9.27</ele>
        <time>2015-07-13T14:39:48Z</time>
      </trkpt>
      <trkpt lat="43.55632" lon="4.10036">
        <ele>9.27</ele>
        <time>2015-07-13T14:39:59Z</time>
      </trkpt>
      <trkpt lat="43.55638" lon="4.10022">
        <ele>9.27</ele>
        <time>2015-07-13T14:40:04Z</time>
      </trkpt>
      <trkpt lat="43.55647" lon="4.10021">
        <ele>10.23</ele>
        <time>2015-07-13T14:40:09Z</time>
      </trkpt>
      <trkpt lat="43.55657" lon="4.10027">
        <ele>9.75</ele>
        <time>2015-07-13T14:40:17Z</time>
      </trkpt>
      <trkpt lat="43.55657" lon="4.10036">
        <ele>10.23</ele>
        <time>2015-07-13T14:40:23Z</time>
      </trkpt>
      <trkpt lat="43.5564" lon="4.10087">
        <ele>9.75</ele>
        <time>2015-07-13T14:40:36Z</time>
      </trkpt>
      <trkpt lat="43.55622" lon="4.10146">
        <ele>9.75</ele>
        <time>2015-07-13T14:40:51Z</time>
      </trkpt>
      <trkpt lat="43.55599" lon="4.10216">
        <ele>9.75</ele>
        <time>2015-07-13T14:41:07Z</time>
      </trkpt>
      <trkpt lat="43.5558" lon="4.10276">
        <ele>8.79</ele>
        <time>2015-07-13T14:41:20Z</time>
      </trkpt>
      <trkpt lat="43.55577" lon="4.10287">
        <ele>9.27</ele>
        <time>2015-07-13T14:41:22Z</time>
      </trkpt>
      <trkpt lat="43.55576" lon="4.10293">
        <ele>8.79</ele>
        <time>2015-07-13T14:41:23Z</time>
      </trkpt>
      <trkpt lat="43.55562" lon="4.10339">
        <ele>8.31</ele>
        <time>2015-07-13T14:41:34Z</time>
      </trkpt>
      <trkpt lat="43.55544" lon="4.10393">
        <ele>8.31</ele>
        <time>2015-07-13T14:41:46Z</time>
      </trkpt>
      <trkpt lat="43.55525" lon="4.10458">
        <ele>7.35</ele>
        <time>2015-07-13T14:42:00Z</time>
      </trkpt>
      <trkpt lat="43.55511" lon="4.10514">
        <ele>7.35</ele>
        <time>2015-07-13T14:42:12Z</time>
      </trkpt>
      <trkpt lat="43.55488" lon="4.10587">
        <ele>7.83</ele>
        <time>2015-07-13T14:42:27Z</time>
      </trkpt>
      <trkpt lat="43.55468" lon="4.10648">
        <ele>7.83</ele>
        <time>2015-07-13T14:42:40Z</time>
      </trkpt>
      <trkpt lat="43.55451" lon="4.10703">
        <ele>7.83</ele>
        <time>2015-07-13T14:42:51Z</time>
      </trkpt>
      <trkpt lat="43.55431" lon="4.10766">
        <ele>7.35</ele>
        <time>2015-07-13T14:43:04Z</time>
      </trkpt>
      <trkpt lat="43.55412" lon="4.10825">
        <ele>7.35</ele>
        <time>2015-07-13T14:43:17Z</time>
      </trkpt>
      <trkpt lat="43.55391" lon="4.10894">
        <ele>7.35</ele>
        <time>2015-07-13T14:43:31Z</time>
      </trkpt>
      <trkpt lat="43.55389" lon="4.10898">
        <ele>7.35</ele>
        <time>2015-07-13T14:43:32Z</time>
      </trkpt>
      <trkpt lat="43.55387" lon="4.10903">
        <ele>7.35</ele>
        <time>2015-07-13T14:43:33Z</time>
      </trkpt>
      <trkpt lat="43.55364" lon="4.10985">
        <ele>6.87</ele>
        <time>2015-07-13T14:43:49Z</time>
      </trkpt>
      <trkpt lat="43.55345" lon="4.11046">
        <ele>7.35</ele>
        <time>2015-07-13T14:44:02Z</time>
      </trkpt>
      <trkpt lat="43.55325" lon="4.11116">
        <ele>7.35</ele>
        <time>2015-07-13T14:44:17Z</time>
      </trkpt>
      <trkpt lat="43.55306" lon="4.11179">
        <ele>7.35</ele>
        <time>2015-07-13T14:44:31Z</time>
      </trkpt>
      <trkpt lat="43.5529" lon="4.1123">
        <ele>7.35</ele>
        <time>2015-07-13T14:44:43Z</time>
      </trkpt>
      <trkpt lat="43.55272" lon="4.11289">
        <ele>7.35</ele>
        <time>2015-07-13T14:44:56Z</time>
      </trkpt>
      <trkpt lat="43.55253" lon="4.11348">
        <ele>7.35</ele>
        <time>2015-07-13T14:45:08Z</time>
      </trkpt>
      <trkpt lat="43.55238" lon="4.11381">
        <ele>6.87</ele>
        <time>2015-07-13T14:45:18Z</time>
      </trkpt>
      <trkpt lat="43.55228" lon="4.11412">
        <ele>7.35</ele>
        <time>2015-07-13T14:45:27Z</time>
      </trkpt>
      <trkpt lat="43.55208" lon="4.11468">
        <ele>7.35</ele>
        <time>2015-07-13T14:45:40Z</time>
      </trkpt>
      <trkpt lat="43.55189" lon="4.11525">
        <ele>7.35</ele>
        <time>2015-07-13T14:45:53Z</time>
      </trkpt>
      <trkpt lat="43.55172" lon="4.11582">
        <ele>7.35</ele>
        <time>2015-07-13T14:46:05Z</time>
      </trkpt>
      <trkpt lat="43.55158" lon="4.11628">
        <ele>6.87</ele>
        <time>2015-07-13T14:46:15Z</time>
      </trkpt>
      <trkpt lat="43.55144" lon="4.11674">
        <ele>7.83</ele>
        <time>2015-07-13T14:46:26Z</time>
      </trkpt>
      <trkpt lat="43.5513" lon="4.11713">
        <ele>7.83</ele>
        <time>2015-07-13T14:46:36Z</time>
      </trkpt>
      <trkpt lat="43.55106" lon="4.11755">
        <ele>7.83</ele>
        <time>2015-07-13T14:46:47Z</time>
      </trkpt>
      <trkpt lat="43.5508" lon="4.11773">
        <ele>7.83</ele>
        <time>2015-07-13T14:46:56Z</time>
      </trkpt>
      <trkpt lat="43.55077" lon="4.11785">
        <ele>7.83</ele>
        <time>2015-07-13T14:47:00Z</time>
      </trkpt>
      <trkpt lat="43.55078" lon="4.11789">
        <ele>7.35</ele>
        <time>2015-07-13T14:47:01Z</time>
      </trkpt>
      <trkpt lat="43.55079" lon="4.11792">
        <ele>7.35</ele>
        <time>2015-07-13T14:47:02Z</time>
      </trkpt>
      <trkpt lat="43.55087" lon="4.11821">
        <ele>7.35</ele>
        <time>2015-07-13T14:47:11Z</time>
      </trkpt>
      <trkpt lat="43.55083" lon="4.11861">
        <ele>7.35</ele>
        <time>2015-07-13T14:47:20Z</time>
      </trkpt>
      <trkpt lat="43.55067" lon="4.1192">
        <ele>7.83</ele>
        <time>2015-07-13T14:47:33Z</time>
      </trkpt>
      <trkpt lat="43.55046" lon="4.11992">
        <ele>7.83</ele>
        <time>2015-07-13T14:47:49Z</time>
      </trkpt>
      <trkpt lat="43.5503" lon="4.12054">
        <ele>7.83</ele>
        <time>2015-07-13T14:48:02Z</time>
      </trkpt>
      <trkpt lat="43.55021" lon="4.12101">
        <ele>8.31</ele>
        <time>2015-07-13T14:48:12Z</time>
      </trkpt>
      <trkpt lat="43.54994" lon="4.12141">
        <ele>7.83</ele>
        <time>2015-07-13T14:48:23Z</time>
      </trkpt>
      <trkpt lat="43.54968" lon="4.12183">
        <ele>7.83</ele>
        <time>2015-07-13T14:48:36Z</time>
      </trkpt>
      <trkpt lat="43.54934" lon="4.12225">
        <ele>7.83</ele>
        <time>2015-07-13T14:48:51Z</time>
      </trkpt>
      <trkpt lat="43.54899" lon="4.12256">
        <ele>7.83</ele>
        <time>2015-07-13T14:49:04Z</time>
      </trkpt>
      <trkpt lat="43.54858" lon="4.12282">
        <ele>8.31</ele>
        <time>2015-07-13T14:49:17Z</time>
      </trkpt>
      <trkpt lat="43.5482" lon="4.12303">
        <ele>7.83</ele>
        <time>2015-07-13T14:49:29Z</time>
      </trkpt>
      <trkpt lat="43.54788" lon="4.12321">
        <ele>8.79</ele>
        <time>2015-07-13T14:49:39Z</time>
      </trkpt>
      <trkpt lat="43.54747" lon="4.12347">
        <ele>8.79</ele>
        <time>2015-07-13T14:49:52Z</time>
      </trkpt>
      <trkpt lat="43.54709" lon="4.12379">
        <ele>8.79</ele>
        <time>2015-07-13T14:50:04Z</time>
      </trkpt>
      <trkpt lat="43.54674" lon="4.12415">
        <ele>8.31</ele>
        <time>2015-07-13T14:50:15Z</time>
      </trkpt>
      <trkpt lat="43.54639" lon="4.12472">
        <ele>7.83</ele>
        <time>2015-07-13T14:50:29Z</time>
      </trkpt>
      <trkpt lat="43.54614" lon="4.12519">
        <ele>7.35</ele>
        <time>2015-07-13T14:50:40Z</time>
      </trkpt>
      <trkpt lat="43.54587" lon="4.12572">
        <ele>7.83</ele>
        <time>2015-07-13T14:50:52Z</time>
      </trkpt>
      <trkpt lat="43.54555" lon="4.12631">
        <ele>7.83</ele>
        <time>2015-07-13T14:51:06Z</time>
      </trkpt>
      <trkpt lat="43.54526" lon="4.12672">
        <ele>7.83</ele>
        <time>2015-07-13T14:51:19Z</time>
      </trkpt>
      <trkpt lat="43.54493" lon="4.12723">
        <ele>7.35</ele>
        <time>2015-07-13T14:51:33Z</time>
      </trkpt>
      <trkpt lat="43.54461" lon="4.12774">
        <ele>7.83</ele>
        <time>2015-07-13T14:51:46Z</time>
      </trkpt>
      <trkpt lat="43.54426" lon="4.1283">
        <ele>8.31</ele>
        <time>2015-07-13T14:52:00Z</time>
      </trkpt>
      <trkpt lat="43.54396" lon="4.12877">
        <ele>7.35</ele>
        <time>2015-07-13T14:52:12Z</time>
      </trkpt>
      <trkpt lat="43.54359" lon="4.12937">
        <ele>8.31</ele>
        <time>2015-07-13T14:52:26Z</time>
      </trkpt>
      <trkpt lat="43.54356" lon="4.12941">
        <ele>8.31</ele>
        <time>2015-07-13T14:52:27Z</time>
      </trkpt>
      <trkpt lat="43.54314" lon="4.13001">
        <ele>7.35</ele>
        <time>2015-07-13T14:52:42Z</time>
      </trkpt>
      <trkpt lat="43.54291" lon="4.13031">
        <ele>6.87</ele>
        <time>2015-07-13T14:52:51Z</time>
      </trkpt>
      <trkpt lat="43.54252" lon="4.13082">
        <ele>7.83</ele>
        <time>2015-07-13T14:53:05Z</time>
      </trkpt>
      <trkpt lat="43.5421" lon="4.13137">
        <ele>7.35</ele>
        <time>2015-07-13T14:53:20Z</time>
      </trkpt>
      <trkpt lat="43.54178" lon="4.13179">
        <ele>7.83</ele>
        <time>2015-07-13T14:53:32Z</time>
      </trkpt>
      <trkpt lat="43.54153" lon="4.13215">
        <ele>7.35</ele>
        <time>2015-07-13T14:53:42Z</time>
      </trkpt>
      <trkpt lat="43.54127" lon="4.13257">
        <ele>7.83</ele>
        <time>2015-07-13T14:53:53Z</time>
      </trkpt>
      <trkpt lat="43.541" lon="4.13303">
        <ele>7.83</ele>
        <time>2015-07-13T14:54:04Z</time>
      </trkpt>
      <trkpt lat="43.54075" lon="4.13344">
        <ele>7.83</ele>
        <time>2015-07-13T14:54:16Z</time>
      </trkpt>
      <trkpt lat="43.54041" lon="4.13377">
        <ele>7.83</ele>
        <time>2015-07-13T14:54:28Z</time>
      </trkpt>
      <trkpt lat="43.54007" lon="4.13414">
        <ele>7.83</ele>
        <time>2015-07-13T14:54:39Z</time>
      </trkpt>
      <trkpt lat="43.54003" lon="4.13415">
        <ele>7.83</ele>
        <time>2015-07-13T14:54:40Z</time>
      </trkpt>
      <trkpt lat="43.53973" lon="4.13427">
        <ele>7.35</ele>
        <time>2015-07-13T14:54:50Z</time>
      </trkpt>
      <trkpt lat="43.5397" lon="4.13428">
        <ele>7.83</ele>
        <time>2015-07-13T14:54:51Z</time>
      </trkpt>
      <trkpt lat="43.53968" lon="4.13427">
        <ele>7.83</ele>
        <time>2015-07-13T14:54:52Z</time>
      </trkpt>
      <trkpt lat="43.53966" lon="4.13423">
        <ele>7.83</ele>
        <time>2015-07-13T14:54:53Z</time>
      </trkpt>
      <trkpt lat="43.53964" lon="4.13419">
        <ele>8.31</ele>
        <time>2015-07-13T14:54:54Z</time>
      </trkpt>
      <trkpt lat="43.53963" lon="4.13415">
        <ele>8.31</ele>
        <time>2015-07-13T14:54:55Z</time>
      </trkpt>
      <trkpt lat="43.53962" lon="4.13411">
        <ele>8.79</ele>
        <time>2015-07-13T14:54:56Z</time>
      </trkpt>
      <trkpt lat="43.5395" lon="4.13385">
        <ele>7.83</ele>
        <time>2015-07-13T14:55:03Z</time>
      </trkpt>
      <trkpt lat="43.53949" lon="4.13382">
        <ele>8.31</ele>
        <time>2015-07-13T14:55:04Z</time>
      </trkpt>
      <trkpt lat="43.5394" lon="4.13365">
        <ele>8.31</ele>
        <time>2015-07-13T14:55:09Z</time>
      </trkpt>
      <trkpt lat="43.53936" lon="4.13365">
        <ele>8.31</ele>
        <time>2015-07-13T14:55:10Z</time>
      </trkpt>
      <trkpt lat="43.53933" lon="4.13366">
        <ele>8.31</ele>
        <time>2015-07-13T14:55:11Z</time>
      </trkpt>
      <trkpt lat="43.53894" lon="4.13378">
        <ele>8.79</ele>
        <time>2015-07-13T14:55:22Z</time>
      </trkpt>
      <trkpt lat="43.5385" lon="4.13393">
        <ele>8.79</ele>
        <time>2015-07-13T14:55:34Z</time>
      </trkpt>
      <trkpt lat="43.53803" lon="4.13414">
        <ele>9.27</ele>
        <time>2015-07-13T14:55:47Z</time>
      </trkpt>
      <trkpt lat="43.5376" lon="4.13432">
        <ele>9.27</ele>
        <time>2015-07-13T14:55:59Z</time>
      </trkpt>
      <trkpt lat="43.53728" lon="4.13452">
        <ele>9.75</ele>
        <time>2015-07-13T14:56:10Z</time>
      </trkpt>
      <trkpt lat="43.53711" lon="4.13464">
        <ele>8.79</ele>
        <time>2015-07-13T14:56:20Z</time>
      </trkpt>
      <trkpt lat="43.53709" lon="4.13462">
        <ele>9.27</ele>
        <time>2015-07-13T14:56:21Z</time>
      </trkpt>
      <trkpt lat="43.53708" lon="4.1346">
        <ele>9.27</ele>
        <time>2015-07-13T14:56:22Z</time>
      </trkpt>
      <trkpt lat="43.53703" lon="4.13452">
        <ele>4.94</ele>
        <time>2015-07-13T14:56:26Z</time>
      </trkpt>
      <trkpt lat="43.53702" lon="4.13448">
        <ele>9.27</ele>
        <time>2015-07-13T14:56:27Z</time>
      </trkpt>
      <trkpt lat="43.53683" lon="4.13415">
        <ele>6.39</ele>
        <time>2015-07-13T14:56:35Z</time>
      </trkpt>
      <trkpt lat="43.53679" lon="4.13414">
        <ele>6.39</ele>
        <time>2015-07-13T14:56:36Z</time>
      </trkpt>
      <trkpt lat="43.53675" lon="4.13413">
        <ele>6.39</ele>
        <time>2015-07-13T14:56:37Z</time>
      </trkpt>
      <trkpt lat="43.53672" lon="4.13413">
        <ele>6.39</ele>
        <time>2015-07-13T14:56:38Z</time>
      </trkpt>
      <trkpt lat="43.53668" lon="4.13414">
        <ele>6.87</ele>
        <time>2015-07-13T14:56:39Z</time>
      </trkpt>
      <trkpt lat="43.53664" lon="4.13415">
        <ele>6.87</ele>
        <time>2015-07-13T14:56:40Z</time>
      </trkpt>
      <trkpt lat="43.53661" lon="4.13417">
        <ele>6.39</ele>
        <time>2015-07-13T14:56:41Z</time>
      </trkpt>
      <trkpt lat="43.53636" lon="4.13427">
        <ele>6.87</ele>
        <time>2015-07-13T14:56:50Z</time>
      </trkpt>
      <trkpt lat="43.53634" lon="4.13429">
        <ele>6.87</ele>
        <time>2015-07-13T14:56:51Z</time>
      </trkpt>
      <trkpt lat="43.53634" lon="4.13432">
        <ele>6.87</ele>
        <time>2015-07-13T14:56:52Z</time>
      </trkpt>
      <trkpt lat="43.53634" lon="4.13435">
        <ele>6.87</ele>
        <time>2015-07-13T14:56:53Z</time>
      </trkpt>
      <trkpt lat="43.53634" lon="4.13437">
        <ele>6.87</ele>
        <time>2015-07-13T14:56:54Z</time>
      </trkpt>
      <trkpt lat="43.53635" lon="4.13439">
        <ele>7.35</ele>
        <time>2015-07-13T14:56:55Z</time>
      </trkpt>
      <trkpt lat="43.53636" lon="4.1344">
        <ele>6.87</ele>
        <time>2015-07-13T14:56:56Z</time>
      </trkpt>
      <trkpt lat="43.53636" lon="4.13441">
        <ele>6.87</ele>
        <time>2015-07-13T14:56:57Z</time>
      </trkpt>
      <trkpt lat="43.53637" lon="4.13443">
        <ele>6.87</ele>
        <time>2015-07-13T14:56:58Z</time>
      </trkpt>
      <trkpt lat="43.53637" lon="4.13445">
        <ele>7.35</ele>
        <time>2015-07-13T14:56:59Z</time>
      </trkpt>
      <trkpt lat="43.53638" lon="4.13446">
        <ele>6.87</ele>
        <time>2015-07-13T14:57:00Z</time>
      </trkpt>
      <trkpt lat="43.53646" lon="4.1346">
        <ele>6.87</ele>
        <time>2015-07-13T14:57:10Z</time>
      </trkpt>
      <trkpt lat="43.53652" lon="4.13476">
        <ele>7.35</ele>
        <time>2015-07-13T14:57:20Z</time>
      </trkpt>
      <trkpt lat="43.53662" lon="4.13496">
        <ele>6.87</ele>
        <time>2015-07-13T14:57:31Z</time>
      </trkpt>
      <trkpt lat="43.53678" lon="4.13526">
        <ele>7.35</ele>
        <time>2015-07-13T14:57:41Z</time>
      </trkpt>
      <trkpt lat="43.53683" lon="4.13535">
        <ele>7.35</ele>
        <time>2015-07-13T14:57:43Z</time>
      </trkpt>
      <trkpt lat="43.53705" lon="4.13582">
        <ele>7.35</ele>
        <time>2015-07-13T14:57:55Z</time>
      </trkpt>
      <trkpt lat="43.53721" lon="4.13616">
        <ele>6.87</ele>
        <time>2015-07-13T14:58:08Z</time>
      </trkpt>
      <trkpt lat="43.53735" lon="4.13646">
        <ele>7.35</ele>
        <time>2015-07-13T14:58:21Z</time>
      </trkpt>
      <trkpt lat="43.53745" lon="4.13666">
        <ele>6.39</ele>
        <time>2015-07-13T14:58:31Z</time>
      </trkpt>
      <trkpt lat="43.53754" lon="4.13682">
        <ele>6.87</ele>
        <time>2015-07-13T14:58:42Z</time>
      </trkpt>
      <trkpt lat="43.53762" lon="4.13699">
        <ele>7.35</ele>
        <time>2015-07-13T14:58:53Z</time>
      </trkpt>
      <trkpt lat="43.53766" lon="4.13706">
        <ele>6.87</ele>
        <time>2015-07-13T14:58:57Z</time>
      </trkpt>
      <trkpt lat="43.53768" lon="4.13711">
        <ele>7.35</ele>
        <time>2015-07-13T14:59:01Z</time>
      </trkpt>
      <trkpt lat="43.53769" lon="4.13714">
        <ele>6.87</ele>
        <time>2015-07-13T14:59:13Z</time>
      </trkpt>
      <trkpt lat="43.53767" lon="4.13715">
        <ele>7.35</ele>
        <time>2015-07-13T14:59:30Z</time>
      </trkpt>
      <trkpt lat="43.53767" lon="4.13716">
        <ele>6.87</ele>
        <time>2015-07-13T14:59:49Z</time>
      </trkpt>
      <trkpt lat="43.53766" lon="4.13716">
        <ele>7.35</ele>
        <time>2015-07-13T15:00:04Z</time>
      </trkpt>
      <trkpt lat="43.53767" lon="4.13716">
        <ele>7.35</ele>
        <time>2015-07-13T15:00:26Z</time>
      </trkpt>
      <trkpt lat="43.53768" lon="4.13718">
        <ele>7.83</ele>
        <time>2015-07-13T15:00:43Z</time>
      </trkpt>
      <trkpt lat="43.53766" lon="4.13724">
        <ele>7.35</ele>
        <time>2015-07-13T15:00:56Z</time>
      </trkpt>
      <trkpt lat="43.53764" lon="4.13726">
        <ele>7.35</ele>
        <time>2015-07-13T15:00:59Z</time>
      </trkpt>
      <trkpt lat="43.53763" lon="4.13728">
        <ele>7.35</ele>
        <time>2015-07-13T15:01:00Z</time>
      </trkpt>
      <trkpt lat="43.53753" lon="4.13738">
        <ele>7.35</ele>
        <time>2015-07-13T15:01:10Z</time>
      </trkpt>
      <trkpt lat="43.53748" lon="4.13744">
        <ele>7.83</ele>
        <time>2015-07-13T15:01:22Z</time>
      </trkpt>
      <trkpt lat="43.53746" lon="4.13746">
        <ele>7.83</ele>
        <time>2015-07-13T15:01:29Z</time>
      </trkpt>
      <trkpt lat="43.53745" lon="4.13747">
        <ele>7.83</ele>
        <time>2015-07-13T15:01:30Z</time>
      </trkpt>
      <trkpt lat="43.53744" lon="4.13748">
        <ele>7.83</ele>
        <time>2015-07-13T15:01:31Z</time>
      </trkpt>
      <trkpt lat="43.53742" lon="4.13749">
        <ele>7.35</ele>
        <time>2015-07-13T15:01:32Z</time>
      </trkpt>
      <trkpt lat="43.53741" lon="4.13751">
        <ele>7.83</ele>
        <time>2015-07-13T15:01:33Z</time>
      </trkpt>
      <trkpt lat="43.53717" lon="4.13771">
        <ele>7.35</ele>
        <time>2015-07-13T15:01:45Z</time>
      </trkpt>
      <trkpt lat="43.53688" lon="4.13788">
        <ele>6.87</ele>
        <time>2015-07-13T15:01:56Z</time>
      </trkpt>
      <trkpt lat="43.53665" lon="4.13807">
        <ele>6.39</ele>
        <time>2015-07-13T15:02:08Z</time>
      </trkpt>
      <trkpt lat="43.53642" lon="4.13829">
        <ele>6.87</ele>
        <time>2015-07-13T15:02:18Z</time>
      </trkpt>
      <trkpt lat="43.53648" lon="4.13862">
        <ele>6.87</ele>
        <time>2015-07-13T15:02:26Z</time>
      </trkpt>
      <trkpt lat="43.5367" lon="4.13905">
        <ele>6.87</ele>
        <time>2015-07-13T15:02:37Z</time>
      </trkpt>
      <trkpt lat="43.53695" lon="4.13946">
        <ele>6.39</ele>
        <time>2015-07-13T15:02:48Z</time>
      </trkpt>
      <trkpt lat="43.53729" lon="4.13981">
        <ele>5.91</ele>
        <time>2015-07-13T15:02:59Z</time>
      </trkpt>
      <trkpt lat="43.5374" lon="4.14011">
        <ele>6.39</ele>
        <time>2015-07-13T15:03:07Z</time>
      </trkpt>
      <trkpt lat="43.53766" lon="4.14065">
        <ele>6.87</ele>
        <time>2015-07-13T15:03:20Z</time>
      </trkpt>
      <trkpt lat="43.5379" lon="4.14114">
        <ele>6.87</ele>
        <time>2015-07-13T15:03:32Z</time>
      </trkpt>
      <trkpt lat="43.53818" lon="4.14176">
        <ele>6.87</ele>
        <time>2015-07-13T15:03:46Z</time>
      </trkpt>
      <trkpt lat="43.53836" lon="4.14229">
        <ele>6.87</ele>
        <time>2015-07-13T15:03:58Z</time>
      </trkpt>
      <trkpt lat="43.53861" lon="4.14266">
        <ele>7.35</ele>
        <time>2015-07-13T15:04:08Z</time>
      </trkpt>
      <trkpt lat="43.53865" lon="4.14268">
        <ele>7.35</ele>
        <time>2015-07-13T15:04:09Z</time>
      </trkpt>
      <trkpt lat="43.53869" lon="4.1427">
        <ele>7.35</ele>
        <time>2015-07-13T15:04:10Z</time>
      </trkpt>
      <trkpt lat="43.53872" lon="4.14271">
        <ele>6.87</ele>
        <time>2015-07-13T15:04:11Z</time>
      </trkpt>
      <trkpt lat="43.53903" lon="4.14258">
        <ele>7.35</ele>
        <time>2015-07-13T15:04:20Z</time>
      </trkpt>
      <trkpt lat="43.53924" lon="4.14212">
        <ele>7.35</ele>
        <time>2015-07-13T15:04:32Z</time>
      </trkpt>
      <trkpt lat="43.53928" lon="4.14211">
        <ele>6.87</ele>
        <time>2015-07-13T15:04:33Z</time>
      </trkpt>
      <trkpt lat="43.53931" lon="4.14212">
        <ele>6.87</ele>
        <time>2015-07-13T15:04:34Z</time>
      </trkpt>
      <trkpt lat="43.53933" lon="4.14215">
        <ele>6.87</ele>
        <time>2015-07-13T15:04:35Z</time>
      </trkpt>
      <trkpt lat="43.53936" lon="4.14218">
        <ele>6.87</ele>
        <time>2015-07-13T15:04:36Z</time>
      </trkpt>
      <trkpt lat="43.53938" lon="4.14222">
        <ele>6.87</ele>
        <time>2015-07-13T15:04:37Z</time>
      </trkpt>
      <trkpt lat="43.5394" lon="4.14226">
        <ele>6.87</ele>
        <time>2015-07-13T15:04:38Z</time>
      </trkpt>
      <trkpt lat="43.53942" lon="4.1423">
        <ele>6.87</ele>
        <time>2015-07-13T15:04:39Z</time>
      </trkpt>
      <trkpt lat="43.53944" lon="4.14235">
        <ele>6.87</ele>
        <time>2015-07-13T15:04:40Z</time>
      </trkpt>
      <trkpt lat="43.53961" lon="4.14301">
        <ele>8.31</ele>
        <time>2015-07-13T15:04:55Z</time>
      </trkpt>
      <trkpt lat="43.53954" lon="4.14332">
        <ele>8.31</ele>
        <time>2015-07-13T15:05:04Z</time>
      </trkpt>
      <trkpt lat="43.53965" lon="4.14368">
        <ele>8.31</ele>
        <time>2015-07-13T15:05:12Z</time>
      </trkpt>
      <trkpt lat="43.53988" lon="4.14371">
        <ele>8.79</ele>
        <time>2015-07-13T15:05:19Z</time>
      </trkpt>
      <trkpt lat="43.54001" lon="4.14337">
        <ele>9.75</ele>
        <time>2015-07-13T15:05:28Z</time>
      </trkpt>
      <trkpt lat="43.54016" lon="4.14307">
        <ele>10.23</ele>
        <time>2015-07-13T15:05:37Z</time>
      </trkpt>
      <trkpt lat="43.54054" lon="4.14271">
        <ele>8.79</ele>
        <time>2015-07-13T15:05:51Z</time>
      </trkpt>
      <trkpt lat="43.541" lon="4.14228">
        <ele>8.79</ele>
        <time>2015-07-13T15:06:07Z</time>
      </trkpt>
      <trkpt lat="43.54114" lon="4.14214">
        <ele>8.79</ele>
        <time>2015-07-13T15:06:14Z</time>
      </trkpt>
      <trkpt lat="43.54116" lon="4.14215">
        <ele>8.31</ele>
        <time>2015-07-13T15:06:15Z</time>
      </trkpt>
      <trkpt lat="43.54116" lon="4.14224">
        <ele>6.87</ele>
        <time>2015-07-13T15:06:19Z</time>
      </trkpt>
      <trkpt lat="43.5411" lon="4.14233">
        <ele>6.87</ele>
        <time>2015-07-13T15:06:24Z</time>
      </trkpt>
      <trkpt lat="43.5408" lon="4.14262">
        <ele>6.39</ele>
        <time>2015-07-13T15:06:36Z</time>
      </trkpt>
      <trkpt lat="43.54055" lon="4.14286">
        <ele>6.87</ele>
        <time>2015-07-13T15:06:48Z</time>
      </trkpt>
      <trkpt lat="43.54054" lon="4.14311">
        <ele>5.91</ele>
        <time>2015-07-13T15:06:55Z</time>
      </trkpt>
      <trkpt lat="43.54074" lon="4.14354">
        <ele>6.87</ele>
        <time>2015-07-13T15:07:06Z</time>
      </trkpt>
      <trkpt lat="43.541" lon="4.14405">
        <ele>6.87</ele>
        <time>2015-07-13T15:07:19Z</time>
      </trkpt>
      <trkpt lat="43.54125" lon="4.14459">
        <ele>6.87</ele>
        <time>2015-07-13T15:07:33Z</time>
      </trkpt>
      <trkpt lat="43.5415" lon="4.14515">
        <ele>6.39</ele>
        <time>2015-07-13T15:07:46Z</time>
      </trkpt>
      <trkpt lat="43.54184" lon="4.1458">
        <ele>6.87</ele>
        <time>2015-07-13T15:08:02Z</time>
      </trkpt>
      <trkpt lat="43.54211" lon="4.14642">
        <ele>6.87</ele>
        <time>2015-07-13T15:08:16Z</time>
      </trkpt>
      <trkpt lat="43.54219" lon="4.14661">
        <ele>6.39</ele>
        <time>2015-07-13T15:08:20Z</time>
      </trkpt>
      <trkpt lat="43.54221" lon="4.14666">
        <ele>6.39</ele>
        <time>2015-07-13T15:08:21Z</time>
      </trkpt>
      <trkpt lat="43.54223" lon="4.14671">
        <ele>6.39</ele>
        <time>2015-07-13T15:08:22Z</time>
      </trkpt>
      <trkpt lat="43.54225" lon="4.14676">
        <ele>6.87</ele>
        <time>2015-07-13T15:08:23Z</time>
      </trkpt>
      <trkpt lat="43.54228" lon="4.1468">
        <ele>6.39</ele>
        <time>2015-07-13T15:08:24Z</time>
      </trkpt>
      <trkpt lat="43.5423" lon="4.14685">
        <ele>6.87</ele>
        <time>2015-07-13T15:08:25Z</time>
      </trkpt>
      <trkpt lat="43.5426" lon="4.14754">
        <ele>6.39</ele>
        <time>2015-07-13T15:08:39Z</time>
      </trkpt>
      <trkpt lat="43.54289" lon="4.14823">
        <ele>6.39</ele>
        <time>2015-07-13T15:08:54Z</time>
      </trkpt>
      <trkpt lat="43.54318" lon="4.14889">
        <ele>6.39</ele>
        <time>2015-07-13T15:09:09Z</time>
      </trkpt>
      <trkpt lat="43.54353" lon="4.14971">
        <ele>6.39</ele>
        <time>2015-07-13T15:09:26Z</time>
      </trkpt>
      <trkpt lat="43.54389" lon="4.1505">
        <ele>6.39</ele>
        <time>2015-07-13T15:09:42Z</time>
      </trkpt>
      <trkpt lat="43.54415" lon="4.15112">
        <ele>6.39</ele>
        <time>2015-07-13T15:09:55Z</time>
      </trkpt>
      <trkpt lat="43.54444" lon="4.15188">
        <ele>5.91</ele>
        <time>2015-07-13T15:10:09Z</time>
      </trkpt>
      <trkpt lat="43.54487" lon="4.15278">
        <ele>5.91</ele>
        <time>2015-07-13T15:10:27Z</time>
      </trkpt>
      <trkpt lat="43.54515" lon="4.15343">
        <ele>5.91</ele>
        <time>2015-07-13T15:10:40Z</time>
      </trkpt>
      <trkpt lat="43.54545" lon="4.15413">
        <ele>6.87</ele>
        <time>2015-07-13T15:10:54Z</time>
      </trkpt>
      <trkpt lat="43.54577" lon="4.15485">
        <ele>6.39</ele>
        <time>2015-07-13T15:11:08Z</time>
      </trkpt>
      <trkpt lat="43.5458" lon="4.1549">
        <ele>6.39</ele>
        <time>2015-07-13T15:11:09Z</time>
      </trkpt>
      <trkpt lat="43.54613" lon="4.15569">
        <ele>5.91</ele>
        <time>2015-07-13T15:11:25Z</time>
      </trkpt>
      <trkpt lat="43.5464" lon="4.15627">
        <ele>6.39</ele>
        <time>2015-07-13T15:11:38Z</time>
      </trkpt>
      <trkpt lat="43.54655" lon="4.1566">
        <ele>6.87</ele>
        <time>2015-07-13T15:11:51Z</time>
      </trkpt>
      <trkpt lat="43.54666" lon="4.15686">
        <ele>6.87</ele>
        <time>2015-07-13T15:12:02Z</time>
      </trkpt>
      <trkpt lat="43.54678" lon="4.15713">
        <ele>6.87</ele>
        <time>2015-07-13T15:12:14Z</time>
      </trkpt>
      <trkpt lat="43.54678" lon="4.15713">
        <ele>6.87</ele>
        <time>2015-07-13T15:12:34Z</time>
      </trkpt>
      <trkpt lat="43.54679" lon="4.15717">
        <ele>6.39</ele>
        <time>2015-07-13T15:12:51Z</time>
      </trkpt>
      <trkpt lat="43.54695" lon="4.1575">
        <ele>6.39</ele>
        <time>2015-07-13T15:12:59Z</time>
      </trkpt>
      <trkpt lat="43.547" lon="4.1576">
        <ele>5.91</ele>
        <time>2015-07-13T15:13:01Z</time>
      </trkpt>
      <trkpt lat="43.54702" lon="4.15766">
        <ele>6.39</ele>
        <time>2015-07-13T15:13:02Z</time>
      </trkpt>
      <trkpt lat="43.54706" lon="4.15776">
        <ele>6.39</ele>
        <time>2015-07-13T15:13:04Z</time>
      </trkpt>
      <trkpt lat="43.54709" lon="4.15781">
        <ele>6.39</ele>
        <time>2015-07-13T15:13:05Z</time>
      </trkpt>
      <trkpt lat="43.54742" lon="4.15859">
        <ele>6.87</ele>
        <time>2015-07-13T15:13:20Z</time>
      </trkpt>
      <trkpt lat="43.54777" lon="4.15941">
        <ele>6.39</ele>
        <time>2015-07-13T15:13:33Z</time>
      </trkpt>
      <trkpt lat="43.54813" lon="4.16033">
        <ele>5.91</ele>
        <time>2015-07-13T15:13:47Z</time>
      </trkpt>
      <trkpt lat="43.54846" lon="4.16111">
        <ele>6.39</ele>
        <time>2015-07-13T15:13:58Z</time>
      </trkpt>
      <trkpt lat="43.54879" lon="4.16187">
        <ele>6.39</ele>
        <time>2015-07-13T15:14:11Z</time>
      </trkpt>
      <trkpt lat="43.54892" lon="4.16214">
        <ele>6.39</ele>
        <time>2015-07-13T15:14:21Z</time>
      </trkpt>
      <trkpt lat="43.54893" lon="4.16219">
        <ele>6.39</ele>
        <time>2015-07-13T15:14:23Z</time>
      </trkpt>
      <trkpt lat="43.54893" lon="4.16221">
        <ele>6.87</ele>
        <time>2015-07-13T15:14:24Z</time>
      </trkpt>
      <trkpt lat="43.54894" lon="4.16224">
        <ele>6.39</ele>
        <time>2015-07-13T15:14:25Z</time>
      </trkpt>
      <trkpt lat="43.54896" lon="4.16226">
        <ele>6.87</ele>
        <time>2015-07-13T15:14:26Z</time>
      </trkpt>
      <trkpt lat="43.54897" lon="4.16229">
        <ele>6.87</ele>
        <time>2015-07-13T15:14:27Z</time>
      </trkpt>
      <trkpt lat="43.54899" lon="4.16233">
        <ele>6.39</ele>
        <time>2015-07-13T15:14:28Z</time>
      </trkpt>
      <trkpt lat="43.54921" lon="4.16287">
        <ele>5.91</ele>
        <time>2015-07-13T15:14:40Z</time>
      </trkpt>
      <trkpt lat="43.54958" lon="4.16377">
        <ele>6.39</ele>
        <time>2015-07-13T15:14:55Z</time>
      </trkpt>
      <trkpt lat="43.55" lon="4.16487">
        <ele>6.39</ele>
        <time>2015-07-13T15:15:14Z</time>
      </trkpt>
      <trkpt lat="43.5504" lon="4.16579">
        <ele>5.91</ele>
        <time>2015-07-13T15:15:30Z</time>
      </trkpt>
      <trkpt lat="43.55073" lon="4.16653">
        <ele>5.91</ele>
        <time>2015-07-13T15:15:45Z</time>
      </trkpt>
      <trkpt lat="43.55091" lon="4.16697">
        <ele>6.39</ele>
        <time>2015-07-13T15:15:54Z</time>
      </trkpt>
      <trkpt lat="43.55093" lon="4.16701">
        <ele>6.39</ele>
        <time>2015-07-13T15:15:55Z</time>
      </trkpt>
      <trkpt lat="43.55123" lon="4.16774">
        <ele>5.42</ele>
        <time>2015-07-13T15:16:10Z</time>
      </trkpt>
      <trkpt lat="43.55147" lon="4.16829">
        <ele>6.39</ele>
        <time>2015-07-13T15:16:22Z</time>
      </trkpt>
      <trkpt lat="43.55162" lon="4.16867">
        <ele>6.87</ele>
        <time>2015-07-13T15:16:35Z</time>
      </trkpt>
      <trkpt lat="43.55166" lon="4.16875">
        <ele>6.87</ele>
        <time>2015-07-13T15:16:39Z</time>
      </trkpt>
      <trkpt lat="43.55167" lon="4.16878">
        <ele>6.87</ele>
        <time>2015-07-13T15:16:40Z</time>
      </trkpt>
      <trkpt lat="43.55168" lon="4.16881">
        <ele>6.87</ele>
        <time>2015-07-13T15:16:41Z</time>
      </trkpt>
      <trkpt lat="43.55186" lon="4.16928">
        <ele>6.87</ele>
        <time>2015-07-13T15:16:52Z</time>
      </trkpt>
      <trkpt lat="43.5522" lon="4.17005">
        <ele>6.39</ele>
        <time>2015-07-13T15:17:09Z</time>
      </trkpt>
      <trkpt lat="43.55241" lon="4.17059">
        <ele>5.91</ele>
        <time>2015-07-13T15:17:21Z</time>
      </trkpt>
      <trkpt lat="43.55244" lon="4.17071">
        <ele>5.91</ele>
        <time>2015-07-13T15:17:27Z</time>
      </trkpt>
      <trkpt lat="43.55244" lon="4.1707">
        <ele>5.42</ele>
        <time>2015-07-13T15:17:51Z</time>
      </trkpt>
      <trkpt lat="43.55245" lon="4.17071">
        <ele>5.42</ele>
        <time>2015-07-13T15:18:12Z</time>
      </trkpt>
      <trkpt lat="43.55245" lon="4.17073">
        <ele>5.42</ele>
        <time>2015-07-13T15:18:13Z</time>
      </trkpt>
      <trkpt lat="43.55246" lon="4.17074">
        <ele>5.91</ele>
        <time>2015-07-13T15:18:14Z</time>
      </trkpt>
      <trkpt lat="43.55249" lon="4.17078">
        <ele>5.91</ele>
        <time>2015-07-13T15:18:16Z</time>
      </trkpt>
      <trkpt lat="43.55267" lon="4.17119">
        <ele>5.42</ele>
        <time>2015-07-13T15:18:25Z</time>
      </trkpt>
      <trkpt lat="43.55282" lon="4.17155">
        <ele>5.91</ele>
        <time>2015-07-13T15:18:30Z</time>
      </trkpt>
      <trkpt lat="43.55285" lon="4.17163">
        <ele>5.91</ele>
        <time>2015-07-13T15:18:31Z</time>
      </trkpt>
      <trkpt lat="43.55328" lon="4.17262">
        <ele>5.91</ele>
        <time>2015-07-13T15:18:44Z</time>
      </trkpt>
      <trkpt lat="43.55369" lon="4.17359">
        <ele>5.91</ele>
        <time>2015-07-13T15:18:57Z</time>
      </trkpt>
      <trkpt lat="43.55402" lon="4.1744">
        <ele>5.91</ele>
        <time>2015-07-13T15:19:08Z</time>
      </trkpt>
      <trkpt lat="43.55447" lon="4.17544">
        <ele>5.91</ele>
        <time>2015-07-13T15:19:21Z</time>
      </trkpt>
      <trkpt lat="43.55505" lon="4.17657">
        <ele>5.91</ele>
        <time>2015-07-13T15:19:35Z</time>
      </trkpt>
      <trkpt lat="43.5555" lon="4.17741">
        <ele>5.91</ele>
        <time>2015-07-13T15:19:48Z</time>
      </trkpt>
      <trkpt lat="43.5558" lon="4.17799">
        <ele>6.39</ele>
        <time>2015-07-13T15:19:59Z</time>
      </trkpt>
      <trkpt lat="43.55615" lon="4.17862">
        <ele>6.39</ele>
        <time>2015-07-13T15:20:12Z</time>
      </trkpt>
      <trkpt lat="43.55656" lon="4.17935">
        <ele>6.39</ele>
        <time>2015-07-13T15:20:27Z</time>
      </trkpt>
      <trkpt lat="43.55695" lon="4.18007">
        <ele>6.39</ele>
        <time>2015-07-13T15:20:41Z</time>
      </trkpt>
      <trkpt lat="43.55731" lon="4.18072">
        <ele>6.39</ele>
        <time>2015-07-13T15:20:55Z</time>
      </trkpt>
      <trkpt lat="43.5577" lon="4.18132">
        <ele>6.39</ele>
        <time>2015-07-13T15:21:10Z</time>
      </trkpt>
      <trkpt lat="43.55807" lon="4.18182">
        <ele>6.39</ele>
        <time>2015-07-13T15:21:22Z</time>
      </trkpt>
      <trkpt lat="43.55857" lon="4.18241">
        <ele>6.87</ele>
        <time>2015-07-13T15:21:36Z</time>
      </trkpt>
      <trkpt lat="43.55906" lon="4.18291">
        <ele>6.87</ele>
        <time>2015-07-13T15:21:48Z</time>
      </trkpt>
      <trkpt lat="43.55948" lon="4.18324">
        <ele>6.39</ele>
        <time>2015-07-13T15:21:59Z</time>
      </trkpt>
      <trkpt lat="43.56005" lon="4.18365">
        <ele>6.39</ele>
        <time>2015-07-13T15:22:14Z</time>
      </trkpt>
      <trkpt lat="43.56054" lon="4.18398">
        <ele>6.39</ele>
        <time>2015-07-13T15:22:27Z</time>
      </trkpt>
      <trkpt lat="43.56071" lon="4.18408">
        <ele>9.75</ele>
        <time>2015-07-13T15:22:32Z</time>
      </trkpt>
      <trkpt lat="43.56075" lon="4.1841">
        <ele>4.46</ele>
        <time>2015-07-13T15:22:33Z</time>
      </trkpt>
      <trkpt lat="43.561" lon="4.18423">
        <ele>7.83</ele>
        <time>2015-07-13T15:22:40Z</time>
      </trkpt>
      <trkpt lat="43.56112" lon="4.18429">
        <ele>5.91</ele>
        <time>2015-07-13T15:22:43Z</time>
      </trkpt>
      <trkpt lat="43.5616" lon="4.1845">
        <ele>7.35</ele>
        <time>2015-07-13T15:22:56Z</time>
      </trkpt>
      <trkpt lat="43.56202" lon="4.18465">
        <ele>6.87</ele>
        <time>2015-07-13T15:23:08Z</time>
      </trkpt>
      <trkpt lat="43.56261" lon="4.18482">
        <ele>6.39</ele>
        <time>2015-07-13T15:23:22Z</time>
      </trkpt>
      <trkpt lat="43.56334" lon="4.18502">
        <ele>6.39</ele>
        <time>2015-07-13T15:23:40Z</time>
      </trkpt>
      <trkpt lat="43.5638" lon="4.18498">
        <ele>6.87</ele>
        <time>2015-07-13T15:23:52Z</time>
      </trkpt>
      <trkpt lat="43.56383" lon="4.18494">
        <ele>6.39</ele>
        <time>2015-07-13T15:23:53Z</time>
      </trkpt>
      <trkpt lat="43.56386" lon="4.18491">
        <ele>6.87</ele>
        <time>2015-07-13T15:23:54Z</time>
      </trkpt>
      <trkpt lat="43.56393" lon="4.18484">
        <ele>6.39</ele>
        <time>2015-07-13T15:23:56Z</time>
      </trkpt>
      <trkpt lat="43.56428" lon="4.18472">
        <ele>6.39</ele>
        <time>2015-07-13T15:24:06Z</time>
      </trkpt>
      <trkpt lat="43.56477" lon="4.18472">
        <ele>6.87</ele>
        <time>2015-07-13T15:24:19Z</time>
      </trkpt>
      <trkpt lat="43.56524" lon="4.18473">
        <ele>6.87</ele>
        <time>2015-07-13T15:24:32Z</time>
      </trkpt>
      <trkpt lat="43.56572" lon="4.18484">
        <ele>6.39</ele>
        <time>2015-07-13T15:24:46Z</time>
      </trkpt>
      <trkpt lat="43.56592" lon="4.1851">
        <ele>6.39</ele>
        <time>2015-07-13T15:24:55Z</time>
      </trkpt>
      <trkpt lat="43.56594" lon="4.18522">
        <ele>5.91</ele>
        <time>2015-07-13T15:24:59Z</time>
      </trkpt>
      <trkpt lat="43.56593" lon="4.18524">
        <ele>5.91</ele>
        <time>2015-07-13T15:25:00Z</time>
      </trkpt>
      <trkpt lat="43.56593" lon="4.18526">
        <ele>5.91</ele>
        <time>2015-07-13T15:25:01Z</time>
      </trkpt>
      <trkpt lat="43.56593" lon="4.18529">
        <ele>5.91</ele>
        <time>2015-07-13T15:25:02Z</time>
      </trkpt>
      <trkpt lat="43.56593" lon="4.18531">
        <ele>5.91</ele>
        <time>2015-07-13T15:25:03Z</time>
      </trkpt>
      <trkpt lat="43.56593" lon="4.18534">
        <ele>5.91</ele>
        <time>2015-07-13T15:25:04Z</time>
      </trkpt>
      <trkpt lat="43.56593" lon="4.18536">
        <ele>6.39</ele>
        <time>2015-07-13T15:25:05Z</time>
      </trkpt>
      <trkpt lat="43.56591" lon="4.18544">
        <ele>5.91</ele>
        <time>2015-07-13T15:25:09Z</time>
      </trkpt>
      <trkpt lat="43.56591" lon="4.18547">
        <ele>5.42</ele>
        <time>2015-07-13T15:25:18Z</time>
      </trkpt>
      <trkpt lat="43.5659" lon="4.18547">
        <ele>6.39</ele>
        <time>2015-07-13T15:25:39Z</time>
      </trkpt>
      <trkpt lat="43.5659" lon="4.18547">
        <ele>6.87</ele>
        <time>2015-07-13T15:25:58Z</time>
      </trkpt>
      <trkpt lat="43.5659" lon="4.18547">
        <ele>6.87</ele>
        <time>2015-07-13T15:25:59Z</time>
      </trkpt>
      <trkpt lat="43.5659" lon="4.18547">
        <ele>5.91</ele>
        <time>2015-07-13T15:26:26Z</time>
      </trkpt>
      <trkpt lat="43.5659" lon="4.18547">
        <ele>6.39</ele>
        <time>2015-07-13T15:26:45Z</time>
      </trkpt>
      <trkpt lat="43.56589" lon="4.18547">
        <ele>6.39</ele>
        <time>2015-07-13T15:27:09Z</time>
      </trkpt>
      <trkpt lat="43.56591" lon="4.18548">
        <ele>5.91</ele>
        <time>2015-07-13T15:27:35Z</time>
      </trkpt>
      <trkpt lat="43.56591" lon="4.18547">
        <ele>6.39</ele>
        <time>2015-07-13T15:28:00Z</time>
      </trkpt>
      <trkpt lat="43.56595" lon="4.18554">
        <ele>5.91</ele>
        <time>2015-07-13T15:28:19Z</time>
      </trkpt>
      <trkpt lat="43.56619" lon="4.18568">
        <ele>5.91</ele>
        <time>2015-07-13T15:28:31Z</time>
      </trkpt>
      <trkpt lat="43.56654" lon="4.18577">
        <ele>6.39</ele>
        <time>2015-07-13T15:28:44Z</time>
      </trkpt>
      <trkpt lat="43.5668" lon="4.18584">
        <ele>5.91</ele>
        <time>2015-07-13T15:28:54Z</time>
      </trkpt>
      <trkpt lat="43.56705" lon="4.18605">
        <ele>5.91</ele>
        <time>2015-07-13T15:29:05Z</time>
      </trkpt>
      <trkpt lat="43.56707" lon="4.1861">
        <ele>5.91</ele>
        <time>2015-07-13T15:29:07Z</time>
      </trkpt>
      <trkpt lat="43.56707" lon="4.18613">
        <ele>5.42</ele>
        <time>2015-07-13T15:29:08Z</time>
      </trkpt>
      <trkpt lat="43.56706" lon="4.18616">
        <ele>5.42</ele>
        <time>2015-07-13T15:29:09Z</time>
      </trkpt>
      <trkpt lat="43.5669" lon="4.18648">
        <ele>5.91</ele>
        <time>2015-07-13T15:29:20Z</time>
      </trkpt>
      <trkpt lat="43.5669" lon="4.18654">
        <ele>5.42</ele>
        <time>2015-07-13T15:29:22Z</time>
      </trkpt>
      <trkpt lat="43.56692" lon="4.18656">
        <ele>5.42</ele>
        <time>2015-07-13T15:29:23Z</time>
      </trkpt>
      <trkpt lat="43.56693" lon="4.18658">
        <ele>5.91</ele>
        <time>2015-07-13T15:29:24Z</time>
      </trkpt>
      <trkpt lat="43.56694" lon="4.18661">
        <ele>5.42</ele>
        <time>2015-07-13T15:29:25Z</time>
      </trkpt>
      <trkpt lat="43.56696" lon="4.18662">
        <ele>5.91</ele>
        <time>2015-07-13T15:29:26Z</time>
      </trkpt>
      <trkpt lat="43.56699" lon="4.18664">
        <ele>5.91</ele>
        <time>2015-07-13T15:29:27Z</time>
      </trkpt>
      <trkpt lat="43.56701" lon="4.18666">
        <ele>5.91</ele>
        <time>2015-07-13T15:29:28Z</time>
      </trkpt>
      <trkpt lat="43.56739" lon="4.18693">
        <ele>5.91</ele>
        <time>2015-07-13T15:29:43Z</time>
      </trkpt>
      <trkpt lat="43.56767" lon="4.18725">
        <ele>5.42</ele>
        <time>2015-07-13T15:29:54Z</time>
      </trkpt>
      <trkpt lat="43.56799" lon="4.18768">
        <ele>5.91</ele>
        <time>2015-07-13T15:30:08Z</time>
      </trkpt>
      <trkpt lat="43.56831" lon="4.18809">
        <ele>5.91</ele>
        <time>2015-07-13T15:30:22Z</time>
      </trkpt>
      <trkpt lat="43.56859" lon="4.18841">
        <ele>5.42</ele>
        <time>2015-07-13T15:30:33Z</time>
      </trkpt>
      <trkpt lat="43.5689" lon="4.18852">
        <ele>5.91</ele>
        <time>2015-07-13T15:30:43Z</time>
      </trkpt>
      <trkpt lat="43.56915" lon="4.18861">
        <ele>7.35</ele>
        <time>2015-07-13T15:30:51Z</time>
      </trkpt>
      <trkpt lat="43.56916" lon="4.18863">
        <ele>7.83</ele>
        <time>2015-07-13T15:30:52Z</time>
      </trkpt>
      <trkpt lat="43.56917" lon="4.18875">
        <ele>9.27</ele>
        <time>2015-07-13T15:30:58Z</time>
      </trkpt>
      <trkpt lat="43.56914" lon="4.18906">
        <ele>9.75</ele>
        <time>2015-07-13T15:31:08Z</time>
      </trkpt>
      <trkpt lat="43.56904" lon="4.18947">
        <ele>7.35</ele>
        <time>2015-07-13T15:31:21Z</time>
      </trkpt>
      <trkpt lat="43.56898" lon="4.1895">
        <ele>6.87</ele>
        <time>2015-07-13T15:31:27Z</time>
      </trkpt>
      <trkpt lat="43.56895" lon="4.18952">
        <ele>7.35</ele>
        <time>2015-07-13T15:31:28Z</time>
      </trkpt>
      <trkpt lat="43.56892" lon="4.18956">
        <ele>6.39</ele>
        <time>2015-07-13T15:31:29Z</time>
      </trkpt>
      <trkpt lat="43.5689" lon="4.18961">
        <ele>6.87</ele>
        <time>2015-07-13T15:31:30Z</time>
      </trkpt>
      <trkpt lat="43.56889" lon="4.18966">
        <ele>6.87</ele>
        <time>2015-07-13T15:31:31Z</time>
      </trkpt>
      <trkpt lat="43.56889" lon="4.18971">
        <ele>6.39</ele>
        <time>2015-07-13T15:31:32Z</time>
      </trkpt>
      <trkpt lat="43.56889" lon="4.18975">
        <ele>5.91</ele>
        <time>2015-07-13T15:31:33Z</time>
      </trkpt>
      <trkpt lat="43.56888" lon="4.18979">
        <ele>6.39</ele>
        <time>2015-07-13T15:31:34Z</time>
      </trkpt>
      <trkpt lat="43.56887" lon="4.18982">
        <ele>6.39</ele>
        <time>2015-07-13T15:31:35Z</time>
      </trkpt>
      <trkpt lat="43.56887" lon="4.18985">
        <ele>5.91</ele>
        <time>2015-07-13T15:31:36Z</time>
      </trkpt>
      <trkpt lat="43.56871" lon="4.19009">
        <ele>5.91</ele>
        <time>2015-07-13T15:31:44Z</time>
      </trkpt>
      <trkpt lat="43.56865" lon="4.19016">
        <ele>5.91</ele>
        <time>2015-07-13T15:31:47Z</time>
      </trkpt>
      <trkpt lat="43.56852" lon="4.19051">
        <ele>6.39</ele>
        <time>2015-07-13T15:31:59Z</time>
      </trkpt>
      <trkpt lat="43.56838" lon="4.1909">
        <ele>6.39</ele>
        <time>2015-07-13T15:32:12Z</time>
      </trkpt>
      <trkpt lat="43.56823" lon="4.19121">
        <ele>7.35</ele>
        <time>2015-07-13T15:32:23Z</time>
      </trkpt>
      <trkpt lat="43.56819" lon="4.19127">
        <ele>6.39</ele>
        <time>2015-07-13T15:32:25Z</time>
      </trkpt>
      <trkpt lat="43.56818" lon="4.19129">
        <ele>6.39</ele>
        <time>2015-07-13T15:32:26Z</time>
      </trkpt>
      <trkpt lat="43.56816" lon="4.19133">
        <ele>6.87</ele>
        <time>2015-07-13T15:32:27Z</time>
      </trkpt>
      <trkpt lat="43.56815" lon="4.19137">
        <ele>6.87</ele>
        <time>2015-07-13T15:32:28Z</time>
      </trkpt>
      <trkpt lat="43.56813" lon="4.19142">
        <ele>6.39</ele>
        <time>2015-07-13T15:32:29Z</time>
      </trkpt>
      <trkpt lat="43.56789" lon="4.19186">
        <ele>6.39</ele>
        <time>2015-07-13T15:32:40Z</time>
      </trkpt>
      <trkpt lat="43.56766" lon="4.1923">
        <ele>5.42</ele>
        <time>2015-07-13T15:32:50Z</time>
      </trkpt>
      <trkpt lat="43.56747" lon="4.19267">
        <ele>5.91</ele>
        <time>2015-07-13T15:32:59Z</time>
      </trkpt>
      <trkpt lat="43.56723" lon="4.19313">
        <ele>6.39</ele>
        <time>2015-07-13T15:33:10Z</time>
      </trkpt>
      <trkpt lat="43.56719" lon="4.19323">
        <ele>6.39</ele>
        <time>2015-07-13T15:33:12Z</time>
      </trkpt>
      <trkpt lat="43.56689" lon="4.19376">
        <ele>6.39</ele>
        <time>2015-07-13T15:33:24Z</time>
      </trkpt>
      <trkpt lat="43.56668" lon="4.1942">
        <ele>5.42</ele>
        <time>2015-07-13T15:33:34Z</time>
      </trkpt>
      <trkpt lat="43.56647" lon="4.19461">
        <ele>5.91</ele>
        <time>2015-07-13T15:33:44Z</time>
      </trkpt>
      <trkpt lat="43.56641" lon="4.19475">
        <ele>6.39</ele>
        <time>2015-07-13T15:33:47Z</time>
      </trkpt>
      <trkpt lat="43.56638" lon="4.1948">
        <ele>5.91</ele>
        <time>2015-07-13T15:33:48Z</time>
      </trkpt>
      <trkpt lat="43.56615" lon="4.19526">
        <ele>5.91</ele>
        <time>2015-07-13T15:33:59Z</time>
      </trkpt>
      <trkpt lat="43.56589" lon="4.19568">
        <ele>5.42</ele>
        <time>2015-07-13T15:34:10Z</time>
      </trkpt>
      <trkpt lat="43.56564" lon="4.19561">
        <ele>5.91</ele>
        <time>2015-07-13T15:34:18Z</time>
      </trkpt>
      <trkpt lat="43.56524" lon="4.19515">
        <ele>5.42</ele>
        <time>2015-07-13T15:34:34Z</time>
      </trkpt>
      <trkpt lat="43.56492" lon="4.1948">
        <ele>5.42</ele>
        <time>2015-07-13T15:34:46Z</time>
      </trkpt>
      <trkpt lat="43.56473" lon="4.19454">
        <ele>5.91</ele>
        <time>2015-07-13T15:34:56Z</time>
      </trkpt>
      <trkpt lat="43.56473" lon="4.19451">
        <ele>5.91</ele>
        <time>2015-07-13T15:34:57Z</time>
      </trkpt>
      <trkpt lat="43.56473" lon="4.19443">
        <ele>5.91</ele>
        <time>2015-07-13T15:35:00Z</time>
      </trkpt>
      <trkpt lat="43.56472" lon="4.19441">
        <ele>5.91</ele>
        <time>2015-07-13T15:35:01Z</time>
      </trkpt>
      <trkpt lat="43.5647" lon="4.19439">
        <ele>5.91</ele>
        <time>2015-07-13T15:35:02Z</time>
      </trkpt>
      <trkpt lat="43.56468" lon="4.19438">
        <ele>5.91</ele>
        <time>2015-07-13T15:35:03Z</time>
      </trkpt>
      <trkpt lat="43.56465" lon="4.19438">
        <ele>5.91</ele>
        <time>2015-07-13T15:35:04Z</time>
      </trkpt>
      <trkpt lat="43.56463" lon="4.19437">
        <ele>5.91</ele>
        <time>2015-07-13T15:35:05Z</time>
      </trkpt>
      <trkpt lat="43.56461" lon="4.19436">
        <ele>5.91</ele>
        <time>2015-07-13T15:35:06Z</time>
      </trkpt>
      <trkpt lat="43.56458" lon="4.19434">
        <ele>5.91</ele>
        <time>2015-07-13T15:35:07Z</time>
      </trkpt>
      <trkpt lat="43.56456" lon="4.19432">
        <ele>5.91</ele>
        <time>2015-07-13T15:35:08Z</time>
      </trkpt>
      <trkpt lat="43.56454" lon="4.1943">
        <ele>6.39</ele>
        <time>2015-07-13T15:35:09Z</time>
      </trkpt>
      <trkpt lat="43.56451" lon="4.19428">
        <ele>5.42</ele>
        <time>2015-07-13T15:35:10Z</time>
      </trkpt>
      <trkpt lat="43.56449" lon="4.19425">
        <ele>5.42</ele>
        <time>2015-07-13T15:35:11Z</time>
      </trkpt>
      <trkpt lat="43.56417" lon="4.19386">
        <ele>5.91</ele>
        <time>2015-07-13T15:35:24Z</time>
      </trkpt>
      <trkpt lat="43.56388" lon="4.19353">
        <ele>6.39</ele>
        <time>2015-07-13T15:35:36Z</time>
      </trkpt>
      <trkpt lat="43.5636" lon="4.19323">
        <ele>5.91</ele>
        <time>2015-07-13T15:35:47Z</time>
      </trkpt>
      <trkpt lat="43.5633" lon="4.19287">
        <ele>4.94</ele>
        <time>2015-07-13T15:36:00Z</time>
      </trkpt>
      <trkpt lat="43.56305" lon="4.19249">
        <ele>5.42</ele>
        <time>2015-07-13T15:36:13Z</time>
      </trkpt>
      <trkpt lat="43.56311" lon="4.19216">
        <ele>5.91</ele>
        <time>2015-07-13T15:36:22Z</time>
      </trkpt>
      <trkpt lat="43.56331" lon="4.19196">
        <ele>5.42</ele>
        <time>2015-07-13T15:36:32Z</time>
      </trkpt>
      <trkpt lat="43.56354" lon="4.19188">
        <ele>5.42</ele>
        <time>2015-07-13T15:36:43Z</time>
      </trkpt>
      <trkpt lat="43.56356" lon="4.19186">
        <ele>5.42</ele>
        <time>2015-07-13T15:36:51Z</time>
      </trkpt>
      <trkpt lat="43.56357" lon="4.19186">
        <ele>5.42</ele>
        <time>2015-07-13T15:37:11Z</time>
      </trkpt>
      <trkpt lat="43.56359" lon="4.19183">
        <ele>4.94</ele>
        <time>2015-07-13T15:37:28Z</time>
      </trkpt>
      <trkpt lat="43.5636" lon="4.19183">
        <ele>4.94</ele>
        <time>2015-07-13T15:37:29Z</time>
      </trkpt>
      <trkpt lat="43.56364" lon="4.19179">
        <ele>4.94</ele>
        <time>2015-07-13T15:37:39Z</time>
      </trkpt>
      <trkpt lat="43.56375" lon="4.19179">
        <ele>4.46</ele>
        <time>2015-07-13T15:37:52Z</time>
      </trkpt>
      <trkpt lat="43.56385" lon="4.19182">
        <ele>5.42</ele>
        <time>2015-07-13T15:38:03Z</time>
      </trkpt>
      <trkpt lat="43.56385" lon="4.19181">
        <ele>4.94</ele>
        <time>2015-07-13T15:38:04Z</time>
      </trkpt>
      <trkpt lat="43.56385" lon="4.19178">
        <ele>4.94</ele>
        <time>2015-07-13T15:38:06Z</time>
      </trkpt>
      <trkpt lat="43.56385" lon="4.19177">
        <ele>4.94</ele>
        <time>2015-07-13T15:38:07Z</time>
      </trkpt>
      <trkpt lat="43.56382" lon="4.19175">
        <ele>4.94</ele>
        <time>2015-07-13T15:38:16Z</time>
      </trkpt>
      <trkpt lat="43.56381" lon="4.19176">
        <ele>4.46</ele>
        <time>2015-07-13T15:38:28Z</time>
      </trkpt>
      <trkpt lat="43.56381" lon="4.19175">
        <ele>4.46</ele>
        <time>2015-07-13T15:38:39Z</time>
      </trkpt>
      <trkpt lat="43.56382" lon="4.19175">
        <ele>4.46</ele>
        <time>2015-07-13T15:38:48Z</time>
      </trkpt>
      <trkpt lat="43.56384" lon="4.19175">
        <ele>4.94</ele>
        <time>2015-07-13T15:38:58Z</time>
      </trkpt>
      <trkpt lat="43.56385" lon="4.19174">
        <ele>4.94</ele>
        <time>2015-07-13T15:39:22Z</time>
      </trkpt>
      <trkpt lat="43.56385" lon="4.19174">
        <ele>4.94</ele>
        <time>2015-07-13T15:39:48Z</time>
      </trkpt>
      <trkpt lat="43.56385" lon="4.19174">
        <ele>4.94</ele>
        <time>2015-07-13T15:40:18Z</time>
      </trkpt>
      <trkpt lat="43.56385" lon="4.19174">
        <ele>4.94</ele>
        <time>2015-07-13T15:40:45Z</time>
      </trkpt>
      <trkpt lat="43.56385" lon="4.19174">
        <ele>4.94</ele>
        <time>2015-07-13T15:41:15Z</time>
      </trkpt>
      <trkpt lat="43.56385" lon="4.19174">
        <ele>4.94</ele>
        <time>2015-07-13T15:41:42Z</time>
      </trkpt>
      <trkpt lat="43.56384" lon="4.19174">
        <ele>4.46</ele>
        <time>2015-07-13T15:42:13Z</time>
      </trkpt>
      <trkpt lat="43.56385" lon="4.19175">
        <ele>4.94</ele>
        <time>2015-07-13T15:42:39Z</time>
      </trkpt>
      <trkpt lat="43.56385" lon="4.19176">
        <ele>4.46</ele>
        <time>2015-07-13T15:43:06Z</time>
      </trkpt>
      <trkpt lat="43.56385" lon="4.19176">
        <ele>4.46</ele>
        <time>2015-07-13T15:43:28Z</time>
      </trkpt>
      <trkpt lat="43.56382" lon="4.19174">
        <ele>4.94</ele>
        <time>2015-07-13T15:43:40Z</time>
      </trkpt>
      <trkpt lat="43.56381" lon="4.19174">
        <ele>4.46</ele>
        <time>2015-07-13T15:43:41Z</time>
      </trkpt>
      <trkpt lat="43.56379" lon="4.19173">
        <ele>3.98</ele>
        <time>2015-07-13T15:43:42Z</time>
      </trkpt>
      <trkpt lat="43.56378" lon="4.19172">
        <ele>4.94</ele>
        <time>2015-07-13T15:43:43Z</time>
      </trkpt>
      <trkpt lat="43.56376" lon="4.19172">
        <ele>4.94</ele>
        <time>2015-07-13T15:43:44Z</time>
      </trkpt>
      <trkpt lat="43.56374" lon="4.19172">
        <ele>4.94</ele>
        <time>2015-07-13T15:43:45Z</time>
      </trkpt>
      <trkpt lat="43.56372" lon="4.19172">
        <ele>4.46</ele>
        <time>2015-07-13T15:43:46Z</time>
      </trkpt>
      <trkpt lat="43.56371" lon="4.19172">
        <ele>4.94</ele>
        <time>2015-07-13T15:43:47Z</time>
      </trkpt>
      <trkpt lat="43.56369" lon="4.19171">
        <ele>4.94</ele>
        <time>2015-07-13T15:43:48Z</time>
      </trkpt>
      <trkpt lat="43.56367" lon="4.19169">
        <ele>4.46</ele>
        <time>2015-07-13T15:43:49Z</time>
      </trkpt>
      <trkpt lat="43.56365" lon="4.19167">
        <ele>4.94</ele>
        <time>2015-07-13T15:43:50Z</time>
      </trkpt>
      <trkpt lat="43.56347" lon="4.1915">
        <ele>4.46</ele>
        <time>2015-07-13T15:44:01Z</time>
      </trkpt>
      <trkpt lat="43.56346" lon="4.19147">
        <ele>4.94</ele>
        <time>2015-07-13T15:44:03Z</time>
      </trkpt>
      <trkpt lat="43.56345" lon="4.19145">
        <ele>4.94</ele>
        <time>2015-07-13T15:44:04Z</time>
      </trkpt>
      <trkpt lat="43.56345" lon="4.19143">
        <ele>4.94</ele>
        <time>2015-07-13T15:44:05Z</time>
      </trkpt>
      <trkpt lat="43.56346" lon="4.19141">
        <ele>4.94</ele>
        <time>2015-07-13T15:44:06Z</time>
      </trkpt>
      <trkpt lat="43.56347" lon="4.19138">
        <ele>4.94</ele>
        <time>2015-07-13T15:44:07Z</time>
      </trkpt>
      <trkpt lat="43.56361" lon="4.1911">
        <ele>4.94</ele>
        <time>2015-07-13T15:44:17Z</time>
      </trkpt>
      <trkpt lat="43.56383" lon="4.19066">
        <ele>5.42</ele>
        <time>2015-07-13T15:44:31Z</time>
      </trkpt>
      <trkpt lat="43.56401" lon="4.19029">
        <ele>5.42</ele>
        <time>2015-07-13T15:44:42Z</time>
      </trkpt>
      <trkpt lat="43.56427" lon="4.18974">
        <ele>5.91</ele>
        <time>2015-07-13T15:44:57Z</time>
      </trkpt>
      <trkpt lat="43.56453" lon="4.18924">
        <ele>5.42</ele>
        <time>2015-07-13T15:45:11Z</time>
      </trkpt>
      <trkpt lat="43.56478" lon="4.18869">
        <ele>5.42</ele>
        <time>2015-07-13T15:45:26Z</time>
      </trkpt>
      <trkpt lat="43.565" lon="4.18822">
        <ele>5.42</ele>
        <time>2015-07-13T15:45:38Z</time>
      </trkpt>
      <trkpt lat="43.56524" lon="4.1877">
        <ele>5.42</ele>
        <time>2015-07-13T15:45:52Z</time>
      </trkpt>
      <trkpt lat="43.56546" lon="4.18732">
        <ele>5.91</ele>
        <time>2015-07-13T15:46:05Z</time>
      </trkpt>
      <trkpt lat="43.56549" lon="4.18733">
        <ele>5.91</ele>
        <time>2015-07-13T15:46:06Z</time>
      </trkpt>
      <trkpt lat="43.56551" lon="4.18735">
        <ele>5.91</ele>
        <time>2015-07-13T15:46:07Z</time>
      </trkpt>
      <trkpt lat="43.56589" lon="4.18752">
        <ele>5.42</ele>
        <time>2015-07-13T15:46:20Z</time>
      </trkpt>
      <trkpt lat="43.56626" lon="4.1877">
        <ele>5.42</ele>
        <time>2015-07-13T15:46:32Z</time>
      </trkpt>
      <trkpt lat="43.56666" lon="4.18797">
        <ele>5.42</ele>
        <time>2015-07-13T15:46:45Z</time>
      </trkpt>
      <trkpt lat="43.56704" lon="4.18824">
        <ele>5.91</ele>
        <time>2015-07-13T15:46:58Z</time>
      </trkpt>
      <trkpt lat="43.56755" lon="4.1886">
        <ele>5.42</ele>
        <time>2015-07-13T15:47:14Z</time>
      </trkpt>
      <trkpt lat="43.5679" lon="4.18887">
        <ele>5.91</ele>
        <time>2015-07-13T15:47:26Z</time>
      </trkpt>
      <trkpt lat="43.56828" lon="4.18915">
        <ele>5.91</ele>
        <time>2015-07-13T15:47:39Z</time>
      </trkpt>
      <trkpt lat="43.56858" lon="4.18952">
        <ele>5.91</ele>
        <time>2015-07-13T15:47:51Z</time>
      </trkpt>
      <trkpt lat="43.56869" lon="4.18985">
        <ele>6.39</ele>
        <time>2015-07-13T15:48:01Z</time>
      </trkpt>
      <trkpt lat="43.56865" lon="4.19009">
        <ele>5.42</ele>
        <time>2015-07-13T15:48:09Z</time>
      </trkpt>
      <trkpt lat="43.56851" lon="4.19054">
        <ele>6.39</ele>
        <time>2015-07-13T15:48:20Z</time>
      </trkpt>
      <trkpt lat="43.56845" lon="4.19082">
        <ele>6.39</ele>
        <time>2015-07-13T15:48:31Z</time>
      </trkpt>
      <trkpt lat="43.56841" lon="4.19094">
        <ele>6.87</ele>
        <time>2015-07-13T15:48:39Z</time>
      </trkpt>
      <trkpt lat="43.5684" lon="4.19095">
        <ele>6.87</ele>
        <time>2015-07-13T15:48:40Z</time>
      </trkpt>
      <trkpt lat="43.56839" lon="4.19097">
        <ele>7.35</ele>
        <time>2015-07-13T15:48:41Z</time>
      </trkpt>
      <trkpt lat="43.56839" lon="4.19099">
        <ele>6.87</ele>
        <time>2015-07-13T15:48:42Z</time>
      </trkpt>
      <trkpt lat="43.56839" lon="4.19101">
        <ele>6.87</ele>
        <time>2015-07-13T15:48:43Z</time>
      </trkpt>
      <trkpt lat="43.56838" lon="4.19102">
        <ele>6.87</ele>
        <time>2015-07-13T15:48:44Z</time>
      </trkpt>
      <trkpt lat="43.56837" lon="4.19104">
        <ele>7.35</ele>
        <time>2015-07-13T15:48:45Z</time>
      </trkpt>
      <trkpt lat="43.56836" lon="4.19107">
        <ele>6.87</ele>
        <time>2015-07-13T15:48:46Z</time>
      </trkpt>
      <trkpt lat="43.56835" lon="4.19109">
        <ele>6.87</ele>
        <time>2015-07-13T15:48:47Z</time>
      </trkpt>
      <trkpt lat="43.56835" lon="4.19111">
        <ele>6.87</ele>
        <time>2015-07-13T15:48:48Z</time>
      </trkpt>
      <trkpt lat="43.56836" lon="4.1912">
        <ele>7.35</ele>
        <time>2015-07-13T15:48:57Z</time>
      </trkpt>
      <trkpt lat="43.56837" lon="4.19122">
        <ele>6.87</ele>
        <time>2015-07-13T15:48:59Z</time>
      </trkpt>
      <trkpt lat="43.56837" lon="4.19124">
        <ele>7.35</ele>
        <time>2015-07-13T15:49:00Z</time>
      </trkpt>
      <trkpt lat="43.56852" lon="4.19139">
        <ele>7.83</ele>
        <time>2015-07-13T15:49:09Z</time>
      </trkpt>
      <trkpt lat="43.56879" lon="4.1916">
        <ele>7.35</ele>
        <time>2015-07-13T15:49:21Z</time>
      </trkpt>
      <trkpt lat="43.56904" lon="4.19176">
        <ele>7.83</ele>
        <time>2015-07-13T15:49:30Z</time>
      </trkpt>
      <trkpt lat="43.56923" lon="4.19192">
        <ele>7.83</ele>
        <time>2015-07-13T15:49:38Z</time>
      </trkpt>
      <trkpt lat="43.56952" lon="4.19208">
        <ele>8.79</ele>
        <time>2015-07-13T15:49:46Z</time>
      </trkpt>
      <trkpt lat="43.5698" lon="4.19219">
        <ele>9.75</ele>
        <time>2015-07-13T15:49:57Z</time>
      </trkpt>
      <trkpt lat="43.57001" lon="4.19203">
        <ele>10.71</ele>
        <time>2015-07-13T15:50:06Z</time>
      </trkpt>
      <trkpt lat="43.57022" lon="4.19175">
        <ele>10.23</ele>
        <time>2015-07-13T15:50:17Z</time>
      </trkpt>
      <trkpt lat="43.57025" lon="4.19174">
        <ele>10.71</ele>
        <time>2015-07-13T15:50:18Z</time>
      </trkpt>
      <trkpt lat="43.57029" lon="4.19175">
        <ele>9.75</ele>
        <time>2015-07-13T15:50:19Z</time>
      </trkpt>
      <trkpt lat="43.57033" lon="4.19177">
        <ele>9.75</ele>
        <time>2015-07-13T15:50:20Z</time>
      </trkpt>
      <trkpt lat="43.57036" lon="4.19181">
        <ele>9.27</ele>
        <time>2015-07-13T15:50:21Z</time>
      </trkpt>
      <trkpt lat="43.5704" lon="4.19186">
        <ele>9.27</ele>
        <time>2015-07-13T15:50:22Z</time>
      </trkpt>
      <trkpt lat="43.57054" lon="4.19202">
        <ele>7.83</ele>
        <time>2015-07-13T15:50:25Z</time>
      </trkpt>
      <trkpt lat="43.57083" lon="4.19242">
        <ele>6.87</ele>
        <time>2015-07-13T15:50:33Z</time>
      </trkpt>
      <trkpt lat="43.5712" lon="4.19294">
        <ele>6.87</ele>
        <time>2015-07-13T15:50:45Z</time>
      </trkpt>
      <trkpt lat="43.57155" lon="4.19341">
        <ele>6.87</ele>
        <time>2015-07-13T15:50:57Z</time>
      </trkpt>
      <trkpt lat="43.57188" lon="4.19386">
        <ele>6.39</ele>
        <time>2015-07-13T15:51:09Z</time>
      </trkpt>
      <trkpt lat="43.57208" lon="4.19426">
        <ele>7.35</ele>
        <time>2015-07-13T15:51:19Z</time>
      </trkpt>
      <trkpt lat="43.57228" lon="4.19452">
        <ele>6.87</ele>
        <time>2015-07-13T15:51:26Z</time>
      </trkpt>
      <trkpt lat="43.57274" lon="4.19505">
        <ele>6.39</ele>
        <time>2015-07-13T15:51:40Z</time>
      </trkpt>
      <trkpt lat="43.57302" lon="4.19555">
        <ele>6.87</ele>
        <time>2015-07-13T15:51:52Z</time>
      </trkpt>
      <trkpt lat="43.57304" lon="4.19558">
        <ele>6.87</ele>
        <time>2015-07-13T15:51:53Z</time>
      </trkpt>
      <trkpt lat="43.57307" lon="4.19561">
        <ele>6.39</ele>
        <time>2015-07-13T15:51:54Z</time>
      </trkpt>
      <trkpt lat="43.57308" lon="4.19563">
        <ele>6.87</ele>
        <time>2015-07-13T15:51:55Z</time>
      </trkpt>
      <trkpt lat="43.57309" lon="4.19566">
        <ele>6.87</ele>
        <time>2015-07-13T15:51:56Z</time>
      </trkpt>
      <trkpt lat="43.57311" lon="4.1957">
        <ele>6.87</ele>
        <time>2015-07-13T15:51:57Z</time>
      </trkpt>
      <trkpt lat="43.57312" lon="4.19573">
        <ele>6.39</ele>
        <time>2015-07-13T15:51:58Z</time>
      </trkpt>
      <trkpt lat="43.57337" lon="4.19604">
        <ele>6.87</ele>
        <time>2015-07-13T15:52:07Z</time>
      </trkpt>
      <trkpt lat="43.57386" lon="4.19664">
        <ele>6.87</ele>
        <time>2015-07-13T15:52:22Z</time>
      </trkpt>
      <trkpt lat="43.57429" lon="4.19723">
        <ele>6.87</ele>
        <time>2015-07-13T15:52:35Z</time>
      </trkpt>
      <trkpt lat="43.57449" lon="4.19751">
        <ele>7.35</ele>
        <time>2015-07-13T15:52:41Z</time>
      </trkpt>
      <trkpt lat="43.57453" lon="4.19755">
        <ele>7.35</ele>
        <time>2015-07-13T15:52:42Z</time>
      </trkpt>
      <trkpt lat="43.57495" lon="4.19815">
        <ele>6.87</ele>
        <time>2015-07-13T15:52:55Z</time>
      </trkpt>
      <trkpt lat="43.57502" lon="4.19823">
        <ele>7.35</ele>
        <time>2015-07-13T15:52:57Z</time>
      </trkpt>
      <trkpt lat="43.57533" lon="4.19853">
        <ele>6.87</ele>
        <time>2015-07-13T15:53:06Z</time>
      </trkpt>
      <trkpt lat="43.57578" lon="4.19914">
        <ele>6.39</ele>
        <time>2015-07-13T15:53:21Z</time>
      </trkpt>
      <trkpt lat="43.576" lon="4.19956">
        <ele>6.87</ele>
        <time>2015-07-13T15:53:30Z</time>
      </trkpt>
      <trkpt lat="43.57622" lon="4.19988">
        <ele>6.87</ele>
        <time>2015-07-13T15:53:38Z</time>
      </trkpt>
      <trkpt lat="43.57625" lon="4.19991">
        <ele>6.87</ele>
        <time>2015-07-13T15:53:39Z</time>
      </trkpt>
      <trkpt lat="43.57665" lon="4.20047">
        <ele>7.35</ele>
        <time>2015-07-13T15:53:53Z</time>
      </trkpt>
      <trkpt lat="43.57717" lon="4.20117">
        <ele>6.87</ele>
        <time>2015-07-13T15:54:10Z</time>
      </trkpt>
      <trkpt lat="43.57731" lon="4.20139">
        <ele>7.35</ele>
        <time>2015-07-13T15:54:15Z</time>
      </trkpt>
      <trkpt lat="43.5776" lon="4.20183">
        <ele>7.83</ele>
        <time>2015-07-13T15:54:25Z</time>
      </trkpt>
      <trkpt lat="43.57763" lon="4.20187">
        <ele>7.35</ele>
        <time>2015-07-13T15:54:26Z</time>
      </trkpt>
      <trkpt lat="43.57766" lon="4.2019">
        <ele>7.35</ele>
        <time>2015-07-13T15:54:27Z</time>
      </trkpt>
      <trkpt lat="43.57805" lon="4.20237">
        <ele>6.87</ele>
        <time>2015-07-13T15:54:39Z</time>
      </trkpt>
      <trkpt lat="43.57808" lon="4.20242">
        <ele>7.35</ele>
        <time>2015-07-13T15:54:40Z</time>
      </trkpt>
      <trkpt lat="43.57812" lon="4.20247">
        <ele>7.35</ele>
        <time>2015-07-13T15:54:41Z</time>
      </trkpt>
      <trkpt lat="43.57815" lon="4.20252">
        <ele>7.35</ele>
        <time>2015-07-13T15:54:42Z</time>
      </trkpt>
      <trkpt lat="43.57818" lon="4.20257">
        <ele>7.35</ele>
        <time>2015-07-13T15:54:43Z</time>
      </trkpt>
      <trkpt lat="43.57821" lon="4.20261">
        <ele>6.87</ele>
        <time>2015-07-13T15:54:44Z</time>
      </trkpt>
      <trkpt lat="43.57863" lon="4.20321">
        <ele>6.87</ele>
        <time>2015-07-13T15:54:58Z</time>
      </trkpt>
      <trkpt lat="43.57896" lon="4.20364">
        <ele>6.87</ele>
        <time>2015-07-13T15:55:09Z</time>
      </trkpt>
      <trkpt lat="43.57902" lon="4.20371">
        <ele>6.87</ele>
        <time>2015-07-13T15:55:11Z</time>
      </trkpt>
      <trkpt lat="43.57906" lon="4.20375">
        <ele>7.35</ele>
        <time>2015-07-13T15:55:12Z</time>
      </trkpt>
      <trkpt lat="43.57909" lon="4.20379">
        <ele>7.35</ele>
        <time>2015-07-13T15:55:13Z</time>
      </trkpt>
      <trkpt lat="43.57949" lon="4.20432">
        <ele>7.83</ele>
        <time>2015-07-13T15:55:26Z</time>
      </trkpt>
      <trkpt lat="43.57989" lon="4.20495">
        <ele>7.35</ele>
        <time>2015-07-13T15:55:40Z</time>
      </trkpt>
      <trkpt lat="43.58012" lon="4.20532">
        <ele>6.87</ele>
        <time>2015-07-13T15:55:48Z</time>
      </trkpt>
      <trkpt lat="43.58058" lon="4.20596">
        <ele>6.87</ele>
        <time>2015-07-13T15:56:03Z</time>
      </trkpt>
      <trkpt lat="43.58114" lon="4.2067">
        <ele>7.35</ele>
        <time>2015-07-13T15:56:20Z</time>
      </trkpt>
      <trkpt lat="43.58163" lon="4.20738">
        <ele>6.87</ele>
        <time>2015-07-13T15:56:35Z</time>
      </trkpt>
      <trkpt lat="43.58194" lon="4.2078">
        <ele>7.35</ele>
        <time>2015-07-13T15:56:44Z</time>
      </trkpt>
      <trkpt lat="43.58198" lon="4.20784">
        <ele>6.87</ele>
        <time>2015-07-13T15:56:45Z</time>
      </trkpt>
      <trkpt lat="43.58202" lon="4.20788">
        <ele>7.35</ele>
        <time>2015-07-13T15:56:46Z</time>
      </trkpt>
      <trkpt lat="43.58205" lon="4.20792">
        <ele>6.87</ele>
        <time>2015-07-13T15:56:47Z</time>
      </trkpt>
      <trkpt lat="43.58209" lon="4.20797">
        <ele>7.35</ele>
        <time>2015-07-13T15:56:48Z</time>
      </trkpt>
      <trkpt lat="43.58259" lon="4.2087">
        <ele>7.35</ele>
        <time>2015-07-13T15:57:03Z</time>
      </trkpt>
      <trkpt lat="43.58303" lon="4.20931">
        <ele>6.87</ele>
        <time>2015-07-13T15:57:16Z</time>
      </trkpt>
      <trkpt lat="43.58355" lon="4.21003">
        <ele>7.35</ele>
        <time>2015-07-13T15:57:31Z</time>
      </trkpt>
      <trkpt lat="43.58406" lon="4.21076">
        <ele>7.83</ele>
        <time>2015-07-13T15:57:47Z</time>
      </trkpt>
      <trkpt lat="43.58459" lon="4.21144">
        <ele>6.87</ele>
        <time>2015-07-13T15:58:02Z</time>
      </trkpt>
      <trkpt lat="43.58466" lon="4.21153">
        <ele>6.87</ele>
        <time>2015-07-13T15:58:04Z</time>
      </trkpt>
      <trkpt lat="43.5847" lon="4.21158">
        <ele>7.35</ele>
        <time>2015-07-13T15:58:05Z</time>
      </trkpt>
      <trkpt lat="43.5852" lon="4.21231">
        <ele>7.83</ele>
        <time>2015-07-13T15:58:20Z</time>
      </trkpt>
      <trkpt lat="43.58564" lon="4.21293">
        <ele>7.35</ele>
        <time>2015-07-13T15:58:33Z</time>
      </trkpt>
      <trkpt lat="43.58614" lon="4.2136">
        <ele>7.35</ele>
        <time>2015-07-13T15:58:48Z</time>
      </trkpt>
      <trkpt lat="43.58656" lon="4.21417">
        <ele>6.87</ele>
        <time>2015-07-13T15:59:02Z</time>
      </trkpt>
      <trkpt lat="43.58673" lon="4.21439">
        <ele>7.35</ele>
        <time>2015-07-13T15:59:07Z</time>
      </trkpt>
      <trkpt lat="43.58676" lon="4.21443">
        <ele>7.35</ele>
        <time>2015-07-13T15:59:08Z</time>
      </trkpt>
      <trkpt lat="43.58728" lon="4.21517">
        <ele>7.35</ele>
        <time>2015-07-13T15:59:25Z</time>
      </trkpt>
      <trkpt lat="43.58758" lon="4.21575">
        <ele>6.87</ele>
        <time>2015-07-13T15:59:37Z</time>
      </trkpt>
      <trkpt lat="43.58766" lon="4.21589">
        <ele>6.87</ele>
        <time>2015-07-13T15:59:40Z</time>
      </trkpt>
      <trkpt lat="43.5877" lon="4.21593">
        <ele>6.87</ele>
        <time>2015-07-13T15:59:41Z</time>
      </trkpt>
      <trkpt lat="43.58774" lon="4.21596">
        <ele>6.39</ele>
        <time>2015-07-13T15:59:42Z</time>
      </trkpt>
      <trkpt lat="43.58778" lon="4.21598">
        <ele>6.87</ele>
        <time>2015-07-13T15:59:43Z</time>
      </trkpt>
      <trkpt lat="43.58782" lon="4.216">
        <ele>6.87</ele>
        <time>2015-07-13T15:59:44Z</time>
      </trkpt>
      <trkpt lat="43.58786" lon="4.21603">
        <ele>6.87</ele>
        <time>2015-07-13T15:59:45Z</time>
      </trkpt>
      <trkpt lat="43.58789" lon="4.21607">
        <ele>6.87</ele>
        <time>2015-07-13T15:59:46Z</time>
      </trkpt>
      <trkpt lat="43.58793" lon="4.21611">
        <ele>6.87</ele>
        <time>2015-07-13T15:59:47Z</time>
      </trkpt>
      <trkpt lat="43.58839" lon="4.21672">
        <ele>7.35</ele>
        <time>2015-07-13T16:00:01Z</time>
      </trkpt>
      <trkpt lat="43.58864" lon="4.21689">
        <ele>7.35</ele>
        <time>2015-07-13T16:00:09Z</time>
      </trkpt>
      <trkpt lat="43.58868" lon="4.21686">
        <ele>7.35</ele>
        <time>2015-07-13T16:00:10Z</time>
      </trkpt>
      <trkpt lat="43.5887" lon="4.21683">
        <ele>7.35</ele>
        <time>2015-07-13T16:00:11Z</time>
      </trkpt>
      <trkpt lat="43.58872" lon="4.21679">
        <ele>7.35</ele>
        <time>2015-07-13T16:00:12Z</time>
      </trkpt>
      <trkpt lat="43.58872" lon="4.21674">
        <ele>7.35</ele>
        <time>2015-07-13T16:00:13Z</time>
      </trkpt>
      <trkpt lat="43.58872" lon="4.21669">
        <ele>7.35</ele>
        <time>2015-07-13T16:00:14Z</time>
      </trkpt>
      <trkpt lat="43.58871" lon="4.21663">
        <ele>7.35</ele>
        <time>2015-07-13T16:00:15Z</time>
      </trkpt>
      <trkpt lat="43.5887" lon="4.21658">
        <ele>7.35</ele>
        <time>2015-07-13T16:00:16Z</time>
      </trkpt>
      <trkpt lat="43.58849" lon="4.21589">
        <ele>7.35</ele>
        <time>2015-07-13T16:00:29Z</time>
      </trkpt>
      <trkpt lat="43.58843" lon="4.21574">
        <ele>6.39</ele>
        <time>2015-07-13T16:00:32Z</time>
      </trkpt>
      <trkpt lat="43.58842" lon="4.21568">
        <ele>6.39</ele>
        <time>2015-07-13T16:00:33Z</time>
      </trkpt>
      <trkpt lat="43.58834" lon="4.21547">
        <ele>6.87</ele>
        <time>2015-07-13T16:00:37Z</time>
      </trkpt>
      <trkpt lat="43.5881" lon="4.21476">
        <ele>6.87</ele>
        <time>2015-07-13T16:00:50Z</time>
      </trkpt>
      <trkpt lat="43.58788" lon="4.21406">
        <ele>7.35</ele>
        <time>2015-07-13T16:01:03Z</time>
      </trkpt>
      <trkpt lat="43.58768" lon="4.21341">
        <ele>6.87</ele>
        <time>2015-07-13T16:01:15Z</time>
      </trkpt>
      <trkpt lat="43.58754" lon="4.21285">
        <ele>6.87</ele>
        <time>2015-07-13T16:01:26Z</time>
      </trkpt>
      <trkpt lat="43.58742" lon="4.21217">
        <ele>7.35</ele>
        <time>2015-07-13T16:01:38Z</time>
      </trkpt>
      <trkpt lat="43.58741" lon="4.21212">
        <ele>6.87</ele>
        <time>2015-07-13T16:01:39Z</time>
      </trkpt>
      <trkpt lat="43.58729" lon="4.21125">
        <ele>7.35</ele>
        <time>2015-07-13T16:01:54Z</time>
      </trkpt>
      <trkpt lat="43.58727" lon="4.21108">
        <ele>6.87</ele>
        <time>2015-07-13T16:01:57Z</time>
      </trkpt>
      <trkpt lat="43.5873" lon="4.21045">
        <ele>6.87</ele>
        <time>2015-07-13T16:02:08Z</time>
      </trkpt>
      <trkpt lat="43.58731" lon="4.2104">
        <ele>7.35</ele>
        <time>2015-07-13T16:02:09Z</time>
      </trkpt>
      <trkpt lat="43.58739" lon="4.2102">
        <ele>6.87</ele>
        <time>2015-07-13T16:02:13Z</time>
      </trkpt>
      <trkpt lat="43.58734" lon="4.20982">
        <ele>6.87</ele>
        <time>2015-07-13T16:02:21Z</time>
      </trkpt>
      <trkpt lat="43.58707" lon="4.20966">
        <ele>7.35</ele>
        <time>2015-07-13T16:02:29Z</time>
      </trkpt>
      <trkpt lat="43.58654" lon="4.20952">
        <ele>6.87</ele>
        <time>2015-07-13T16:02:43Z</time>
      </trkpt>
      <trkpt lat="43.58612" lon="4.20945">
        <ele>6.87</ele>
        <time>2015-07-13T16:02:55Z</time>
      </trkpt>
      <trkpt lat="43.58601" lon="4.20944">
        <ele>6.87</ele>
        <time>2015-07-13T16:02:59Z</time>
      </trkpt>
      <trkpt lat="43.58598" lon="4.20946">
        <ele>7.35</ele>
        <time>2015-07-13T16:03:00Z</time>
      </trkpt>
      <trkpt lat="43.58597" lon="4.20949">
        <ele>6.87</ele>
        <time>2015-07-13T16:03:01Z</time>
      </trkpt>
      <trkpt lat="43.58597" lon="4.20953">
        <ele>7.35</ele>
        <time>2015-07-13T16:03:02Z</time>
      </trkpt>
      <trkpt lat="43.58597" lon="4.20956">
        <ele>6.87</ele>
        <time>2015-07-13T16:03:03Z</time>
      </trkpt>
      <trkpt lat="43.58598" lon="4.20958">
        <ele>6.87</ele>
        <time>2015-07-13T16:03:04Z</time>
      </trkpt>
      <trkpt lat="43.58602" lon="4.20969">
        <ele>7.35</ele>
        <time>2015-07-13T16:03:10Z</time>
      </trkpt>
      <trkpt lat="43.58604" lon="4.20969">
        <ele>7.35</ele>
        <time>2015-07-13T16:03:11Z</time>
      </trkpt>
      <trkpt lat="43.58606" lon="4.20969">
        <ele>7.35</ele>
        <time>2015-07-13T16:03:12Z</time>
      </trkpt>
      <trkpt lat="43.58609" lon="4.20968">
        <ele>7.35</ele>
        <time>2015-07-13T16:03:13Z</time>
      </trkpt>
      <trkpt lat="43.58611" lon="4.20968">
        <ele>7.35</ele>
        <time>2015-07-13T16:03:14Z</time>
      </trkpt>
      <trkpt lat="43.58641" lon="4.2097">
        <ele>8.79</ele>
        <time>2015-07-13T16:03:24Z</time>
      </trkpt>
      <trkpt lat="43.58682" lon="4.21004">
        <ele>11.67</ele>
        <time>2015-07-13T16:03:38Z</time>
      </trkpt>
      <trkpt lat="43.58721" lon="4.21012">
        <ele>13.6</ele>
        <time>2015-07-13T16:03:50Z</time>
      </trkpt>
      <trkpt lat="43.58762" lon="4.21011">
        <ele>14.56</ele>
        <time>2015-07-13T16:04:03Z</time>
      </trkpt>
      <trkpt lat="43.58815" lon="4.2101">
        <ele>14.08</ele>
        <time>2015-07-13T16:04:20Z</time>
      </trkpt>
      <trkpt lat="43.58861" lon="4.21014">
        <ele>11.67</ele>
        <time>2015-07-13T16:04:31Z</time>
      </trkpt>
      <trkpt lat="43.58907" lon="4.21029">
        <ele>8.79</ele>
        <time>2015-07-13T16:04:38Z</time>
      </trkpt>
      <trkpt lat="43.58923" lon="4.21033">
        <ele>7.83</ele>
        <time>2015-07-13T16:04:40Z</time>
      </trkpt>
      <trkpt lat="43.58947" lon="4.21038">
        <ele>6.87</ele>
        <time>2015-07-13T16:04:44Z</time>
      </trkpt>
      <trkpt lat="43.5901" lon="4.21024">
        <ele>6.87</ele>
        <time>2015-07-13T16:04:57Z</time>
      </trkpt>
      <trkpt lat="43.59057" lon="4.21003">
        <ele>6.39</ele>
        <time>2015-07-13T16:05:09Z</time>
      </trkpt>
      <trkpt lat="43.59098" lon="4.20986">
        <ele>6.87</ele>
        <time>2015-07-13T16:05:21Z</time>
      </trkpt>
      <trkpt lat="43.59153" lon="4.20964">
        <ele>6.87</ele>
        <time>2015-07-13T16:05:36Z</time>
      </trkpt>
      <trkpt lat="43.59203" lon="4.20943">
        <ele>6.87</ele>
        <time>2015-07-13T16:05:51Z</time>
      </trkpt>
      <trkpt lat="43.59205" lon="4.20943">
        <ele>6.87</ele>
        <time>2015-07-13T16:05:52Z</time>
      </trkpt>
      <trkpt lat="43.59208" lon="4.20944">
        <ele>6.39</ele>
        <time>2015-07-13T16:05:53Z</time>
      </trkpt>
      <trkpt lat="43.59209" lon="4.20945">
        <ele>6.87</ele>
        <time>2015-07-13T16:05:54Z</time>
      </trkpt>
      <trkpt lat="43.5921" lon="4.20942">
        <ele>6.87</ele>
        <time>2015-07-13T16:06:01Z</time>
      </trkpt>
      <trkpt lat="43.59209" lon="4.20941">
        <ele>6.87</ele>
        <time>2015-07-13T16:06:10Z</time>
      </trkpt>
      <trkpt lat="43.59209" lon="4.20941">
        <ele>6.87</ele>
        <time>2015-07-13T16:06:30Z</time>
      </trkpt>
      <trkpt lat="43.59209" lon="4.20941">
        <ele>6.87</ele>
        <time>2015-07-13T16:06:48Z</time>
      </trkpt>
      <trkpt lat="43.59209" lon="4.20941">
        <ele>6.39</ele>
        <time>2015-07-13T16:07:08Z</time>
      </trkpt>
      <trkpt lat="43.59209" lon="4.20941">
        <ele>6.39</ele>
        <time>2015-07-13T16:07:28Z</time>
      </trkpt>
      <trkpt lat="43.59209" lon="4.20941">
        <ele>6.87</ele>
        <time>2015-07-13T16:07:48Z</time>
      </trkpt>
      <trkpt lat="43.59209" lon="4.20941">
        <ele>6.87</ele>
        <time>2015-07-13T16:08:04Z</time>
      </trkpt>
      <trkpt lat="43.59209" lon="4.20941">
        <ele>6.39</ele>
        <time>2015-07-13T16:08:24Z</time>
      </trkpt>
      <trkpt lat="43.59209" lon="4.20941">
        <ele>6.87</ele>
        <time>2015-07-13T16:08:41Z</time>
      </trkpt>
      <trkpt lat="43.59209" lon="4.20942">
        <ele>6.39</ele>
        <time>2015-07-13T16:08:59Z</time>
      </trkpt>
      <trkpt lat="43.59208" lon="4.20939">
        <ele>6.39</ele>
        <time>2015-07-13T16:09:12Z</time>
      </trkpt>
      <trkpt lat="43.59212" lon="4.20938">
        <ele>6.87</ele>
        <time>2015-07-13T16:09:22Z</time>
      </trkpt>
      <trkpt lat="43.59209" lon="4.20952">
        <ele>6.87</ele>
        <time>2015-07-13T16:09:34Z</time>
      </trkpt>
      <trkpt lat="43.59201" lon="4.20937">
        <ele>6.87</ele>
        <time>2015-07-13T16:10:00Z</time>
      </trkpt>
      <trkpt lat="43.59194" lon="4.20936">
        <ele>6.87</ele>
        <time>2015-07-13T16:10:29Z</time>
      </trkpt>
      <trkpt lat="43.59208" lon="4.20936">
        <ele>7.35</ele>
        <time>2015-07-13T16:10:48Z</time>
      </trkpt>
      <trkpt lat="43.5922" lon="4.20934">
        <ele>6.87</ele>
        <time>2015-07-13T16:11:12Z</time>
      </trkpt>
      <trkpt lat="43.59223" lon="4.20933">
        <ele>6.87</ele>
        <time>2015-07-13T16:11:35Z</time>
      </trkpt>
      <trkpt lat="43.59228" lon="4.20932">
        <ele>6.87</ele>
        <time>2015-07-13T16:11:58Z</time>
      </trkpt>
      <trkpt lat="43.59233" lon="4.20932">
        <ele>6.87</ele>
        <time>2015-07-13T16:12:19Z</time>
      </trkpt>
      <trkpt lat="43.59233" lon="4.20932">
        <ele>7.35</ele>
        <time>2015-07-13T16:12:39Z</time>
      </trkpt>
      <trkpt lat="43.59233" lon="4.20932">
        <ele>6.87</ele>
        <time>2015-07-13T16:12:58Z</time>
      </trkpt>
      <trkpt lat="43.59237" lon="4.20932">
        <ele>7.35</ele>
        <time>2015-07-13T16:13:20Z</time>
      </trkpt>
      <trkpt lat="43.59232" lon="4.20931">
        <ele>7.83</ele>
        <time>2015-07-13T16:13:35Z</time>
      </trkpt>
      <trkpt lat="43.59222" lon="4.2093">
        <ele>6.87</ele>
        <time>2015-07-13T16:14:01Z</time>
      </trkpt>
      <trkpt lat="43.59225" lon="4.2093">
        <ele>7.83</ele>
        <time>2015-07-13T16:14:25Z</time>
      </trkpt>
      <trkpt lat="43.59231" lon="4.2093">
        <ele>7.35</ele>
        <time>2015-07-13T16:14:43Z</time>
      </trkpt>
      <trkpt lat="43.59243" lon="4.20929">
        <ele>7.35</ele>
        <time>2015-07-13T16:15:05Z</time>
      </trkpt>
      <trkpt lat="43.59249" lon="4.20929">
        <ele>7.35</ele>
        <time>2015-07-13T16:15:27Z</time>
      </trkpt>
      <trkpt lat="43.59255" lon="4.20929">
        <ele>7.83</ele>
        <time>2015-07-13T16:15:50Z</time>
      </trkpt>
      <trkpt lat="43.5926" lon="4.20929">
        <ele>7.35</ele>
        <time>2015-07-13T16:16:06Z</time>
      </trkpt>
      <trkpt lat="43.59269" lon="4.2093">
        <ele>7.35</ele>
        <time>2015-07-13T16:16:23Z</time>
      </trkpt>
      <trkpt lat="43.59281" lon="4.20931">
        <ele>7.83</ele>
        <time>2015-07-13T16:16:44Z</time>
      </trkpt>
      <trkpt lat="43.59241" lon="4.20931">
        <ele>8.31</ele>
        <time>2015-07-13T16:20:04Z</time>
      </trkpt>
      <trkpt lat="43.59224" lon="4.20934">
        <ele>8.31</ele>
        <time>2015-07-13T16:20:15Z</time>
      </trkpt>
      <trkpt lat="43.59236" lon="4.20935">
        <ele>7.83</ele>
        <time>2015-07-13T16:20:23Z</time>
      </trkpt>
      <trkpt lat="43.59264" lon="4.20924">
        <ele>7.83</ele>
        <time>2015-07-13T16:20:34Z</time>
      </trkpt>
      <trkpt lat="43.59309" lon="4.20908">
        <ele>7.83</ele>
        <time>2015-07-13T16:20:47Z</time>
      </trkpt>
      <trkpt lat="43.59349" lon="4.20895">
        <ele>7.83</ele>
        <time>2015-07-13T16:20:58Z</time>
      </trkpt>
      <trkpt lat="43.5939" lon="4.20881">
        <ele>7.83</ele>
        <time>2015-07-13T16:21:09Z</time>
      </trkpt>
      <trkpt lat="43.59448" lon="4.20862">
        <ele>7.83</ele>
        <time>2015-07-13T16:21:23Z</time>
      </trkpt>
      <trkpt lat="43.59511" lon="4.2084">
        <ele>8.31</ele>
        <time>2015-07-13T16:21:38Z</time>
      </trkpt>
      <trkpt lat="43.59581" lon="4.20816">
        <ele>7.35</ele>
        <time>2015-07-13T16:21:54Z</time>
      </trkpt>
      <trkpt lat="43.59657" lon="4.20788">
        <ele>7.83</ele>
        <time>2015-07-13T16:22:11Z</time>
      </trkpt>
      <trkpt lat="43.59737" lon="4.20758">
        <ele>7.35</ele>
        <time>2015-07-13T16:22:29Z</time>
      </trkpt>
      <trkpt lat="43.59773" lon="4.20748">
        <ele>7.35</ele>
        <time>2015-07-13T16:22:37Z</time>
      </trkpt>
      <trkpt lat="43.59803" lon="4.20753">
        <ele>6.39</ele>
        <time>2015-07-13T16:22:43Z</time>
      </trkpt>
      <trkpt lat="43.59808" lon="4.20755">
        <ele>6.87</ele>
        <time>2015-07-13T16:22:44Z</time>
      </trkpt>
      <trkpt lat="43.59812" lon="4.20758">
        <ele>6.87</ele>
        <time>2015-07-13T16:22:45Z</time>
      </trkpt>
      <trkpt lat="43.59865" lon="4.2081">
        <ele>6.39</ele>
        <time>2015-07-13T16:22:57Z</time>
      </trkpt>
      <trkpt lat="43.5992" lon="4.20877">
        <ele>6.39</ele>
        <time>2015-07-13T16:23:10Z</time>
      </trkpt>
      <trkpt lat="43.59976" lon="4.20945">
        <ele>5.91</ele>
        <time>2015-07-13T16:23:24Z</time>
      </trkpt>
      <trkpt lat="43.59983" lon="4.20954">
        <ele>6.87</ele>
        <time>2015-07-13T16:23:26Z</time>
      </trkpt>
      <trkpt lat="43.60036" lon="4.21018">
        <ele>6.39</ele>
        <time>2015-07-13T16:23:40Z</time>
      </trkpt>
      <trkpt lat="43.60095" lon="4.21084">
        <ele>3.98</ele>
        <time>2015-07-13T16:23:55Z</time>
      </trkpt>
      <trkpt lat="43.60112" lon="4.211">
        <ele>7.35</ele>
        <time>2015-07-13T16:23:59Z</time>
      </trkpt>
      <trkpt lat="43.60184" lon="4.21164">
        <ele>7.35</ele>
        <time>2015-07-13T16:24:16Z</time>
      </trkpt>
      <trkpt lat="43.60254" lon="4.21225">
        <ele>6.39</ele>
        <time>2015-07-13T16:24:33Z</time>
      </trkpt>
      <trkpt lat="43.60311" lon="4.21275">
        <ele>6.87</ele>
        <time>2015-07-13T16:24:47Z</time>
      </trkpt>
      <trkpt lat="43.60342" lon="4.213">
        <ele>6.87</ele>
        <time>2015-07-13T16:24:55Z</time>
      </trkpt>
      <trkpt lat="43.60347" lon="4.21302">
        <ele>6.87</ele>
        <time>2015-07-13T16:24:56Z</time>
      </trkpt>
      <trkpt lat="43.60375" lon="4.21316">
        <ele>7.83</ele>
        <time>2015-07-13T16:25:02Z</time>
      </trkpt>
      <trkpt lat="43.60389" lon="4.21321">
        <ele>7.35</ele>
        <time>2015-07-13T16:25:05Z</time>
      </trkpt>
      <trkpt lat="43.60393" lon="4.21323">
        <ele>7.35</ele>
        <time>2015-07-13T16:25:06Z</time>
      </trkpt>
      <trkpt lat="43.60452" lon="4.21352">
        <ele>9.27</ele>
        <time>2015-07-13T16:25:18Z</time>
      </trkpt>
      <trkpt lat="43.60467" lon="4.2136">
        <ele>6.87</ele>
        <time>2015-07-13T16:25:21Z</time>
      </trkpt>
      <trkpt lat="43.60526" lon="4.21392">
        <ele>6.87</ele>
        <time>2015-07-13T16:25:33Z</time>
      </trkpt>
      <trkpt lat="43.6061" lon="4.21429">
        <ele>6.87</ele>
        <time>2015-07-13T16:25:48Z</time>
      </trkpt>
      <trkpt lat="43.60655" lon="4.21432">
        <ele>6.39</ele>
        <time>2015-07-13T16:25:57Z</time>
      </trkpt>
      <trkpt lat="43.60714" lon="4.214">
        <ele>6.87</ele>
        <time>2015-07-13T16:26:10Z</time>
      </trkpt>
      <trkpt lat="43.60744" lon="4.21371">
        <ele>7.83</ele>
        <time>2015-07-13T16:26:18Z</time>
      </trkpt>
      <trkpt lat="43.60787" lon="4.21312">
        <ele>6.39</ele>
        <time>2015-07-13T16:26:29Z</time>
      </trkpt>
      <trkpt lat="43.60843" lon="4.21252">
        <ele>6.87</ele>
        <time>2015-07-13T16:26:44Z</time>
      </trkpt>
      <trkpt lat="43.60907" lon="4.21201">
        <ele>6.39</ele>
        <time>2015-07-13T16:27:00Z</time>
      </trkpt>
      <trkpt lat="43.6096" lon="4.21176">
        <ele>6.87</ele>
        <time>2015-07-13T16:27:12Z</time>
      </trkpt>
      <trkpt lat="43.61008" lon="4.21129">
        <ele>6.39</ele>
        <time>2015-07-13T16:27:24Z</time>
      </trkpt>
      <trkpt lat="43.6106" lon="4.21072">
        <ele>5.91</ele>
        <time>2015-07-13T16:27:38Z</time>
      </trkpt>
      <trkpt lat="43.61104" lon="4.21046">
        <ele>6.39</ele>
        <time>2015-07-13T16:27:50Z</time>
      </trkpt>
      <trkpt lat="43.61136" lon="4.21018">
        <ele>6.39</ele>
        <time>2015-07-13T16:28:01Z</time>
      </trkpt>
      <trkpt lat="43.61131" lon="4.20986">
        <ele>6.39</ele>
        <time>2015-07-13T16:28:09Z</time>
      </trkpt>
      <trkpt lat="43.61129" lon="4.20984">
        <ele>5.91</ele>
        <time>2015-07-13T16:28:17Z</time>
      </trkpt>
      <trkpt lat="43.61128" lon="4.20984">
        <ele>5.91</ele>
        <time>2015-07-13T16:28:35Z</time>
      </trkpt>
      <trkpt lat="43.61129" lon="4.20984">
        <ele>5.91</ele>
        <time>2015-07-13T16:28:47Z</time>
      </trkpt>
      <trkpt lat="43.61127" lon="4.20983">
        <ele>5.91</ele>
        <time>2015-07-13T16:29:03Z</time>
      </trkpt>
      <trkpt lat="43.61126" lon="4.20982">
        <ele>5.91</ele>
        <time>2015-07-13T16:29:16Z</time>
      </trkpt>
      <trkpt lat="43.61126" lon="4.20982">
        <ele>5.42</ele>
        <time>2015-07-13T16:29:30Z</time>
      </trkpt>
      <trkpt lat="43.61124" lon="4.20979">
        <ele>5.42</ele>
        <time>2015-07-13T16:29:43Z</time>
      </trkpt>
      <trkpt lat="43.61112" lon="4.20961">
        <ele>4.46</ele>
        <time>2015-07-13T16:29:51Z</time>
      </trkpt>
      <trkpt lat="43.61109" lon="4.2095">
        <ele>4.94</ele>
        <time>2015-07-13T16:29:56Z</time>
      </trkpt>
      <trkpt lat="43.6111" lon="4.20947">
        <ele>4.94</ele>
        <time>2015-07-13T16:30:03Z</time>
      </trkpt>
    </trkseg>
  </trk>
</gpx>